<?xml version='1.0' encoding='UTF-8'?><gpx version="1.1" creator="JPX - https://github.com/jenetics/jpx" xmlns="http://www.topografix.com/GPX/1/1"><trk><trkseg><trkpt lat="44.37493217401827" lon="11.65795690174338"><ele>74.0</ele><time>2026-03-28T08:37:58Z</time></trkpt><trkpt lat="44.3748865634558" lon="11.658032159387423"><ele>74.0</ele><time>2026-03-28T08:38:07Z</time></trkpt><trkpt lat="44.374822418402864" lon="11.657946427940235"><ele>74.0</ele><time>2026-03-28T08:38:09Z</time></trkpt><trkpt lat="44.374734706279334" lon="11.65790107878368"><ele>74.0</ele><time>2026-03-28T08:38:11Z</time></trkpt><trkpt lat="44.374608137283474" lon="11.657835639740375"><ele>74.0</ele><time>2026-03-28T08:38:13Z</time></trkpt><trkpt lat="44.37452462087662" lon="11.657792459862312"><ele>74.2</ele><time>2026-03-28T08:38:14Z</time></trkpt><trkpt lat="44.374450665928435" lon="11.657754223475491"><ele>74.4</ele><time>2026-03-28T08:38:15Z</time></trkpt><trkpt lat="44.37437165334684" lon="11.657713372177701"><ele>74.6</ele><time>2026-03-28T08:38:16Z</time></trkpt><trkpt lat="44.374282177536685" lon="11.657667111157325"><ele>74.8</ele><time>2026-03-28T08:38:17Z</time></trkpt><trkpt lat="44.37417988382615" lon="11.657614101618261"><ele>75.0</ele><time>2026-03-28T08:38:18Z</time></trkpt><trkpt lat="44.37406431954772" lon="11.657576575247974"><ele>75.0</ele><time>2026-03-28T08:38:19Z</time></trkpt><trkpt lat="44.37394364832586" lon="11.657511818976122"><ele>75.0</ele><time>2026-03-28T08:38:20Z</time></trkpt><trkpt lat="44.37382077479661" lon="11.657442581680982"><ele>75.0</ele><time>2026-03-28T08:38:21Z</time></trkpt><trkpt lat="44.37370310546233" lon="11.657377226202803"><ele>75.0</ele><time>2026-03-28T08:38:22Z</time></trkpt><trkpt lat="44.37358531818658" lon="11.657319039860411"><ele>75.5</ele><time>2026-03-28T08:38:23Z</time></trkpt><trkpt lat="44.37346367381893" lon="11.657259670873364"><ele>76.0</ele><time>2026-03-28T08:38:24Z</time></trkpt><trkpt lat="44.37333503829796" lon="11.657192067258004"><ele>76.5</ele><time>2026-03-28T08:38:25Z</time></trkpt><trkpt lat="44.373202043039676" lon="11.657126508016983"><ele>77.0</ele><time>2026-03-28T08:38:26Z</time></trkpt><trkpt lat="44.37306683769917" lon="11.657056671058358"><ele>76.33333333333334</ele><time>2026-03-28T08:38:27Z</time></trkpt><trkpt lat="44.37292635583615" lon="11.656981278990282"><ele>75.66666666666667</ele><time>2026-03-28T08:38:28Z</time></trkpt><trkpt lat="44.372781330186626" lon="11.65690514281478"><ele>75.0</ele><time>2026-03-28T08:38:29Z</time></trkpt><trkpt lat="44.3726327847531" lon="11.656831166726738"><ele>75.0</ele><time>2026-03-28T08:38:30Z</time></trkpt><trkpt lat="44.372482320141096" lon="11.65676096248464"><ele>75.0</ele><time>2026-03-28T08:38:31Z</time></trkpt><trkpt lat="44.372334149306894" lon="11.656674511092502"><ele>75.0</ele><time>2026-03-28T08:38:32Z</time></trkpt><trkpt lat="44.372185251504014" lon="11.656594484387071"><ele>75.0</ele><time>2026-03-28T08:38:33Z</time></trkpt><trkpt lat="44.37203032835617" lon="11.656518149491404"><ele>75.0</ele><time>2026-03-28T08:38:34Z</time></trkpt><trkpt lat="44.371869081127784" lon="11.656433420662703"><ele>75.0</ele><time>2026-03-28T08:38:35Z</time></trkpt><trkpt lat="44.37170615765594" lon="11.656346093758392"><ele>75.0</ele><time>2026-03-28T08:38:36Z</time></trkpt><trkpt lat="44.37154656309629" lon="11.656263388184158"><ele>75.0</ele><time>2026-03-28T08:38:37Z</time></trkpt><trkpt lat="44.37138981817624" lon="11.656184613132941"><ele>75.0</ele><time>2026-03-28T08:38:38Z</time></trkpt><trkpt lat="44.37122970095862" lon="11.656103982376518"><ele>75.66666666666667</ele><time>2026-03-28T08:38:39Z</time></trkpt><trkpt lat="44.37106633195567" lon="11.656018100372187"><ele>76.33333333333334</ele><time>2026-03-28T08:38:40Z</time></trkpt><trkpt lat="44.37090396041243" lon="11.655937934307477"><ele>77.0</ele><time>2026-03-28T08:38:41Z</time></trkpt><trkpt lat="44.37074008873098" lon="11.655854732574765"><ele>77.0</ele><time>2026-03-28T08:38:42Z</time></trkpt><trkpt lat="44.37057963496852" lon="11.655770714473588"><ele>77.0</ele><time>2026-03-28T08:38:43Z</time></trkpt><trkpt lat="44.37041859354699" lon="11.655687825808482"><ele>77.0</ele><time>2026-03-28T08:38:44Z</time></trkpt><trkpt lat="44.37025572303342" lon="11.655607008732561"><ele>77.66666666666667</ele><time>2026-03-28T08:38:45Z</time></trkpt><trkpt lat="44.37009649904039" lon="11.655523925670538"><ele>78.33333333333333</ele><time>2026-03-28T08:38:46Z</time></trkpt><trkpt lat="44.36993730121946" lon="11.655433397978555"><ele>79.0</ele><time>2026-03-28T08:38:47Z</time></trkpt><trkpt lat="44.36977696320034" lon="11.655332771001637"><ele>79.0</ele><time>2026-03-28T08:38:48Z</time></trkpt><trkpt lat="44.3696160186869" lon="11.655225008728358"><ele>79.0</ele><time>2026-03-28T08:38:49Z</time></trkpt><trkpt lat="44.36945204514221" lon="11.655112173834842"><ele>79.0</ele><time>2026-03-28T08:38:50Z</time></trkpt><trkpt lat="44.36928911897563" lon="11.654992571079333"><ele>79.0</ele><time>2026-03-28T08:38:51Z</time></trkpt><trkpt lat="44.36912921586228" lon="11.654872531113927"><ele>79.0</ele><time>2026-03-28T08:38:52Z</time></trkpt><trkpt lat="44.368970721487834" lon="11.654763735735333"><ele>79.0</ele><time>2026-03-28T08:38:53Z</time></trkpt><trkpt lat="44.36881627260592" lon="11.654656387789636"><ele>79.0</ele><time>2026-03-28T08:38:54Z</time></trkpt><trkpt lat="44.368660767086794" lon="11.65454287920949"><ele>79.0</ele><time>2026-03-28T08:38:55Z</time></trkpt><trkpt lat="44.368505173501404" lon="11.654429457722447"><ele>79.0</ele><time>2026-03-28T08:38:56Z</time></trkpt><trkpt lat="44.36834990239155" lon="11.65431706401513"><ele>78.66666666666666</ele><time>2026-03-28T08:38:57Z</time></trkpt><trkpt lat="44.368197861310925" lon="11.654207403517525"><ele>78.33333333333333</ele><time>2026-03-28T08:38:58Z</time></trkpt><trkpt lat="44.36804497171401" lon="11.654100473186848"><ele>78.0</ele><time>2026-03-28T08:38:59Z</time></trkpt><trkpt lat="44.367892664841676" lon="11.653992204310537"><ele>78.66666666666667</ele><time>2026-03-28T08:39:00Z</time></trkpt><trkpt lat="44.36774113830037" lon="11.653882643856466"><ele>79.33333333333334</ele><time>2026-03-28T08:39:01Z</time></trkpt><trkpt lat="44.367587411274776" lon="11.653772111196659"><ele>80.0</ele><time>2026-03-28T08:39:02Z</time></trkpt><trkpt lat="44.367431823671254" lon="11.653666887478895"><ele>80.0</ele><time>2026-03-28T08:39:03Z</time></trkpt><trkpt lat="44.36726967051302" lon="11.6535535552275"><ele>80.0</ele><time>2026-03-28T08:39:04Z</time></trkpt><trkpt lat="44.367113220122846" lon="11.653441029181913"><ele>80.0</ele><time>2026-03-28T08:39:05Z</time></trkpt><trkpt lat="44.366961757711934" lon="11.653335884344257"><ele>80.33333333333334</ele><time>2026-03-28T08:39:06Z</time></trkpt><trkpt lat="44.36681183536621" lon="11.653228995864268"><ele>80.66666666666667</ele><time>2026-03-28T08:39:07Z</time></trkpt><trkpt lat="44.366664631679946" lon="11.653124808975331"><ele>81.0</ele><time>2026-03-28T08:39:08Z</time></trkpt><trkpt lat="44.36651904039286" lon="11.653022816453838"><ele>81.0</ele><time>2026-03-28T08:39:09Z</time></trkpt><trkpt lat="44.366377349846964" lon="11.652917070352984"><ele>81.0</ele><time>2026-03-28T08:39:10Z</time></trkpt><trkpt lat="44.36623964451244" lon="11.652818491071951"><ele>81.0</ele><time>2026-03-28T08:39:11Z</time></trkpt><trkpt lat="44.36610346762442" lon="11.652721839894053"><ele>81.66666666666667</ele><time>2026-03-28T08:39:12Z</time></trkpt><trkpt lat="44.365966542354215" lon="11.652626674684912"><ele>82.33333333333334</ele><time>2026-03-28T08:39:13Z</time></trkpt><trkpt lat="44.36583251745718" lon="11.652534850228141"><ele>83.0</ele><time>2026-03-28T08:39:14Z</time></trkpt><trkpt lat="44.36569635842815" lon="11.6524391734296"><ele>83.0</ele><time>2026-03-28T08:39:15Z</time></trkpt><trkpt lat="44.36556023309592" lon="11.65234410673958"><ele>83.0</ele><time>2026-03-28T08:39:16Z</time></trkpt><trkpt lat="44.36542387113568" lon="11.652248648068728"><ele>83.0</ele><time>2026-03-28T08:39:17Z</time></trkpt><trkpt lat="44.36528563211443" lon="11.652151039591544"><ele>83.33333333333334</ele><time>2026-03-28T08:39:18Z</time></trkpt><trkpt lat="44.3651462023835" lon="11.652047258286563"><ele>83.66666666666667</ele><time>2026-03-28T08:39:19Z</time></trkpt><trkpt lat="44.36500865908367" lon="11.651944340635161"><ele>84.0</ele><time>2026-03-28T08:39:20Z</time></trkpt><trkpt lat="44.36487226994533" lon="11.651838878647416"><ele>84.0</ele><time>2026-03-28T08:39:21Z</time></trkpt><trkpt lat="44.364737314665916" lon="11.65172829653202"><ele>84.0</ele><time>2026-03-28T08:39:22Z</time></trkpt><trkpt lat="44.36460398165581" lon="11.65161677838559"><ele>84.0</ele><time>2026-03-28T08:39:23Z</time></trkpt><trkpt lat="44.36446741005169" lon="11.651504983785603"><ele>84.0</ele><time>2026-03-28T08:39:24Z</time></trkpt><trkpt lat="44.3643424213808" lon="11.651374739798008"><ele>84.0</ele><time>2026-03-28T08:39:25Z</time></trkpt><trkpt lat="44.364218751658925" lon="11.651245157274115"><ele>84.0</ele><time>2026-03-28T08:39:26Z</time></trkpt><trkpt lat="44.36409573213584" lon="11.651109385353719"><ele>84.33333333333333</ele><time>2026-03-28T08:39:27Z</time></trkpt><trkpt lat="44.36397780141694" lon="11.65095989642467"><ele>84.66666666666666</ele><time>2026-03-28T08:39:28Z</time></trkpt><trkpt lat="44.363862567907525" lon="11.65080665530988"><ele>85.0</ele><time>2026-03-28T08:39:29Z</time></trkpt><trkpt lat="44.36375037677529" lon="11.65064449197404"><ele>84.33333333333333</ele><time>2026-03-28T08:39:30Z</time></trkpt><trkpt lat="44.36364329784359" lon="11.650472660433733"><ele>83.66666666666667</ele><time>2026-03-28T08:39:31Z</time></trkpt><trkpt lat="44.36353880448271" lon="11.65030173532579"><ele>83.0</ele><time>2026-03-28T08:39:32Z</time></trkpt><trkpt lat="44.36344049931188" lon="11.650120073879826"><ele>83.0</ele><time>2026-03-28T08:39:33Z</time></trkpt><trkpt lat="44.36334252158853" lon="11.649935868794417"><ele>83.0</ele><time>2026-03-28T08:39:34Z</time></trkpt><trkpt lat="44.36324707482739" lon="11.649749788014415"><ele>83.0</ele><time>2026-03-28T08:39:35Z</time></trkpt><trkpt lat="44.36315232723403" lon="11.64956730986163"><ele>83.66666666666667</ele><time>2026-03-28T08:39:36Z</time></trkpt><trkpt lat="44.36305982271802" lon="11.649391559651269"><ele>84.33333333333333</ele><time>2026-03-28T08:39:37Z</time></trkpt><trkpt lat="44.36297028719284" lon="11.649218082493505"><ele>85.0</ele><time>2026-03-28T08:39:38Z</time></trkpt><trkpt lat="44.36288424104941" lon="11.649055507737994"><ele>85.0</ele><time>2026-03-28T08:39:39Z</time></trkpt><trkpt lat="44.36280053427592" lon="11.648897493166018"><ele>85.0</ele><time>2026-03-28T08:39:40Z</time></trkpt><trkpt lat="44.36271909422122" lon="11.64874191562666"><ele>85.0</ele><time>2026-03-28T08:39:41Z</time></trkpt><trkpt lat="44.362638672431494" lon="11.64858760232113"><ele>85.0</ele><time>2026-03-28T08:39:42Z</time></trkpt><trkpt lat="44.362557383797196" lon="11.648428160786974"><ele>85.0</ele><time>2026-03-28T08:39:43Z</time></trkpt><trkpt lat="44.36248005745091" lon="11.64827047759424"><ele>85.0</ele><time>2026-03-28T08:39:44Z</time></trkpt><trkpt lat="44.362402186838345" lon="11.648116182050526"><ele>85.0</ele><time>2026-03-28T08:39:45Z</time></trkpt><trkpt lat="44.36232696262536" lon="11.647964223664133"><ele>85.0</ele><time>2026-03-28T08:39:46Z</time></trkpt><trkpt lat="44.36225281152181" lon="11.647820042066451"><ele>84.5</ele><time>2026-03-28T08:39:47Z</time></trkpt><trkpt lat="44.36218129512858" lon="11.64768095266994"><ele>84.0</ele><time>2026-03-28T08:39:48Z</time></trkpt><trkpt lat="44.36211131226393" lon="11.647545080703301"><ele>83.5</ele><time>2026-03-28T08:39:49Z</time></trkpt><trkpt lat="44.362046710261026" lon="11.647413640778028"><ele>83.0</ele><time>2026-03-28T08:39:50Z</time></trkpt><trkpt lat="44.361983951219635" lon="11.647288845723299"><ele>83.0</ele><time>2026-03-28T08:39:51Z</time></trkpt><trkpt lat="44.36192174807797" lon="11.647165676029774"><ele>83.0</ele><time>2026-03-28T08:39:52Z</time></trkpt><trkpt lat="44.36185785385165" lon="11.647043009992966"><ele>83.0</ele><time>2026-03-28T08:39:53Z</time></trkpt><trkpt lat="44.36179056874061" lon="11.646913881930217"><ele>83.0</ele><time>2026-03-28T08:39:54Z</time></trkpt><trkpt lat="44.361726376975106" lon="11.646783588174353"><ele>83.0</ele><time>2026-03-28T08:39:55Z</time></trkpt><trkpt lat="44.36167792397125" lon="11.64668740018411"><ele>83.33333333333334</ele><time>2026-03-28T08:39:56Z</time></trkpt><trkpt lat="44.36162619533662" lon="11.646591908578776"><ele>83.66666666666667</ele><time>2026-03-28T08:39:58Z</time></trkpt><trkpt lat="44.361581582280884" lon="11.646500064798678"><ele>84.0</ele><time>2026-03-28T08:40:02Z</time></trkpt><trkpt lat="44.3615167606221" lon="11.646388318394544"><ele>84.33333333333333</ele><time>2026-03-28T08:40:04Z</time></trkpt><trkpt lat="44.36147606648746" lon="11.646310398085602"><ele>84.66666666666666</ele><time>2026-03-28T08:40:05Z</time></trkpt><trkpt lat="44.36142439421782" lon="11.646206138246823"><ele>85.0</ele><time>2026-03-28T08:40:06Z</time></trkpt><trkpt lat="44.36137268119504" lon="11.646104782592898"><ele>84.75</ele><time>2026-03-28T08:40:07Z</time></trkpt><trkpt lat="44.36131891577782" lon="11.646003608296901"><ele>84.5</ele><time>2026-03-28T08:40:08Z</time></trkpt><trkpt lat="44.36125532533108" lon="11.645884622271005"><ele>84.25</ele><time>2026-03-28T08:40:09Z</time></trkpt><trkpt lat="44.36119499605581" lon="11.645732408180017"><ele>84.0</ele><time>2026-03-28T08:40:10Z</time></trkpt><trkpt lat="44.361117433734925" lon="11.645580474077729"><ele>84.0</ele><time>2026-03-28T08:40:11Z</time></trkpt><trkpt lat="44.36103639508336" lon="11.645422725902911"><ele>84.0</ele><time>2026-03-28T08:40:12Z</time></trkpt><trkpt lat="44.360952857960896" lon="11.645282764578369"><ele>84.0</ele><time>2026-03-28T08:40:13Z</time></trkpt><trkpt lat="44.36087161636605" lon="11.645133330928108"><ele>84.0</ele><time>2026-03-28T08:40:14Z</time></trkpt><trkpt lat="44.36078625881933" lon="11.644964645964805"><ele>84.33333333333333</ele><time>2026-03-28T08:40:15Z</time></trkpt><trkpt lat="44.360695086328576" lon="11.644795170357469"><ele>84.66666666666666</ele><time>2026-03-28T08:40:16Z</time></trkpt><trkpt lat="44.36061437624314" lon="11.644603898625135"><ele>85.0</ele><time>2026-03-28T08:40:17Z</time></trkpt><trkpt lat="44.360520948613406" lon="11.64442150409716"><ele>84.0</ele><time>2026-03-28T08:40:18Z</time></trkpt><trkpt lat="44.360424357849105" lon="11.644232753215192"><ele>83.0</ele><time>2026-03-28T08:40:19Z</time></trkpt><trkpt lat="44.36032690164613" lon="11.644042318294163"><ele>82.0</ele><time>2026-03-28T08:40:20Z</time></trkpt><trkpt lat="44.36021332398674" lon="11.643860047909175"><ele>82.0</ele><time>2026-03-28T08:40:21Z</time></trkpt><trkpt lat="44.36010797542672" lon="11.643653759912667"><ele>82.0</ele><time>2026-03-28T08:40:22Z</time></trkpt><trkpt lat="44.35999769909009" lon="11.643436677019963"><ele>82.0</ele><time>2026-03-28T08:40:23Z</time></trkpt><trkpt lat="44.35988436307251" lon="11.643212080122952"><ele>82.33333333333333</ele><time>2026-03-28T08:40:24Z</time></trkpt><trkpt lat="44.3597795311652" lon="11.64298979923686"><ele>82.66666666666667</ele><time>2026-03-28T08:40:25Z</time></trkpt><trkpt lat="44.359680888155665" lon="11.642771974798286"><ele>83.0</ele><time>2026-03-28T08:40:26Z</time></trkpt><trkpt lat="44.35958649650278" lon="11.642550356240438"><ele>83.0</ele><time>2026-03-28T08:40:27Z</time></trkpt><trkpt lat="44.35949343542851" lon="11.642327842877304"><ele>83.0</ele><time>2026-03-28T08:40:28Z</time></trkpt><trkpt lat="44.35940306235453" lon="11.642103162082904"><ele>83.0</ele><time>2026-03-28T08:40:29Z</time></trkpt><trkpt lat="44.35931838936219" lon="11.641877717858673"><ele>84.0</ele><time>2026-03-28T08:40:30Z</time></trkpt><trkpt lat="44.359233104805284" lon="11.641654231214607"><ele>85.0</ele><time>2026-03-28T08:40:31Z</time></trkpt><trkpt lat="44.359148868302846" lon="11.64143312822138"><ele>86.0</ele><time>2026-03-28T08:40:32Z</time></trkpt><trkpt lat="44.35906738343747" lon="11.641211255165334"><ele>87.0</ele><time>2026-03-28T08:40:33Z</time></trkpt><trkpt lat="44.35898846967558" lon="11.640988866493817"><ele>88.0</ele><time>2026-03-28T08:40:34Z</time></trkpt><trkpt lat="44.358909297865026" lon="11.640767093325177"><ele>89.0</ele><time>2026-03-28T08:40:35Z</time></trkpt><trkpt lat="44.35883440503143" lon="11.640543211569467"><ele>89.0</ele><time>2026-03-28T08:40:36Z</time></trkpt><trkpt lat="44.35876327887356" lon="11.640314097138473"><ele>89.0</ele><time>2026-03-28T08:40:37Z</time></trkpt><trkpt lat="44.35869538058389" lon="11.640085322490096"><ele>89.0</ele><time>2026-03-28T08:40:38Z</time></trkpt><trkpt lat="44.35863418992007" lon="11.639852220240787"><ele>88.66666666666667</ele><time>2026-03-28T08:40:39Z</time></trkpt><trkpt lat="44.35858072931319" lon="11.639618945216654"><ele>88.33333333333333</ele><time>2026-03-28T08:40:40Z</time></trkpt><trkpt lat="44.35853119723543" lon="11.639381590188517"><ele>88.0</ele><time>2026-03-28T08:40:41Z</time></trkpt><trkpt lat="44.358492296055" lon="11.639139969691922"><ele>88.0</ele><time>2026-03-28T08:40:42Z</time></trkpt><trkpt lat="44.358452415367886" lon="11.638888528763406"><ele>88.0</ele><time>2026-03-28T08:40:43Z</time></trkpt><trkpt lat="44.35841309547174" lon="11.638634821786498"><ele>88.0</ele><time>2026-03-28T08:40:44Z</time></trkpt><trkpt lat="44.358377232315874" lon="11.638376036659952"><ele>88.33333333333333</ele><time>2026-03-28T08:40:45Z</time></trkpt><trkpt lat="44.35834072952007" lon="11.638116062996358"><ele>88.66666666666667</ele><time>2026-03-28T08:40:46Z</time></trkpt><trkpt lat="44.35830517969186" lon="11.637852727821805"><ele>89.0</ele><time>2026-03-28T08:40:47Z</time></trkpt><trkpt lat="44.35827039862378" lon="11.637589931797931"><ele>89.33333333333334</ele><time>2026-03-28T08:40:48Z</time></trkpt><trkpt lat="44.358231773470074" lon="11.637326728999765"><ele>89.66666666666667</ele><time>2026-03-28T08:40:49Z</time></trkpt><trkpt lat="44.358190394805476" lon="11.637062137824902"><ele>90.0</ele><time>2026-03-28T08:40:50Z</time></trkpt><trkpt lat="44.35814646269893" lon="11.636796882945164"><ele>90.0</ele><time>2026-03-28T08:40:51Z</time></trkpt><trkpt lat="44.35809961360789" lon="11.63653075827037"><ele>90.0</ele><time>2026-03-28T08:40:52Z</time></trkpt><trkpt lat="44.35804752997675" lon="11.636259536371456"><ele>90.0</ele><time>2026-03-28T08:40:53Z</time></trkpt><trkpt lat="44.35799322537713" lon="11.635991937153445"><ele>90.0</ele><time>2026-03-28T08:40:54Z</time></trkpt><trkpt lat="44.35793748921233" lon="11.635728816471188"><ele>90.0</ele><time>2026-03-28T08:40:55Z</time></trkpt><trkpt lat="44.357880183175034" lon="11.635469112867469"><ele>90.0</ele><time>2026-03-28T08:40:56Z</time></trkpt><trkpt lat="44.35782523158606" lon="11.635214287538536"><ele>91.0</ele><time>2026-03-28T08:40:57Z</time></trkpt><trkpt lat="44.35777141331195" lon="11.634962378698134"><ele>92.0</ele><time>2026-03-28T08:40:58Z</time></trkpt><trkpt lat="44.3577151525128" lon="11.634714152925914"><ele>93.0</ele><time>2026-03-28T08:40:59Z</time></trkpt><trkpt lat="44.357658616686436" lon="11.634467463235875"><ele>93.0</ele><time>2026-03-28T08:41:00Z</time></trkpt><trkpt lat="44.35760675271085" lon="11.634219427369025"><ele>93.0</ele><time>2026-03-28T08:41:01Z</time></trkpt><trkpt lat="44.357550165448764" lon="11.633966361549936"><ele>93.0</ele><time>2026-03-28T08:41:02Z</time></trkpt><trkpt lat="44.35749521126153" lon="11.63370254487256"><ele>94.0</ele><time>2026-03-28T08:41:03Z</time></trkpt><trkpt lat="44.35744028429385" lon="11.633435928225515"><ele>95.0</ele><time>2026-03-28T08:41:04Z</time></trkpt><trkpt lat="44.35737987379137" lon="11.633158717768445"><ele>96.0</ele><time>2026-03-28T08:41:05Z</time></trkpt><trkpt lat="44.35732573641464" lon="11.632897728603782"><ele>95.66666666666667</ele><time>2026-03-28T08:41:06Z</time></trkpt><trkpt lat="44.3572716138829" lon="11.63264027380399"><ele>95.33333333333334</ele><time>2026-03-28T08:41:07Z</time></trkpt><trkpt lat="44.35721514231959" lon="11.632382506569508"><ele>95.0</ele><time>2026-03-28T08:41:08Z</time></trkpt><trkpt lat="44.357158705627675" lon="11.632126174896534"><ele>94.66666666666667</ele><time>2026-03-28T08:41:09Z</time></trkpt><trkpt lat="44.357101267725554" lon="11.631873609106531"><ele>94.33333333333333</ele><time>2026-03-28T08:41:10Z</time></trkpt><trkpt lat="44.35704534359341" lon="11.631625397998263"><ele>94.0</ele><time>2026-03-28T08:41:11Z</time></trkpt><trkpt lat="44.35699312060196" lon="11.631378864597586"><ele>94.0</ele><time>2026-03-28T08:41:12Z</time></trkpt><trkpt lat="44.356944967408765" lon="11.631148700249716"><ele>94.0</ele><time>2026-03-28T08:41:13Z</time></trkpt><trkpt lat="44.35689965044916" lon="11.630938537884647"><ele>94.0</ele><time>2026-03-28T08:41:14Z</time></trkpt><trkpt lat="44.356861383144995" lon="11.630749961206867"><ele>94.4</ele><time>2026-03-28T08:41:15Z</time></trkpt><trkpt lat="44.35682964307314" lon="11.630596186535369"><ele>94.80000000000001</ele><time>2026-03-28T08:41:16Z</time></trkpt><trkpt lat="44.356803804367594" lon="11.630459736260363"><ele>95.19999999999999</ele><time>2026-03-28T08:41:17Z</time></trkpt><trkpt lat="44.35677945920584" lon="11.630330190970055"><ele>95.6</ele><time>2026-03-28T08:41:18Z</time></trkpt><trkpt lat="44.356745601560014" lon="11.63020689661759"><ele>96.0</ele><time>2026-03-28T08:41:19Z</time></trkpt><trkpt lat="44.35670890373553" lon="11.630069491596553"><ele>97.5</ele><time>2026-03-28T08:41:20Z</time></trkpt><trkpt lat="44.35668524381147" lon="11.629907975406704"><ele>99.0</ele><time>2026-03-28T08:41:21Z</time></trkpt><trkpt lat="44.356658830898795" lon="11.629730876601116"><ele>100.5</ele><time>2026-03-28T08:41:22Z</time></trkpt><trkpt lat="44.356629961286764" lon="11.629535865988487"><ele>102.0</ele><time>2026-03-28T08:41:23Z</time></trkpt><trkpt lat="44.35659516219737" lon="11.629345457849032"><ele>102.5</ele><time>2026-03-28T08:41:24Z</time></trkpt><trkpt lat="44.35655616595593" lon="11.629158491425123"><ele>103.0</ele><time>2026-03-28T08:41:25Z</time></trkpt><trkpt lat="44.35650564573721" lon="11.628961560470605"><ele>103.5</ele><time>2026-03-28T08:41:26Z</time></trkpt><trkpt lat="44.35645062099175" lon="11.628755928445822"><ele>104.0</ele><time>2026-03-28T08:41:27Z</time></trkpt><trkpt lat="44.35638735081171" lon="11.628544393029578"><ele>102.66666666666666</ele><time>2026-03-28T08:41:28Z</time></trkpt><trkpt lat="44.356316023704956" lon="11.628327711294038"><ele>101.33333333333334</ele><time>2026-03-28T08:41:29Z</time></trkpt><trkpt lat="44.35624220735171" lon="11.628107172906372"><ele>100.0</ele><time>2026-03-28T08:41:30Z</time></trkpt><trkpt lat="44.35616176100679" lon="11.627882662902932"><ele>99.0</ele><time>2026-03-28T08:41:31Z</time></trkpt><trkpt lat="44.35607746819687" lon="11.627649212927485"><ele>98.0</ele><time>2026-03-28T08:41:32Z</time></trkpt><trkpt lat="44.35599383928863" lon="11.627413557715695"><ele>97.0</ele><time>2026-03-28T08:41:33Z</time></trkpt><trkpt lat="44.355913489882504" lon="11.627187599098457"><ele>97.66666666666667</ele><time>2026-03-28T08:41:34Z</time></trkpt><trkpt lat="44.355831476171936" lon="11.626962835958363"><ele>98.33333333333334</ele><time>2026-03-28T08:41:35Z</time></trkpt><trkpt lat="44.35574645960688" lon="11.626735547908336"><ele>99.0</ele><time>2026-03-28T08:41:36Z</time></trkpt><trkpt lat="44.35566360544638" lon="11.626513520686236"><ele>99.0</ele><time>2026-03-28T08:41:37Z</time></trkpt><trkpt lat="44.355584293960455" lon="11.626291102281513"><ele>99.0</ele><time>2026-03-28T08:41:38Z</time></trkpt><trkpt lat="44.35550861721068" lon="11.626062432063495"><ele>99.0</ele><time>2026-03-28T08:41:39Z</time></trkpt><trkpt lat="44.35543882486571" lon="11.625834131978799"><ele>99.33333333333334</ele><time>2026-03-28T08:41:40Z</time></trkpt><trkpt lat="44.35537174186924" lon="11.62560111304523"><ele>99.66666666666667</ele><time>2026-03-28T08:41:41Z</time></trkpt><trkpt lat="44.35531120517354" lon="11.625366740498185"><ele>100.0</ele><time>2026-03-28T08:41:42Z</time></trkpt><trkpt lat="44.35525234823878" lon="11.62513160650158"><ele>100.0</ele><time>2026-03-28T08:41:43Z</time></trkpt><trkpt lat="44.355197555702304" lon="11.624894234132837"><ele>100.0</ele><time>2026-03-28T08:41:44Z</time></trkpt><trkpt lat="44.35514616051746" lon="11.624655311503364"><ele>100.0</ele><time>2026-03-28T08:41:45Z</time></trkpt><trkpt lat="44.35510076224936" lon="11.62441705872581"><ele>100.0</ele><time>2026-03-28T08:41:46Z</time></trkpt><trkpt lat="44.355056665204025" lon="11.624177989581517"><ele>100.0</ele><time>2026-03-28T08:41:47Z</time></trkpt><trkpt lat="44.35501408533942" lon="11.623933989323058"><ele>100.0</ele><time>2026-03-28T08:41:48Z</time></trkpt><trkpt lat="44.354974701557055" lon="11.623696326872228"><ele>101.33333333333334</ele><time>2026-03-28T08:41:49Z</time></trkpt><trkpt lat="44.354938984707715" lon="11.623463000899536"><ele>102.66666666666666</ele><time>2026-03-28T08:41:50Z</time></trkpt><trkpt lat="44.35490085179646" lon="11.623237358082266"><ele>104.0</ele><time>2026-03-28T08:41:51Z</time></trkpt><trkpt lat="44.35485866566328" lon="11.62302062058041"><ele>104.33333333333333</ele><time>2026-03-28T08:41:52Z</time></trkpt><trkpt lat="44.354804237976595" lon="11.622807305365358"><ele>104.66666666666666</ele><time>2026-03-28T08:41:53Z</time></trkpt><trkpt lat="44.35473404002241" lon="11.622595735297047"><ele>105.0</ele><time>2026-03-28T08:41:54Z</time></trkpt><trkpt lat="44.354650392181" lon="11.622391639770958"><ele>104.0</ele><time>2026-03-28T08:41:55Z</time></trkpt><trkpt lat="44.35456064491263" lon="11.622194490722906"><ele>103.0</ele><time>2026-03-28T08:41:56Z</time></trkpt><trkpt lat="44.354467567534115" lon="11.622004696795447"><ele>102.0</ele><time>2026-03-28T08:41:57Z</time></trkpt><trkpt lat="44.3543787595509" lon="11.621817401273583"><ele>102.0</ele><time>2026-03-28T08:41:58Z</time></trkpt><trkpt lat="44.35429613715455" lon="11.621632137449819"><ele>102.0</ele><time>2026-03-28T08:41:59Z</time></trkpt><trkpt lat="44.354224231677335" lon="11.6214515011876"><ele>102.0</ele><time>2026-03-28T08:42:00Z</time></trkpt><trkpt lat="44.3541688312416" lon="11.621273819683791"><ele>102.0</ele><time>2026-03-28T08:42:01Z</time></trkpt><trkpt lat="44.35412833720949" lon="11.621094713307327"><ele>102.5</ele><time>2026-03-28T08:42:02Z</time></trkpt><trkpt lat="44.35409890326336" lon="11.620906926442023"><ele>103.0</ele><time>2026-03-28T08:42:03Z</time></trkpt><trkpt lat="44.3540815191297" lon="11.620707407068432"><ele>103.5</ele><time>2026-03-28T08:42:04Z</time></trkpt><trkpt lat="44.35406663660088" lon="11.620495938321746"><ele>104.0</ele><time>2026-03-28T08:42:05Z</time></trkpt><trkpt lat="44.35404550963961" lon="11.620280650955173"><ele>104.0</ele><time>2026-03-28T08:42:06Z</time></trkpt><trkpt lat="44.354012575138476" lon="11.620065462921787"><ele>104.0</ele><time>2026-03-28T08:42:07Z</time></trkpt><trkpt lat="44.353970731224955" lon="11.619849506390358"><ele>104.0</ele><time>2026-03-28T08:42:08Z</time></trkpt><trkpt lat="44.35392023503485" lon="11.61963273932516"><ele>103.0</ele><time>2026-03-28T08:42:09Z</time></trkpt><trkpt lat="44.35385410872974" lon="11.619429230777422"><ele>102.0</ele><time>2026-03-28T08:42:10Z</time></trkpt><trkpt lat="44.35378622183457" lon="11.619226929979273"><ele>101.0</ele><time>2026-03-28T08:42:11Z</time></trkpt><trkpt lat="44.35370930222108" lon="11.619037441061945"><ele>101.0</ele><time>2026-03-28T08:42:12Z</time></trkpt><trkpt lat="44.35362408861494" lon="11.61885156238871"><ele>101.0</ele><time>2026-03-28T08:42:13Z</time></trkpt><trkpt lat="44.353534227523404" lon="11.618670910356581"><ele>101.0</ele><time>2026-03-28T08:42:14Z</time></trkpt><trkpt lat="44.35343232279321" lon="11.618499666703002"><ele>102.33333333333333</ele><time>2026-03-28T08:42:15Z</time></trkpt><trkpt lat="44.353320702066945" lon="11.618337767806768"><ele>103.66666666666666</ele><time>2026-03-28T08:42:16Z</time></trkpt><trkpt lat="44.35319892163515" lon="11.618182051496163"><ele>105.0</ele><time>2026-03-28T08:42:17Z</time></trkpt><trkpt lat="44.353067238673646" lon="11.618029858691697"><ele>104.33333333333334</ele><time>2026-03-28T08:42:18Z</time></trkpt><trkpt lat="44.35292266935822" lon="11.61788121421893"><ele>103.66666666666667</ele><time>2026-03-28T08:42:19Z</time></trkpt><trkpt lat="44.35277484695565" lon="11.617738677843365"><ele>103.0</ele><time>2026-03-28T08:42:20Z</time></trkpt><trkpt lat="44.35262590785357" lon="11.617602637801268"><ele>103.0</ele><time>2026-03-28T08:42:21Z</time></trkpt><trkpt lat="44.352477403569395" lon="11.617468105041795"><ele>103.0</ele><time>2026-03-28T08:42:22Z</time></trkpt><trkpt lat="44.35232989239493" lon="11.617332355095229"><ele>103.0</ele><time>2026-03-28T08:42:23Z</time></trkpt><trkpt lat="44.35218854091836" lon="11.617192552071021"><ele>102.33333333333334</ele><time>2026-03-28T08:42:24Z</time></trkpt><trkpt lat="44.3520500387364" lon="11.617043838563049"><ele>101.66666666666666</ele><time>2026-03-28T08:42:25Z</time></trkpt><trkpt lat="44.35191995771691" lon="11.616883749472276"><ele>101.0</ele><time>2026-03-28T08:42:26Z</time></trkpt><trkpt lat="44.35179784160108" lon="11.616713947976445"><ele>101.0</ele><time>2026-03-28T08:42:27Z</time></trkpt><trkpt lat="44.35168264881016" lon="11.616536689531054"><ele>101.0</ele><time>2026-03-28T08:42:28Z</time></trkpt><trkpt lat="44.35158267649477" lon="11.6163468727263"><ele>101.0</ele><time>2026-03-28T08:42:29Z</time></trkpt><trkpt lat="44.35149336726585" lon="11.616149202612457"><ele>101.66666666666666</ele><time>2026-03-28T08:42:30Z</time></trkpt><trkpt lat="44.351416367262765" lon="11.61594049025112"><ele>102.33333333333334</ele><time>2026-03-28T08:42:31Z</time></trkpt><trkpt lat="44.35135227810647" lon="11.615725671993118"><ele>103.0</ele><time>2026-03-28T08:42:32Z</time></trkpt><trkpt lat="44.351300469879746" lon="11.615503770270433"><ele>102.66666666666667</ele><time>2026-03-28T08:42:33Z</time></trkpt><trkpt lat="44.35125799613618" lon="11.615275434455075"><ele>102.33333333333334</ele><time>2026-03-28T08:42:34Z</time></trkpt><trkpt lat="44.35122986864952" lon="11.615043295813614"><ele>102.0</ele><time>2026-03-28T08:42:35Z</time></trkpt><trkpt lat="44.3512151532168" lon="11.614814549859341"><ele>102.0</ele><time>2026-03-28T08:42:36Z</time></trkpt><trkpt lat="44.35121109935809" lon="11.614582662636082"><ele>102.0</ele><time>2026-03-28T08:42:37Z</time></trkpt><trkpt lat="44.35121609622378" lon="11.614348173889146"><ele>102.0</ele><time>2026-03-28T08:42:38Z</time></trkpt><trkpt lat="44.351229152200744" lon="11.614113443333487"><ele>102.0</ele><time>2026-03-28T08:42:39Z</time></trkpt><trkpt lat="44.351243087742766" lon="11.613885245814366"><ele>102.0</ele><time>2026-03-28T08:42:40Z</time></trkpt><trkpt lat="44.3512569688741" lon="11.613663185147626"><ele>102.0</ele><time>2026-03-28T08:42:41Z</time></trkpt><trkpt lat="44.3512705210755" lon="11.613448885371374"><ele>102.0</ele><time>2026-03-28T08:42:42Z</time></trkpt><trkpt lat="44.35128585739241" lon="11.613247609125201"><ele>102.0</ele><time>2026-03-28T08:42:43Z</time></trkpt><trkpt lat="44.35129715527596" lon="11.613056903365152"><ele>102.0</ele><time>2026-03-28T08:42:44Z</time></trkpt><trkpt lat="44.35131011333021" lon="11.612874610912797"><ele>102.0</ele><time>2026-03-28T08:42:45Z</time></trkpt><trkpt lat="44.351320572505486" lon="11.612705566618796"><ele>102.19999999999999</ele><time>2026-03-28T08:42:46Z</time></trkpt><trkpt lat="44.3513292161151" lon="11.612544213409448"><ele>102.4</ele><time>2026-03-28T08:42:47Z</time></trkpt><trkpt lat="44.351337386648446" lon="11.612391933871077"><ele>102.6</ele><time>2026-03-28T08:42:48Z</time></trkpt><trkpt lat="44.35134146194949" lon="11.612258486671296"><ele>102.80000000000001</ele><time>2026-03-28T08:42:49Z</time></trkpt><trkpt lat="44.351345898608024" lon="11.612123303286154"><ele>103.0</ele><time>2026-03-28T08:42:50Z</time></trkpt><trkpt lat="44.351350426876245" lon="11.611979402995404"><ele>104.0</ele><time>2026-03-28T08:42:51Z</time></trkpt><trkpt lat="44.35134779099945" lon="11.611822004632394"><ele>105.0</ele><time>2026-03-28T08:42:52Z</time></trkpt><trkpt lat="44.35133905795099" lon="11.611656749914527"><ele>106.0</ele><time>2026-03-28T08:42:53Z</time></trkpt><trkpt lat="44.35132132505474" lon="11.61148138958499"><ele>107.0</ele><time>2026-03-28T08:42:54Z</time></trkpt><trkpt lat="44.351297955428336" lon="11.611300815984702"><ele>106.75</ele><time>2026-03-28T08:42:55Z</time></trkpt><trkpt lat="44.35127837142518" lon="11.611112046935489"><ele>106.5</ele><time>2026-03-28T08:42:56Z</time></trkpt><trkpt lat="44.35127183237958" lon="11.610928245012712"><ele>106.25</ele><time>2026-03-28T08:42:57Z</time></trkpt><trkpt lat="44.351277260461835" lon="11.610739203238959"><ele>106.0</ele><time>2026-03-28T08:42:58Z</time></trkpt><trkpt lat="44.35129103493215" lon="11.610543665786995"><ele>106.0</ele><time>2026-03-28T08:42:59Z</time></trkpt><trkpt lat="44.35130269522653" lon="11.610340638565305"><ele>106.0</ele><time>2026-03-28T08:43:00Z</time></trkpt><trkpt lat="44.35130750992616" lon="11.610129059326745"><ele>106.0</ele><time>2026-03-28T08:43:01Z</time></trkpt><trkpt lat="44.351302335170175" lon="11.609911975247991"><ele>106.33333333333334</ele><time>2026-03-28T08:43:02Z</time></trkpt><trkpt lat="44.351288896186745" lon="11.609691386528041"><ele>106.66666666666666</ele><time>2026-03-28T08:43:03Z</time></trkpt><trkpt lat="44.35127068152746" lon="11.609470916803852"><ele>107.0</ele><time>2026-03-28T08:43:04Z</time></trkpt><trkpt lat="44.35125244328998" lon="11.609255567282142"><ele>107.33333333333333</ele><time>2026-03-28T08:43:05Z</time></trkpt><trkpt lat="44.351235093979696" lon="11.609040574027583"><ele>107.66666666666666</ele><time>2026-03-28T08:43:06Z</time></trkpt><trkpt lat="44.351214900544115" lon="11.60883166776822"><ele>108.0</ele><time>2026-03-28T08:43:07Z</time></trkpt><trkpt lat="44.351189079053526" lon="11.608624823946865"><ele>108.5</ele><time>2026-03-28T08:43:08Z</time></trkpt><trkpt lat="44.35116322984245" lon="11.608438530596407"><ele>109.0</ele><time>2026-03-28T08:43:09Z</time></trkpt><trkpt lat="44.351134081181435" lon="11.60827404917006"><ele>109.5</ele><time>2026-03-28T08:43:10Z</time></trkpt><trkpt lat="44.351098450652685" lon="11.608120644171445"><ele>110.0</ele><time>2026-03-28T08:43:11Z</time></trkpt><trkpt lat="44.35105502505529" lon="11.60797422051675"><ele>110.0</ele><time>2026-03-28T08:43:12Z</time></trkpt><trkpt lat="44.35100231978824" lon="11.6078388381022"><ele>110.0</ele><time>2026-03-28T08:43:13Z</time></trkpt><trkpt lat="44.35093980807911" lon="11.607727512079936"><ele>110.0</ele><time>2026-03-28T08:43:14Z</time></trkpt><trkpt lat="44.350841222969215" lon="11.607637805250004"><ele>110.0</ele><time>2026-03-28T08:43:15Z</time></trkpt><trkpt lat="44.350752893525225" lon="11.607610552905673"><ele>110.0</ele><time>2026-03-28T08:43:16Z</time></trkpt><trkpt lat="44.35065386934748" lon="11.607573628816603"><ele>110.0</ele><time>2026-03-28T08:43:17Z</time></trkpt><trkpt lat="44.35053212840189" lon="11.607568822620184"><ele>110.0</ele><time>2026-03-28T08:43:18Z</time></trkpt><trkpt lat="44.35041381454298" lon="11.607543406296779"><ele>110.0</ele><time>2026-03-28T08:43:19Z</time></trkpt><trkpt lat="44.350300743965136" lon="11.607508190703655"><ele>110.0</ele><time>2026-03-28T08:43:20Z</time></trkpt><trkpt lat="44.35019508929838" lon="11.607442562298216"><ele>110.0</ele><time>2026-03-28T08:43:21Z</time></trkpt><trkpt lat="44.35009973317488" lon="11.607353921789818"><ele>110.0</ele><time>2026-03-28T08:43:22Z</time></trkpt><trkpt lat="44.350031797398486" lon="11.607221201512967"><ele>110.0</ele><time>2026-03-28T08:43:23Z</time></trkpt><trkpt lat="44.34996541790719" lon="11.607085411402476"><ele>110.0</ele><time>2026-03-28T08:43:24Z</time></trkpt><trkpt lat="44.34991231273927" lon="11.606924726081536"><ele>110.0</ele><time>2026-03-28T08:43:25Z</time></trkpt><trkpt lat="44.3498723093256" lon="11.60674046116085"><ele>110.0</ele><time>2026-03-28T08:43:26Z</time></trkpt><trkpt lat="44.34982458598068" lon="11.606564398976495"><ele>110.0</ele><time>2026-03-28T08:43:27Z</time></trkpt><trkpt lat="44.34979514034321" lon="11.606387138566864"><ele>110.0</ele><time>2026-03-28T08:43:28Z</time></trkpt><trkpt lat="44.34976015163681" lon="11.606197015060529"><ele>110.25</ele><time>2026-03-28T08:43:29Z</time></trkpt><trkpt lat="44.34972758871206" lon="11.606005296657074"><ele>110.5</ele><time>2026-03-28T08:43:30Z</time></trkpt><trkpt lat="44.349701837110736" lon="11.605809589134195"><ele>110.75</ele><time>2026-03-28T08:43:31Z</time></trkpt><trkpt lat="44.34966547271252" lon="11.605618209687101"><ele>111.0</ele><time>2026-03-28T08:43:32Z</time></trkpt><trkpt lat="44.34962199099519" lon="11.605422457710524"><ele>111.66666666666666</ele><time>2026-03-28T08:43:33Z</time></trkpt><trkpt lat="44.34956714637975" lon="11.605224562888294"><ele>112.33333333333333</ele><time>2026-03-28T08:43:34Z</time></trkpt><trkpt lat="44.34950203048955" lon="11.605021950310263"><ele>113.0</ele><time>2026-03-28T08:43:35Z</time></trkpt><trkpt lat="44.34943683403546" lon="11.604819460079305"><ele>113.0</ele><time>2026-03-28T08:43:36Z</time></trkpt><trkpt lat="44.3493717327793" lon="11.604621962559902"><ele>113.0</ele><time>2026-03-28T08:43:37Z</time></trkpt><trkpt lat="44.34931242103256" lon="11.6044282733517"><ele>113.0</ele><time>2026-03-28T08:43:38Z</time></trkpt><trkpt lat="44.349257530362024" lon="11.60424277290213"><ele>113.0</ele><time>2026-03-28T08:43:39Z</time></trkpt><trkpt lat="44.34920951785149" lon="11.604063409038245"><ele>113.0</ele><time>2026-03-28T08:43:40Z</time></trkpt><trkpt lat="44.34917090331025" lon="11.603888010076433"><ele>113.0</ele><time>2026-03-28T08:43:41Z</time></trkpt><trkpt lat="44.34914845780102" lon="11.603714952141443"><ele>113.0</ele><time>2026-03-28T08:43:42Z</time></trkpt><trkpt lat="44.34915303099897" lon="11.603539149386004"><ele>113.25</ele><time>2026-03-28T08:43:43Z</time></trkpt><trkpt lat="44.34917294920105" lon="11.603357580485264"><ele>113.5</ele><time>2026-03-28T08:43:44Z</time></trkpt><trkpt lat="44.34920110890535" lon="11.603181586332575"><ele>113.75</ele><time>2026-03-28T08:43:45Z</time></trkpt><trkpt lat="44.34922838101176" lon="11.60299837707782"><ele>114.0</ele><time>2026-03-28T08:43:46Z</time></trkpt><trkpt lat="44.34925417771284" lon="11.602821466120462"><ele>114.0</ele><time>2026-03-28T08:43:47Z</time></trkpt><trkpt lat="44.349286987475125" lon="11.60264707910581"><ele>114.0</ele><time>2026-03-28T08:43:48Z</time></trkpt><trkpt lat="44.34928872800697" lon="11.602465701572246"><ele>114.0</ele><time>2026-03-28T08:43:49Z</time></trkpt><trkpt lat="44.34927367781575" lon="11.602279910421704"><ele>114.0</ele><time>2026-03-28T08:43:50Z</time></trkpt><trkpt lat="44.349241115374014" lon="11.602092052849127"><ele>114.0</ele><time>2026-03-28T08:43:51Z</time></trkpt><trkpt lat="44.34917955953689" lon="11.601907502954154"><ele>114.0</ele><time>2026-03-28T08:43:52Z</time></trkpt><trkpt lat="44.3490972972347" lon="11.601717513924603"><ele>114.0</ele><time>2026-03-28T08:43:53Z</time></trkpt><trkpt lat="44.34901675886167" lon="11.601535083216973"><ele>114.0</ele><time>2026-03-28T08:43:54Z</time></trkpt><trkpt lat="44.34893394912916" lon="11.60135970367621"><ele>114.0</ele><time>2026-03-28T08:43:55Z</time></trkpt><trkpt lat="44.34885640744331" lon="11.601189622963059"><ele>114.0</ele><time>2026-03-28T08:43:56Z</time></trkpt><trkpt lat="44.348782503973524" lon="11.601027570298156"><ele>114.0</ele><time>2026-03-28T08:43:57Z</time></trkpt><trkpt lat="44.34872125157829" lon="11.600867957651849"><ele>115.25</ele><time>2026-03-28T08:43:58Z</time></trkpt><trkpt lat="44.34866789641319" lon="11.600703382758201"><ele>116.5</ele><time>2026-03-28T08:43:59Z</time></trkpt><trkpt lat="44.348639657761716" lon="11.600520196895134"><ele>117.75</ele><time>2026-03-28T08:44:00Z</time></trkpt><trkpt lat="44.348624326622904" lon="11.600328332977766"><ele>119.0</ele><time>2026-03-28T08:44:01Z</time></trkpt><trkpt lat="44.34862912114443" lon="11.60012637645034"><ele>119.0</ele><time>2026-03-28T08:44:02Z</time></trkpt><trkpt lat="44.348634653187" lon="11.599925441192871"><ele>119.0</ele><time>2026-03-28T08:44:03Z</time></trkpt><trkpt lat="44.34864016248895" lon="11.59972580258165"><ele>119.0</ele><time>2026-03-28T08:44:04Z</time></trkpt><trkpt lat="44.34864048373878" lon="11.599533216050839"><ele>119.0</ele><time>2026-03-28T08:44:05Z</time></trkpt><trkpt lat="44.34864205366721" lon="11.599345015064763"><ele>119.0</ele><time>2026-03-28T08:44:06Z</time></trkpt><trkpt lat="44.34864770336225" lon="11.599163457790064"><ele>119.0</ele><time>2026-03-28T08:44:07Z</time></trkpt><trkpt lat="44.34864064845738" lon="11.598978110657137"><ele>119.0</ele><time>2026-03-28T08:44:08Z</time></trkpt><trkpt lat="44.348619771303014" lon="11.598797584988702"><ele>119.0</ele><time>2026-03-28T08:44:09Z</time></trkpt><trkpt lat="44.34858313085425" lon="11.598621961264723"><ele>117.75</ele><time>2026-03-28T08:44:10Z</time></trkpt><trkpt lat="44.34852687009149" lon="11.59846515213373"><ele>116.5</ele><time>2026-03-28T08:44:11Z</time></trkpt><trkpt lat="44.34845176186043" lon="11.598321035871331"><ele>115.25</ele><time>2026-03-28T08:44:12Z</time></trkpt><trkpt lat="44.34835539384645" lon="11.598200969116776"><ele>114.0</ele><time>2026-03-28T08:44:13Z</time></trkpt><trkpt lat="44.34824295410573" lon="11.59809961390101"><ele>114.0</ele><time>2026-03-28T08:44:14Z</time></trkpt><trkpt lat="44.34811212352844" lon="11.598025303065265"><ele>114.0</ele><time>2026-03-28T08:44:15Z</time></trkpt><trkpt lat="44.34797379603623" lon="11.597967187569116"><ele>114.0</ele><time>2026-03-28T08:44:16Z</time></trkpt><trkpt lat="44.34783118525688" lon="11.597898758358843"><ele>114.0</ele><time>2026-03-28T08:44:17Z</time></trkpt><trkpt lat="44.347695964261746" lon="11.597804367460983"><ele>115.33333333333334</ele><time>2026-03-28T08:44:18Z</time></trkpt><trkpt lat="44.34757193426339" lon="11.5976882231314"><ele>116.66666666666667</ele><time>2026-03-28T08:44:19Z</time></trkpt><trkpt lat="44.34745478717481" lon="11.597543415316759"><ele>118.0</ele><time>2026-03-28T08:44:20Z</time></trkpt><trkpt lat="44.34734407566218" lon="11.59738083616249"><ele>118.0</ele><time>2026-03-28T08:44:21Z</time></trkpt><trkpt lat="44.34723643441662" lon="11.597216873057429"><ele>118.0</ele><time>2026-03-28T08:44:22Z</time></trkpt><trkpt lat="44.347130337357704" lon="11.597053501191466"><ele>118.0</ele><time>2026-03-28T08:44:23Z</time></trkpt><trkpt lat="44.34702821694895" lon="11.596883902874257"><ele>118.0</ele><time>2026-03-28T08:44:24Z</time></trkpt><trkpt lat="44.34693519340975" lon="11.596705679051844"><ele>118.0</ele><time>2026-03-28T08:44:25Z</time></trkpt><trkpt lat="44.346842172510065" lon="11.596521753529155"><ele>118.0</ele><time>2026-03-28T08:44:26Z</time></trkpt><trkpt lat="44.346750801553576" lon="11.596335679484868"><ele>118.0</ele><time>2026-03-28T08:44:27Z</time></trkpt><trkpt lat="44.346660036340914" lon="11.596143440590524"><ele>118.0</ele><time>2026-03-28T08:44:28Z</time></trkpt><trkpt lat="44.34656729243624" lon="11.595948370869479"><ele>118.0</ele><time>2026-03-28T08:44:29Z</time></trkpt><trkpt lat="44.346477941832234" lon="11.595760403713275"><ele>118.0</ele><time>2026-03-28T08:44:30Z</time></trkpt><trkpt lat="44.346386722606496" lon="11.595578732920073"><ele>118.0</ele><time>2026-03-28T08:44:31Z</time></trkpt><trkpt lat="44.34629142316908" lon="11.595396426061981"><ele>118.0</ele><time>2026-03-28T08:44:32Z</time></trkpt><trkpt lat="44.346189587241746" lon="11.59521581840814"><ele>118.66666666666667</ele><time>2026-03-28T08:44:33Z</time></trkpt><trkpt lat="44.346080050960865" lon="11.5950255460917"><ele>119.33333333333334</ele><time>2026-03-28T08:44:34Z</time></trkpt><trkpt lat="44.34596726674476" lon="11.594841611896133"><ele>120.0</ele><time>2026-03-28T08:44:35Z</time></trkpt><trkpt lat="44.34584543329229" lon="11.594664370682018"><ele>121.0</ele><time>2026-03-28T08:44:36Z</time></trkpt><trkpt lat="44.345720003077325" lon="11.594491522348237"><ele>122.0</ele><time>2026-03-28T08:44:37Z</time></trkpt><trkpt lat="44.34559786077553" lon="11.594329032309654"><ele>123.0</ele><time>2026-03-28T08:44:38Z</time></trkpt><trkpt lat="44.34547431507796" lon="11.594163617182092"><ele>123.0</ele><time>2026-03-28T08:44:39Z</time></trkpt><trkpt lat="44.345346974094014" lon="11.593997525687668"><ele>123.0</ele><time>2026-03-28T08:44:40Z</time></trkpt><trkpt lat="44.345220389868096" lon="11.59382707217099"><ele>123.0</ele><time>2026-03-28T08:44:41Z</time></trkpt><trkpt lat="44.345094510127765" lon="11.59366165638808"><ele>124.0</ele><time>2026-03-28T08:44:42Z</time></trkpt><trkpt lat="44.34496653041909" lon="11.593497129989306"><ele>125.0</ele><time>2026-03-28T08:44:43Z</time></trkpt><trkpt lat="44.34484097758449" lon="11.59332879966856"><ele>126.0</ele><time>2026-03-28T08:44:44Z</time></trkpt><trkpt lat="44.344719544918156" lon="11.593154350379102"><ele>124.66666666666666</ele><time>2026-03-28T08:44:45Z</time></trkpt><trkpt lat="44.344605088080705" lon="11.592979553771135"><ele>123.33333333333333</ele><time>2026-03-28T08:44:46Z</time></trkpt><trkpt lat="44.34448510417331" lon="11.592810335660873"><ele>122.0</ele><time>2026-03-28T08:44:47Z</time></trkpt><trkpt lat="44.34435752782253" lon="11.592653774446838"><ele>122.0</ele><time>2026-03-28T08:44:48Z</time></trkpt><trkpt lat="44.34423965991136" lon="11.592504989063817"><ele>122.0</ele><time>2026-03-28T08:44:49Z</time></trkpt><trkpt lat="44.344114908204375" lon="11.592374856554155"><ele>122.0</ele><time>2026-03-28T08:44:50Z</time></trkpt><trkpt lat="44.34398944687941" lon="11.592256337941206"><ele>122.25</ele><time>2026-03-28T08:44:51Z</time></trkpt><trkpt lat="44.34386564923174" lon="11.59215506139794"><ele>122.5</ele><time>2026-03-28T08:44:52Z</time></trkpt><trkpt lat="44.34374954581676" lon="11.592063514146016"><ele>122.75</ele><time>2026-03-28T08:44:53Z</time></trkpt><trkpt lat="44.34364857085483" lon="11.591976478588743"><ele>123.0</ele><time>2026-03-28T08:44:54Z</time></trkpt><trkpt lat="44.343553125299955" lon="11.59190148094377"><ele>123.60000000000001</ele><time>2026-03-28T08:44:55Z</time></trkpt><trkpt lat="44.34345275177094" lon="11.591861860854644"><ele>124.20000000000002</ele><time>2026-03-28T08:44:56Z</time></trkpt><trkpt lat="44.343344053266314" lon="11.59184481822623"><ele>124.8</ele><time>2026-03-28T08:44:57Z</time></trkpt><trkpt lat="44.343229323306446" lon="11.591845378067948"><ele>125.4</ele><time>2026-03-28T08:44:58Z</time></trkpt><trkpt lat="44.343110168424616" lon="11.591852358473027"><ele>126.0</ele><time>2026-03-28T08:44:59Z</time></trkpt><trkpt lat="44.342982709108746" lon="11.591864254263031"><ele>126.0</ele><time>2026-03-28T08:45:00Z</time></trkpt><trkpt lat="44.342855215205226" lon="11.591877782579198"><ele>126.0</ele><time>2026-03-28T08:45:01Z</time></trkpt><trkpt lat="44.34273450476008" lon="11.591877772174108"><ele>126.0</ele><time>2026-03-28T08:45:02Z</time></trkpt><trkpt lat="44.34261961937354" lon="11.591861997052543"><ele>126.0</ele><time>2026-03-28T08:45:03Z</time></trkpt><trkpt lat="44.34251760693647" lon="11.59180819152431"><ele>126.0</ele><time>2026-03-28T08:45:04Z</time></trkpt><trkpt lat="44.34244647383716" lon="11.591704917184494"><ele>126.0</ele><time>2026-03-28T08:45:05Z</time></trkpt><trkpt lat="44.342403333320206" lon="11.591584271248905"><ele>126.0</ele><time>2026-03-28T08:45:06Z</time></trkpt><trkpt lat="44.34239936492694" lon="11.591441677388767"><ele>126.0</ele><time>2026-03-28T08:45:07Z</time></trkpt><trkpt lat="44.3424357422766" lon="11.591311350025657"><ele>126.0</ele><time>2026-03-28T08:45:08Z</time></trkpt><trkpt lat="44.34250627878058" lon="11.591206140614297"><ele>126.0</ele><time>2026-03-28T08:45:09Z</time></trkpt><trkpt lat="44.34259799341921" lon="11.59111084780884"><ele>126.0</ele><time>2026-03-28T08:45:10Z</time></trkpt><trkpt lat="44.34269678378511" lon="11.591027838340803"><ele>126.0</ele><time>2026-03-28T08:45:11Z</time></trkpt><trkpt lat="44.34279537942841" lon="11.5909224161156"><ele>126.0</ele><time>2026-03-28T08:45:12Z</time></trkpt><trkpt lat="44.34289629011187" lon="11.590817448648904"><ele>126.0</ele><time>2026-03-28T08:45:13Z</time></trkpt><trkpt lat="44.342976395986796" lon="11.59068419889848"><ele>126.0</ele><time>2026-03-28T08:45:14Z</time></trkpt><trkpt lat="44.34304782027619" lon="11.590538647113258"><ele>126.0</ele><time>2026-03-28T08:45:15Z</time></trkpt><trkpt lat="44.34309599352615" lon="11.590374123969955"><ele>126.0</ele><time>2026-03-28T08:45:16Z</time></trkpt><trkpt lat="44.34311578373488" lon="11.590202109767551"><ele>126.5</ele><time>2026-03-28T08:45:17Z</time></trkpt><trkpt lat="44.34311628619054" lon="11.590026957429377"><ele>127.0</ele><time>2026-03-28T08:45:18Z</time></trkpt><trkpt lat="44.34309109909999" lon="11.589845692735853"><ele>127.5</ele><time>2026-03-28T08:45:19Z</time></trkpt><trkpt lat="44.343050928598494" lon="11.58965572675875"><ele>128.0</ele><time>2026-03-28T08:45:20Z</time></trkpt><trkpt lat="44.34300767192557" lon="11.589464813710645"><ele>128.0</ele><time>2026-03-28T08:45:21Z</time></trkpt><trkpt lat="44.34296739812861" lon="11.589274162932186"><ele>128.0</ele><time>2026-03-28T08:45:22Z</time></trkpt><trkpt lat="44.342916552395714" lon="11.589091062676609"><ele>128.0</ele><time>2026-03-28T08:45:23Z</time></trkpt><trkpt lat="44.34284327401482" lon="11.588917607179086"><ele>128.0</ele><time>2026-03-28T08:45:24Z</time></trkpt><trkpt lat="44.34274852910986" lon="11.588760265269876"><ele>129.5</ele><time>2026-03-28T08:45:25Z</time></trkpt><trkpt lat="44.34265124460273" lon="11.588618611483952"><ele>131.0</ele><time>2026-03-28T08:45:26Z</time></trkpt><trkpt lat="44.34253516675097" lon="11.58848578525231"><ele>132.5</ele><time>2026-03-28T08:45:27Z</time></trkpt><trkpt lat="44.34241421301575" lon="11.588350767598257"><ele>134.0</ele><time>2026-03-28T08:45:28Z</time></trkpt><trkpt lat="44.34229546592803" lon="11.588214814660857"><ele>134.25</ele><time>2026-03-28T08:45:29Z</time></trkpt><trkpt lat="44.342175206744265" lon="11.588081469375478"><ele>134.5</ele><time>2026-03-28T08:45:30Z</time></trkpt><trkpt lat="44.34206170621403" lon="11.58794920033469"><ele>134.75</ele><time>2026-03-28T08:45:31Z</time></trkpt><trkpt lat="44.34194832121084" lon="11.587819344571885"><ele>135.0</ele><time>2026-03-28T08:45:32Z</time></trkpt><trkpt lat="44.34183379103201" lon="11.58770132694904"><ele>135.0</ele><time>2026-03-28T08:45:33Z</time></trkpt><trkpt lat="44.34171684882571" lon="11.587585545048206"><ele>135.0</ele><time>2026-03-28T08:45:34Z</time></trkpt><trkpt lat="44.341587077218364" lon="11.587482542884386"><ele>135.0</ele><time>2026-03-28T08:45:35Z</time></trkpt><trkpt lat="44.34144373450127" lon="11.587400165606583"><ele>135.0</ele><time>2026-03-28T08:45:36Z</time></trkpt><trkpt lat="44.34129322593258" lon="11.587328941447502"><ele>134.0</ele><time>2026-03-28T08:45:37Z</time></trkpt><trkpt lat="44.34114450444751" lon="11.587257458608654"><ele>133.0</ele><time>2026-03-28T08:45:38Z</time></trkpt><trkpt lat="44.3409843801051" lon="11.587177248904025"><ele>132.0</ele><time>2026-03-28T08:45:39Z</time></trkpt><trkpt lat="44.340828962908994" lon="11.587100457067997"><ele>132.0</ele><time>2026-03-28T08:45:40Z</time></trkpt><trkpt lat="44.34067956962019" lon="11.58701591868811"><ele>132.0</ele><time>2026-03-28T08:45:41Z</time></trkpt><trkpt lat="44.34053716385978" lon="11.586933514966143"><ele>132.0</ele><time>2026-03-28T08:45:42Z</time></trkpt><trkpt lat="44.34040239706484" lon="11.586850841935023"><ele>133.66666666666666</ele><time>2026-03-28T08:45:43Z</time></trkpt><trkpt lat="44.3402680849781" lon="11.586757419144083"><ele>135.33333333333331</ele><time>2026-03-28T08:45:44Z</time></trkpt><trkpt lat="44.340137858593195" lon="11.58663875158503"><ele>137.0</ele><time>2026-03-28T08:45:45Z</time></trkpt><trkpt lat="44.34000220987609" lon="11.586510507095552"><ele>137.0</ele><time>2026-03-28T08:45:46Z</time></trkpt><trkpt lat="44.33986516133284" lon="11.586377384267776"><ele>137.0</ele><time>2026-03-28T08:45:47Z</time></trkpt><trkpt lat="44.3397284167076" lon="11.586240597739426"><ele>137.0</ele><time>2026-03-28T08:45:48Z</time></trkpt><trkpt lat="44.33959588955266" lon="11.586114086626885"><ele>137.0</ele><time>2026-03-28T08:45:49Z</time></trkpt><trkpt lat="44.33946773493812" lon="11.585988533554273"><ele>137.0</ele><time>2026-03-28T08:45:50Z</time></trkpt><trkpt lat="44.33934292553293" lon="11.585864153867291"><ele>137.0</ele><time>2026-03-28T08:45:51Z</time></trkpt><trkpt lat="44.33921479615862" lon="11.585743843866359"><ele>137.0</ele><time>2026-03-28T08:45:52Z</time></trkpt><trkpt lat="44.33909210022179" lon="11.585611625875156"><ele>137.0</ele><time>2026-03-28T08:45:53Z</time></trkpt><trkpt lat="44.33896637676935" lon="11.585488886532437"><ele>137.0</ele><time>2026-03-28T08:45:54Z</time></trkpt><trkpt lat="44.33884465630925" lon="11.585373932174296"><ele>137.0</ele><time>2026-03-28T08:45:55Z</time></trkpt><trkpt lat="44.338722455439616" lon="11.58526992146482"><ele>137.0</ele><time>2026-03-28T08:45:56Z</time></trkpt><trkpt lat="44.33860881372237" lon="11.585153024766797"><ele>137.0</ele><time>2026-03-28T08:45:57Z</time></trkpt><trkpt lat="44.33848418159149" lon="11.585071092191658"><ele>137.0</ele><time>2026-03-28T08:45:58Z</time></trkpt><trkpt lat="44.338384856981484" lon="11.584934436059598"><ele>137.0</ele><time>2026-03-28T08:45:59Z</time></trkpt><trkpt lat="44.33827786033626" lon="11.584812416326402"><ele>137.0</ele><time>2026-03-28T08:46:00Z</time></trkpt><trkpt lat="44.338170559556914" lon="11.584688793746851"><ele>137.0</ele><time>2026-03-28T08:46:01Z</time></trkpt><trkpt lat="44.338042767759795" lon="11.584582665266122"><ele>137.0</ele><time>2026-03-28T08:46:02Z</time></trkpt><trkpt lat="44.33791949511046" lon="11.58446692146639"><ele>138.33333333333331</ele><time>2026-03-28T08:46:03Z</time></trkpt><trkpt lat="44.3378010391311" lon="11.584341164524162"><ele>139.66666666666666</ele><time>2026-03-28T08:46:04Z</time></trkpt><trkpt lat="44.33766541227927" lon="11.584244868071545"><ele>141.0</ele><time>2026-03-28T08:46:05Z</time></trkpt><trkpt lat="44.33752171273394" lon="11.584164927810356"><ele>141.0</ele><time>2026-03-28T08:46:06Z</time></trkpt><trkpt lat="44.3373771411116" lon="11.584108046555865"><ele>141.0</ele><time>2026-03-28T08:46:07Z</time></trkpt><trkpt lat="44.337223042227976" lon="11.584079820003756"><ele>141.0</ele><time>2026-03-28T08:46:08Z</time></trkpt><trkpt lat="44.3370714203575" lon="11.584035997909627"><ele>140.0</ele><time>2026-03-28T08:46:09Z</time></trkpt><trkpt lat="44.3369177460862" lon="11.584016526168261"><ele>139.0</ele><time>2026-03-28T08:46:10Z</time></trkpt><trkpt lat="44.336757181615226" lon="11.584001155315951"><ele>138.0</ele><time>2026-03-28T08:46:11Z</time></trkpt><trkpt lat="44.33659155685865" lon="11.583979197097351"><ele>138.0</ele><time>2026-03-28T08:46:12Z</time></trkpt><trkpt lat="44.33642493209936" lon="11.583954720447236"><ele>138.0</ele><time>2026-03-28T08:46:13Z</time></trkpt><trkpt lat="44.33625868303499" lon="11.583932919923331"><ele>138.0</ele><time>2026-03-28T08:46:14Z</time></trkpt><trkpt lat="44.33609853616642" lon="11.58391331667481"><ele>139.0</ele><time>2026-03-28T08:46:15Z</time></trkpt><trkpt lat="44.335943670195206" lon="11.583895061427045"><ele>140.0</ele><time>2026-03-28T08:46:16Z</time></trkpt><trkpt lat="44.335791807328604" lon="11.583878825799275"><ele>141.0</ele><time>2026-03-28T08:46:17Z</time></trkpt><trkpt lat="44.33564129484346" lon="11.583859889737838"><ele>140.33333333333334</ele><time>2026-03-28T08:46:18Z</time></trkpt><trkpt lat="44.335497481433656" lon="11.58380487806548"><ele>139.66666666666669</ele><time>2026-03-28T08:46:19Z</time></trkpt><trkpt lat="44.33535523074315" lon="11.583746026410486"><ele>139.0</ele><time>2026-03-28T08:46:20Z</time></trkpt><trkpt lat="44.33521024781803" lon="11.583677842641253"><ele>141.0</ele><time>2026-03-28T08:46:21Z</time></trkpt><trkpt lat="44.335067319608626" lon="11.58358641197106"><ele>143.0</ele><time>2026-03-28T08:46:22Z</time></trkpt><trkpt lat="44.334922399210306" lon="11.583489741804753"><ele>145.0</ele><time>2026-03-28T08:46:23Z</time></trkpt><trkpt lat="44.33477892509594" lon="11.583395400247618"><ele>144.33333333333334</ele><time>2026-03-28T08:46:24Z</time></trkpt><trkpt lat="44.33463949571035" lon="11.583304189944501"><ele>143.66666666666666</ele><time>2026-03-28T08:46:25Z</time></trkpt><trkpt lat="44.33449855625889" lon="11.583217656184232"><ele>143.0</ele><time>2026-03-28T08:46:26Z</time></trkpt><trkpt lat="44.33437075940145" lon="11.583105235603808"><ele>143.0</ele><time>2026-03-28T08:46:27Z</time></trkpt><trkpt lat="44.33424085519705" lon="11.583000381207734"><ele>143.0</ele><time>2026-03-28T08:46:28Z</time></trkpt><trkpt lat="44.33410873325914" lon="11.582893494696968"><ele>143.0</ele><time>2026-03-28T08:46:29Z</time></trkpt><trkpt lat="44.33400035295613" lon="11.58276291542078"><ele>143.0</ele><time>2026-03-28T08:46:30Z</time></trkpt><trkpt lat="44.333903344971326" lon="11.582627325710455"><ele>142.25</ele><time>2026-03-28T08:46:31Z</time></trkpt><trkpt lat="44.33380155643585" lon="11.582494083954666"><ele>141.5</ele><time>2026-03-28T08:46:32Z</time></trkpt><trkpt lat="44.333692932120556" lon="11.582366978281001"><ele>140.75</ele><time>2026-03-28T08:46:33Z</time></trkpt><trkpt lat="44.333577601501666" lon="11.582249095633637"><ele>140.0</ele><time>2026-03-28T08:46:34Z</time></trkpt><trkpt lat="44.333445699872705" lon="11.58214645614101"><ele>140.0</ele><time>2026-03-28T08:46:35Z</time></trkpt><trkpt lat="44.33330076200941" lon="11.58206257138241"><ele>140.0</ele><time>2026-03-28T08:46:36Z</time></trkpt><trkpt lat="44.333147964594446" lon="11.581984961030633"><ele>140.0</ele><time>2026-03-28T08:46:37Z</time></trkpt><trkpt lat="44.33299192584725" lon="11.581914360595565"><ele>141.0</ele><time>2026-03-28T08:46:38Z</time></trkpt><trkpt lat="44.332835926461186" lon="11.581848441675696"><ele>142.0</ele><time>2026-03-28T08:46:39Z</time></trkpt><trkpt lat="44.33268149149377" lon="11.581784116089276"><ele>143.0</ele><time>2026-03-28T08:46:40Z</time></trkpt><trkpt lat="44.33252469372504" lon="11.581719726432471"><ele>143.0</ele><time>2026-03-28T08:46:41Z</time></trkpt><trkpt lat="44.332367948652205" lon="11.581658550206193"><ele>143.0</ele><time>2026-03-28T08:46:42Z</time></trkpt><trkpt lat="44.33221196053638" lon="11.581600602695246"><ele>143.0</ele><time>2026-03-28T08:46:43Z</time></trkpt><trkpt lat="44.33206376221441" lon="11.581541173053983"><ele>142.66666666666666</ele><time>2026-03-28T08:46:44Z</time></trkpt><trkpt lat="44.331918933237006" lon="11.581477905252834"><ele>142.33333333333334</ele><time>2026-03-28T08:46:45Z</time></trkpt><trkpt lat="44.33177610550779" lon="11.581406490754771"><ele>142.0</ele><time>2026-03-28T08:46:46Z</time></trkpt><trkpt lat="44.33164025159917" lon="11.581316231789867"><ele>142.0</ele><time>2026-03-28T08:46:47Z</time></trkpt><trkpt lat="44.331510410564405" lon="11.581212664195444"><ele>142.0</ele><time>2026-03-28T08:46:48Z</time></trkpt><trkpt lat="44.33138759126267" lon="11.58109209842403"><ele>142.0</ele><time>2026-03-28T08:46:49Z</time></trkpt><trkpt lat="44.33126216931934" lon="11.580962592592249"><ele>142.0</ele><time>2026-03-28T08:46:50Z</time></trkpt><trkpt lat="44.33113849897151" lon="11.5808239556002"><ele>142.0</ele><time>2026-03-28T08:46:51Z</time></trkpt><trkpt lat="44.33100929237268" lon="11.580683974264774"><ele>142.0</ele><time>2026-03-28T08:46:52Z</time></trkpt><trkpt lat="44.33088586379675" lon="11.580534217192335"><ele>142.0</ele><time>2026-03-28T08:46:53Z</time></trkpt><trkpt lat="44.330752012138994" lon="11.580403418054654"><ele>142.0</ele><time>2026-03-28T08:46:54Z</time></trkpt><trkpt lat="44.33061152474376" lon="11.580292037768183"><ele>142.0</ele><time>2026-03-28T08:46:55Z</time></trkpt><trkpt lat="44.33047940160928" lon="11.580162887620066"><ele>143.66666666666669</ele><time>2026-03-28T08:46:56Z</time></trkpt><trkpt lat="44.33035172257137" lon="11.580034332014753"><ele>145.33333333333334</ele><time>2026-03-28T08:46:57Z</time></trkpt><trkpt lat="44.33022253594462" lon="11.579910153155565"><ele>147.0</ele><time>2026-03-28T08:46:58Z</time></trkpt><trkpt lat="44.33009052618238" lon="11.579785947758273"><ele>147.0</ele><time>2026-03-28T08:46:59Z</time></trkpt><trkpt lat="44.32995959386941" lon="11.579674386646946"><ele>147.0</ele><time>2026-03-28T08:47:00Z</time></trkpt><trkpt lat="44.32983118514631" lon="11.579531915728115"><ele>147.0</ele><time>2026-03-28T08:47:01Z</time></trkpt><trkpt lat="44.32968736883122" lon="11.579413860227298"><ele>146.33333333333334</ele><time>2026-03-28T08:47:02Z</time></trkpt><trkpt lat="44.32954090438454" lon="11.579312070004182"><ele>145.66666666666669</ele><time>2026-03-28T08:47:03Z</time></trkpt><trkpt lat="44.32939719928376" lon="11.579215096167575"><ele>145.0</ele><time>2026-03-28T08:47:04Z</time></trkpt><trkpt lat="44.32925363878067" lon="11.57912022816062"><ele>145.0</ele><time>2026-03-28T08:47:05Z</time></trkpt><trkpt lat="44.32910054839755" lon="11.57904522624168"><ele>145.0</ele><time>2026-03-28T08:47:06Z</time></trkpt><trkpt lat="44.32895614840195" lon="11.578938289393264"><ele>145.0</ele><time>2026-03-28T08:47:07Z</time></trkpt><trkpt lat="44.32880262220788" lon="11.578856827831997"><ele>145.33333333333334</ele><time>2026-03-28T08:47:08Z</time></trkpt><trkpt lat="44.32864876862138" lon="11.578792278852927"><ele>145.66666666666666</ele><time>2026-03-28T08:47:09Z</time></trkpt><trkpt lat="44.32849892288783" lon="11.578761201725596"><ele>146.0</ele><time>2026-03-28T08:47:10Z</time></trkpt><trkpt lat="44.328357424593754" lon="11.578711721527643"><ele>146.0</ele><time>2026-03-28T08:47:11Z</time></trkpt><trkpt lat="44.32821953920894" lon="11.578668707217771"><ele>146.0</ele><time>2026-03-28T08:47:12Z</time></trkpt><trkpt lat="44.32808222964746" lon="11.578604173146696"><ele>146.0</ele><time>2026-03-28T08:47:13Z</time></trkpt><trkpt lat="44.32797649247242" lon="11.578493030472094"><ele>146.0</ele><time>2026-03-28T08:47:14Z</time></trkpt><trkpt lat="44.32787417272666" lon="11.578385312932276"><ele>146.0</ele><time>2026-03-28T08:47:15Z</time></trkpt><trkpt lat="44.327785763140405" lon="11.57826335390428"><ele>146.0</ele><time>2026-03-28T08:47:16Z</time></trkpt><trkpt lat="44.3277068063872" lon="11.578136820969425"><ele>146.0</ele><time>2026-03-28T08:47:17Z</time></trkpt><trkpt lat="44.32761162506699" lon="11.57802908464831"><ele>146.0</ele><time>2026-03-28T08:47:18Z</time></trkpt><trkpt lat="44.32752514677298" lon="11.577916166922346"><ele>146.6</ele><time>2026-03-28T08:47:19Z</time></trkpt><trkpt lat="44.32743562972928" lon="11.577819037723462"><ele>147.2</ele><time>2026-03-28T08:47:20Z</time></trkpt><trkpt lat="44.32734169103578" lon="11.577748812074589"><ele>147.8</ele><time>2026-03-28T08:47:21Z</time></trkpt><trkpt lat="44.32724711696479" lon="11.577683651991117"><ele>148.4</ele><time>2026-03-28T08:47:22Z</time></trkpt><trkpt lat="44.32713817793455" lon="11.577672489763557"><ele>149.0</ele><time>2026-03-28T08:47:23Z</time></trkpt><trkpt lat="44.327020631647954" lon="11.577647146835117"><ele>149.0</ele><time>2026-03-28T08:47:24Z</time></trkpt><trkpt lat="44.326886303934856" lon="11.57763462936486"><ele>149.0</ele><time>2026-03-28T08:47:25Z</time></trkpt><trkpt lat="44.32674946540641" lon="11.577644289369891"><ele>149.0</ele><time>2026-03-28T08:47:26Z</time></trkpt><trkpt lat="44.32660001354062" lon="11.577649061611623"><ele>149.0</ele><time>2026-03-28T08:47:27Z</time></trkpt><trkpt lat="44.32645876923635" lon="11.577679209536033"><ele>149.75</ele><time>2026-03-28T08:47:28Z</time></trkpt><trkpt lat="44.32630780814201" lon="11.577692917240153"><ele>150.5</ele><time>2026-03-28T08:47:29Z</time></trkpt><trkpt lat="44.32615841358287" lon="11.577706960421322"><ele>151.25</ele><time>2026-03-28T08:47:30Z</time></trkpt><trkpt lat="44.3260140808785" lon="11.577722278985203"><ele>152.0</ele><time>2026-03-28T08:47:31Z</time></trkpt><trkpt lat="44.32587839579945" lon="11.577730167240603"><ele>152.0</ele><time>2026-03-28T08:47:32Z</time></trkpt><trkpt lat="44.32574299881435" lon="11.577728890545798"><ele>152.0</ele><time>2026-03-28T08:47:33Z</time></trkpt><trkpt lat="44.325613080871406" lon="11.577700359899561"><ele>152.0</ele><time>2026-03-28T08:47:34Z</time></trkpt><trkpt lat="44.32548873751632" lon="11.577642782769296"><ele>152.0</ele><time>2026-03-28T08:47:35Z</time></trkpt><trkpt lat="44.32537363327887" lon="11.577563703597407"><ele>151.25</ele><time>2026-03-28T08:47:36Z</time></trkpt><trkpt lat="44.325274563099406" lon="11.577439609689797"><ele>150.5</ele><time>2026-03-28T08:47:37Z</time></trkpt><trkpt lat="44.32516763085736" lon="11.577313084447418"><ele>149.75</ele><time>2026-03-28T08:47:38Z</time></trkpt><trkpt lat="44.325048132122944" lon="11.577201079693054"><ele>149.0</ele><time>2026-03-28T08:47:39Z</time></trkpt><trkpt lat="44.32493469854134" lon="11.577065860167414"><ele>150.25</ele><time>2026-03-28T08:47:40Z</time></trkpt><trkpt lat="44.3247918218131" lon="11.577000762247142"><ele>151.5</ele><time>2026-03-28T08:47:41Z</time></trkpt><trkpt lat="44.32465311835468" lon="11.576942474505099"><ele>152.75</ele><time>2026-03-28T08:47:42Z</time></trkpt><trkpt lat="44.324508588094275" lon="11.576912783730613"><ele>154.0</ele><time>2026-03-28T08:47:43Z</time></trkpt><trkpt lat="44.32436642389661" lon="11.576906366013379"><ele>153.5</ele><time>2026-03-28T08:47:44Z</time></trkpt><trkpt lat="44.32422313675702" lon="11.576912255999554"><ele>153.0</ele><time>2026-03-28T08:47:45Z</time></trkpt><trkpt lat="44.324083196382446" lon="11.576930174612325"><ele>152.5</ele><time>2026-03-28T08:47:46Z</time></trkpt><trkpt lat="44.32393885244843" lon="11.576969421373457"><ele>152.0</ele><time>2026-03-28T08:47:47Z</time></trkpt><trkpt lat="44.323802954532724" lon="11.577036178853417"><ele>152.0</ele><time>2026-03-28T08:47:48Z</time></trkpt><trkpt lat="44.32367156347729" lon="11.577125508196634"><ele>152.0</ele><time>2026-03-28T08:47:49Z</time></trkpt><trkpt lat="44.32354422451181" lon="11.577223437108815"><ele>152.0</ele><time>2026-03-28T08:47:50Z</time></trkpt><trkpt lat="44.32341595779104" lon="11.577326130247677"><ele>152.0</ele><time>2026-03-28T08:47:51Z</time></trkpt><trkpt lat="44.323290296500176" lon="11.577428935715314"><ele>152.0</ele><time>2026-03-28T08:47:52Z</time></trkpt><trkpt lat="44.32316293034607" lon="11.577523441359386"><ele>152.0</ele><time>2026-03-28T08:47:53Z</time></trkpt><trkpt lat="44.32303647696221" lon="11.577606976585056"><ele>152.0</ele><time>2026-03-28T08:47:54Z</time></trkpt><trkpt lat="44.322914900856205" lon="11.577653288377348"><ele>152.0</ele><time>2026-03-28T08:47:55Z</time></trkpt><trkpt lat="44.322791366933316" lon="11.577656503260938"><ele>153.25</ele><time>2026-03-28T08:47:56Z</time></trkpt><trkpt lat="44.322668454408294" lon="11.577623032528079"><ele>154.5</ele><time>2026-03-28T08:47:57Z</time></trkpt><trkpt lat="44.32254485425891" lon="11.577559652750107"><ele>155.75</ele><time>2026-03-28T08:47:58Z</time></trkpt><trkpt lat="44.32243870930683" lon="11.577435366096411"><ele>157.0</ele><time>2026-03-28T08:47:59Z</time></trkpt><trkpt lat="44.32233198284198" lon="11.577346654502083"><ele>157.0</ele><time>2026-03-28T08:48:00Z</time></trkpt><trkpt lat="44.322221709632196" lon="11.577233357527465"><ele>157.0</ele><time>2026-03-28T08:48:01Z</time></trkpt><trkpt lat="44.32209911153944" lon="11.57712494214923"><ele>157.0</ele><time>2026-03-28T08:48:02Z</time></trkpt><trkpt lat="44.32197086727464" lon="11.577031799037483"><ele>157.0</ele><time>2026-03-28T08:48:03Z</time></trkpt><trkpt lat="44.32183725444217" lon="11.576958515327812"><ele>157.0</ele><time>2026-03-28T08:48:04Z</time></trkpt><trkpt lat="44.321696159784985" lon="11.576888638354662"><ele>157.0</ele><time>2026-03-28T08:48:05Z</time></trkpt><trkpt lat="44.32154438078094" lon="11.576819534397064"><ele>157.0</ele><time>2026-03-28T08:48:06Z</time></trkpt><trkpt lat="44.32139424578463" lon="11.576749172329404"><ele>157.0</ele><time>2026-03-28T08:48:07Z</time></trkpt><trkpt lat="44.32124268819441" lon="11.576675899781938"><ele>157.0</ele><time>2026-03-28T08:48:08Z</time></trkpt><trkpt lat="44.321087020019796" lon="11.57660075945156"><ele>157.0</ele><time>2026-03-28T08:48:09Z</time></trkpt><trkpt lat="44.32092866516627" lon="11.576533346208535"><ele>157.0</ele><time>2026-03-28T08:48:10Z</time></trkpt><trkpt lat="44.320769635009036" lon="11.576459500959672"><ele>157.0</ele><time>2026-03-28T08:48:11Z</time></trkpt><trkpt lat="44.320619498759385" lon="11.576389241126117"><ele>157.0</ele><time>2026-03-28T08:48:12Z</time></trkpt><trkpt lat="44.32047173345727" lon="11.57631584346174"><ele>157.66666666666669</ele><time>2026-03-28T08:48:13Z</time></trkpt><trkpt lat="44.32032652029481" lon="11.576251212608843"><ele>158.33333333333334</ele><time>2026-03-28T08:48:14Z</time></trkpt><trkpt lat="44.320182820428975" lon="11.576179631525909"><ele>159.0</ele><time>2026-03-28T08:48:15Z</time></trkpt><trkpt lat="44.32004387671765" lon="11.576104161550461"><ele>159.5</ele><time>2026-03-28T08:48:16Z</time></trkpt><trkpt lat="44.31991199080454" lon="11.57601907786935"><ele>160.0</ele><time>2026-03-28T08:48:17Z</time></trkpt><trkpt lat="44.31978951870065" lon="11.575929302730593"><ele>160.5</ele><time>2026-03-28T08:48:18Z</time></trkpt><trkpt lat="44.31966751663242" lon="11.575850152729398"><ele>161.0</ele><time>2026-03-28T08:48:19Z</time></trkpt><trkpt lat="44.31954222446909" lon="11.575777822502095"><ele>161.0</ele><time>2026-03-28T08:48:20Z</time></trkpt><trkpt lat="44.319407201427886" lon="11.575724989769991"><ele>161.0</ele><time>2026-03-28T08:48:21Z</time></trkpt><trkpt lat="44.31926501612568" lon="11.575692270205108"><ele>161.0</ele><time>2026-03-28T08:48:22Z</time></trkpt><trkpt lat="44.31912749956458" lon="11.575671644075298"><ele>161.0</ele><time>2026-03-28T08:48:23Z</time></trkpt><trkpt lat="44.31899568096951" lon="11.575654207176319"><ele>161.75</ele><time>2026-03-28T08:48:24Z</time></trkpt><trkpt lat="44.3188647478255" lon="11.575626719650138"><ele>162.5</ele><time>2026-03-28T08:48:25Z</time></trkpt><trkpt lat="44.318737899375726" lon="11.575573111379866"><ele>163.25</ele><time>2026-03-28T08:48:26Z</time></trkpt><trkpt lat="44.318615318840926" lon="11.57551237904351"><ele>164.0</ele><time>2026-03-28T08:48:27Z</time></trkpt><trkpt lat="44.318506277486264" lon="11.575424520889216"><ele>164.5</ele><time>2026-03-28T08:48:28Z</time></trkpt><trkpt lat="44.31840414427523" lon="11.575311937109753"><ele>165.0</ele><time>2026-03-28T08:48:29Z</time></trkpt><trkpt lat="44.31830894279303" lon="11.57517969714226"><ele>165.5</ele><time>2026-03-28T08:48:30Z</time></trkpt><trkpt lat="44.318222587954416" lon="11.575024930829265"><ele>166.0</ele><time>2026-03-28T08:48:31Z</time></trkpt><trkpt lat="44.3181304232163" lon="11.574856588674926"><ele>167.0</ele><time>2026-03-28T08:48:32Z</time></trkpt><trkpt lat="44.318030240524344" lon="11.574684609091848"><ele>168.0</ele><time>2026-03-28T08:48:33Z</time></trkpt><trkpt lat="44.31792683783216" lon="11.574507497126236"><ele>169.0</ele><time>2026-03-28T08:48:34Z</time></trkpt><trkpt lat="44.317821747500005" lon="11.574329947504143"><ele>169.0</ele><time>2026-03-28T08:48:35Z</time></trkpt><trkpt lat="44.317720423710625" lon="11.574157510340406"><ele>169.0</ele><time>2026-03-28T08:48:36Z</time></trkpt><trkpt lat="44.31762269029693" lon="11.57399582576828"><ele>169.0</ele><time>2026-03-28T08:48:37Z</time></trkpt><trkpt lat="44.317535383637235" lon="11.573830374562087"><ele>168.25</ele><time>2026-03-28T08:48:38Z</time></trkpt><trkpt lat="44.31745846887043" lon="11.57366269368034"><ele>167.5</ele><time>2026-03-28T08:48:39Z</time></trkpt><trkpt lat="44.317391435872764" lon="11.573492502537698"><ele>166.75</ele><time>2026-03-28T08:48:40Z</time></trkpt><trkpt lat="44.3173482815796" lon="11.573318662537263"><ele>166.0</ele><time>2026-03-28T08:48:41Z</time></trkpt><trkpt lat="44.317340383172905" lon="11.573130937106049"><ele>166.0</ele><time>2026-03-28T08:48:42Z</time></trkpt><trkpt lat="44.31733754846365" lon="11.572951979010963"><ele>166.0</ele><time>2026-03-28T08:48:43Z</time></trkpt><trkpt lat="44.31733107951593" lon="11.57277899761831"><ele>166.0</ele><time>2026-03-28T08:48:44Z</time></trkpt><trkpt lat="44.31734143433047" lon="11.57261904634003"><ele>166.0</ele><time>2026-03-28T08:48:45Z</time></trkpt><trkpt lat="44.31734594049427" lon="11.572467541778288"><ele>166.0</ele><time>2026-03-28T08:48:46Z</time></trkpt><trkpt lat="44.317343095500085" lon="11.572324262868277"><ele>166.0</ele><time>2026-03-28T08:48:47Z</time></trkpt><trkpt lat="44.31733125956424" lon="11.572181407963136"><ele>166.0</ele><time>2026-03-28T08:48:48Z</time></trkpt><trkpt lat="44.31734168774448" lon="11.5720575794256"><ele>166.0</ele><time>2026-03-28T08:48:49Z</time></trkpt><trkpt lat="44.31724455736729" lon="11.571940316117033"><ele>166.0</ele><time>2026-03-28T08:48:50Z</time></trkpt><trkpt lat="44.31713783231605" lon="11.571852289661528"><ele>167.75</ele><time>2026-03-28T08:48:51Z</time></trkpt><trkpt lat="44.31702764367111" lon="11.571778949963072"><ele>169.5</ele><time>2026-03-28T08:48:52Z</time></trkpt><trkpt lat="44.31691598991597" lon="11.57170399951924"><ele>171.25</ele><time>2026-03-28T08:48:53Z</time></trkpt><trkpt lat="44.31680387322654" lon="11.57161747945899"><ele>173.0</ele><time>2026-03-28T08:48:54Z</time></trkpt><trkpt lat="44.31670099147205" lon="11.571514491125072"><ele>173.0</ele><time>2026-03-28T08:48:55Z</time></trkpt><trkpt lat="44.31662050122758" lon="11.571371336714368"><ele>173.0</ele><time>2026-03-28T08:48:56Z</time></trkpt><trkpt lat="44.316538417094584" lon="11.571197235479561"><ele>173.0</ele><time>2026-03-28T08:48:57Z</time></trkpt><trkpt lat="44.31648194728249" lon="11.5710290956508"><ele>173.0</ele><time>2026-03-28T08:48:58Z</time></trkpt><trkpt lat="44.31641908925338" lon="11.570859864636164"><ele>172.75</ele><time>2026-03-28T08:48:59Z</time></trkpt><trkpt lat="44.3163559162891" lon="11.570690549544674"><ele>172.5</ele><time>2026-03-28T08:49:00Z</time></trkpt><trkpt lat="44.31628877113263" lon="11.570526427939017"><ele>172.25</ele><time>2026-03-28T08:49:01Z</time></trkpt><trkpt lat="44.31622277145494" lon="11.570364181763013"><ele>172.0</ele><time>2026-03-28T08:49:02Z</time></trkpt><trkpt lat="44.31617648161453" lon="11.57018982370278"><ele>172.0</ele><time>2026-03-28T08:49:03Z</time></trkpt><trkpt lat="44.316127920919435" lon="11.570012273442268"><ele>172.0</ele><time>2026-03-28T08:49:04Z</time></trkpt><trkpt lat="44.31607529656459" lon="11.569832691257252"><ele>172.0</ele><time>2026-03-28T08:49:05Z</time></trkpt><trkpt lat="44.3160179571268" lon="11.569646560033165"><ele>172.0</ele><time>2026-03-28T08:49:06Z</time></trkpt><trkpt lat="44.31594430071463" lon="11.569468147862862"><ele>170.66666666666669</ele><time>2026-03-28T08:49:07Z</time></trkpt><trkpt lat="44.315856000918444" lon="11.569292774987865"><ele>169.33333333333334</ele><time>2026-03-28T08:49:08Z</time></trkpt><trkpt lat="44.315766566027435" lon="11.569115810810349"><ele>168.0</ele><time>2026-03-28T08:49:09Z</time></trkpt><trkpt lat="44.31567678377703" lon="11.568935940193704"><ele>168.0</ele><time>2026-03-28T08:49:10Z</time></trkpt><trkpt lat="44.315585887430544" lon="11.568750401596816"><ele>168.0</ele><time>2026-03-28T08:49:11Z</time></trkpt><trkpt lat="44.315495414790384" lon="11.568562214157717"><ele>168.0</ele><time>2026-03-28T08:49:12Z</time></trkpt><trkpt lat="44.31540837764619" lon="11.568373091986885"><ele>168.33333333333334</ele><time>2026-03-28T08:49:13Z</time></trkpt><trkpt lat="44.31532386875788" lon="11.56819063300982"><ele>168.66666666666669</ele><time>2026-03-28T08:49:14Z</time></trkpt><trkpt lat="44.31524139294253" lon="11.568012418616886"><ele>169.0</ele><time>2026-03-28T08:49:15Z</time></trkpt><trkpt lat="44.31515947778356" lon="11.567838722015505"><ele>169.0</ele><time>2026-03-28T08:49:16Z</time></trkpt><trkpt lat="44.315073752105036" lon="11.56766791019141"><ele>169.0</ele><time>2026-03-28T08:49:17Z</time></trkpt><trkpt lat="44.314993429958385" lon="11.567496554439671"><ele>169.0</ele><time>2026-03-28T08:49:18Z</time></trkpt><trkpt lat="44.314922328834015" lon="11.567323721087368"><ele>169.0</ele><time>2026-03-28T08:49:19Z</time></trkpt><trkpt lat="44.31487304094144" lon="11.567137641025589"><ele>169.75</ele><time>2026-03-28T08:49:20Z</time></trkpt><trkpt lat="44.31485234789388" lon="11.566946130758863"><ele>170.5</ele><time>2026-03-28T08:49:21Z</time></trkpt><trkpt lat="44.31484779458495" lon="11.566761556157758"><ele>171.25</ele><time>2026-03-28T08:49:22Z</time></trkpt><trkpt lat="44.31486365958283" lon="11.566577736648076"><ele>172.0</ele><time>2026-03-28T08:49:23Z</time></trkpt><trkpt lat="44.31489888953397" lon="11.56640000744239"><ele>172.0</ele><time>2026-03-28T08:49:24Z</time></trkpt><trkpt lat="44.31494630067806" lon="11.566215083681563"><ele>172.0</ele><time>2026-03-28T08:49:25Z</time></trkpt><trkpt lat="44.314999637397484" lon="11.56602092814748"><ele>172.0</ele><time>2026-03-28T08:49:26Z</time></trkpt><trkpt lat="44.31505269932154" lon="11.565821908869182"><ele>172.0</ele><time>2026-03-28T08:49:27Z</time></trkpt><trkpt lat="44.315104513940184" lon="11.56562159055182"><ele>172.33333333333334</ele><time>2026-03-28T08:49:28Z</time></trkpt><trkpt lat="44.315157905851436" lon="11.565424365359737"><ele>172.66666666666666</ele><time>2026-03-28T08:49:29Z</time></trkpt><trkpt lat="44.315207105704616" lon="11.565223134258556"><ele>173.0</ele><time>2026-03-28T08:49:30Z</time></trkpt><trkpt lat="44.31525246512588" lon="11.565014163845113"><ele>173.66666666666666</ele><time>2026-03-28T08:49:31Z</time></trkpt><trkpt lat="44.31529245273309" lon="11.564800144501776"><ele>174.33333333333334</ele><time>2026-03-28T08:49:32Z</time></trkpt><trkpt lat="44.31533089074244" lon="11.56458023436113"><ele>175.0</ele><time>2026-03-28T08:49:33Z</time></trkpt><trkpt lat="44.31536659181138" lon="11.56435699237431"><ele>176.66666666666669</ele><time>2026-03-28T08:49:34Z</time></trkpt><trkpt lat="44.31540329288335" lon="11.564131442877848"><ele>178.33333333333334</ele><time>2026-03-28T08:49:35Z</time></trkpt><trkpt lat="44.31544363519896" lon="11.563907770732593"><ele>180.0</ele><time>2026-03-28T08:49:36Z</time></trkpt><trkpt lat="44.31548212318046" lon="11.563680396877267"><ele>180.66666666666666</ele><time>2026-03-28T08:49:37Z</time></trkpt><trkpt lat="44.31552181614726" lon="11.563458576492"><ele>181.33333333333331</ele><time>2026-03-28T08:49:38Z</time></trkpt><trkpt lat="44.31555915442424" lon="11.56323483300282"><ele>182.0</ele><time>2026-03-28T08:49:39Z</time></trkpt><trkpt lat="44.315595688655215" lon="11.563010796551557"><ele>179.66666666666666</ele><time>2026-03-28T08:49:40Z</time></trkpt><trkpt lat="44.31563212691966" lon="11.562786806606828"><ele>177.33333333333334</ele><time>2026-03-28T08:49:41Z</time></trkpt><trkpt lat="44.31567142201183" lon="11.562570743943759"><ele>175.0</ele><time>2026-03-28T08:49:42Z</time></trkpt><trkpt lat="44.31570880182135" lon="11.562350246693542"><ele>175.0</ele><time>2026-03-28T08:49:43Z</time></trkpt><trkpt lat="44.31574166287263" lon="11.562133177939883"><ele>175.0</ele><time>2026-03-28T08:49:44Z</time></trkpt><trkpt lat="44.315774065200756" lon="11.561921632507982"><ele>175.0</ele><time>2026-03-28T08:49:45Z</time></trkpt><trkpt lat="44.31580552308497" lon="11.561712113759905"><ele>175.0</ele><time>2026-03-28T08:49:46Z</time></trkpt><trkpt lat="44.31582202797108" lon="11.56150253560604"><ele>175.0</ele><time>2026-03-28T08:49:47Z</time></trkpt><trkpt lat="44.315820277249344" lon="11.561296068311018"><ele>175.0</ele><time>2026-03-28T08:49:48Z</time></trkpt><trkpt lat="44.315810085790005" lon="11.561077294340972"><ele>176.0</ele><time>2026-03-28T08:49:49Z</time></trkpt><trkpt lat="44.3157861109993" lon="11.560852628087828"><ele>177.0</ele><time>2026-03-28T08:49:50Z</time></trkpt><trkpt lat="44.31575496869623" lon="11.560619712541925"><ele>178.0</ele><time>2026-03-28T08:49:51Z</time></trkpt><trkpt lat="44.31571544449523" lon="11.56038668484583"><ele>177.66666666666669</ele><time>2026-03-28T08:49:52Z</time></trkpt><trkpt lat="44.31567786491904" lon="11.560147625087268"><ele>177.33333333333334</ele><time>2026-03-28T08:49:53Z</time></trkpt><trkpt lat="44.31564588272733" lon="11.559912380442283"><ele>177.0</ele><time>2026-03-28T08:49:54Z</time></trkpt><trkpt lat="44.31561077492282" lon="11.559676846986344"><ele>177.66666666666666</ele><time>2026-03-28T08:49:55Z</time></trkpt><trkpt lat="44.315578188533244" lon="11.559449155670356"><ele>178.33333333333331</ele><time>2026-03-28T08:49:56Z</time></trkpt><trkpt lat="44.3155414076636" lon="11.559224341143826"><ele>179.0</ele><time>2026-03-28T08:49:57Z</time></trkpt><trkpt lat="44.31549529048372" lon="11.55900610044392"><ele>180.33333333333331</ele><time>2026-03-28T08:49:58Z</time></trkpt><trkpt lat="44.315437146686136" lon="11.558793698374682"><ele>181.66666666666666</ele><time>2026-03-28T08:49:59Z</time></trkpt><trkpt lat="44.31536288701565" lon="11.558593866941791"><ele>183.0</ele><time>2026-03-28T08:50:00Z</time></trkpt><trkpt lat="44.315278081260985" lon="11.558398287510139"><ele>183.0</ele><time>2026-03-28T08:50:01Z</time></trkpt><trkpt lat="44.31518450564448" lon="11.558199849537104"><ele>183.0</ele><time>2026-03-28T08:50:02Z</time></trkpt><trkpt lat="44.31508453289648" lon="11.558002033523879"><ele>183.0</ele><time>2026-03-28T08:50:03Z</time></trkpt><trkpt lat="44.314982847353384" lon="11.55780195583327"><ele>183.33333333333334</ele><time>2026-03-28T08:50:04Z</time></trkpt><trkpt lat="44.314879411585856" lon="11.557601811429356"><ele>183.66666666666669</ele><time>2026-03-28T08:50:05Z</time></trkpt><trkpt lat="44.3147780730418" lon="11.55739813409098"><ele>184.0</ele><time>2026-03-28T08:50:06Z</time></trkpt><trkpt lat="44.3146741132209" lon="11.557194621509382"><ele>185.0</ele><time>2026-03-28T08:50:07Z</time></trkpt><trkpt lat="44.314569226383085" lon="11.556991790551125"><ele>186.0</ele><time>2026-03-28T08:50:08Z</time></trkpt><trkpt lat="44.31446875287468" lon="11.556790480085956"><ele>187.0</ele><time>2026-03-28T08:50:09Z</time></trkpt><trkpt lat="44.31436489632494" lon="11.556593838036928"><ele>187.0</ele><time>2026-03-28T08:50:10Z</time></trkpt><trkpt lat="44.31426303256742" lon="11.556394241589329"><ele>187.0</ele><time>2026-03-28T08:50:11Z</time></trkpt><trkpt lat="44.314158967144834" lon="11.556193149500238"><ele>187.0</ele><time>2026-03-28T08:50:12Z</time></trkpt><trkpt lat="44.314053445352435" lon="11.555986580133014"><ele>187.0</ele><time>2026-03-28T08:50:13Z</time></trkpt><trkpt lat="44.31394369422719" lon="11.555777341301667"><ele>187.0</ele><time>2026-03-28T08:50:14Z</time></trkpt><trkpt lat="44.31383853737959" lon="11.555569703357667"><ele>187.0</ele><time>2026-03-28T08:50:15Z</time></trkpt><trkpt lat="44.31373529440103" lon="11.55536777897352"><ele>187.0</ele><time>2026-03-28T08:50:16Z</time></trkpt><trkpt lat="44.31363807689136" lon="11.555171102091764"><ele>187.0</ele><time>2026-03-28T08:50:17Z</time></trkpt><trkpt lat="44.31354592439958" lon="11.554982275994066"><ele>187.0</ele><time>2026-03-28T08:50:18Z</time></trkpt><trkpt lat="44.313452116533696" lon="11.55480514749573"><ele>187.0</ele><time>2026-03-28T08:50:19Z</time></trkpt><trkpt lat="44.31335334030188" lon="11.554631867272107"><ele>187.0</ele><time>2026-03-28T08:50:20Z</time></trkpt><trkpt lat="44.31323807734613" lon="11.554476209766168"><ele>187.0</ele><time>2026-03-28T08:50:21Z</time></trkpt><trkpt lat="44.31310874701753" lon="11.55434878763209"><ele>188.33333333333334</ele><time>2026-03-28T08:50:22Z</time></trkpt><trkpt lat="44.31297319528352" lon="11.554242322603073"><ele>189.66666666666666</ele><time>2026-03-28T08:50:23Z</time></trkpt><trkpt lat="44.31282765409037" lon="11.554155836951338"><ele>191.0</ele><time>2026-03-28T08:50:24Z</time></trkpt><trkpt lat="44.31268074765626" lon="11.554095316467764"><ele>191.0</ele><time>2026-03-28T08:50:25Z</time></trkpt><trkpt lat="44.31253845280891" lon="11.55405734371894"><ele>191.0</ele><time>2026-03-28T08:50:26Z</time></trkpt><trkpt lat="44.312394167468845" lon="11.554046263119597"><ele>191.0</ele><time>2026-03-28T08:50:27Z</time></trkpt><trkpt lat="44.312248557979956" lon="11.554057099629796"><ele>191.0</ele><time>2026-03-28T08:50:28Z</time></trkpt><trkpt lat="44.312108963406274" lon="11.554050835677446"><ele>191.5</ele><time>2026-03-28T08:50:29Z</time></trkpt><trkpt lat="44.31197508269444" lon="11.55405930978069"><ele>192.0</ele><time>2026-03-28T08:50:30Z</time></trkpt><trkpt lat="44.31184359882829" lon="11.554074395532103"><ele>192.5</ele><time>2026-03-28T08:50:31Z</time></trkpt><trkpt lat="44.31171884046352" lon="11.554045262782195"><ele>193.0</ele><time>2026-03-28T08:50:32Z</time></trkpt><trkpt lat="44.31160296396566" lon="11.553969540396782"><ele>193.0</ele><time>2026-03-28T08:50:33Z</time></trkpt><trkpt lat="44.31148425174113" lon="11.553911964559026"><ele>193.0</ele><time>2026-03-28T08:50:34Z</time></trkpt><trkpt lat="44.311374647169814" lon="11.553807820017251"><ele>193.0</ele><time>2026-03-28T08:50:35Z</time></trkpt><trkpt lat="44.31128449785985" lon="11.553664789114102"><ele>193.0</ele><time>2026-03-28T08:50:36Z</time></trkpt><trkpt lat="44.31119979012692" lon="11.55352268071884"><ele>194.5</ele><time>2026-03-28T08:50:37Z</time></trkpt><trkpt lat="44.31113186640242" lon="11.553365023401149"><ele>196.0</ele><time>2026-03-28T08:50:38Z</time></trkpt><trkpt lat="44.31108133080528" lon="11.553191810652448"><ele>197.5</ele><time>2026-03-28T08:50:39Z</time></trkpt><trkpt lat="44.311049469598636" lon="11.553003964344038"><ele>199.0</ele><time>2026-03-28T08:50:40Z</time></trkpt><trkpt lat="44.31102973004353" lon="11.552810168305236"><ele>199.0</ele><time>2026-03-28T08:50:41Z</time></trkpt><trkpt lat="44.311007465961225" lon="11.552621726131205"><ele>199.0</ele><time>2026-03-28T08:50:42Z</time></trkpt><trkpt lat="44.310988176720926" lon="11.552432573857523"><ele>199.0</ele><time>2026-03-28T08:50:43Z</time></trkpt><trkpt lat="44.31094842372738" lon="11.552245034812591"><ele>199.0</ele><time>2026-03-28T08:50:44Z</time></trkpt><trkpt lat="44.31088592565672" lon="11.552065299454549"><ele>198.0</ele><time>2026-03-28T08:50:45Z</time></trkpt><trkpt lat="44.31081036107736" lon="11.551893482250327"><ele>197.0</ele><time>2026-03-28T08:50:46Z</time></trkpt><trkpt lat="44.310720875555305" lon="11.551717379683053"><ele>196.0</ele><time>2026-03-28T08:50:47Z</time></trkpt><trkpt lat="44.31063258693669" lon="11.551541911529494"><ele>197.66666666666666</ele><time>2026-03-28T08:50:48Z</time></trkpt><trkpt lat="44.31054587880776" lon="11.551363128214545"><ele>199.33333333333331</ele><time>2026-03-28T08:50:49Z</time></trkpt><trkpt lat="44.31045981597511" lon="11.551186821397318"><ele>201.0</ele><time>2026-03-28T08:50:50Z</time></trkpt><trkpt lat="44.3103741794721" lon="11.551018814918521"><ele>201.0</ele><time>2026-03-28T08:50:51Z</time></trkpt><trkpt lat="44.310290545106696" lon="11.550854752166076"><ele>201.0</ele><time>2026-03-28T08:50:52Z</time></trkpt><trkpt lat="44.31021461879091" lon="11.550683878117201"><ele>201.0</ele><time>2026-03-28T08:50:53Z</time></trkpt><trkpt lat="44.31011822975034" lon="11.550537655449764"><ele>201.0</ele><time>2026-03-28T08:50:54Z</time></trkpt><trkpt lat="44.31001404107596" lon="11.550403607165842"><ele>200.66666666666669</ele><time>2026-03-28T08:50:55Z</time></trkpt><trkpt lat="44.309897811746914" lon="11.550279218667322"><ele>200.33333333333334</ele><time>2026-03-28T08:50:56Z</time></trkpt><trkpt lat="44.309786879268145" lon="11.550136861400905"><ele>200.0</ele><time>2026-03-28T08:50:57Z</time></trkpt><trkpt lat="44.30967290983423" lon="11.549989663710392"><ele>200.0</ele><time>2026-03-28T08:50:58Z</time></trkpt><trkpt lat="44.309557528882465" lon="11.54984336549744"><ele>200.0</ele><time>2026-03-28T08:50:59Z</time></trkpt><trkpt lat="44.30943752463101" lon="11.549694869500541"><ele>200.0</ele><time>2026-03-28T08:51:00Z</time></trkpt><trkpt lat="44.30931818799334" lon="11.54954555620964"><ele>199.66666666666669</ele><time>2026-03-28T08:51:01Z</time></trkpt><trkpt lat="44.309196053445405" lon="11.54939882407099"><ele>199.33333333333331</ele><time>2026-03-28T08:51:02Z</time></trkpt><trkpt lat="44.309078143964385" lon="11.549248300156421"><ele>199.0</ele><time>2026-03-28T08:51:03Z</time></trkpt><trkpt lat="44.308960476541074" lon="11.549103393294644"><ele>201.25</ele><time>2026-03-28T08:51:04Z</time></trkpt><trkpt lat="44.30884463729302" lon="11.54896022880063"><ele>203.5</ele><time>2026-03-28T08:51:05Z</time></trkpt><trkpt lat="44.308732600079644" lon="11.548819718473789"><ele>205.75</ele><time>2026-03-28T08:51:06Z</time></trkpt><trkpt lat="44.30862342019322" lon="11.5486898870005"><ele>208.0</ele><time>2026-03-28T08:51:07Z</time></trkpt><trkpt lat="44.30852469446216" lon="11.548559690260445"><ele>208.0</ele><time>2026-03-28T08:51:08Z</time></trkpt><trkpt lat="44.30844620080837" lon="11.548411391455108"><ele>208.0</ele><time>2026-03-28T08:51:09Z</time></trkpt><trkpt lat="44.30838460319613" lon="11.548247369632508"><ele>208.0</ele><time>2026-03-28T08:51:10Z</time></trkpt><trkpt lat="44.308345451433006" lon="11.54807728790796"><ele>208.0</ele><time>2026-03-28T08:51:11Z</time></trkpt><trkpt lat="44.30833232075531" lon="11.547904910051853"><ele>207.5</ele><time>2026-03-28T08:51:12Z</time></trkpt><trkpt lat="44.30834313982238" lon="11.547742304696984"><ele>207.0</ele><time>2026-03-28T08:51:13Z</time></trkpt><trkpt lat="44.308373094226205" lon="11.547583777774603"><ele>206.5</ele><time>2026-03-28T08:51:14Z</time></trkpt><trkpt lat="44.30840312959477" lon="11.547427839889794"><ele>206.0</ele><time>2026-03-28T08:51:15Z</time></trkpt><trkpt lat="44.30842218475512" lon="11.547270501153262"><ele>206.0</ele><time>2026-03-28T08:51:16Z</time></trkpt><trkpt lat="44.30842084495539" lon="11.547113147135125"><ele>206.0</ele><time>2026-03-28T08:51:17Z</time></trkpt><trkpt lat="44.30839557225804" lon="11.546959428766801"><ele>206.0</ele><time>2026-03-28T08:51:18Z</time></trkpt><trkpt lat="44.30832901751349" lon="11.546821201056833"><ele>206.0</ele><time>2026-03-28T08:51:19Z</time></trkpt><trkpt lat="44.30824209630696" lon="11.546703464613303"><ele>205.5</ele><time>2026-03-28T08:51:20Z</time></trkpt><trkpt lat="44.308134362341455" lon="11.546620334528589"><ele>205.0</ele><time>2026-03-28T08:51:21Z</time></trkpt><trkpt lat="44.30802014925335" lon="11.546582652808668"><ele>204.5</ele><time>2026-03-28T08:51:22Z</time></trkpt><trkpt lat="44.307896530761894" lon="11.546574667982274"><ele>204.0</ele><time>2026-03-28T08:51:23Z</time></trkpt><trkpt lat="44.30776921259788" lon="11.546582258666247"><ele>205.5</ele><time>2026-03-28T08:51:24Z</time></trkpt><trkpt lat="44.30764000032945" lon="11.54658078880324"><ele>207.0</ele><time>2026-03-28T08:51:25Z</time></trkpt><trkpt lat="44.30750855210186" lon="11.546567234092636"><ele>208.5</ele><time>2026-03-28T08:51:26Z</time></trkpt><trkpt lat="44.30737530659272" lon="11.546551405023749"><ele>210.0</ele><time>2026-03-28T08:51:27Z</time></trkpt><trkpt lat="44.30723928517007" lon="11.546527168042118"><ele>210.0</ele><time>2026-03-28T08:51:28Z</time></trkpt><trkpt lat="44.30710313555321" lon="11.54649634591021"><ele>210.0</ele><time>2026-03-28T08:51:29Z</time></trkpt><trkpt lat="44.30697085806669" lon="11.546452763066572"><ele>210.0</ele><time>2026-03-28T08:51:30Z</time></trkpt><trkpt lat="44.30683965112898" lon="11.546392513003456"><ele>210.0</ele><time>2026-03-28T08:51:31Z</time></trkpt><trkpt lat="44.30671184550463" lon="11.54631212988786"><ele>210.0</ele><time>2026-03-28T08:51:32Z</time></trkpt><trkpt lat="44.3065910604539" lon="11.54621152015105"><ele>210.0</ele><time>2026-03-28T08:51:33Z</time></trkpt><trkpt lat="44.30646681220425" lon="11.54609541201797"><ele>210.0</ele><time>2026-03-28T08:51:34Z</time></trkpt><trkpt lat="44.306343739205296" lon="11.545986057216197"><ele>210.0</ele><time>2026-03-28T08:51:35Z</time></trkpt><trkpt lat="44.30621989166215" lon="11.545875855573497"><ele>213.5</ele><time>2026-03-28T08:51:36Z</time></trkpt><trkpt lat="44.30609901375482" lon="11.545774259252223"><ele>217.0</ele><time>2026-03-28T08:51:37Z</time></trkpt><trkpt lat="44.30597932688903" lon="11.545673098675252"><ele>220.5</ele><time>2026-03-28T08:51:38Z</time></trkpt><trkpt lat="44.305862562229805" lon="11.545568021605192"><ele>224.0</ele><time>2026-03-28T08:51:39Z</time></trkpt><trkpt lat="44.30575070184464" lon="11.545467842835588"><ele>226.0</ele><time>2026-03-28T08:51:40Z</time></trkpt><trkpt lat="44.30563061109728" lon="11.545378600583003"><ele>228.0</ele><time>2026-03-28T08:51:41Z</time></trkpt><trkpt lat="44.30550147810551" lon="11.545305730007346"><ele>230.0</ele><time>2026-03-28T08:51:42Z</time></trkpt><trkpt lat="44.30536528444945" lon="11.545244276326912"><ele>232.0</ele><time>2026-03-28T08:51:43Z</time></trkpt><trkpt lat="44.30522347216102" lon="11.545197946749791"><ele>232.0</ele><time>2026-03-28T08:51:44Z</time></trkpt><trkpt lat="44.30508477875114" lon="11.545173788747135"><ele>232.0</ele><time>2026-03-28T08:51:45Z</time></trkpt><trkpt lat="44.30495420965141" lon="11.545153528276021"><ele>232.0</ele><time>2026-03-28T08:51:46Z</time></trkpt><trkpt lat="44.30482577578052" lon="11.545143063139804"><ele>232.0</ele><time>2026-03-28T08:51:47Z</time></trkpt><trkpt lat="44.30469502257064" lon="11.545155909250381"><ele>232.75</ele><time>2026-03-28T08:51:48Z</time></trkpt><trkpt lat="44.3045632912622" lon="11.545173595338952"><ele>233.5</ele><time>2026-03-28T08:51:49Z</time></trkpt><trkpt lat="44.30443110444487" lon="11.545197181434544"><ele>234.25</ele><time>2026-03-28T08:51:50Z</time></trkpt><trkpt lat="44.30431424927819" lon="11.545206069741608"><ele>235.0</ele><time>2026-03-28T08:51:51Z</time></trkpt><trkpt lat="44.30420691824759" lon="11.545209172645542"><ele>235.0</ele><time>2026-03-28T08:51:52Z</time></trkpt><trkpt lat="44.30411706243526" lon="11.545183886099595"><ele>235.0</ele><time>2026-03-28T08:51:53Z</time></trkpt><trkpt lat="44.30404833193704" lon="11.545125292811214"><ele>235.0</ele><time>2026-03-28T08:51:54Z</time></trkpt><trkpt lat="44.3040146724015" lon="11.545030488222334"><ele>235.0</ele><time>2026-03-28T08:51:55Z</time></trkpt><trkpt lat="44.304017252805025" lon="11.544929917972715"><ele>235.0</ele><time>2026-03-28T08:51:56Z</time></trkpt><trkpt lat="44.30409830929902" lon="11.544787513579157"><ele>234.99999999999997</ele><time>2026-03-28T08:51:58Z</time></trkpt><trkpt lat="44.30416572214241" lon="11.544723291569548"><ele>235.0</ele><time>2026-03-28T08:51:59Z</time></trkpt><trkpt lat="44.304245054421436" lon="11.544655288396886"><ele>235.0</ele><time>2026-03-28T08:52:00Z</time></trkpt><trkpt lat="44.304320157738935" lon="11.544588185137325"><ele>235.0</ele><time>2026-03-28T08:52:01Z</time></trkpt><trkpt lat="44.304389921641764" lon="11.544526093785905"><ele>234.99999999999997</ele><time>2026-03-28T08:52:02Z</time></trkpt><trkpt lat="44.30446338031494" lon="11.544447924481494"><ele>235.0</ele><time>2026-03-28T08:52:03Z</time></trkpt><trkpt lat="44.304544293040536" lon="11.544365292422471"><ele>238.75</ele><time>2026-03-28T08:52:04Z</time></trkpt><trkpt lat="44.304635569324255" lon="11.544281307365221"><ele>242.5</ele><time>2026-03-28T08:52:05Z</time></trkpt><trkpt lat="44.30473828620789" lon="11.544211873927344"><ele>246.25</ele><time>2026-03-28T08:52:06Z</time></trkpt><trkpt lat="44.30484578060462" lon="11.5441575812697"><ele>250.0</ele><time>2026-03-28T08:52:07Z</time></trkpt><trkpt lat="44.30495588900866" lon="11.544126107069228"><ele>250.2</ele><time>2026-03-28T08:52:08Z</time></trkpt><trkpt lat="44.30506444391476" lon="11.544128252213245"><ele>250.4</ele><time>2026-03-28T08:52:09Z</time></trkpt><trkpt lat="44.30517114806822" lon="11.54415513808259"><ele>250.60000000000002</ele><time>2026-03-28T08:52:10Z</time></trkpt><trkpt lat="44.305271790012775" lon="11.544210289744612"><ele>250.8</ele><time>2026-03-28T08:52:11Z</time></trkpt><trkpt lat="44.30537936571481" lon="11.544272113369415"><ele>251.0</ele><time>2026-03-28T08:52:12Z</time></trkpt><trkpt lat="44.30549017009532" lon="11.544317299951155"><ele>252.5</ele><time>2026-03-28T08:52:13Z</time></trkpt><trkpt lat="44.30560234568088" lon="11.544343293350003"><ele>254.0</ele><time>2026-03-28T08:52:14Z</time></trkpt><trkpt lat="44.30571757797643" lon="11.54433308008361"><ele>255.5</ele><time>2026-03-28T08:52:15Z</time></trkpt><trkpt lat="44.30583245697473" lon="11.544300213458461"><ele>257.0</ele><time>2026-03-28T08:52:16Z</time></trkpt><trkpt lat="44.30594928568934" lon="11.544260023315907"><ele>257.0</ele><time>2026-03-28T08:52:17Z</time></trkpt><trkpt lat="44.306063245602424" lon="11.544236885182837"><ele>257.0</ele><time>2026-03-28T08:52:18Z</time></trkpt><trkpt lat="44.3061709475871" lon="11.54424166354708"><ele>257.0</ele><time>2026-03-28T08:52:19Z</time></trkpt><trkpt lat="44.30627280070172" lon="11.544276594180637"><ele>257.0</ele><time>2026-03-28T08:52:20Z</time></trkpt><trkpt lat="44.30636606019041" lon="11.544346896553028"><ele>257.0</ele><time>2026-03-28T08:52:21Z</time></trkpt><trkpt lat="44.306446558096596" lon="11.54444040799998"><ele>257.6666666666667</ele><time>2026-03-28T08:52:22Z</time></trkpt><trkpt lat="44.306519234393484" lon="11.544533241457259"><ele>258.33333333333337</ele><time>2026-03-28T08:52:23Z</time></trkpt><trkpt lat="44.30658528292322" lon="11.54461180486636"><ele>259.0</ele><time>2026-03-28T08:52:24Z</time></trkpt><trkpt lat="44.30666038698059" lon="11.544659408866469"><ele>259.6666666666667</ele><time>2026-03-28T08:52:25Z</time></trkpt><trkpt lat="44.306735348094115" lon="11.544654789842246"><ele>260.3333333333333</ele><time>2026-03-28T08:52:26Z</time></trkpt><trkpt lat="44.30680351053914" lon="11.544615976221706"><ele>261.0</ele><time>2026-03-28T08:52:27Z</time></trkpt><trkpt lat="44.306855066344745" lon="11.544532392925682"><ele>261.0</ele><time>2026-03-28T08:52:28Z</time></trkpt><trkpt lat="44.306883670349734" lon="11.544423277397543"><ele>261.0</ele><time>2026-03-28T08:52:29Z</time></trkpt><trkpt lat="44.30686851238017" lon="11.544301988919486"><ele>261.0</ele><time>2026-03-28T08:52:30Z</time></trkpt><trkpt lat="44.306834805018525" lon="11.54418829189489"><ele>261.0</ele><time>2026-03-28T08:52:31Z</time></trkpt><trkpt lat="44.30677897784735" lon="11.544081156226913"><ele>261.0</ele><time>2026-03-28T08:52:32Z</time></trkpt><trkpt lat="44.306723471730926" lon="11.543969631548295"><ele>261.0</ele><time>2026-03-28T08:52:33Z</time></trkpt><trkpt lat="44.30666540530602" lon="11.5438476087922"><ele>261.0</ele><time>2026-03-28T08:52:34Z</time></trkpt><trkpt lat="44.30660753018009" lon="11.543714190843922"><ele>261.0</ele><time>2026-03-28T08:52:35Z</time></trkpt><trkpt lat="44.30654455473862" lon="11.543575431410607"><ele>261.0</ele><time>2026-03-28T08:52:36Z</time></trkpt><trkpt lat="44.306477218471365" lon="11.543433567898774"><ele>264.0</ele><time>2026-03-28T08:52:37Z</time></trkpt><trkpt lat="44.30640739460037" lon="11.543287253582568"><ele>267.0</ele><time>2026-03-28T08:52:38Z</time></trkpt><trkpt lat="44.30633412322826" lon="11.543139608142749"><ele>270.0</ele><time>2026-03-28T08:52:39Z</time></trkpt><trkpt lat="44.30625640690021" lon="11.542998983705866"><ele>273.0</ele><time>2026-03-28T08:52:40Z</time></trkpt><trkpt lat="44.30617408395784" lon="11.542860966250112"><ele>273.0</ele><time>2026-03-28T08:52:41Z</time></trkpt><trkpt lat="44.30608049443747" lon="11.542734437205397"><ele>273.0</ele><time>2026-03-28T08:52:42Z</time></trkpt><trkpt lat="44.3059792248068" lon="11.542619088601983"><ele>273.0</ele><time>2026-03-28T08:52:43Z</time></trkpt><trkpt lat="44.3058728829484" lon="11.54251260451994"><ele>273.0</ele><time>2026-03-28T08:52:44Z</time></trkpt><trkpt lat="44.305762469838264" lon="11.542419025616113"><ele>273.0</ele><time>2026-03-28T08:52:45Z</time></trkpt><trkpt lat="44.305648068816836" lon="11.542333217253042"><ele>273.0</ele><time>2026-03-28T08:52:46Z</time></trkpt><trkpt lat="44.30553097298725" lon="11.542245531116011"><ele>273.0</ele><time>2026-03-28T08:52:47Z</time></trkpt><trkpt lat="44.305412524234264" lon="11.542158758316615"><ele>273.0</ele><time>2026-03-28T08:52:48Z</time></trkpt><trkpt lat="44.30530110013666" lon="11.542070292743112"><ele>275.75</ele><time>2026-03-28T08:52:49Z</time></trkpt><trkpt lat="44.30520256394264" lon="11.541980891729185"><ele>278.5</ele><time>2026-03-28T08:52:50Z</time></trkpt><trkpt lat="44.30511869661089" lon="11.541875390550898"><ele>281.25</ele><time>2026-03-28T08:52:51Z</time></trkpt><trkpt lat="44.305061526798866" lon="11.541741489326313"><ele>284.0</ele><time>2026-03-28T08:52:52Z</time></trkpt><trkpt lat="44.305023746138325" lon="11.54159335381403"><ele>284.0</ele><time>2026-03-28T08:52:53Z</time></trkpt><trkpt lat="44.304996104090996" lon="11.541456414250586"><ele>284.0</ele><time>2026-03-28T08:52:54Z</time></trkpt><trkpt lat="44.304949786464064" lon="11.541334701322405"><ele>284.0</ele><time>2026-03-28T08:52:55Z</time></trkpt><trkpt lat="44.30487314943644" lon="11.541239117925429"><ele>284.0</ele><time>2026-03-28T08:52:56Z</time></trkpt><trkpt lat="44.30478248162184" lon="11.54116654470243"><ele>284.0</ele><time>2026-03-28T08:52:57Z</time></trkpt><trkpt lat="44.3046786163124" lon="11.541093661134973"><ele>286.75</ele><time>2026-03-28T08:52:58Z</time></trkpt><trkpt lat="44.30456847313808" lon="11.541012494852561"><ele>289.5</ele><time>2026-03-28T08:52:59Z</time></trkpt><trkpt lat="44.304455791775275" lon="11.540931647673103"><ele>292.25</ele><time>2026-03-28T08:53:00Z</time></trkpt><trkpt lat="44.30434118840183" lon="11.5408448018267"><ele>295.0</ele><time>2026-03-28T08:53:01Z</time></trkpt><trkpt lat="44.304228647229294" lon="11.540754881152877"><ele>295.0</ele><time>2026-03-28T08:53:02Z</time></trkpt><trkpt lat="44.304127929669114" lon="11.540633498906079"><ele>295.0</ele><time>2026-03-28T08:53:03Z</time></trkpt><trkpt lat="44.304020424040516" lon="11.540525083459869"><ele>295.0</ele><time>2026-03-28T08:53:04Z</time></trkpt><trkpt lat="44.30391678745473" lon="11.540403923902154"><ele>295.0</ele><time>2026-03-28T08:53:05Z</time></trkpt><trkpt lat="44.303823091458604" lon="11.540260724675505"><ele>296.5</ele><time>2026-03-28T08:53:06Z</time></trkpt><trkpt lat="44.3037331056625" lon="11.540112570788818"><ele>298.0</ele><time>2026-03-28T08:53:07Z</time></trkpt><trkpt lat="44.30365299181866" lon="11.53997750866871"><ele>299.5</ele><time>2026-03-28T08:53:08Z</time></trkpt><trkpt lat="44.30357318493718" lon="11.539835506223586"><ele>301.0</ele><time>2026-03-28T08:53:09Z</time></trkpt><trkpt lat="44.303490511019085" lon="11.5396846366182"><ele>299.75</ele><time>2026-03-28T08:53:10Z</time></trkpt><trkpt lat="44.30340434498621" lon="11.539527296036546"><ele>298.5</ele><time>2026-03-28T08:53:11Z</time></trkpt><trkpt lat="44.30331564590419" lon="11.539368114419956"><ele>297.25</ele><time>2026-03-28T08:53:12Z</time></trkpt><trkpt lat="44.30321697452226" lon="11.539226330514664"><ele>296.0</ele><time>2026-03-28T08:53:13Z</time></trkpt><trkpt lat="44.30314684993682" lon="11.53906518929635"><ele>299.25</ele><time>2026-03-28T08:53:14Z</time></trkpt><trkpt lat="44.30306858508377" lon="11.538924732809559"><ele>302.5</ele><time>2026-03-28T08:53:15Z</time></trkpt><trkpt lat="44.30297195552426" lon="11.538811800234555"><ele>305.75</ele><time>2026-03-28T08:53:16Z</time></trkpt><trkpt lat="44.30287616568728" lon="11.538703254036394"><ele>309.0</ele><time>2026-03-28T08:53:17Z</time></trkpt><trkpt lat="44.302761130565116" lon="11.538615479764815"><ele>309.0</ele><time>2026-03-28T08:53:18Z</time></trkpt><trkpt lat="44.302634308534465" lon="11.538537067192824"><ele>309.0</ele><time>2026-03-28T08:53:19Z</time></trkpt><trkpt lat="44.30249871367384" lon="11.538463734902557"><ele>309.0</ele><time>2026-03-28T08:53:20Z</time></trkpt><trkpt lat="44.30235568418201" lon="11.538391529317678"><ele>309.0</ele><time>2026-03-28T08:53:21Z</time></trkpt><trkpt lat="44.30221354635363" lon="11.53829028691117"><ele>311.0</ele><time>2026-03-28T08:53:22Z</time></trkpt><trkpt lat="44.3020543922914" lon="11.53822550226726"><ele>313.0</ele><time>2026-03-28T08:53:23Z</time></trkpt><trkpt lat="44.30189810677549" lon="11.538134922781326"><ele>315.0</ele><time>2026-03-28T08:53:24Z</time></trkpt><trkpt lat="44.30174185966236" lon="11.53804404645244"><ele>315.0</ele><time>2026-03-28T08:53:25Z</time></trkpt><trkpt lat="44.301585629264295" lon="11.537954645446579"><ele>315.0</ele><time>2026-03-28T08:53:26Z</time></trkpt><trkpt lat="44.301430224387964" lon="11.53786735626715"><ele>315.0</ele><time>2026-03-28T08:53:27Z</time></trkpt><trkpt lat="44.30127813752495" lon="11.537773054435126"><ele>313.0</ele><time>2026-03-28T08:53:28Z</time></trkpt><trkpt lat="44.3011291609758" lon="11.537669036979166"><ele>311.0</ele><time>2026-03-28T08:53:29Z</time></trkpt><trkpt lat="44.300983160587634" lon="11.537557912351497"><ele>309.0</ele><time>2026-03-28T08:53:30Z</time></trkpt><trkpt lat="44.30084207990617" lon="11.53744601021082"><ele>309.0</ele><time>2026-03-28T08:53:31Z</time></trkpt><trkpt lat="44.30070442024232" lon="11.537330887884378"><ele>309.0</ele><time>2026-03-28T08:53:32Z</time></trkpt><trkpt lat="44.300568760793205" lon="11.537221266499477"><ele>309.0</ele><time>2026-03-28T08:53:33Z</time></trkpt><trkpt lat="44.300437313686274" lon="11.537112958919078"><ele>310.0</ele><time>2026-03-28T08:53:34Z</time></trkpt><trkpt lat="44.300308013242265" lon="11.537007623462655"><ele>311.0</ele><time>2026-03-28T08:53:35Z</time></trkpt><trkpt lat="44.300190059759565" lon="11.536881124196427"><ele>312.0</ele><time>2026-03-28T08:53:36Z</time></trkpt><trkpt lat="44.300063624125826" lon="11.53677847509936"><ele>313.0</ele><time>2026-03-28T08:53:37Z</time></trkpt><trkpt lat="44.29993343258226" lon="11.536693138205782"><ele>313.0</ele><time>2026-03-28T08:53:38Z</time></trkpt><trkpt lat="44.29982603984172" lon="11.536570593487596"><ele>313.0</ele><time>2026-03-28T08:53:39Z</time></trkpt><trkpt lat="44.29975508344127" lon="11.536417474118124"><ele>313.0</ele><time>2026-03-28T08:53:40Z</time></trkpt><trkpt lat="44.29968483722021" lon="11.536272575382972"><ele>313.0</ele><time>2026-03-28T08:53:41Z</time></trkpt><trkpt lat="44.29961534550094" lon="11.536125174230232"><ele>316.0</ele><time>2026-03-28T08:53:42Z</time></trkpt><trkpt lat="44.29952309940738" lon="11.536005800674868"><ele>319.0</ele><time>2026-03-28T08:53:43Z</time></trkpt><trkpt lat="44.299428753162374" lon="11.535890026359363"><ele>322.0</ele><time>2026-03-28T08:53:44Z</time></trkpt><trkpt lat="44.29931797623056" lon="11.535796530169849"><ele>325.0</ele><time>2026-03-28T08:53:45Z</time></trkpt><trkpt lat="44.299195849110816" lon="11.535720352553502"><ele>325.0</ele><time>2026-03-28T08:53:46Z</time></trkpt><trkpt lat="44.299068951347486" lon="11.535648692126873"><ele>325.0</ele><time>2026-03-28T08:53:47Z</time></trkpt><trkpt lat="44.29893765447145" lon="11.535574220375068"><ele>325.0</ele><time>2026-03-28T08:53:48Z</time></trkpt><trkpt lat="44.298811406574856" lon="11.535473270311897"><ele>325.0</ele><time>2026-03-28T08:53:49Z</time></trkpt><trkpt lat="44.29867335834897" lon="11.535391411107007"><ele>326.66666666666663</ele><time>2026-03-28T08:53:50Z</time></trkpt><trkpt lat="44.298532203402246" lon="11.535308448353174"><ele>328.3333333333333</ele><time>2026-03-28T08:53:51Z</time></trkpt><trkpt lat="44.29838958134864" lon="11.535224557559697"><ele>330.0</ele><time>2026-03-28T08:53:52Z</time></trkpt><trkpt lat="44.29824459035293" lon="11.535141304470441"><ele>330.0</ele><time>2026-03-28T08:53:53Z</time></trkpt><trkpt lat="44.29810510465866" lon="11.535059985061274"><ele>330.0</ele><time>2026-03-28T08:53:54Z</time></trkpt><trkpt lat="44.29796898954102" lon="11.534971935216644"><ele>330.0</ele><time>2026-03-28T08:53:55Z</time></trkpt><trkpt lat="44.297835064745634" lon="11.5348718626326"><ele>331.6666666666667</ele><time>2026-03-28T08:53:56Z</time></trkpt><trkpt lat="44.29770714394612" lon="11.534756294137793"><ele>333.33333333333337</ele><time>2026-03-28T08:53:57Z</time></trkpt><trkpt lat="44.29758546102845" lon="11.534628039619339"><ele>335.0</ele><time>2026-03-28T08:53:58Z</time></trkpt><trkpt lat="44.29747338708628" lon="11.534485616986208"><ele>335.6666666666667</ele><time>2026-03-28T08:53:59Z</time></trkpt><trkpt lat="44.2973656102543" lon="11.534330656411857"><ele>336.3333333333333</ele><time>2026-03-28T08:54:00Z</time></trkpt><trkpt lat="44.29725436476809" lon="11.534168568679464"><ele>337.0</ele><time>2026-03-28T08:54:01Z</time></trkpt><trkpt lat="44.29714125265621" lon="11.53399988445365"><ele>337.3333333333333</ele><time>2026-03-28T08:54:02Z</time></trkpt><trkpt lat="44.29702582281772" lon="11.533828101869025"><ele>337.6666666666667</ele><time>2026-03-28T08:54:03Z</time></trkpt><trkpt lat="44.2969118083313" lon="11.533652936146673"><ele>338.0</ele><time>2026-03-28T08:54:04Z</time></trkpt><trkpt lat="44.29679541225584" lon="11.533473048539635"><ele>338.0</ele><time>2026-03-28T08:54:05Z</time></trkpt><trkpt lat="44.29667869558308" lon="11.533294767399862"><ele>338.0</ele><time>2026-03-28T08:54:06Z</time></trkpt><trkpt lat="44.29656321499316" lon="11.533120230222702"><ele>338.0</ele><time>2026-03-28T08:54:07Z</time></trkpt><trkpt lat="44.29644953696306" lon="11.532948113669805"><ele>340.33333333333337</ele><time>2026-03-28T08:54:08Z</time></trkpt><trkpt lat="44.29633970328079" lon="11.532778423331578"><ele>342.6666666666667</ele><time>2026-03-28T08:54:09Z</time></trkpt><trkpt lat="44.29623109421017" lon="11.532612514060446"><ele>345.0</ele><time>2026-03-28T08:54:10Z</time></trkpt><trkpt lat="44.29612467626916" lon="11.532446504248737"><ele>345.0</ele><time>2026-03-28T08:54:11Z</time></trkpt><trkpt lat="44.29601906668998" lon="11.532280445338147"><ele>345.0</ele><time>2026-03-28T08:54:12Z</time></trkpt><trkpt lat="44.29591224962046" lon="11.53211899691234"><ele>345.0</ele><time>2026-03-28T08:54:13Z</time></trkpt><trkpt lat="44.29581006799649" lon="11.53196368934434"><ele>346.75</ele><time>2026-03-28T08:54:14Z</time></trkpt><trkpt lat="44.295707764658395" lon="11.531814407198352"><ele>348.5</ele><time>2026-03-28T08:54:15Z</time></trkpt><trkpt lat="44.2956122328209" lon="11.531670159330192"><ele>350.25</ele><time>2026-03-28T08:54:16Z</time></trkpt><trkpt lat="44.295510539798734" lon="11.531530017904199"><ele>352.0</ele><time>2026-03-28T08:54:17Z</time></trkpt><trkpt lat="44.29539926685364" lon="11.53140617349876"><ele>352.75</ele><time>2026-03-28T08:54:18Z</time></trkpt><trkpt lat="44.29527906618034" lon="11.531307289428321"><ele>353.5</ele><time>2026-03-28T08:54:19Z</time></trkpt><trkpt lat="44.2951496491679" lon="11.531229487389938"><ele>354.25</ele><time>2026-03-28T08:54:20Z</time></trkpt><trkpt lat="44.29500931375287" lon="11.531169921845706"><ele>355.0</ele><time>2026-03-28T08:54:21Z</time></trkpt><trkpt lat="44.294863374302075" lon="11.531135354902952"><ele>357.75</ele><time>2026-03-28T08:54:22Z</time></trkpt><trkpt lat="44.2947172729914" lon="11.531121740374237"><ele>360.5</ele><time>2026-03-28T08:54:23Z</time></trkpt><trkpt lat="44.29457349163249" lon="11.531135445669559"><ele>363.25</ele><time>2026-03-28T08:54:24Z</time></trkpt><trkpt lat="44.29443479930059" lon="11.531176701547812"><ele>366.0</ele><time>2026-03-28T08:54:25Z</time></trkpt><trkpt lat="44.29430208259749" lon="11.531250450004967"><ele>366.0</ele><time>2026-03-28T08:54:26Z</time></trkpt><trkpt lat="44.29417370697338" lon="11.531340970683852"><ele>366.0</ele><time>2026-03-28T08:54:27Z</time></trkpt><trkpt lat="44.29405892732221" lon="11.531436238022398"><ele>366.0</ele><time>2026-03-28T08:54:28Z</time></trkpt><trkpt lat="44.29394789882207" lon="11.53151960436583"><ele>366.0</ele><time>2026-03-28T08:54:29Z</time></trkpt><trkpt lat="44.29383720576683" lon="11.531574236136866"><ele>368.5</ele><time>2026-03-28T08:54:30Z</time></trkpt><trkpt lat="44.29372334312298" lon="11.531599374590568"><ele>371.0</ele><time>2026-03-28T08:54:31Z</time></trkpt><trkpt lat="44.293603745026964" lon="11.531596786005224"><ele>373.5</ele><time>2026-03-28T08:54:32Z</time></trkpt><trkpt lat="44.29348203925979" lon="11.531573957039155"><ele>376.0</ele><time>2026-03-28T08:54:33Z</time></trkpt><trkpt lat="44.29335603765508" lon="11.531556232262012"><ele>376.0</ele><time>2026-03-28T08:54:34Z</time></trkpt><trkpt lat="44.293227641285114" lon="11.531539467772873"><ele>376.0</ele><time>2026-03-28T08:54:35Z</time></trkpt><trkpt lat="44.29310071633205" lon="11.531524749550096"><ele>376.0</ele><time>2026-03-28T08:54:36Z</time></trkpt><trkpt lat="44.29297795586294" lon="11.531513467488658"><ele>376.0</ele><time>2026-03-28T08:54:37Z</time></trkpt><trkpt lat="44.29285450177873" lon="11.531511851667068"><ele>376.5</ele><time>2026-03-28T08:54:38Z</time></trkpt><trkpt lat="44.292729660005634" lon="11.53152369494346"><ele>377.0</ele><time>2026-03-28T08:54:39Z</time></trkpt><trkpt lat="44.29260476293716" lon="11.531540022786366"><ele>377.5</ele><time>2026-03-28T08:54:40Z</time></trkpt><trkpt lat="44.29248539292616" lon="11.531559257156955"><ele>378.0</ele><time>2026-03-28T08:54:41Z</time></trkpt><trkpt lat="44.29236307047201" lon="11.53157888729744"><ele>375.75</ele><time>2026-03-28T08:54:42Z</time></trkpt><trkpt lat="44.29224009793669" lon="11.531599501494036"><ele>373.5</ele><time>2026-03-28T08:54:43Z</time></trkpt><trkpt lat="44.29211952103598" lon="11.531620495479373"><ele>371.25</ele><time>2026-03-28T08:54:44Z</time></trkpt><trkpt lat="44.29199845103789" lon="11.531636966826067"><ele>369.0</ele><time>2026-03-28T08:54:45Z</time></trkpt><trkpt lat="44.29187535747521" lon="11.531650944083475"><ele>369.0</ele><time>2026-03-28T08:54:46Z</time></trkpt><trkpt lat="44.29175234397196" lon="11.531664858263913"><ele>369.0</ele><time>2026-03-28T08:54:47Z</time></trkpt><trkpt lat="44.29162965811618" lon="11.53167793250762"><ele>369.0</ele><time>2026-03-28T08:54:48Z</time></trkpt><trkpt lat="44.291503976323455" lon="11.53168956645301"><ele>369.0</ele><time>2026-03-28T08:54:49Z</time></trkpt><trkpt lat="44.29137593282791" lon="11.531701152241274"><ele>369.25</ele><time>2026-03-28T08:54:50Z</time></trkpt><trkpt lat="44.29124558448279" lon="11.531716424356144"><ele>369.5</ele><time>2026-03-28T08:54:51Z</time></trkpt><trkpt lat="44.29110986643346" lon="11.531732747766917"><ele>369.75</ele><time>2026-03-28T08:54:52Z</time></trkpt><trkpt lat="44.29097531114134" lon="11.531748359315852"><ele>370.0</ele><time>2026-03-28T08:54:53Z</time></trkpt><trkpt lat="44.29084580421619" lon="11.53176333934858"><ele>370.0</ele><time>2026-03-28T08:54:54Z</time></trkpt><trkpt lat="44.29072261197999" lon="11.531778134283815"><ele>370.0</ele><time>2026-03-28T08:54:55Z</time></trkpt><trkpt lat="44.29060734764225" lon="11.53179191880271"><ele>370.0</ele><time>2026-03-28T08:54:56Z</time></trkpt><trkpt lat="44.290500631573764" lon="11.531806199912392"><ele>370.0</ele><time>2026-03-28T08:54:57Z</time></trkpt><trkpt lat="44.2904032608405" lon="11.531821695503703"><ele>370.0</ele><time>2026-03-28T08:54:58Z</time></trkpt><trkpt lat="44.29031365747352" lon="11.531843336276774"><ele>371.8333333333333</ele><time>2026-03-28T08:54:59Z</time></trkpt><trkpt lat="44.29024871778983" lon="11.531838395797784"><ele>373.66666666666663</ele><time>2026-03-28T08:55:00Z</time></trkpt><trkpt lat="44.29015128399951" lon="11.53184910685746"><ele>375.5</ele><time>2026-03-28T08:55:02Z</time></trkpt><trkpt lat="44.290083974507546" lon="11.531856508143772"><ele>377.3333333333333</ele><time>2026-03-28T08:55:05Z</time></trkpt><trkpt lat="44.29000906057294" lon="11.531864743545743"><ele>379.1666666666667</ele><time>2026-03-28T08:55:45Z</time></trkpt><trkpt lat="44.289924141645585" lon="11.531875259573281"><ele>381.0</ele><time>2026-03-28T08:55:47Z</time></trkpt><trkpt lat="44.28982106133334" lon="11.531909587359156"><ele>381.6666666666667</ele><time>2026-03-28T08:55:49Z</time></trkpt><trkpt lat="44.28974313606639" lon="11.531911960361168"><ele>382.33333333333337</ele><time>2026-03-28T08:55:50Z</time></trkpt><trkpt lat="44.289647760090254" lon="11.531921514097942"><ele>383.0</ele><time>2026-03-28T08:55:51Z</time></trkpt><trkpt lat="44.289561018965536" lon="11.531928001199619"><ele>383.6666666666667</ele><time>2026-03-28T08:55:52Z</time></trkpt><trkpt lat="44.28947922670438" lon="11.53193345369031"><ele>384.33333333333337</ele><time>2026-03-28T08:55:53Z</time></trkpt><trkpt lat="44.28938773441725" lon="11.531929934374238"><ele>385.0</ele><time>2026-03-28T08:55:54Z</time></trkpt><trkpt lat="44.28928996365963" lon="11.531918982907852"><ele>385.0</ele><time>2026-03-28T08:55:55Z</time></trkpt><trkpt lat="44.28918345435855" lon="11.531887822772424"><ele>385.0</ele><time>2026-03-28T08:55:56Z</time></trkpt><trkpt lat="44.28907363361723" lon="11.531826916921798"><ele>385.0</ele><time>2026-03-28T08:55:57Z</time></trkpt><trkpt lat="44.28896025241551" lon="11.531740765210095"><ele>385.0</ele><time>2026-03-28T08:55:58Z</time></trkpt><trkpt lat="44.28884582983085" lon="11.531632337058557"><ele>384.25</ele><time>2026-03-28T08:55:59Z</time></trkpt><trkpt lat="44.28873052192499" lon="11.531520706843102"><ele>383.5</ele><time>2026-03-28T08:56:00Z</time></trkpt><trkpt lat="44.28862290687808" lon="11.531414050553467"><ele>382.75</ele><time>2026-03-28T08:56:01Z</time></trkpt><trkpt lat="44.28851979558057" lon="11.531307109155664"><ele>382.0</ele><time>2026-03-28T08:56:02Z</time></trkpt><trkpt lat="44.28842584547548" lon="11.531205133652037"><ele>382.0</ele><time>2026-03-28T08:56:03Z</time></trkpt><trkpt lat="44.2883253818174" lon="11.531115474938996"><ele>382.0</ele><time>2026-03-28T08:56:04Z</time></trkpt><trkpt lat="44.28821452139421" lon="11.531033202184043"><ele>382.0</ele><time>2026-03-28T08:56:05Z</time></trkpt><trkpt lat="44.28810171083773" lon="11.530966101051478"><ele>382.0</ele><time>2026-03-28T08:56:06Z</time></trkpt><trkpt lat="44.28799772089751" lon="11.53088847603608"><ele>382.16666666666663</ele><time>2026-03-28T08:56:07Z</time></trkpt><trkpt lat="44.287889697817874" lon="11.53086398743062"><ele>382.3333333333333</ele><time>2026-03-28T08:56:08Z</time></trkpt><trkpt lat="44.28780134303316" lon="11.53082639270137"><ele>382.5</ele><time>2026-03-28T08:56:09Z</time></trkpt><trkpt lat="44.28772783889543" lon="11.530799534073306"><ele>382.6666666666667</ele><time>2026-03-28T08:56:10Z</time></trkpt><trkpt lat="44.287662650957714" lon="11.530779257783122"><ele>382.83333333333337</ele><time>2026-03-28T08:56:11Z</time></trkpt><trkpt lat="44.28759303349882" lon="11.53075855775214"><ele>383.0</ele><time>2026-03-28T08:56:12Z</time></trkpt><trkpt lat="44.287520761539405" lon="11.530739974297"><ele>383.0</ele><time>2026-03-28T08:56:13Z</time></trkpt><trkpt lat="44.28745646846937" lon="11.530720378211347"><ele>383.0</ele><time>2026-03-28T08:56:14Z</time></trkpt><trkpt lat="44.287369268770426" lon="11.530666740253952"><ele>383.0</ele><time>2026-03-28T08:56:16Z</time></trkpt><trkpt lat="44.287222444739044" lon="11.530600404601618"><ele>383.0</ele><time>2026-03-28T08:59:19Z</time></trkpt><trkpt lat="44.287140560102316" lon="11.530544054983476"><ele>383.0</ele><time>2026-03-28T08:59:21Z</time></trkpt><trkpt lat="44.287028844292095" lon="11.530426485453093"><ele>383.4</ele><time>2026-03-28T08:59:23Z</time></trkpt><trkpt lat="44.28695771490096" lon="11.530327806152899"><ele>383.79999999999995</ele><time>2026-03-28T08:59:24Z</time></trkpt><trkpt lat="44.28691554214438" lon="11.5302100616446"><ele>384.2</ele><time>2026-03-28T08:59:25Z</time></trkpt><trkpt lat="44.28685473919071" lon="11.530123409142348"><ele>384.6</ele><time>2026-03-28T08:59:26Z</time></trkpt><trkpt lat="44.28678399951767" lon="11.530026924322808"><ele>385.0</ele><time>2026-03-28T08:59:27Z</time></trkpt><trkpt lat="44.28670517040979" lon="11.52994919603705"><ele>385.0</ele><time>2026-03-28T08:59:28Z</time></trkpt><trkpt lat="44.28662932020558" lon="11.529842763485199"><ele>385.0</ele><time>2026-03-28T08:59:29Z</time></trkpt><trkpt lat="44.286541836375925" lon="11.52972645323183"><ele>385.0</ele><time>2026-03-28T08:59:30Z</time></trkpt><trkpt lat="44.286441793969104" lon="11.529595443662771"><ele>385.0</ele><time>2026-03-28T08:59:31Z</time></trkpt><trkpt lat="44.28634867355723" lon="11.529459126245001"><ele>386.0</ele><time>2026-03-28T08:59:32Z</time></trkpt><trkpt lat="44.2862632011481" lon="11.529336567880947"><ele>387.0</ele><time>2026-03-28T08:59:33Z</time></trkpt><trkpt lat="44.28617447327807" lon="11.529222421138591"><ele>388.0</ele><time>2026-03-28T08:59:34Z</time></trkpt><trkpt lat="44.28608708343032" lon="11.529099960246738"><ele>389.0</ele><time>2026-03-28T08:59:35Z</time></trkpt><trkpt lat="44.285996191025454" lon="11.528987087185763"><ele>389.0</ele><time>2026-03-28T08:59:36Z</time></trkpt><trkpt lat="44.28590727251296" lon="11.528873766758757"><ele>389.0</ele><time>2026-03-28T08:59:37Z</time></trkpt><trkpt lat="44.285810560973076" lon="11.528774234596202"><ele>389.0</ele><time>2026-03-28T08:59:38Z</time></trkpt><trkpt lat="44.285706439755906" lon="11.52867262903381"><ele>389.0</ele><time>2026-03-28T08:59:39Z</time></trkpt><trkpt lat="44.28559269256897" lon="11.528576364453434"><ele>389.75</ele><time>2026-03-28T08:59:40Z</time></trkpt><trkpt lat="44.28546166986099" lon="11.528497906756677"><ele>390.5</ele><time>2026-03-28T08:59:41Z</time></trkpt><trkpt lat="44.28533309108402" lon="11.528423450186583"><ele>391.25</ele><time>2026-03-28T08:59:42Z</time></trkpt><trkpt lat="44.28520505892233" lon="11.528346269868742"><ele>392.0</ele><time>2026-03-28T08:59:43Z</time></trkpt><trkpt lat="44.28508283684141" lon="11.528280546171112"><ele>392.0</ele><time>2026-03-28T08:59:44Z</time></trkpt><trkpt lat="44.28495605177451" lon="11.528234866576017"><ele>392.0</ele><time>2026-03-28T08:59:45Z</time></trkpt><trkpt lat="44.284839219496945" lon="11.528213746209772"><ele>392.0</ele><time>2026-03-28T08:59:46Z</time></trkpt><trkpt lat="44.284734938975966" lon="11.52821039833787"><ele>392.0</ele><time>2026-03-28T08:59:47Z</time></trkpt><trkpt lat="44.28463163844718" lon="11.528211935334806"><ele>392.5</ele><time>2026-03-28T08:59:48Z</time></trkpt><trkpt lat="44.28452702994498" lon="11.52823068401611"><ele>393.0</ele><time>2026-03-28T08:59:49Z</time></trkpt><trkpt lat="44.28441607803041" lon="11.528262764616658"><ele>393.5</ele><time>2026-03-28T08:59:50Z</time></trkpt><trkpt lat="44.284301028320954" lon="11.52830114521775"><ele>394.0</ele><time>2026-03-28T08:59:51Z</time></trkpt><trkpt lat="44.284176766504686" lon="11.528353185475428"><ele>394.0</ele><time>2026-03-28T08:59:52Z</time></trkpt><trkpt lat="44.284043437164335" lon="11.528391655645267"><ele>394.0</ele><time>2026-03-28T08:59:53Z</time></trkpt><trkpt lat="44.28390268287049" lon="11.528427791985985"><ele>394.0</ele><time>2026-03-28T08:59:54Z</time></trkpt><trkpt lat="44.28375902782916" lon="11.528466446935804"><ele>394.0</ele><time>2026-03-28T08:59:55Z</time></trkpt><trkpt lat="44.28361627524882" lon="11.528497817877257"><ele>395.75</ele><time>2026-03-28T08:59:56Z</time></trkpt><trkpt lat="44.28347896931633" lon="11.528522554264125"><ele>397.5</ele><time>2026-03-28T08:59:57Z</time></trkpt><trkpt lat="44.28335095073866" lon="11.528527846051341"><ele>399.25</ele><time>2026-03-28T08:59:58Z</time></trkpt><trkpt lat="44.28323290277891" lon="11.52849844781177"><ele>401.0</ele><time>2026-03-28T08:59:59Z</time></trkpt><trkpt lat="44.283126885791994" lon="11.528447170817582"><ele>405.5</ele><time>2026-03-28T09:00:00Z</time></trkpt><trkpt lat="44.28302942522688" lon="11.528368809012756"><ele>410.0</ele><time>2026-03-28T09:00:01Z</time></trkpt><trkpt lat="44.282946645531254" lon="11.528223692661667"><ele>414.5</ele><time>2026-03-28T09:00:02Z</time></trkpt><trkpt lat="44.282869031745555" lon="11.52809100995355"><ele>419.0</ele><time>2026-03-28T09:00:03Z</time></trkpt><trkpt lat="44.28279255764501" lon="11.527942253029218"><ele>418.5</ele><time>2026-03-28T09:00:04Z</time></trkpt><trkpt lat="44.28270963478614" lon="11.527790002938705"><ele>418.0</ele><time>2026-03-28T09:00:05Z</time></trkpt><trkpt lat="44.28262775251131" lon="11.527635833047189"><ele>417.5</ele><time>2026-03-28T09:00:06Z</time></trkpt><trkpt lat="44.282539463785106" lon="11.527482565795712"><ele>417.0</ele><time>2026-03-28T09:00:07Z</time></trkpt><trkpt lat="44.282455286006076" lon="11.527333973545009"><ele>417.0</ele><time>2026-03-28T09:00:08Z</time></trkpt><trkpt lat="44.28237891188322" lon="11.52719222047572"><ele>417.0</ele><time>2026-03-28T09:00:09Z</time></trkpt><trkpt lat="44.28230037966431" lon="11.527060249123098"><ele>417.0</ele><time>2026-03-28T09:00:10Z</time></trkpt><trkpt lat="44.28221698331941" lon="11.526944708364598"><ele>417.0</ele><time>2026-03-28T09:00:11Z</time></trkpt><trkpt lat="44.282123256701" lon="11.526847306294039"><ele>418.0</ele><time>2026-03-28T09:00:12Z</time></trkpt><trkpt lat="44.28202562294445" lon="11.526759210674326"><ele>419.0</ele><time>2026-03-28T09:00:13Z</time></trkpt><trkpt lat="44.28192054355335" lon="11.52671915112695"><ele>420.0</ele><time>2026-03-28T09:00:14Z</time></trkpt><trkpt lat="44.28178199887739" lon="11.52670697231064"><ele>421.0</ele><time>2026-03-28T09:00:15Z</time></trkpt><trkpt lat="44.28164615822267" lon="11.526690810435165"><ele>421.0</ele><time>2026-03-28T09:00:16Z</time></trkpt><trkpt lat="44.28150985165698" lon="11.526673844244236"><ele>421.0</ele><time>2026-03-28T09:00:17Z</time></trkpt><trkpt lat="44.28137463434081" lon="11.526658441432208"><ele>421.0</ele><time>2026-03-28T09:00:18Z</time></trkpt><trkpt lat="44.28123993619326" lon="11.526634230300704"><ele>421.0</ele><time>2026-03-28T09:00:19Z</time></trkpt><trkpt lat="44.28111164743073" lon="11.526603596288359"><ele>423.5</ele><time>2026-03-28T09:00:20Z</time></trkpt><trkpt lat="44.28098077090284" lon="11.526574874243858"><ele>426.0</ele><time>2026-03-28T09:00:21Z</time></trkpt><trkpt lat="44.28085030811277" lon="11.526547425705752"><ele>428.5</ele><time>2026-03-28T09:00:22Z</time></trkpt><trkpt lat="44.28073396059173" lon="11.52651446691727"><ele>431.0</ele><time>2026-03-28T09:00:23Z</time></trkpt><trkpt lat="44.28064009510257" lon="11.526478653671322"><ele>431.3333333333333</ele><time>2026-03-28T09:00:24Z</time></trkpt><trkpt lat="44.280572312956714" lon="11.526422433913147"><ele>431.66666666666663</ele><time>2026-03-28T09:00:25Z</time></trkpt><trkpt lat="44.28051137865665" lon="11.526342397029104"><ele>432.0</ele><time>2026-03-28T09:00:26Z</time></trkpt><trkpt lat="44.280462975221845" lon="11.526243597744882"><ele>432.33333333333337</ele><time>2026-03-28T09:00:27Z</time></trkpt><trkpt lat="44.28042521134026" lon="11.526152272653006"><ele>432.6666666666667</ele><time>2026-03-28T09:00:28Z</time></trkpt><trkpt lat="44.28039562376492" lon="11.526074238431411"><ele>433.0</ele><time>2026-03-28T09:00:29Z</time></trkpt><trkpt lat="44.28035218818961" lon="11.525961860071911"><ele>431.4</ele><time>2026-03-28T09:00:31Z</time></trkpt><trkpt lat="44.280329100449194" lon="11.525848625015882"><ele>429.79999999999995</ele><time>2026-03-28T09:00:34Z</time></trkpt><trkpt lat="44.28030112958563" lon="11.525713024997307"><ele>428.2</ele><time>2026-03-28T09:01:13Z</time></trkpt><trkpt lat="44.28030678625962" lon="11.525595570200425"><ele>426.6</ele><time>2026-03-28T09:01:15Z</time></trkpt><trkpt lat="44.280332079869545" lon="11.525407677046804"><ele>425.0</ele><time>2026-03-28T09:01:17Z</time></trkpt><trkpt lat="44.280351470916926" lon="11.525296470122413"><ele>424.99999999999994</ele><time>2026-03-28T09:01:18Z</time></trkpt><trkpt lat="44.28037348749315" lon="11.525181574098234"><ele>425.0</ele><time>2026-03-28T09:01:19Z</time></trkpt><trkpt lat="44.28039748304913" lon="11.525084927320288"><ele>425.0</ele><time>2026-03-28T09:01:20Z</time></trkpt><trkpt lat="44.28042851414625" lon="11.524973680032389"><ele>425.0</ele><time>2026-03-28T09:01:21Z</time></trkpt><trkpt lat="44.28046296883271" lon="11.524855328968464"><ele>424.99999999999994</ele><time>2026-03-28T09:01:22Z</time></trkpt><trkpt lat="44.28050954567111" lon="11.524724462335584"><ele>425.0</ele><time>2026-03-28T09:01:23Z</time></trkpt><trkpt lat="44.28056442956579" lon="11.524583517130317"><ele>427.25</ele><time>2026-03-28T09:01:24Z</time></trkpt><trkpt lat="44.28063342472474" lon="11.524430367052862"><ele>429.5</ele><time>2026-03-28T09:01:25Z</time></trkpt><trkpt lat="44.28070421644563" lon="11.524273838417846"><ele>431.75</ele><time>2026-03-28T09:01:26Z</time></trkpt><trkpt lat="44.280774556657676" lon="11.52412645087068"><ele>434.0</ele><time>2026-03-28T09:01:27Z</time></trkpt><trkpt lat="44.28084801553716" lon="11.523977150388676"><ele>434.0</ele><time>2026-03-28T09:01:28Z</time></trkpt><trkpt lat="44.28092279240805" lon="11.52381928042208"><ele>434.0</ele><time>2026-03-28T09:01:29Z</time></trkpt><trkpt lat="44.280994335927815" lon="11.523661788782514"><ele>434.0</ele><time>2026-03-28T09:01:30Z</time></trkpt><trkpt lat="44.28105958954619" lon="11.523505443912596"><ele>434.0</ele><time>2026-03-28T09:01:31Z</time></trkpt><trkpt lat="44.281120127619786" lon="11.523351888475668"><ele>436.0</ele><time>2026-03-28T09:01:32Z</time></trkpt><trkpt lat="44.28116685061939" lon="11.523186688996983"><ele>438.0</ele><time>2026-03-28T09:01:33Z</time></trkpt><trkpt lat="44.281209102757934" lon="11.523010916629122"><ele>440.0</ele><time>2026-03-28T09:01:34Z</time></trkpt><trkpt lat="44.28124196893298" lon="11.522818669586218"><ele>442.0</ele><time>2026-03-28T09:01:35Z</time></trkpt><trkpt lat="44.281271718374" lon="11.522624400795756"><ele>443.75</ele><time>2026-03-28T09:01:36Z</time></trkpt><trkpt lat="44.281312913814574" lon="11.522436094329702"><ele>445.5</ele><time>2026-03-28T09:01:37Z</time></trkpt><trkpt lat="44.28134754476978" lon="11.52224500493351"><ele>447.25</ele><time>2026-03-28T09:01:38Z</time></trkpt><trkpt lat="44.28138243638561" lon="11.52205072776284"><ele>449.0</ele><time>2026-03-28T09:01:39Z</time></trkpt><trkpt lat="44.28142176315064" lon="11.52185767769519"><ele>445.5</ele><time>2026-03-28T09:01:40Z</time></trkpt><trkpt lat="44.28145265898877" lon="11.52166511962229"><ele>442.0</ele><time>2026-03-28T09:01:41Z</time></trkpt><trkpt lat="44.2814861050879" lon="11.521480685984095"><ele>438.5</ele><time>2026-03-28T09:01:42Z</time></trkpt><trkpt lat="44.281517317152826" lon="11.52129974400512"><ele>435.0</ele><time>2026-03-28T09:01:43Z</time></trkpt><trkpt lat="44.28154772265838" lon="11.521118701458148"><ele>435.0</ele><time>2026-03-28T09:01:44Z</time></trkpt><trkpt lat="44.281577509961785" lon="11.520930948702897"><ele>435.0</ele><time>2026-03-28T09:01:45Z</time></trkpt><trkpt lat="44.28160255601263" lon="11.520737466604677"><ele>435.0</ele><time>2026-03-28T09:01:46Z</time></trkpt><trkpt lat="44.28160726276593" lon="11.520540503531826"><ele>435.0</ele><time>2026-03-28T09:01:47Z</time></trkpt><trkpt lat="44.28160020519375" lon="11.52034130068137"><ele>434.66666666666663</ele><time>2026-03-28T09:01:48Z</time></trkpt><trkpt lat="44.28158568938097" lon="11.52013114029438"><ele>434.3333333333333</ele><time>2026-03-28T09:01:49Z</time></trkpt><trkpt lat="44.281565451721406" lon="11.51992264070284"><ele>434.0</ele><time>2026-03-28T09:01:50Z</time></trkpt><trkpt lat="44.28154150260935" lon="11.519702615780025"><ele>435.0</ele><time>2026-03-28T09:01:51Z</time></trkpt><trkpt lat="44.281516620581286" lon="11.519485351072504"><ele>436.0</ele><time>2026-03-28T09:01:52Z</time></trkpt><trkpt lat="44.281492891302626" lon="11.519270619046434"><ele>437.0</ele><time>2026-03-28T09:01:53Z</time></trkpt><trkpt lat="44.28146913929756" lon="11.519058461442398"><ele>437.0</ele><time>2026-03-28T09:01:54Z</time></trkpt><trkpt lat="44.2814497537527" lon="11.518851756216748"><ele>437.0</ele><time>2026-03-28T09:01:55Z</time></trkpt><trkpt lat="44.28143327397357" lon="11.518651531732697"><ele>437.0</ele><time>2026-03-28T09:01:56Z</time></trkpt><trkpt lat="44.281413629101564" lon="11.518465121426491"><ele>437.0</ele><time>2026-03-28T09:01:57Z</time></trkpt><trkpt lat="44.28139718378646" lon="11.518279744148733"><ele>437.5</ele><time>2026-03-28T09:01:58Z</time></trkpt><trkpt lat="44.2813803155252" lon="11.518104892720862"><ele>438.0</ele><time>2026-03-28T09:01:59Z</time></trkpt><trkpt lat="44.28136373649842" lon="11.517942607851293"><ele>438.5</ele><time>2026-03-28T09:02:00Z</time></trkpt><trkpt lat="44.28134327145609" lon="11.51779864514668"><ele>439.0</ele><time>2026-03-28T09:02:01Z</time></trkpt><trkpt lat="44.281309851131894" lon="11.517657490760786"><ele>439.0</ele><time>2026-03-28T09:02:02Z</time></trkpt><trkpt lat="44.28125495716055" lon="11.517537027733047"><ele>439.0</ele><time>2026-03-28T09:02:03Z</time></trkpt><trkpt lat="44.28117890386109" lon="11.51743478464299"><ele>439.0</ele><time>2026-03-28T09:02:04Z</time></trkpt><trkpt lat="44.28108999132441" lon="11.517347989379179"><ele>439.0</ele><time>2026-03-28T09:02:05Z</time></trkpt><trkpt lat="44.28099774064344" lon="11.51727238390479"><ele>439.0</ele><time>2026-03-28T09:02:06Z</time></trkpt><trkpt lat="44.280906073032" lon="11.51720286383948"><ele>439.0</ele><time>2026-03-28T09:02:07Z</time></trkpt><trkpt lat="44.28080972223158" lon="11.517137808056372"><ele>439.0</ele><time>2026-03-28T09:02:08Z</time></trkpt><trkpt lat="44.280718682356856" lon="11.517064625007114"><ele>439.0</ele><time>2026-03-28T09:02:09Z</time></trkpt><trkpt lat="44.280628258747434" lon="11.516990773344071"><ele>439.0</ele><time>2026-03-28T09:02:10Z</time></trkpt><trkpt lat="44.2805353670158" lon="11.516915320770302"><ele>439.0</ele><time>2026-03-28T09:02:11Z</time></trkpt><trkpt lat="44.2804451557925" lon="11.516838255345403"><ele>436.79999999999995</ele><time>2026-03-28T09:02:12Z</time></trkpt><trkpt lat="44.28034958092564" lon="11.516762580808338"><ele>434.59999999999997</ele><time>2026-03-28T09:02:13Z</time></trkpt><trkpt lat="44.280255566566524" lon="11.516684191615175"><ele>432.4</ele><time>2026-03-28T09:02:14Z</time></trkpt><trkpt lat="44.28016007540558" lon="11.51660358101172"><ele>430.2</ele><time>2026-03-28T09:02:15Z</time></trkpt><trkpt lat="44.280062547855856" lon="11.516529415592252"><ele>428.0</ele><time>2026-03-28T09:02:16Z</time></trkpt><trkpt lat="44.2799585323901" lon="11.51647232867007"><ele>428.0</ele><time>2026-03-28T09:02:17Z</time></trkpt><trkpt lat="44.27984596087047" lon="11.516434448698242"><ele>428.0</ele><time>2026-03-28T09:02:18Z</time></trkpt><trkpt lat="44.279724310764394" lon="11.516428867903945"><ele>428.0</ele><time>2026-03-28T09:02:19Z</time></trkpt><trkpt lat="44.27959344340934" lon="11.51643510955083"><ele>428.0</ele><time>2026-03-28T09:02:20Z</time></trkpt><trkpt lat="44.27946007861935" lon="11.516443739488295"><ele>426.5</ele><time>2026-03-28T09:02:21Z</time></trkpt><trkpt lat="44.27932769300475" lon="11.516451624892394"><ele>425.0</ele><time>2026-03-28T09:02:22Z</time></trkpt><trkpt lat="44.279193910527304" lon="11.516462186183835"><ele>423.5</ele><time>2026-03-28T09:02:23Z</time></trkpt><trkpt lat="44.279060170115365" lon="11.516472967637087"><ele>422.0</ele><time>2026-03-28T09:02:24Z</time></trkpt><trkpt lat="44.27892669454603" lon="11.516482623608926"><ele>422.0</ele><time>2026-03-28T09:02:25Z</time></trkpt><trkpt lat="44.27879220574848" lon="11.516483996111196"><ele>422.0</ele><time>2026-03-28T09:02:26Z</time></trkpt><trkpt lat="44.27865860567959" lon="11.516482662093864"><ele>422.0</ele><time>2026-03-28T09:02:27Z</time></trkpt><trkpt lat="44.27852641152858" lon="11.516469478859948"><ele>422.0</ele><time>2026-03-28T09:02:28Z</time></trkpt><trkpt lat="44.278396013648724" lon="11.51643720960732"><ele>422.0</ele><time>2026-03-28T09:02:29Z</time></trkpt><trkpt lat="44.27826959895625" lon="11.516390053357316"><ele>422.0</ele><time>2026-03-28T09:02:30Z</time></trkpt><trkpt lat="44.278142427216906" lon="11.516330550739882"><ele>422.0</ele><time>2026-03-28T09:02:31Z</time></trkpt><trkpt lat="44.278015741389964" lon="11.516256157338608"><ele>422.0</ele><time>2026-03-28T09:02:32Z</time></trkpt><trkpt lat="44.27788636308157" lon="11.516179823062453"><ele>425.5</ele><time>2026-03-28T09:02:33Z</time></trkpt><trkpt lat="44.27776036431926" lon="11.516086488277038"><ele>429.0</ele><time>2026-03-28T09:02:34Z</time></trkpt><trkpt lat="44.277639746634684" lon="11.515978443020403"><ele>432.5</ele><time>2026-03-28T09:02:35Z</time></trkpt><trkpt lat="44.277529454939746" lon="11.515862134101674"><ele>436.0</ele><time>2026-03-28T09:02:36Z</time></trkpt><trkpt lat="44.27741982184406" lon="11.515756087789917"><ele>436.0</ele><time>2026-03-28T09:02:37Z</time></trkpt><trkpt lat="44.277315266325566" lon="11.515666522897515"><ele>436.0</ele><time>2026-03-28T09:02:38Z</time></trkpt><trkpt lat="44.277219374034594" lon="11.515583765636151"><ele>436.0</ele><time>2026-03-28T09:02:39Z</time></trkpt><trkpt lat="44.277143616221075" lon="11.515530286609302"><ele>436.0</ele><time>2026-03-28T09:02:40Z</time></trkpt><trkpt lat="44.27706665494585" lon="11.515496121484315"><ele>436.0</ele><time>2026-03-28T09:02:41Z</time></trkpt><trkpt lat="44.27698329661489" lon="11.51544699440278"><ele>437.6</ele><time>2026-03-28T09:02:42Z</time></trkpt><trkpt lat="44.27689545689328" lon="11.515372534639267"><ele>439.20000000000005</ele><time>2026-03-28T09:02:43Z</time></trkpt><trkpt lat="44.276816441559575" lon="11.515275016087012"><ele>440.79999999999995</ele><time>2026-03-28T09:02:44Z</time></trkpt><trkpt lat="44.27675004142643" lon="11.515163889804251"><ele>442.4</ele><time>2026-03-28T09:02:45Z</time></trkpt><trkpt lat="44.27668186212867" lon="11.515049888827043"><ele>444.0</ele><time>2026-03-28T09:02:46Z</time></trkpt><trkpt lat="44.276610516054006" lon="11.514928729312302"><ele>444.0</ele><time>2026-03-28T09:02:47Z</time></trkpt><trkpt lat="44.27653244001471" lon="11.514796188252078"><ele>444.0</ele><time>2026-03-28T09:02:48Z</time></trkpt><trkpt lat="44.27645499147724" lon="11.514647659394498"><ele>444.0</ele><time>2026-03-28T09:02:49Z</time></trkpt><trkpt lat="44.276388122958686" lon="11.51449036978562"><ele>444.0</ele><time>2026-03-28T09:02:50Z</time></trkpt><trkpt lat="44.27632788461315" lon="11.51433050324993"><ele>444.5</ele><time>2026-03-28T09:02:51Z</time></trkpt><trkpt lat="44.27627710058841" lon="11.514170972798885"><ele>445.0</ele><time>2026-03-28T09:02:52Z</time></trkpt><trkpt lat="44.2762370543917" lon="11.514011834957945"><ele>445.5</ele><time>2026-03-28T09:02:53Z</time></trkpt><trkpt lat="44.27619661151079" lon="11.513852174895685"><ele>446.0</ele><time>2026-03-28T09:02:54Z</time></trkpt><trkpt lat="44.276153861989535" lon="11.513693533161657"><ele>449.20000000000005</ele><time>2026-03-28T09:02:55Z</time></trkpt><trkpt lat="44.27610586251051" lon="11.513541091565218"><ele>452.40000000000003</ele><time>2026-03-28T09:02:56Z</time></trkpt><trkpt lat="44.2760593867226" lon="11.51339878266167"><ele>455.6</ele><time>2026-03-28T09:02:57Z</time></trkpt><trkpt lat="44.27601652493468" lon="11.513263713076714"><ele>458.8</ele><time>2026-03-28T09:02:58Z</time></trkpt><trkpt lat="44.275975535727554" lon="11.513143488493892"><ele>462.0</ele><time>2026-03-28T09:02:59Z</time></trkpt><trkpt lat="44.27593335014173" lon="11.513038920597523"><ele>462.0</ele><time>2026-03-28T09:03:00Z</time></trkpt><trkpt lat="44.275888095659376" lon="11.51294999546523"><ele>462.0</ele><time>2026-03-28T09:03:01Z</time></trkpt><trkpt lat="44.275840092775" lon="11.512883756903191"><ele>462.0</ele><time>2026-03-28T09:03:02Z</time></trkpt><trkpt lat="44.275779266516295" lon="11.512834832139832"><ele>462.0</ele><time>2026-03-28T09:03:03Z</time></trkpt><trkpt lat="44.275712866491745" lon="11.512800795052065"><ele>462.0</ele><time>2026-03-28T09:03:04Z</time></trkpt><trkpt lat="44.27564785279459" lon="11.512764212652026"><ele>462.0</ele><time>2026-03-28T09:03:05Z</time></trkpt><trkpt lat="44.27558372659438" lon="11.51269917948756"><ele>462.0</ele><time>2026-03-28T09:03:06Z</time></trkpt><trkpt lat="44.27551960705844" lon="11.512606922230702"><ele>461.25</ele><time>2026-03-28T09:03:07Z</time></trkpt><trkpt lat="44.27545232933681" lon="11.512490486928854"><ele>460.5</ele><time>2026-03-28T09:03:08Z</time></trkpt><trkpt lat="44.275383793771645" lon="11.512362993077618"><ele>459.75</ele><time>2026-03-28T09:03:09Z</time></trkpt><trkpt lat="44.27531517138715" lon="11.51222099499253"><ele>459.0</ele><time>2026-03-28T09:03:10Z</time></trkpt><trkpt lat="44.27524138238648" lon="11.512074172831527"><ele>459.5</ele><time>2026-03-28T09:03:11Z</time></trkpt><trkpt lat="44.275159452462205" lon="11.51192572764466"><ele>460.0</ele><time>2026-03-28T09:03:12Z</time></trkpt><trkpt lat="44.27507578901942" lon="11.511771881822748"><ele>460.5</ele><time>2026-03-28T09:03:13Z</time></trkpt><trkpt lat="44.27498792877087" lon="11.511616126517094"><ele>461.0</ele><time>2026-03-28T09:03:14Z</time></trkpt><trkpt lat="44.27489935959334" lon="11.511454473793808"><ele>461.0</ele><time>2026-03-28T09:03:15Z</time></trkpt><trkpt lat="44.274809734437646" lon="11.511286268673825"><ele>461.0</ele><time>2026-03-28T09:03:16Z</time></trkpt><trkpt lat="44.274717063572" lon="11.51111570823383"><ele>461.0</ele><time>2026-03-28T09:03:17Z</time></trkpt><trkpt lat="44.27462272939833" lon="11.510941304427272"><ele>463.0</ele><time>2026-03-28T09:03:18Z</time></trkpt><trkpt lat="44.27452715863879" lon="11.510769566066589"><ele>465.0</ele><time>2026-03-28T09:03:19Z</time></trkpt><trkpt lat="44.27443254158027" lon="11.510603875842675"><ele>467.0</ele><time>2026-03-28T09:03:20Z</time></trkpt><trkpt lat="44.27434258836776" lon="11.510446410252793"><ele>467.75</ele><time>2026-03-28T09:03:21Z</time></trkpt><trkpt lat="44.2742583862742" lon="11.510293438901632"><ele>468.5</ele><time>2026-03-28T09:03:22Z</time></trkpt><trkpt lat="44.27418252175088" lon="11.510140774314392"><ele>469.25</ele><time>2026-03-28T09:03:23Z</time></trkpt><trkpt lat="44.27412001924996" lon="11.50998821553486"><ele>470.0</ele><time>2026-03-28T09:03:24Z</time></trkpt><trkpt lat="44.27407203025716" lon="11.509851593980837"><ele>470.0</ele><time>2026-03-28T09:03:25Z</time></trkpt><trkpt lat="44.27403209263607" lon="11.509730944819268"><ele>470.0</ele><time>2026-03-28T09:03:26Z</time></trkpt><trkpt lat="44.273998844977115" lon="11.509633834940036"><ele>470.0</ele><time>2026-03-28T09:03:27Z</time></trkpt><trkpt lat="44.27394578458671" lon="11.50949509331884"><ele>470.0</ele><time>2026-03-28T09:03:29Z</time></trkpt><trkpt lat="44.27388326882816" lon="11.509381003636882"><ele>470.0</ele><time>2026-03-28T09:03:31Z</time></trkpt><trkpt lat="44.273845746385156" lon="11.50920184430558"><ele>470.8333333333333</ele><time>2026-03-28T09:03:33Z</time></trkpt><trkpt lat="44.27382479545126" lon="11.50909418144255"><ele>471.66666666666663</ele><time>2026-03-28T09:03:34Z</time></trkpt><trkpt lat="44.273797510900145" lon="11.508976170544955"><ele>472.5</ele><time>2026-03-28T09:03:35Z</time></trkpt><trkpt lat="44.27375550566394" lon="11.50886473562987"><ele>473.33333333333337</ele><time>2026-03-28T09:03:36Z</time></trkpt><trkpt lat="44.27370841284402" lon="11.508781434067787"><ele>474.1666666666667</ele><time>2026-03-28T09:03:37Z</time></trkpt><trkpt lat="44.2736572051099" lon="11.508704473127379"><ele>475.0</ele><time>2026-03-28T09:03:38Z</time></trkpt><trkpt lat="44.273603444710986" lon="11.50862286532571"><ele>477.1666666666667</ele><time>2026-03-28T09:03:39Z</time></trkpt><trkpt lat="44.273562846758644" lon="11.508524195056605"><ele>479.33333333333337</ele><time>2026-03-28T09:03:40Z</time></trkpt><trkpt lat="44.273526313180916" lon="11.508416947483886"><ele>481.5</ele><time>2026-03-28T09:03:41Z</time></trkpt><trkpt lat="44.273487700626035" lon="11.508306506960169"><ele>483.66666666666663</ele><time>2026-03-28T09:03:42Z</time></trkpt><trkpt lat="44.27344066399706" lon="11.508200488709157"><ele>485.8333333333333</ele><time>2026-03-28T09:03:43Z</time></trkpt><trkpt lat="44.273391284572575" lon="11.508101242913636"><ele>488.0</ele><time>2026-03-28T09:03:44Z</time></trkpt><trkpt lat="44.27335276122101" lon="11.507993704278167"><ele>487.79999999999995</ele><time>2026-03-28T09:03:45Z</time></trkpt><trkpt lat="44.273323797301465" lon="11.507888729197255"><ele>487.59999999999997</ele><time>2026-03-28T09:03:46Z</time></trkpt><trkpt lat="44.273297737469775" lon="11.50779480451882"><ele>487.40000000000003</ele><time>2026-03-28T09:03:47Z</time></trkpt><trkpt lat="44.2732714450921" lon="11.507710154812314"><ele>487.20000000000005</ele><time>2026-03-28T09:03:48Z</time></trkpt><trkpt lat="44.273182243356544" lon="11.507617638081284"><ele>487.0</ele><time>2026-03-28T09:03:50Z</time></trkpt><trkpt lat="44.273060428902696" lon="11.507618968526314"><ele>487.50000000000006</ele><time>2026-03-28T09:03:52Z</time></trkpt><trkpt lat="44.27299322760837" lon="11.507639373208333"><ele>488.0</ele><time>2026-03-28T09:03:53Z</time></trkpt><trkpt lat="44.27291772018602" lon="11.507651150179209"><ele>488.5</ele><time>2026-03-28T09:03:54Z</time></trkpt><trkpt lat="44.2728335079631" lon="11.507632580408435"><ele>489.0</ele><time>2026-03-28T09:03:55Z</time></trkpt><trkpt lat="44.27275220931887" lon="11.507582105863905"><ele>489.50000000000006</ele><time>2026-03-28T09:03:56Z</time></trkpt><trkpt lat="44.2726831403606" lon="11.507507073331645"><ele>490.0</ele><time>2026-03-28T09:03:57Z</time></trkpt><trkpt lat="44.272629025673716" lon="11.5074141077104"><ele>490.0</ele><time>2026-03-28T09:03:58Z</time></trkpt><trkpt lat="44.27258713347241" lon="11.50729876400226"><ele>490.0</ele><time>2026-03-28T09:03:59Z</time></trkpt><trkpt lat="44.272551471793015" lon="11.50717534331028"><ele>490.0</ele><time>2026-03-28T09:04:00Z</time></trkpt><trkpt lat="44.27251913906676" lon="11.507050107653923"><ele>490.0</ele><time>2026-03-28T09:04:01Z</time></trkpt><trkpt lat="44.27248896423532" lon="11.506931269418109"><ele>490.0</ele><time>2026-03-28T09:04:02Z</time></trkpt><trkpt lat="44.27246002865721" lon="11.506823808465754"><ele>489.1666666666667</ele><time>2026-03-28T09:04:03Z</time></trkpt><trkpt lat="44.27243167227406" lon="11.506720394001029"><ele>488.33333333333337</ele><time>2026-03-28T09:04:04Z</time></trkpt><trkpt lat="44.27239683661545" lon="11.50662026187843"><ele>487.5</ele><time>2026-03-28T09:04:05Z</time></trkpt><trkpt lat="44.27235152297611" lon="11.506528641545401"><ele>486.66666666666663</ele><time>2026-03-28T09:04:06Z</time></trkpt><trkpt lat="44.272300625364025" lon="11.50644360337061"><ele>485.8333333333333</ele><time>2026-03-28T09:04:07Z</time></trkpt><trkpt lat="44.27225444242602" lon="11.506362438600759"><ele>485.0</ele><time>2026-03-28T09:04:08Z</time></trkpt><trkpt lat="44.27221249540573" lon="11.506286156166446"><ele>482.4</ele><time>2026-03-28T09:04:09Z</time></trkpt><trkpt lat="44.272172466102624" lon="11.506215602417473"><ele>479.8</ele><time>2026-03-28T09:04:10Z</time></trkpt><trkpt lat="44.27208470968949" lon="11.506106277386145"><ele>477.20000000000005</ele><time>2026-03-28T09:04:12Z</time></trkpt><trkpt lat="44.27195444164477" lon="11.506081424575356"><ele>474.6</ele><time>2026-03-28T09:04:14Z</time></trkpt><trkpt lat="44.27186950885233" lon="11.506098893563513"><ele>472.0</ele><time>2026-03-28T09:04:15Z</time></trkpt><trkpt lat="44.271781234216284" lon="11.506134234722095"><ele>472.00000000000006</ele><time>2026-03-28T09:04:16Z</time></trkpt><trkpt lat="44.27169250380556" lon="11.506167343704808"><ele>472.0</ele><time>2026-03-28T09:04:17Z</time></trkpt><trkpt lat="44.271603501494376" lon="11.506202768776324"><ele>472.0</ele><time>2026-03-28T09:04:18Z</time></trkpt><trkpt lat="44.27151549204578" lon="11.506227200440454"><ele>472.0</ele><time>2026-03-28T09:04:19Z</time></trkpt><trkpt lat="44.27142587620518" lon="11.506235598095367"><ele>472.00000000000006</ele><time>2026-03-28T09:04:20Z</time></trkpt><trkpt lat="44.27134399836476" lon="11.506242321789777"><ele>472.0</ele><time>2026-03-28T09:04:21Z</time></trkpt><trkpt lat="44.27126417270436" lon="11.506247944926596"><ele>471.83333333333337</ele><time>2026-03-28T09:04:22Z</time></trkpt><trkpt lat="44.27118973134324" lon="11.50625722901467"><ele>471.6666666666667</ele><time>2026-03-28T09:04:23Z</time></trkpt><trkpt lat="44.271122373875144" lon="11.506267151422398"><ele>471.5</ele><time>2026-03-28T09:04:24Z</time></trkpt><trkpt lat="44.27101813855706" lon="11.506238021221261"><ele>471.33333333333337</ele><time>2026-03-28T09:04:26Z</time></trkpt><trkpt lat="44.2709583889357" lon="11.506091018909645"><ele>471.1666666666667</ele><time>2026-03-28T09:04:28Z</time></trkpt><trkpt lat="44.27094851603106" lon="11.506000438682916"><ele>471.0</ele><time>2026-03-28T09:04:29Z</time></trkpt><trkpt lat="44.270934432315315" lon="11.505906179093673"><ele>471.00000000000006</ele><time>2026-03-28T09:04:30Z</time></trkpt><trkpt lat="44.270920537835856" lon="11.505815011599482"><ele>471.0</ele><time>2026-03-28T09:04:31Z</time></trkpt><trkpt lat="44.27089740987191" lon="11.505728175093205"><ele>471.00000000000006</ele><time>2026-03-28T09:04:32Z</time></trkpt><trkpt lat="44.27084741527257" lon="11.505654062307757"><ele>471.00000000000006</ele><time>2026-03-28T09:04:33Z</time></trkpt><trkpt lat="44.27078582614221" lon="11.505600728679541"><ele>471.0</ele><time>2026-03-28T09:04:34Z</time></trkpt><trkpt lat="44.270714355130465" lon="11.50556801299601"><ele>471.00000000000006</ele><time>2026-03-28T09:04:35Z</time></trkpt><trkpt lat="44.2706280996886" lon="11.505544024013124"><ele>471.00000000000006</ele><time>2026-03-28T09:04:36Z</time></trkpt><trkpt lat="44.27053564575714" lon="11.505520636052516"><ele>470.20000000000005</ele><time>2026-03-28T09:04:37Z</time></trkpt><trkpt lat="44.270437470092816" lon="11.505500166107298"><ele>469.40000000000003</ele><time>2026-03-28T09:04:38Z</time></trkpt><trkpt lat="44.27034160144931" lon="11.505472664395157"><ele>468.6</ele><time>2026-03-28T09:04:39Z</time></trkpt><trkpt lat="44.270249164660086" lon="11.505438839464546"><ele>467.8</ele><time>2026-03-28T09:04:40Z</time></trkpt><trkpt lat="44.270164027805805" lon="11.5053877306327"><ele>467.0</ele><time>2026-03-28T09:04:41Z</time></trkpt><trkpt lat="44.27008227426916" lon="11.505319478769495"><ele>467.0</ele><time>2026-03-28T09:04:42Z</time></trkpt><trkpt lat="44.27000277949486" lon="11.505235862331862"><ele>467.00000000000006</ele><time>2026-03-28T09:04:43Z</time></trkpt><trkpt lat="44.26992581445255" lon="11.505146534925586"><ele>467.00000000000006</ele><time>2026-03-28T09:04:44Z</time></trkpt><trkpt lat="44.26984541912926" lon="11.505043588775075"><ele>467.0</ele><time>2026-03-28T09:04:45Z</time></trkpt><trkpt lat="44.269775158667755" lon="11.5049375245804"><ele>467.0</ele><time>2026-03-28T09:04:46Z</time></trkpt><trkpt lat="44.269712930824944" lon="11.504835359573706"><ele>466.8</ele><time>2026-03-28T09:04:47Z</time></trkpt><trkpt lat="44.269656693139254" lon="11.504742777300727"><ele>466.6</ele><time>2026-03-28T09:04:48Z</time></trkpt><trkpt lat="44.26960540450588" lon="11.504666985539297"><ele>466.40000000000003</ele><time>2026-03-28T09:04:49Z</time></trkpt><trkpt lat="44.26952649831543" lon="11.504565782388632"><ele>466.20000000000005</ele><time>2026-03-28T09:04:51Z</time></trkpt><trkpt lat="44.26944708626319" lon="11.504474441216866"><ele>466.0</ele><time>2026-03-28T09:04:53Z</time></trkpt><trkpt lat="44.26933598238866" lon="11.50442336941558"><ele>466.0</ele><time>2026-03-28T09:04:55Z</time></trkpt><trkpt lat="44.269271589924884" lon="11.504431421957092"><ele>466.0</ele><time>2026-03-28T09:04:56Z</time></trkpt><trkpt lat="44.26920553479288" lon="11.504452703747535"><ele>466.0</ele><time>2026-03-28T09:04:57Z</time></trkpt><trkpt lat="44.269138492493" lon="11.504483072504934"><ele>466.0</ele><time>2026-03-28T09:04:58Z</time></trkpt><trkpt lat="44.26907479346013" lon="11.504511626289077"><ele>466.0</ele><time>2026-03-28T09:04:59Z</time></trkpt><trkpt lat="44.26900617398265" lon="11.504537744071628"><ele>466.0</ele><time>2026-03-28T09:05:00Z</time></trkpt><trkpt lat="44.26893616674467" lon="11.504561846116902"><ele>466.0</ele><time>2026-03-28T09:05:01Z</time></trkpt><trkpt lat="44.26886644097082" lon="11.504581925079627"><ele>465.7142857142857</ele><time>2026-03-28T09:05:02Z</time></trkpt><trkpt lat="44.26879457851331" lon="11.504597862170195"><ele>465.42857142857144</ele><time>2026-03-28T09:05:03Z</time></trkpt><trkpt lat="44.268720601468786" lon="11.504602947718578"><ele>465.14285714285717</ele><time>2026-03-28T09:05:04Z</time></trkpt><trkpt lat="44.26864682628431" lon="11.504590214220585"><ele>464.8571428571429</ele><time>2026-03-28T09:05:05Z</time></trkpt><trkpt lat="44.268576549690096" lon="11.504562469448883"><ele>464.57142857142856</ele><time>2026-03-28T09:05:06Z</time></trkpt><trkpt lat="44.26850975185257" lon="11.504520873731737"><ele>464.28571428571433</ele><time>2026-03-28T09:05:07Z</time></trkpt><trkpt lat="44.26844522862137" lon="11.504467770520389"><ele>464.00000000000006</ele><time>2026-03-28T09:05:08Z</time></trkpt><trkpt lat="44.26838283416553" lon="11.504408745853295"><ele>463.99999999999994</ele><time>2026-03-28T09:05:09Z</time></trkpt><trkpt lat="44.26832579568503" lon="11.504337725129933"><ele>464.0</ele><time>2026-03-28T09:05:10Z</time></trkpt><trkpt lat="44.268270012440624" lon="11.504264447507747"><ele>464.0</ele><time>2026-03-28T09:05:11Z</time></trkpt><trkpt lat="44.26821803464934" lon="11.504186533259878"><ele>464.0</ele><time>2026-03-28T09:05:12Z</time></trkpt><trkpt lat="44.26817079469269" lon="11.504101982573818"><ele>463.99999999999994</ele><time>2026-03-28T09:05:13Z</time></trkpt><trkpt lat="44.268126869954685" lon="11.504014966417142"><ele>464.0</ele><time>2026-03-28T09:05:14Z</time></trkpt><trkpt lat="44.26808425811329" lon="11.503926001719996"><ele>463.3333333333333</ele><time>2026-03-28T09:05:15Z</time></trkpt><trkpt lat="44.26803876657544" lon="11.503843791211084"><ele>462.66666666666663</ele><time>2026-03-28T09:05:16Z</time></trkpt><trkpt lat="44.267993444952296" lon="11.503765536731153"><ele>462.0</ele><time>2026-03-28T09:05:17Z</time></trkpt><trkpt lat="44.26794723975279" lon="11.50369724316406"><ele>461.33333333333337</ele><time>2026-03-28T09:05:18Z</time></trkpt><trkpt lat="44.26784812360748" lon="11.503589407706789"><ele>460.6666666666667</ele><time>2026-03-28T09:05:20Z</time></trkpt><trkpt lat="44.26778531513965" lon="11.503537599305954"><ele>460.0</ele><time>2026-03-28T09:05:21Z</time></trkpt><trkpt lat="44.26771918388019" lon="11.503481287375875"><ele>460.00000000000006</ele><time>2026-03-28T09:05:22Z</time></trkpt><trkpt lat="44.267648175442915" lon="11.50342523518998"><ele>460.0</ele><time>2026-03-28T09:05:23Z</time></trkpt><trkpt lat="44.26757816612223" lon="11.503366892834254"><ele>460.0</ele><time>2026-03-28T09:05:24Z</time></trkpt><trkpt lat="44.26750826418637" lon="11.503309728320493"><ele>460.0</ele><time>2026-03-28T09:05:25Z</time></trkpt><trkpt lat="44.26743987711702" lon="11.503251720073361"><ele>460.00000000000006</ele><time>2026-03-28T09:05:26Z</time></trkpt><trkpt lat="44.26737551720701" lon="11.503195575938587"><ele>460.0</ele><time>2026-03-28T09:05:27Z</time></trkpt><trkpt lat="44.267312566905964" lon="11.503139957541004"><ele>459.83333333333337</ele><time>2026-03-28T09:05:28Z</time></trkpt><trkpt lat="44.26725383067762" lon="11.503088913576962"><ele>459.6666666666667</ele><time>2026-03-28T09:05:29Z</time></trkpt><trkpt lat="44.26719934419256" lon="11.503040348584438"><ele>459.5</ele><time>2026-03-28T09:05:30Z</time></trkpt><trkpt lat="44.267105057060036" lon="11.502955867233451"><ele>459.33333333333337</ele><time>2026-03-28T09:05:32Z</time></trkpt><trkpt lat="44.26704289576556" lon="11.502873066814447"><ele>459.1666666666667</ele><time>2026-03-28T09:05:34Z</time></trkpt><trkpt lat="44.26701781290882" lon="11.502779873683037"><ele>459.0</ele><time>2026-03-28T09:05:36Z</time></trkpt><trkpt lat="44.267046029213" lon="11.502666904328258"><ele>459.0</ele><time>2026-03-28T09:05:38Z</time></trkpt><trkpt lat="44.26710976347966" lon="11.502565248735037"><ele>459.0</ele><time>2026-03-28T09:05:40Z</time></trkpt><trkpt lat="44.2671810560254" lon="11.502450905532424"><ele>459.0</ele><time>2026-03-28T09:05:42Z</time></trkpt><trkpt lat="44.26727537095815" lon="11.502334368672251"><ele>459.0</ele><time>2026-03-28T09:05:44Z</time></trkpt><trkpt lat="44.26733030343816" lon="11.502280781755287"><ele>459.0</ele><time>2026-03-28T09:05:45Z</time></trkpt><trkpt lat="44.26739027591413" lon="11.502229556943588"><ele>458.1666666666667</ele><time>2026-03-28T09:05:46Z</time></trkpt><trkpt lat="44.26745348673059" lon="11.502179376319193"><ele>457.33333333333337</ele><time>2026-03-28T09:05:47Z</time></trkpt><trkpt lat="44.267513788341056" lon="11.502128790857904"><ele>456.5</ele><time>2026-03-28T09:05:48Z</time></trkpt><trkpt lat="44.267573239816755" lon="11.502074778076391"><ele>455.6666666666667</ele><time>2026-03-28T09:05:49Z</time></trkpt><trkpt lat="44.26765331661505" lon="11.501983111786291"><ele>454.83333333333337</ele><time>2026-03-28T09:05:51Z</time></trkpt><trkpt lat="44.26771668199621" lon="11.50187079383924"><ele>454.0</ele><time>2026-03-28T09:05:53Z</time></trkpt><trkpt lat="44.267795169819955" lon="11.501741665930616"><ele>452.0</ele><time>2026-03-28T09:05:55Z</time></trkpt><trkpt lat="44.26787875072707" lon="11.50162202310779"><ele>450.0</ele><time>2026-03-28T09:05:57Z</time></trkpt><trkpt lat="44.26796767119472" lon="11.501538472062046"><ele>448.0</ele><time>2026-03-28T09:05:59Z</time></trkpt><trkpt lat="44.26806894875708" lon="11.501514258331808"><ele>446.0</ele><time>2026-03-28T09:06:01Z</time></trkpt><trkpt lat="44.268186008835876" lon="11.50153963865069"><ele>444.0</ele><time>2026-03-28T09:06:03Z</time></trkpt><trkpt lat="44.2682494701382" lon="11.50154865871349"><ele>443.0</ele><time>2026-03-28T09:06:04Z</time></trkpt><trkpt lat="44.26831234731186" lon="11.501553412272905"><ele>442.0</ele><time>2026-03-28T09:06:05Z</time></trkpt><trkpt lat="44.26842021319189" lon="11.501514357803352"><ele>441.0</ele><time>2026-03-28T09:06:07Z</time></trkpt><trkpt lat="44.26848835182886" lon="11.50139691357969"><ele>440.0</ele><time>2026-03-28T09:06:09Z</time></trkpt><trkpt lat="44.26847382982957" lon="11.501239222643735"><ele>439.0</ele><time>2026-03-28T09:06:11Z</time></trkpt><trkpt lat="44.26845110223987" lon="11.501157111661074"><ele>437.57142857142856</ele><time>2026-03-28T09:06:12Z</time></trkpt><trkpt lat="44.268424572348614" lon="11.501071807506385"><ele>436.1428571428571</ele><time>2026-03-28T09:06:13Z</time></trkpt><trkpt lat="44.268396444461274" lon="11.50098308226892"><ele>434.7142857142857</ele><time>2026-03-28T09:06:14Z</time></trkpt><trkpt lat="44.268367053154414" lon="11.500892672733226"><ele>433.2857142857143</ele><time>2026-03-28T09:06:15Z</time></trkpt><trkpt lat="44.26833846877164" lon="11.5007997122173"><ele>431.8571428571429</ele><time>2026-03-28T09:06:16Z</time></trkpt><trkpt lat="44.26831247133459" lon="11.50070432849282"><ele>430.42857142857144</ele><time>2026-03-28T09:06:17Z</time></trkpt><trkpt lat="44.268290943155016" lon="11.500605710141933"><ele>429.0</ele><time>2026-03-28T09:06:18Z</time></trkpt><trkpt lat="44.268281390035774" lon="11.500506147901142"><ele>427.6666666666667</ele><time>2026-03-28T09:06:19Z</time></trkpt><trkpt lat="44.268283167224624" lon="11.5004060142881"><ele>426.33333333333337</ele><time>2026-03-28T09:06:20Z</time></trkpt><trkpt lat="44.26829744300684" lon="11.500304622154179"><ele>425.0</ele><time>2026-03-28T09:06:21Z</time></trkpt><trkpt lat="44.26831572128021" lon="11.50020553977607"><ele>423.6666666666667</ele><time>2026-03-28T09:06:22Z</time></trkpt><trkpt lat="44.26833594815331" lon="11.500104046038786"><ele>422.33333333333337</ele><time>2026-03-28T09:06:23Z</time></trkpt><trkpt lat="44.26837463729957" lon="11.499906504296375"><ele>421.0</ele><time>2026-03-28T09:06:25Z</time></trkpt><trkpt lat="44.26839328809809" lon="11.499819596543182"><ele>421.00000000000006</ele><time>2026-03-28T09:06:26Z</time></trkpt><trkpt lat="44.26842237982806" lon="11.499669334043496"><ele>421.0</ele><time>2026-03-28T09:06:28Z</time></trkpt><trkpt lat="44.268445786482616" lon="11.49954285367296"><ele>421.0</ele><time>2026-03-28T09:06:30Z</time></trkpt><trkpt lat="44.26846206708287" lon="11.499437499338951"><ele>421.0</ele><time>2026-03-28T09:06:32Z</time></trkpt><trkpt lat="44.2684792742774" lon="11.49934308991361"><ele>421.00000000000006</ele><time>2026-03-28T09:06:34Z</time></trkpt><trkpt lat="44.26849602972364" lon="11.499219092956391"><ele>421.0</ele><time>2026-03-28T09:06:37Z</time></trkpt><trkpt lat="44.268461209593724" lon="11.499136974270126"><ele>420.1666666666667</ele><time>2026-03-28T09:06:39Z</time></trkpt><trkpt lat="44.26842053754607" lon="11.499064657094257"><ele>419.33333333333337</ele><time>2026-03-28T09:06:41Z</time></trkpt><trkpt lat="44.26840194512854" lon="11.498979734501079"><ele>418.5</ele><time>2026-03-28T09:06:43Z</time></trkpt><trkpt lat="44.26844449373511" lon="11.498906143666705"><ele>417.66666666666663</ele><time>2026-03-28T09:06:46Z</time></trkpt><trkpt lat="44.26853261654295" lon="11.498951057228913"><ele>416.8333333333333</ele><time>2026-03-28T09:06:49Z</time></trkpt><trkpt lat="44.26860169153199" lon="11.499008478428415"><ele>416.0</ele><time>2026-03-28T09:06:51Z</time></trkpt><trkpt lat="44.26868432874715" lon="11.499051725455566"><ele>416.0</ele><time>2026-03-28T09:06:53Z</time></trkpt><trkpt lat="44.268767669722926" lon="11.499092839757191"><ele>416.0</ele><time>2026-03-28T09:06:55Z</time></trkpt><trkpt lat="44.26885420498259" lon="11.499135351987283"><ele>416.0</ele><time>2026-03-28T09:06:57Z</time></trkpt><trkpt lat="44.268937057375716" lon="11.499176287100132"><ele>416.0</ele><time>2026-03-28T09:06:59Z</time></trkpt><trkpt lat="44.269030320511945" lon="11.499256751368616"><ele>416.0</ele><time>2026-03-28T09:07:01Z</time></trkpt><trkpt lat="44.269109258296915" lon="11.499367824149141"><ele>415.99999999999994</ele><time>2026-03-28T09:07:03Z</time></trkpt><trkpt lat="44.26917348815201" lon="11.499499886348593"><ele>416.0</ele><time>2026-03-28T09:07:05Z</time></trkpt><trkpt lat="44.269251087858436" lon="11.49961636447235"><ele>416.0</ele><time>2026-03-28T09:07:07Z</time></trkpt><trkpt lat="44.26930249300519" lon="11.499667546307046"><ele>416.0</ele><time>2026-03-28T09:07:08Z</time></trkpt><trkpt lat="44.26935514213548" lon="11.499718145817448"><ele>415.99999999999994</ele><time>2026-03-28T09:07:09Z</time></trkpt><trkpt lat="44.26941042454887" lon="11.49977050905096"><ele>416.0</ele><time>2026-03-28T09:07:10Z</time></trkpt><trkpt lat="44.26946472856545" lon="11.499822346666424"><ele>415.99999999999994</ele><time>2026-03-28T09:07:11Z</time></trkpt><trkpt lat="44.2695232301291" lon="11.499871534037316"><ele>416.0</ele><time>2026-03-28T09:07:12Z</time></trkpt><trkpt lat="44.269579448997504" lon="11.499915747637136"><ele>416.0</ele><time>2026-03-28T09:07:13Z</time></trkpt><trkpt lat="44.26966841481236" lon="11.499950377004179"><ele>416.0</ele><time>2026-03-28T09:07:15Z</time></trkpt><trkpt lat="44.26973423731123" lon="11.499901163107092"><ele>415.99999999999994</ele><time>2026-03-28T09:07:17Z</time></trkpt><trkpt lat="44.26973413816597" lon="11.499761534530116"><ele>416.0</ele><time>2026-03-28T09:07:19Z</time></trkpt><trkpt lat="44.26971348715689" lon="11.49967338301345"><ele>414.49999999999994</ele><time>2026-03-28T09:07:20Z</time></trkpt><trkpt lat="44.26969128517497" lon="11.499569279539177"><ele>413.0</ele><time>2026-03-28T09:07:21Z</time></trkpt><trkpt lat="44.26966702803154" lon="11.499466618320955"><ele>411.5</ele><time>2026-03-28T09:07:22Z</time></trkpt><trkpt lat="44.26964120406831" lon="11.49936122866274"><ele>410.0</ele><time>2026-03-28T09:07:23Z</time></trkpt><trkpt lat="44.26961147355792" lon="11.499261778094349"><ele>408.49999999999994</ele><time>2026-03-28T09:07:24Z</time></trkpt><trkpt lat="44.26957440941097" lon="11.499164424224986"><ele>407.0</ele><time>2026-03-28T09:07:25Z</time></trkpt><trkpt lat="44.2695257647854" lon="11.499069826088748"><ele>407.0</ele><time>2026-03-28T09:07:26Z</time></trkpt><trkpt lat="44.269465129942816" lon="11.49897999489584"><ele>407.0</ele><time>2026-03-28T09:07:27Z</time></trkpt><trkpt lat="44.26939434604888" lon="11.498894773171493"><ele>407.0</ele><time>2026-03-28T09:07:28Z</time></trkpt><trkpt lat="44.26931785068701" lon="11.498806312152887"><ele>407.0</ele><time>2026-03-28T09:07:29Z</time></trkpt><trkpt lat="44.26923767894717" lon="11.498711811553934"><ele>407.0</ele><time>2026-03-28T09:07:30Z</time></trkpt><trkpt lat="44.26915481864873" lon="11.49861214518813"><ele>406.25</ele><time>2026-03-28T09:07:31Z</time></trkpt><trkpt lat="44.26906922861849" lon="11.498511760138019"><ele>405.5</ele><time>2026-03-28T09:07:32Z</time></trkpt><trkpt lat="44.268981258888815" lon="11.498406533194057"><ele>404.75</ele><time>2026-03-28T09:07:33Z</time></trkpt><trkpt lat="44.26888990799717" lon="11.498296546507174"><ele>404.0</ele><time>2026-03-28T09:07:34Z</time></trkpt><trkpt lat="44.268796668795666" lon="11.498186753162072"><ele>404.0</ele><time>2026-03-28T09:07:35Z</time></trkpt><trkpt lat="44.26870257906127" lon="11.498076806340501"><ele>404.0</ele><time>2026-03-28T09:07:36Z</time></trkpt><trkpt lat="44.26860853724586" lon="11.497967954434182"><ele>404.0</ele><time>2026-03-28T09:07:37Z</time></trkpt><trkpt lat="44.26851523328942" lon="11.49785826823597"><ele>404.0</ele><time>2026-03-28T09:07:38Z</time></trkpt><trkpt lat="44.268422191214306" lon="11.497747265959893"><ele>400.0</ele><time>2026-03-28T09:07:39Z</time></trkpt><trkpt lat="44.26832828018593" lon="11.497635342151622"><ele>396.0</ele><time>2026-03-28T09:07:40Z</time></trkpt><trkpt lat="44.268233990059905" lon="11.497523052661784"><ele>392.0</ele><time>2026-03-28T09:07:41Z</time></trkpt><trkpt lat="44.26813931856171" lon="11.497408343527708"><ele>388.0</ele><time>2026-03-28T09:07:42Z</time></trkpt><trkpt lat="44.26804275417058" lon="11.497293067239177"><ele>388.0</ele><time>2026-03-28T09:07:43Z</time></trkpt><trkpt lat="44.267944676709426" lon="11.497177027386034"><ele>388.0</ele><time>2026-03-28T09:07:44Z</time></trkpt><trkpt lat="44.26784862220669" lon="11.49705274933317"><ele>388.0</ele><time>2026-03-28T09:07:45Z</time></trkpt><trkpt lat="44.26775149286712" lon="11.49693543828566"><ele>388.0</ele><time>2026-03-28T09:07:46Z</time></trkpt><trkpt lat="44.26765486017374" lon="11.496814895664276"><ele>385.5</ele><time>2026-03-28T09:07:47Z</time></trkpt><trkpt lat="44.26755798244214" lon="11.496694483152433"><ele>383.0</ele><time>2026-03-28T09:07:48Z</time></trkpt><trkpt lat="44.26746335173541" lon="11.496581384718956"><ele>380.5</ele><time>2026-03-28T09:07:49Z</time></trkpt><trkpt lat="44.26737241030808" lon="11.496483321097728"><ele>378.0</ele><time>2026-03-28T09:07:50Z</time></trkpt><trkpt lat="44.26727741078247" lon="11.49640529432559"><ele>378.79999999999995</ele><time>2026-03-28T09:07:51Z</time></trkpt><trkpt lat="44.26717859378213" lon="11.496347794072138"><ele>379.6</ele><time>2026-03-28T09:07:52Z</time></trkpt><trkpt lat="44.26707259961422" lon="11.496316083615302"><ele>380.4</ele><time>2026-03-28T09:07:53Z</time></trkpt><trkpt lat="44.26696326211872" lon="11.496310826543262"><ele>381.20000000000005</ele><time>2026-03-28T09:07:54Z</time></trkpt><trkpt lat="44.26685356751974" lon="11.496328561399817"><ele>382.0</ele><time>2026-03-28T09:07:55Z</time></trkpt><trkpt lat="44.266742676887475" lon="11.49635143150766"><ele>382.0</ele><time>2026-03-28T09:07:56Z</time></trkpt><trkpt lat="44.266638522535104" lon="11.496366498290222"><ele>382.0</ele><time>2026-03-28T09:07:57Z</time></trkpt><trkpt lat="44.26654504661696" lon="11.496379897589957"><ele>382.0</ele><time>2026-03-28T09:07:58Z</time></trkpt><trkpt lat="44.266457357213774" lon="11.496372395292763"><ele>382.0</ele><time>2026-03-28T09:07:59Z</time></trkpt><trkpt lat="44.26637894744439" lon="11.49633492940493"><ele>382.0</ele><time>2026-03-28T09:08:00Z</time></trkpt><trkpt lat="44.266316971250056" lon="11.496266597391136"><ele>382.0</ele><time>2026-03-28T09:08:01Z</time></trkpt><trkpt lat="44.26627601571629" lon="11.496174049628983"><ele>380.3333333333333</ele><time>2026-03-28T09:08:02Z</time></trkpt><trkpt lat="44.266259723009384" lon="11.496062711494655"><ele>378.66666666666663</ele><time>2026-03-28T09:08:03Z</time></trkpt><trkpt lat="44.266271583460096" lon="11.495952432339788"><ele>377.0</ele><time>2026-03-28T09:08:04Z</time></trkpt><trkpt lat="44.266311772595884" lon="11.495844258626983"><ele>375.3333333333333</ele><time>2026-03-28T09:08:05Z</time></trkpt><trkpt lat="44.26637315535687" lon="11.495750783921649"><ele>373.6666666666667</ele><time>2026-03-28T09:08:06Z</time></trkpt><trkpt lat="44.266455810783135" lon="11.495673275316967"><ele>372.0</ele><time>2026-03-28T09:08:07Z</time></trkpt><trkpt lat="44.2665498187586" lon="11.49558983498039"><ele>370.5</ele><time>2026-03-28T09:08:08Z</time></trkpt><trkpt lat="44.2666544221744" lon="11.495493691067002"><ele>369.0</ele><time>2026-03-28T09:08:09Z</time></trkpt><trkpt lat="44.26676908839468" lon="11.495390138163188"><ele>367.5</ele><time>2026-03-28T09:08:10Z</time></trkpt><trkpt lat="44.266886357148024" lon="11.495287007779087"><ele>366.0</ele><time>2026-03-28T09:08:11Z</time></trkpt><trkpt lat="44.267010226093" lon="11.495177137441967"><ele>364.6666666666667</ele><time>2026-03-28T09:08:12Z</time></trkpt><trkpt lat="44.26713692394365" lon="11.495061234754651"><ele>363.33333333333337</ele><time>2026-03-28T09:08:13Z</time></trkpt><trkpt lat="44.2672677485783" lon="11.494943576116817"><ele>362.0</ele><time>2026-03-28T09:08:14Z</time></trkpt><trkpt lat="44.267400028799095" lon="11.494826069544487"><ele>362.0</ele><time>2026-03-28T09:08:15Z</time></trkpt><trkpt lat="44.26753162378367" lon="11.494708213089572"><ele>362.0</ele><time>2026-03-28T09:08:16Z</time></trkpt><trkpt lat="44.267664812299664" lon="11.494588713230648"><ele>362.0</ele><time>2026-03-28T09:08:17Z</time></trkpt><trkpt lat="44.26781043625028" lon="11.494473559592631"><ele>360.0</ele><time>2026-03-28T09:08:18Z</time></trkpt><trkpt lat="44.26794057442828" lon="11.49436288846652"><ele>358.0</ele><time>2026-03-28T09:08:19Z</time></trkpt><trkpt lat="44.26806814540471" lon="11.494247429276642"><ele>356.0</ele><time>2026-03-28T09:08:20Z</time></trkpt><trkpt lat="44.26819486604727" lon="11.494128778485829"><ele>356.0</ele><time>2026-03-28T09:08:21Z</time></trkpt><trkpt lat="44.268325154359104" lon="11.494010525839427"><ele>356.0</ele><time>2026-03-28T09:08:22Z</time></trkpt><trkpt lat="44.268452420361314" lon="11.493887011018128"><ele>356.0</ele><time>2026-03-28T09:08:23Z</time></trkpt><trkpt lat="44.268573158201185" lon="11.493768036484303"><ele>357.25</ele><time>2026-03-28T09:08:24Z</time></trkpt><trkpt lat="44.268689861841985" lon="11.493659490956604"><ele>358.5</ele><time>2026-03-28T09:08:25Z</time></trkpt><trkpt lat="44.26880677694406" lon="11.493558384138689"><ele>359.75</ele><time>2026-03-28T09:08:26Z</time></trkpt><trkpt lat="44.26892769228038" lon="11.493482507843177"><ele>361.0</ele><time>2026-03-28T09:08:27Z</time></trkpt><trkpt lat="44.26905285164553" lon="11.49343751212639"><ele>361.75</ele><time>2026-03-28T09:08:28Z</time></trkpt><trkpt lat="44.269188881001" lon="11.493431805219455"><ele>362.5</ele><time>2026-03-28T09:08:29Z</time></trkpt><trkpt lat="44.26932203649206" lon="11.493467949779909"><ele>363.25</ele><time>2026-03-28T09:08:30Z</time></trkpt><trkpt lat="44.26945239358038" lon="11.493535964441003"><ele>364.0</ele><time>2026-03-28T09:08:31Z</time></trkpt><trkpt lat="44.26957023780443" lon="11.493620727061538"><ele>364.0</ele><time>2026-03-28T09:08:32Z</time></trkpt><trkpt lat="44.269675855037626" lon="11.493704923891311"><ele>364.0</ele><time>2026-03-28T09:08:33Z</time></trkpt><trkpt lat="44.26977331525298" lon="11.493769231999966"><ele>364.0</ele><time>2026-03-28T09:08:34Z</time></trkpt><trkpt lat="44.26986439552583" lon="11.4937903874387"><ele>364.0</ele><time>2026-03-28T09:08:35Z</time></trkpt><trkpt lat="44.26995190747726" lon="11.493752985565651"><ele>364.0</ele><time>2026-03-28T09:08:36Z</time></trkpt><trkpt lat="44.270018017155934" lon="11.493681813934202"><ele>365.79999999999995</ele><time>2026-03-28T09:08:37Z</time></trkpt><trkpt lat="44.27006431135964" lon="11.493573340778521"><ele>367.59999999999997</ele><time>2026-03-28T09:08:38Z</time></trkpt><trkpt lat="44.27006824424233" lon="11.493450436851726"><ele>369.4</ele><time>2026-03-28T09:08:39Z</time></trkpt><trkpt lat="44.27004936007929" lon="11.49331979317206"><ele>371.2</ele><time>2026-03-28T09:08:40Z</time></trkpt><trkpt lat="44.26999162845161" lon="11.49320544559264"><ele>373.0</ele><time>2026-03-28T09:08:41Z</time></trkpt><trkpt lat="44.269912067645045" lon="11.493103685391837"><ele>373.0</ele><time>2026-03-28T09:08:42Z</time></trkpt><trkpt lat="44.2698267550764" lon="11.492992938642379"><ele>373.0</ele><time>2026-03-28T09:08:43Z</time></trkpt><trkpt lat="44.26973735808842" lon="11.49286945954151"><ele>373.0</ele><time>2026-03-28T09:08:44Z</time></trkpt><trkpt lat="44.269647813825976" lon="11.492739403101192"><ele>373.0</ele><time>2026-03-28T09:08:45Z</time></trkpt><trkpt lat="44.269556421849344" lon="11.492611392743141"><ele>374.75</ele><time>2026-03-28T09:08:46Z</time></trkpt><trkpt lat="44.26946150494918" lon="11.492491760514921"><ele>376.5</ele><time>2026-03-28T09:08:47Z</time></trkpt><trkpt lat="44.26935853311786" lon="11.492386474409296"><ele>378.25</ele><time>2026-03-28T09:08:48Z</time></trkpt><trkpt lat="44.269241804757705" lon="11.492305771646645"><ele>380.0</ele><time>2026-03-28T09:08:49Z</time></trkpt><trkpt lat="44.269114976150284" lon="11.492256055774028"><ele>380.0</ele><time>2026-03-28T09:08:50Z</time></trkpt><trkpt lat="44.268991152144956" lon="11.492226087739342"><ele>380.0</ele><time>2026-03-28T09:08:51Z</time></trkpt><trkpt lat="44.26886565741691" lon="11.492208689456751"><ele>380.0</ele><time>2026-03-28T09:08:52Z</time></trkpt><trkpt lat="44.26874478872748" lon="11.49218891315271"><ele>380.0</ele><time>2026-03-28T09:08:53Z</time></trkpt><trkpt lat="44.26862928903032" lon="11.492161423717683"><ele>379.0</ele><time>2026-03-28T09:08:54Z</time></trkpt><trkpt lat="44.26852048234661" lon="11.492109108391048"><ele>378.0</ele><time>2026-03-28T09:08:55Z</time></trkpt><trkpt lat="44.26842787478652" lon="11.492014448580774"><ele>377.0</ele><time>2026-03-28T09:08:56Z</time></trkpt><trkpt lat="44.2683478713533" lon="11.491896568090215"><ele>376.0</ele><time>2026-03-28T09:08:57Z</time></trkpt><trkpt lat="44.268278575139014" lon="11.491761609382852"><ele>380.0</ele><time>2026-03-28T09:08:58Z</time></trkpt><trkpt lat="44.268206638649296" lon="11.491632347182996"><ele>384.0</ele><time>2026-03-28T09:08:59Z</time></trkpt><trkpt lat="44.26811885584383" lon="11.491524618044632"><ele>388.0</ele><time>2026-03-28T09:09:00Z</time></trkpt><trkpt lat="44.26801593440659" lon="11.491450655174154"><ele>392.0</ele><time>2026-03-28T09:09:01Z</time></trkpt><trkpt lat="44.267902141912344" lon="11.491416650928025"><ele>392.0</ele><time>2026-03-28T09:09:02Z</time></trkpt><trkpt lat="44.26778490030088" lon="11.49142192452808"><ele>392.0</ele><time>2026-03-28T09:09:03Z</time></trkpt><trkpt lat="44.267669139157974" lon="11.49145058860845"><ele>392.0</ele><time>2026-03-28T09:09:04Z</time></trkpt><trkpt lat="44.26754683555825" lon="11.491480782271267"><ele>392.0</ele><time>2026-03-28T09:09:05Z</time></trkpt><trkpt lat="44.26742470017025" lon="11.491481969804836"><ele>392.0</ele><time>2026-03-28T09:09:06Z</time></trkpt><trkpt lat="44.26730511551659" lon="11.491451934614691"><ele>392.0</ele><time>2026-03-28T09:09:07Z</time></trkpt><trkpt lat="44.26718506140771" lon="11.491393899861274"><ele>392.0</ele><time>2026-03-28T09:09:08Z</time></trkpt><trkpt lat="44.26706566744397" lon="11.49132338532081"><ele>392.0</ele><time>2026-03-28T09:09:09Z</time></trkpt><trkpt lat="44.26694408652718" lon="11.491249237685217"><ele>395.5</ele><time>2026-03-28T09:09:10Z</time></trkpt><trkpt lat="44.266824187270316" lon="11.491181836671803"><ele>399.0</ele><time>2026-03-28T09:09:11Z</time></trkpt><trkpt lat="44.26670874594084" lon="11.491116536741366"><ele>402.5</ele><time>2026-03-28T09:09:12Z</time></trkpt><trkpt lat="44.266598092928334" lon="11.4910523116826"><ele>406.0</ele><time>2026-03-28T09:09:13Z</time></trkpt><trkpt lat="44.26649192466288" lon="11.490975205498076"><ele>401.5</ele><time>2026-03-28T09:09:14Z</time></trkpt><trkpt lat="44.266395382805555" lon="11.490877518900676"><ele>397.0</ele><time>2026-03-28T09:09:15Z</time></trkpt><trkpt lat="44.266313169305185" lon="11.490758960084626"><ele>392.5</ele><time>2026-03-28T09:09:16Z</time></trkpt><trkpt lat="44.26624570853691" lon="11.490622685075191"><ele>388.0</ele><time>2026-03-28T09:09:17Z</time></trkpt><trkpt lat="44.266201382350346" lon="11.490465344383741"><ele>390.25</ele><time>2026-03-28T09:09:18Z</time></trkpt><trkpt lat="44.26617335825915" lon="11.490290448121536"><ele>392.5</ele><time>2026-03-28T09:09:19Z</time></trkpt><trkpt lat="44.26616393942909" lon="11.490106273217247"><ele>394.75</ele><time>2026-03-28T09:09:20Z</time></trkpt><trkpt lat="44.2661606856165" lon="11.489920928582885"><ele>397.0</ele><time>2026-03-28T09:09:21Z</time></trkpt><trkpt lat="44.26615669387931" lon="11.489724130202026"><ele>399.0</ele><time>2026-03-28T09:09:22Z</time></trkpt><trkpt lat="44.26614377423664" lon="11.489531293945571"><ele>401.0</ele><time>2026-03-28T09:09:23Z</time></trkpt><trkpt lat="44.266122870065466" lon="11.489356234940415"><ele>403.0</ele><time>2026-03-28T09:09:24Z</time></trkpt><trkpt lat="44.2660989322403" lon="11.489173194798155"><ele>405.0</ele><time>2026-03-28T09:09:25Z</time></trkpt><trkpt lat="44.266066414583065" lon="11.488988134008263"><ele>405.0</ele><time>2026-03-28T09:09:26Z</time></trkpt><trkpt lat="44.266021882914096" lon="11.488808676230537"><ele>405.0</ele><time>2026-03-28T09:09:27Z</time></trkpt><trkpt lat="44.265959035995074" lon="11.48863584098333"><ele>405.0</ele><time>2026-03-28T09:09:28Z</time></trkpt><trkpt lat="44.265881275110424" lon="11.488478804363679"><ele>405.0</ele><time>2026-03-28T09:09:29Z</time></trkpt><trkpt lat="44.265792364894246" lon="11.488333071764007"><ele>405.5</ele><time>2026-03-28T09:09:30Z</time></trkpt><trkpt lat="44.26569655368665" lon="11.488196775673444"><ele>406.0</ele><time>2026-03-28T09:09:31Z</time></trkpt><trkpt lat="44.26560469359749" lon="11.488065308870034"><ele>406.5</ele><time>2026-03-28T09:09:32Z</time></trkpt><trkpt lat="44.265512019387344" lon="11.487941094179945"><ele>407.0</ele><time>2026-03-28T09:09:33Z</time></trkpt><trkpt lat="44.265414286808344" lon="11.487826558678316"><ele>410.75</ele><time>2026-03-28T09:09:34Z</time></trkpt><trkpt lat="44.26531511378265" lon="11.48771464724307"><ele>414.5</ele><time>2026-03-28T09:09:35Z</time></trkpt><trkpt lat="44.26521565009521" lon="11.487606289495595"><ele>418.25</ele><time>2026-03-28T09:09:36Z</time></trkpt><trkpt lat="44.265119243748565" lon="11.487492371727194"><ele>422.0</ele><time>2026-03-28T09:09:37Z</time></trkpt><trkpt lat="44.265025136824754" lon="11.487376888676678"><ele>422.0</ele><time>2026-03-28T09:09:38Z</time></trkpt><trkpt lat="44.264931082153495" lon="11.48726058597696"><ele>422.0</ele><time>2026-03-28T09:09:39Z</time></trkpt><trkpt lat="44.264836727052625" lon="11.487144399841224"><ele>422.0</ele><time>2026-03-28T09:09:40Z</time></trkpt><trkpt lat="44.2647405929187" lon="11.487024175976119"><ele>422.0</ele><time>2026-03-28T09:09:41Z</time></trkpt><trkpt lat="44.26464601562792" lon="11.486903957461257"><ele>422.20000000000005</ele><time>2026-03-28T09:09:42Z</time></trkpt><trkpt lat="44.2645586820182" lon="11.486789852835926"><ele>422.4</ele><time>2026-03-28T09:09:43Z</time></trkpt><trkpt lat="44.26447972329965" lon="11.48668777002929"><ele>422.6</ele><time>2026-03-28T09:09:44Z</time></trkpt><trkpt lat="44.26440753400731" lon="11.48659046573679"><ele>422.79999999999995</ele><time>2026-03-28T09:09:45Z</time></trkpt><trkpt lat="44.2643455037253" lon="11.486502143931789"><ele>423.0</ele><time>2026-03-28T09:09:46Z</time></trkpt><trkpt lat="44.26429357991924" lon="11.48641980903069"><ele>423.0</ele><time>2026-03-28T09:09:47Z</time></trkpt><trkpt lat="44.2642558399409" lon="11.486340930780953"><ele>423.0</ele><time>2026-03-28T09:09:48Z</time></trkpt><trkpt lat="44.26421134220923" lon="11.486209741472697"><ele>423.0</ele><time>2026-03-28T09:09:50Z</time></trkpt><trkpt lat="44.26418450408224" lon="11.48608837237979"><ele>423.0</ele><time>2026-03-28T09:09:52Z</time></trkpt><trkpt lat="44.26411809429443" lon="11.486024293097024"><ele>423.0</ele><time>2026-03-28T09:09:54Z</time></trkpt><trkpt lat="44.26401006916429" lon="11.486023819961348"><ele>424.79999999999995</ele><time>2026-03-28T09:09:56Z</time></trkpt><trkpt lat="44.2639126546697" lon="11.48595253888157"><ele>426.6</ele><time>2026-03-28T09:09:58Z</time></trkpt><trkpt lat="44.26385926404404" lon="11.485800279152436"><ele>428.40000000000003</ele><time>2026-03-28T09:10:00Z</time></trkpt><trkpt lat="44.26384822081735" lon="11.48570574536839"><ele>430.20000000000005</ele><time>2026-03-28T09:10:01Z</time></trkpt><trkpt lat="44.26384065465518" lon="11.485594458451455"><ele>432.0</ele><time>2026-03-28T09:10:02Z</time></trkpt><trkpt lat="44.26383287636178" lon="11.485481381931029"><ele>432.0</ele><time>2026-03-28T09:10:03Z</time></trkpt><trkpt lat="44.26382485127197" lon="11.485381418347703"><ele>432.0</ele><time>2026-03-28T09:10:04Z</time></trkpt><trkpt lat="44.26381618261065" lon="11.485285743381127"><ele>432.0</ele><time>2026-03-28T09:10:05Z</time></trkpt><trkpt lat="44.26380290163941" lon="11.485179624001582"><ele>432.0</ele><time>2026-03-28T09:10:06Z</time></trkpt><trkpt lat="44.26378490633381" lon="11.485063253460833"><ele>432.0</ele><time>2026-03-28T09:10:07Z</time></trkpt><trkpt lat="44.26376283943408" lon="11.484946910498273"><ele>432.0</ele><time>2026-03-28T09:10:08Z</time></trkpt><trkpt lat="44.26373536919022" lon="11.48482898182584"><ele>432.0</ele><time>2026-03-28T09:10:09Z</time></trkpt><trkpt lat="44.263705942570496" lon="11.484705823101653"><ele>432.0</ele><time>2026-03-28T09:10:10Z</time></trkpt><trkpt lat="44.263675849023365" lon="11.484593445861242"><ele>432.0</ele><time>2026-03-28T09:10:11Z</time></trkpt><trkpt lat="44.26364133020684" lon="11.484488022352958"><ele>432.0</ele><time>2026-03-28T09:10:12Z</time></trkpt><trkpt lat="44.26359691712467" lon="11.48438919126829"><ele>432.0</ele><time>2026-03-28T09:10:13Z</time></trkpt><trkpt lat="44.26354128462803" lon="11.484300793561186"><ele>432.0</ele><time>2026-03-28T09:10:14Z</time></trkpt><trkpt lat="44.263475263422436" lon="11.484227366033585"><ele>432.1666666666667</ele><time>2026-03-28T09:10:15Z</time></trkpt><trkpt lat="44.26340537878834" lon="11.484162810792832"><ele>432.33333333333337</ele><time>2026-03-28T09:10:16Z</time></trkpt><trkpt lat="44.26333418024484" lon="11.484107785230293"><ele>432.5</ele><time>2026-03-28T09:10:17Z</time></trkpt><trkpt lat="44.263258734890385" lon="11.484065629802396"><ele>432.6666666666667</ele><time>2026-03-28T09:10:18Z</time></trkpt><trkpt lat="44.263179787136295" lon="11.4840374808579"><ele>432.83333333333337</ele><time>2026-03-28T09:10:19Z</time></trkpt><trkpt lat="44.263093555461325" lon="11.484021827173775"><ele>433.0</ele><time>2026-03-28T09:10:20Z</time></trkpt><trkpt lat="44.263007945448756" lon="11.48401191531104"><ele>433.00000000000006</ele><time>2026-03-28T09:10:21Z</time></trkpt><trkpt lat="44.262923000693505" lon="11.484001956739736"><ele>433.0</ele><time>2026-03-28T09:10:22Z</time></trkpt><trkpt lat="44.262836052135675" lon="11.48399299457459"><ele>433.0</ele><time>2026-03-28T09:10:23Z</time></trkpt><trkpt lat="44.2627470478507" lon="11.483980110481411"><ele>433.0</ele><time>2026-03-28T09:10:24Z</time></trkpt><trkpt lat="44.262660808736186" lon="11.483961266373257"><ele>433.00000000000006</ele><time>2026-03-28T09:10:25Z</time></trkpt><trkpt lat="44.262576889971704" lon="11.48393396193101"><ele>433.0</ele><time>2026-03-28T09:10:26Z</time></trkpt><trkpt lat="44.26248607167467" lon="11.483899114532626"><ele>433.0</ele><time>2026-03-28T09:10:27Z</time></trkpt><trkpt lat="44.26239435529732" lon="11.483853106985686"><ele>432.99999999999994</ele><time>2026-03-28T09:10:28Z</time></trkpt><trkpt lat="44.26230346156154" lon="11.48380412901978"><ele>432.99999999999994</ele><time>2026-03-28T09:10:29Z</time></trkpt><trkpt lat="44.26221814431196" lon="11.483751165484321"><ele>433.0</ele><time>2026-03-28T09:10:30Z</time></trkpt><trkpt lat="44.26213339088862" lon="11.483696219668582"><ele>433.0</ele><time>2026-03-28T09:10:31Z</time></trkpt><trkpt lat="44.262049707722184" lon="11.483644539213676"><ele>432.83333333333337</ele><time>2026-03-28T09:10:32Z</time></trkpt><trkpt lat="44.26196604892543" lon="11.483592614614281"><ele>432.6666666666667</ele><time>2026-03-28T09:10:33Z</time></trkpt><trkpt lat="44.26188404313174" lon="11.48353987205387"><ele>432.5</ele><time>2026-03-28T09:10:34Z</time></trkpt><trkpt lat="44.26180324974484" lon="11.483489940404787"><ele>432.33333333333337</ele><time>2026-03-28T09:10:35Z</time></trkpt><trkpt lat="44.26172255261173" lon="11.483439726495524"><ele>432.1666666666667</ele><time>2026-03-28T09:10:36Z</time></trkpt><trkpt lat="44.26164567846664" lon="11.483387295578158"><ele>432.0</ele><time>2026-03-28T09:10:37Z</time></trkpt><trkpt lat="44.261569717812144" lon="11.48333656286395"><ele>432.0</ele><time>2026-03-28T09:10:38Z</time></trkpt><trkpt lat="44.2614972149061" lon="11.483287805469434"><ele>432.0</ele><time>2026-03-28T09:10:39Z</time></trkpt><trkpt lat="44.26142292941703" lon="11.483239482410907"><ele>432.0</ele><time>2026-03-28T09:10:40Z</time></trkpt><trkpt lat="44.261349218861625" lon="11.483195200206291"><ele>432.0</ele><time>2026-03-28T09:10:41Z</time></trkpt><trkpt lat="44.26127729452152" lon="11.4831486870135"><ele>432.0</ele><time>2026-03-28T09:10:42Z</time></trkpt><trkpt lat="44.261207960806196" lon="11.483107683528528"><ele>432.0</ele><time>2026-03-28T09:10:43Z</time></trkpt><trkpt lat="44.26113995566646" lon="11.483062973994963"><ele>432.85714285714283</ele><time>2026-03-28T09:10:44Z</time></trkpt><trkpt lat="44.26107449312722" lon="11.483020310282074"><ele>433.71428571428567</ele><time>2026-03-28T09:10:45Z</time></trkpt><trkpt lat="44.261010402190536" lon="11.482978003591024"><ele>434.57142857142856</ele><time>2026-03-28T09:10:46Z</time></trkpt><trkpt lat="44.26094493621918" lon="11.482933439888361"><ele>435.42857142857144</ele><time>2026-03-28T09:10:47Z</time></trkpt><trkpt lat="44.26088358977728" lon="11.482891649536846"><ele>436.2857142857143</ele><time>2026-03-28T09:10:48Z</time></trkpt><trkpt lat="44.26082375802674" lon="11.482855493699985"><ele>437.14285714285717</ele><time>2026-03-28T09:10:49Z</time></trkpt><trkpt lat="44.26076542194254" lon="11.482820937541252"><ele>438.0</ele><time>2026-03-28T09:10:50Z</time></trkpt><trkpt lat="44.26065291339313" lon="11.482745128949698"><ele>438.4</ele><time>2026-03-28T09:10:52Z</time></trkpt><trkpt lat="44.26055020231473" lon="11.48269840615111"><ele>438.79999999999995</ele><time>2026-03-28T09:10:54Z</time></trkpt><trkpt lat="44.2604529335872" lon="11.482723831604533"><ele>439.2</ele><time>2026-03-28T09:10:56Z</time></trkpt><trkpt lat="44.26037588689111" lon="11.482819606852933"><ele>439.6</ele><time>2026-03-28T09:10:58Z</time></trkpt><trkpt lat="44.26029965874634" lon="11.482914443020453"><ele>440.0</ele><time>2026-03-28T09:11:00Z</time></trkpt><trkpt lat="44.26023048779929" lon="11.482995152259559"><ele>439.99999999999994</ele><time>2026-03-28T09:11:02Z</time></trkpt><trkpt lat="44.260169420850296" lon="11.48307769245186"><ele>440.0</ele><time>2026-03-28T09:11:04Z</time></trkpt><trkpt lat="44.26010525380553" lon="11.483154034253653"><ele>440.0</ele><time>2026-03-28T09:11:06Z</time></trkpt><trkpt lat="44.259992561241205" lon="11.483224786647565"><ele>440.0</ele><time>2026-03-28T09:11:08Z</time></trkpt><trkpt lat="44.259932079659364" lon="11.4832650900609"><ele>439.99999999999994</ele><time>2026-03-28T09:11:09Z</time></trkpt><trkpt lat="44.25987101751357" lon="11.483310346648944"><ele>440.0</ele><time>2026-03-28T09:11:10Z</time></trkpt><trkpt lat="44.25980765482807" lon="11.483361067238286"><ele>442.1428571428571</ele><time>2026-03-28T09:11:11Z</time></trkpt><trkpt lat="44.25974476540994" lon="11.483410738915609"><ele>444.2857142857143</ele><time>2026-03-28T09:11:12Z</time></trkpt><trkpt lat="44.25968117517273" lon="11.483458946941061"><ele>446.42857142857144</ele><time>2026-03-28T09:11:13Z</time></trkpt><trkpt lat="44.25962020167455" lon="11.483507519083485"><ele>448.57142857142856</ele><time>2026-03-28T09:11:14Z</time></trkpt><trkpt lat="44.25955965926816" lon="11.483552904208599"><ele>450.7142857142857</ele><time>2026-03-28T09:11:15Z</time></trkpt><trkpt lat="44.25950087310558" lon="11.483596762523785"><ele>452.85714285714283</ele><time>2026-03-28T09:11:16Z</time></trkpt><trkpt lat="44.259441128483594" lon="11.483644427002243"><ele>455.0</ele><time>2026-03-28T09:11:17Z</time></trkpt><trkpt lat="44.25938053105405" lon="11.483694562332373"><ele>454.99999999999994</ele><time>2026-03-28T09:11:18Z</time></trkpt><trkpt lat="44.259309141722476" lon="11.483731050140761"><ele>455.0</ele><time>2026-03-28T09:11:19Z</time></trkpt><trkpt lat="44.25923196706786" lon="11.483745792129941"><ele>455.0</ele><time>2026-03-28T09:11:20Z</time></trkpt><trkpt lat="44.259153824566425" lon="11.483749219631465"><ele>455.0</ele><time>2026-03-28T09:11:21Z</time></trkpt><trkpt lat="44.25908014325608" lon="11.483741879568425"><ele>454.99999999999994</ele><time>2026-03-28T09:11:22Z</time></trkpt><trkpt lat="44.25899955538149" lon="11.483725864692854"><ele>455.0</ele><time>2026-03-28T09:11:23Z</time></trkpt><trkpt lat="44.258915501278594" lon="11.483706331160647"><ele>457.0</ele><time>2026-03-28T09:11:24Z</time></trkpt><trkpt lat="44.25882622160029" lon="11.483683594485994"><ele>459.0</ele><time>2026-03-28T09:11:25Z</time></trkpt><trkpt lat="44.25873258576883" lon="11.483660842119324"><ele>461.0</ele><time>2026-03-28T09:11:26Z</time></trkpt><trkpt lat="44.25863727775814" lon="11.483640256486872"><ele>463.0</ele><time>2026-03-28T09:11:27Z</time></trkpt><trkpt lat="44.25854167025836" lon="11.483626182419947"><ele>465.0</ele><time>2026-03-28T09:11:28Z</time></trkpt><trkpt lat="44.258448983394246" lon="11.483627844468527"><ele>465.0</ele><time>2026-03-28T09:11:29Z</time></trkpt><trkpt lat="44.25835950023707" lon="11.483646023591145"><ele>465.0</ele><time>2026-03-28T09:11:30Z</time></trkpt><trkpt lat="44.25827417458888" lon="11.483678919326369"><ele>465.0</ele><time>2026-03-28T09:11:31Z</time></trkpt><trkpt lat="44.25819271651974" lon="11.48371809241348"><ele>465.0</ele><time>2026-03-28T09:11:32Z</time></trkpt><trkpt lat="44.258111554385856" lon="11.48375025367336"><ele>465.0</ele><time>2026-03-28T09:11:33Z</time></trkpt><trkpt lat="44.25802757440094" lon="11.483765116949389"><ele>465.0</ele><time>2026-03-28T09:11:34Z</time></trkpt><trkpt lat="44.257944607065824" lon="11.483752470066236"><ele>464.1666666666667</ele><time>2026-03-28T09:11:35Z</time></trkpt><trkpt lat="44.257864741641676" lon="11.483724397366501"><ele>463.33333333333337</ele><time>2026-03-28T09:11:36Z</time></trkpt><trkpt lat="44.25778569467182" lon="11.483678957545852"><ele>462.5</ele><time>2026-03-28T09:11:37Z</time></trkpt><trkpt lat="44.25770886254188" lon="11.483632070944589"><ele>461.6666666666667</ele><time>2026-03-28T09:11:38Z</time></trkpt><trkpt lat="44.25763328513457" lon="11.483579796231853"><ele>460.83333333333337</ele><time>2026-03-28T09:11:39Z</time></trkpt><trkpt lat="44.25756148692211" lon="11.483519999928275"><ele>460.0</ele><time>2026-03-28T09:11:40Z</time></trkpt><trkpt lat="44.25749247547946" lon="11.48346062383967"><ele>460.00000000000006</ele><time>2026-03-28T09:11:41Z</time></trkpt><trkpt lat="44.25742527945675" lon="11.483391909516103"><ele>460.0</ele><time>2026-03-28T09:11:42Z</time></trkpt><trkpt lat="44.257352465145274" lon="11.483316105413639"><ele>460.0</ele><time>2026-03-28T09:11:43Z</time></trkpt><trkpt lat="44.25728381684521" lon="11.483240069872053"><ele>460.0</ele><time>2026-03-28T09:11:44Z</time></trkpt><trkpt lat="44.257218179279036" lon="11.483162694170435"><ele>460.00000000000006</ele><time>2026-03-28T09:11:45Z</time></trkpt><trkpt lat="44.25714917957248" lon="11.483083467458181"><ele>460.0</ele><time>2026-03-28T09:11:46Z</time></trkpt><trkpt lat="44.257081723849694" lon="11.483009814954132"><ele>460.00000000000006</ele><time>2026-03-28T09:11:47Z</time></trkpt><trkpt lat="44.25701092294517" lon="11.48293814063895"><ele>460.0</ele><time>2026-03-28T09:11:48Z</time></trkpt><trkpt lat="44.25693892913098" lon="11.482877997792203"><ele>460.0</ele><time>2026-03-28T09:11:49Z</time></trkpt><trkpt lat="44.25686289804395" lon="11.48282690574678"><ele>460.0</ele><time>2026-03-28T09:11:50Z</time></trkpt><trkpt lat="44.25678473746176" lon="11.482781572154126"><ele>460.00000000000006</ele><time>2026-03-28T09:11:51Z</time></trkpt><trkpt lat="44.25670807822306" lon="11.482737993418871"><ele>460.0</ele><time>2026-03-28T09:11:52Z</time></trkpt><trkpt lat="44.25662335452801" lon="11.482697886303876"><ele>459.83333333333337</ele><time>2026-03-28T09:11:53Z</time></trkpt><trkpt lat="44.25653827477717" lon="11.482660762587493"><ele>459.6666666666667</ele><time>2026-03-28T09:11:54Z</time></trkpt><trkpt lat="44.25645328326906" lon="11.48261963975163"><ele>459.5</ele><time>2026-03-28T09:11:55Z</time></trkpt><trkpt lat="44.2563686607748" lon="11.482577587192823"><ele>459.33333333333337</ele><time>2026-03-28T09:11:56Z</time></trkpt><trkpt lat="44.25628748538646" lon="11.482532937104004"><ele>459.1666666666667</ele><time>2026-03-28T09:11:57Z</time></trkpt><trkpt lat="44.256208044684726" lon="11.48249043404235"><ele>459.0</ele><time>2026-03-28T09:11:58Z</time></trkpt><trkpt lat="44.25612606620665" lon="11.48244784902879"><ele>460.1666666666667</ele><time>2026-03-28T09:11:59Z</time></trkpt><trkpt lat="44.25604507059743" lon="11.482407156931957"><ele>461.33333333333337</ele><time>2026-03-28T09:12:00Z</time></trkpt><trkpt lat="44.2559618170159" lon="11.482363818487823"><ele>462.5</ele><time>2026-03-28T09:12:01Z</time></trkpt><trkpt lat="44.25587962816907" lon="11.48231892599012"><ele>463.6666666666667</ele><time>2026-03-28T09:12:02Z</time></trkpt><trkpt lat="44.25580085969356" lon="11.482278804018634"><ele>464.83333333333337</ele><time>2026-03-28T09:12:03Z</time></trkpt><trkpt lat="44.255726193067176" lon="11.482248835522656"><ele>466.0</ele><time>2026-03-28T09:12:04Z</time></trkpt><trkpt lat="44.25565204499193" lon="11.48224064788388"><ele>465.8571428571429</ele><time>2026-03-28T09:12:05Z</time></trkpt><trkpt lat="44.255584076756236" lon="11.482250764039762"><ele>465.71428571428567</ele><time>2026-03-28T09:12:06Z</time></trkpt><trkpt lat="44.25551582755303" lon="11.482278082644958"><ele>465.57142857142856</ele><time>2026-03-28T09:12:07Z</time></trkpt><trkpt lat="44.25544747975439" lon="11.482314375162355"><ele>465.42857142857144</ele><time>2026-03-28T09:12:08Z</time></trkpt><trkpt lat="44.25537482136911" lon="11.482354043725534"><ele>465.28571428571433</ele><time>2026-03-28T09:12:09Z</time></trkpt><trkpt lat="44.25530163368547" lon="11.482396792994177"><ele>465.1428571428571</ele><time>2026-03-28T09:12:10Z</time></trkpt><trkpt lat="44.25523266431509" lon="11.482435361352424"><ele>465.0</ele><time>2026-03-28T09:12:11Z</time></trkpt><trkpt lat="44.25516443522825" lon="11.482474911807277"><ele>465.0</ele><time>2026-03-28T09:12:12Z</time></trkpt><trkpt lat="44.25509468419786" lon="11.48251070209829"><ele>465.0</ele><time>2026-03-28T09:12:13Z</time></trkpt><trkpt lat="44.25502558696481" lon="11.482545838195556"><ele>465.0</ele><time>2026-03-28T09:12:14Z</time></trkpt><trkpt lat="44.25495602949964" lon="11.482579053216892"><ele>465.0</ele><time>2026-03-28T09:12:15Z</time></trkpt><trkpt lat="44.254885552547215" lon="11.4826087087667"><ele>465.0</ele><time>2026-03-28T09:12:16Z</time></trkpt><trkpt lat="44.25481293953318" lon="11.482632183983718"><ele>465.0</ele><time>2026-03-28T09:12:17Z</time></trkpt><trkpt lat="44.25473785955045" lon="11.482651993100058"><ele>465.0</ele><time>2026-03-28T09:12:18Z</time></trkpt><trkpt lat="44.254660021574296" lon="11.482668668584816"><ele>464.1666666666667</ele><time>2026-03-28T09:12:19Z</time></trkpt><trkpt lat="44.25458115755051" lon="11.482681436187983"><ele>463.33333333333337</ele><time>2026-03-28T09:12:20Z</time></trkpt><trkpt lat="44.25450112184552" lon="11.482694186760309"><ele>462.5</ele><time>2026-03-28T09:12:21Z</time></trkpt><trkpt lat="44.254419582237325" lon="11.482704482369618"><ele>461.6666666666667</ele><time>2026-03-28T09:12:22Z</time></trkpt><trkpt lat="44.25433677117031" lon="11.482711766148045"><ele>460.83333333333337</ele><time>2026-03-28T09:12:23Z</time></trkpt><trkpt lat="44.254248491298156" lon="11.482716831219898"><ele>460.0</ele><time>2026-03-28T09:12:24Z</time></trkpt><trkpt lat="44.25416470327465" lon="11.482716908984798"><ele>460.00000000000006</ele><time>2026-03-28T09:12:25Z</time></trkpt><trkpt lat="44.25407680221267" lon="11.482717439139195"><ele>460.0</ele><time>2026-03-28T09:12:26Z</time></trkpt><trkpt lat="44.25398873093868" lon="11.482718150700022"><ele>460.0</ele><time>2026-03-28T09:12:27Z</time></trkpt><trkpt lat="44.253903151033384" lon="11.482720128106179"><ele>460.0</ele><time>2026-03-28T09:12:28Z</time></trkpt><trkpt lat="44.25381887524537" lon="11.482722666678074"><ele>460.00000000000006</ele><time>2026-03-28T09:12:29Z</time></trkpt><trkpt lat="44.25373479127062" lon="11.482720332239595"><ele>460.0</ele><time>2026-03-28T09:12:30Z</time></trkpt><trkpt lat="44.2536518956662" lon="11.482720552218645"><ele>460.00000000000006</ele><time>2026-03-28T09:12:31Z</time></trkpt><trkpt lat="44.25356773591209" lon="11.482713217768918"><ele>460.0</ele><time>2026-03-28T09:12:32Z</time></trkpt><trkpt lat="44.253482308065074" lon="11.48269879331963"><ele>460.0</ele><time>2026-03-28T09:12:33Z</time></trkpt><trkpt lat="44.25339324810998" lon="11.482675048017217"><ele>460.0</ele><time>2026-03-28T09:12:34Z</time></trkpt><trkpt lat="44.25330917198369" lon="11.482634908894815"><ele>460.00000000000006</ele><time>2026-03-28T09:12:35Z</time></trkpt><trkpt lat="44.25323159243374" lon="11.482588949474385"><ele>460.0</ele><time>2026-03-28T09:12:36Z</time></trkpt><trkpt lat="44.25315684928278" lon="11.482537496275825"><ele>460.00000000000006</ele><time>2026-03-28T09:12:37Z</time></trkpt><trkpt lat="44.253084756588265" lon="11.482482620997635"><ele>460.0</ele><time>2026-03-28T09:12:38Z</time></trkpt><trkpt lat="44.25301621695136" lon="11.482426326178542"><ele>460.0</ele><time>2026-03-28T09:12:39Z</time></trkpt><trkpt lat="44.252946506147104" lon="11.48237098941477"><ele>460.0</ele><time>2026-03-28T09:12:40Z</time></trkpt><trkpt lat="44.2528743620825" lon="11.482316506072905"><ele>460.00000000000006</ele><time>2026-03-28T09:12:41Z</time></trkpt><trkpt lat="44.25279785581991" lon="11.482264018137869"><ele>460.0</ele><time>2026-03-28T09:12:42Z</time></trkpt><trkpt lat="44.25271909010733" lon="11.482214989693977"><ele>460.0</ele><time>2026-03-28T09:12:43Z</time></trkpt><trkpt lat="44.252637496260434" lon="11.482166381713814"><ele>460.0</ele><time>2026-03-28T09:12:44Z</time></trkpt><trkpt lat="44.25255054652471" lon="11.482119903771892"><ele>460.0</ele><time>2026-03-28T09:12:45Z</time></trkpt><trkpt lat="44.25245753988493" lon="11.482080165216146"><ele>460.0</ele><time>2026-03-28T09:12:46Z</time></trkpt><trkpt lat="44.25235840638455" lon="11.482051498085882"><ele>460.0</ele><time>2026-03-28T09:12:47Z</time></trkpt><trkpt lat="44.2522552271741" lon="11.482036636696082"><ele>459.8</ele><time>2026-03-28T09:12:48Z</time></trkpt><trkpt lat="44.252150320872595" lon="11.482042346694968"><ele>459.6</ele><time>2026-03-28T09:12:49Z</time></trkpt><trkpt lat="44.252048072774365" lon="11.482062717972129"><ele>459.4</ele><time>2026-03-28T09:12:50Z</time></trkpt><trkpt lat="44.251947049477316" lon="11.48208440707415"><ele>459.2</ele><time>2026-03-28T09:12:51Z</time></trkpt><trkpt lat="44.25184449974428" lon="11.482106566325808"><ele>459.0</ele><time>2026-03-28T09:12:52Z</time></trkpt><trkpt lat="44.251742441036846" lon="11.482129671452103"><ele>459.0</ele><time>2026-03-28T09:12:53Z</time></trkpt><trkpt lat="44.25163838645447" lon="11.482153283485362"><ele>459.0</ele><time>2026-03-28T09:12:54Z</time></trkpt><trkpt lat="44.25153390832626" lon="11.482176876026712"><ele>459.0</ele><time>2026-03-28T09:12:55Z</time></trkpt><trkpt lat="44.25143122302943" lon="11.482199059687987"><ele>459.0</ele><time>2026-03-28T09:12:56Z</time></trkpt><trkpt lat="44.25133274975135" lon="11.482222078679568"><ele>459.0</ele><time>2026-03-28T09:12:57Z</time></trkpt><trkpt lat="44.25123723359886" lon="11.482244305030493"><ele>457.4</ele><time>2026-03-28T09:12:58Z</time></trkpt><trkpt lat="44.2511441366957" lon="11.482264789911143"><ele>455.79999999999995</ele><time>2026-03-28T09:12:59Z</time></trkpt><trkpt lat="44.25105397158987" lon="11.48228424554077"><ele>454.20000000000005</ele><time>2026-03-28T09:13:00Z</time></trkpt><trkpt lat="44.25096198965973" lon="11.482299630185418"><ele>452.6</ele><time>2026-03-28T09:13:01Z</time></trkpt><trkpt lat="44.25086976959804" lon="11.482303943039039"><ele>451.0</ele><time>2026-03-28T09:13:02Z</time></trkpt><trkpt lat="44.25077902271397" lon="11.482290064273323"><ele>451.0</ele><time>2026-03-28T09:13:03Z</time></trkpt><trkpt lat="44.250689577697926" lon="11.482260243617942"><ele>451.0</ele><time>2026-03-28T09:13:04Z</time></trkpt><trkpt lat="44.25060477158425" lon="11.482214067606028"><ele>451.0</ele><time>2026-03-28T09:13:05Z</time></trkpt><trkpt lat="44.25051975420537" lon="11.482154407280577"><ele>451.0</ele><time>2026-03-28T09:13:06Z</time></trkpt><trkpt lat="44.25043178440304" lon="11.482088943123728"><ele>451.0</ele><time>2026-03-28T09:13:07Z</time></trkpt><trkpt lat="44.250343355839476" lon="11.48201917219193"><ele>451.6</ele><time>2026-03-28T09:13:08Z</time></trkpt><trkpt lat="44.250253355814145" lon="11.481946830823349"><ele>452.20000000000005</ele><time>2026-03-28T09:13:09Z</time></trkpt><trkpt lat="44.2501609090171" lon="11.48187359747257"><ele>452.79999999999995</ele><time>2026-03-28T09:13:10Z</time></trkpt><trkpt lat="44.25007032250369" lon="11.481800665935577"><ele>453.4</ele><time>2026-03-28T09:13:11Z</time></trkpt><trkpt lat="44.24998268510322" lon="11.481737274308495"><ele>454.0</ele><time>2026-03-28T09:13:12Z</time></trkpt><trkpt lat="44.2498965831607" lon="11.481684548233693"><ele>454.0</ele><time>2026-03-28T09:13:13Z</time></trkpt><trkpt lat="44.24981200053566" lon="11.4816420104914"><ele>454.0</ele><time>2026-03-28T09:13:14Z</time></trkpt><trkpt lat="44.24972171134877" lon="11.481612669309227"><ele>454.0</ele><time>2026-03-28T09:13:15Z</time></trkpt><trkpt lat="44.249620695437464" lon="11.481601242547441"><ele>454.0</ele><time>2026-03-28T09:13:16Z</time></trkpt><trkpt lat="44.24950699690597" lon="11.481606503823139"><ele>454.0</ele><time>2026-03-28T09:13:17Z</time></trkpt><trkpt lat="44.24938360464249" lon="11.481625151026904"><ele>454.75</ele><time>2026-03-28T09:13:18Z</time></trkpt><trkpt lat="44.24924937457088" lon="11.481646396679885"><ele>455.5</ele><time>2026-03-28T09:13:19Z</time></trkpt><trkpt lat="44.24910746019529" lon="11.481674168057594"><ele>456.25</ele><time>2026-03-28T09:13:20Z</time></trkpt><trkpt lat="44.248961357802735" lon="11.481702040799151"><ele>457.0</ele><time>2026-03-28T09:13:21Z</time></trkpt><trkpt lat="44.24882513397024" lon="11.4817260866004"><ele>459.25</ele><time>2026-03-28T09:13:22Z</time></trkpt><trkpt lat="44.2486885788854" lon="11.481749691640957"><ele>461.5</ele><time>2026-03-28T09:13:23Z</time></trkpt><trkpt lat="44.248556419377124" lon="11.481770813164099"><ele>463.75</ele><time>2026-03-28T09:13:24Z</time></trkpt><trkpt lat="44.24843264826008" lon="11.481785605869028"><ele>466.0</ele><time>2026-03-28T09:13:25Z</time></trkpt><trkpt lat="44.24831383339369" lon="11.48179811059542"><ele>466.0</ele><time>2026-03-28T09:13:26Z</time></trkpt><trkpt lat="44.248198529387814" lon="11.48180960902421"><ele>466.0</ele><time>2026-03-28T09:13:27Z</time></trkpt><trkpt lat="44.248090164657334" lon="11.481817531153819"><ele>466.0</ele><time>2026-03-28T09:13:28Z</time></trkpt><trkpt lat="44.2479933017728" lon="11.481814993147266"><ele>466.0</ele><time>2026-03-28T09:13:29Z</time></trkpt><trkpt lat="44.24790080178856" lon="11.481805338835407"><ele>466.0</ele><time>2026-03-28T09:13:30Z</time></trkpt><trkpt lat="44.247804925180674" lon="11.481780588104"><ele>466.4</ele><time>2026-03-28T09:13:31Z</time></trkpt><trkpt lat="44.24771171622308" lon="11.481734302114619"><ele>466.8</ele><time>2026-03-28T09:13:32Z</time></trkpt><trkpt lat="44.2476241293922" lon="11.481676880548418"><ele>467.19999999999993</ele><time>2026-03-28T09:13:33Z</time></trkpt><trkpt lat="44.24754102581939" lon="11.481616185813902"><ele>467.59999999999997</ele><time>2026-03-28T09:13:34Z</time></trkpt><trkpt lat="44.24745559440103" lon="11.481560082587462"><ele>468.0</ele><time>2026-03-28T09:13:35Z</time></trkpt><trkpt lat="44.24737086831423" lon="11.48151054799538"><ele>468.59999999999997</ele><time>2026-03-28T09:13:36Z</time></trkpt><trkpt lat="44.247283335741265" lon="11.481460220659828"><ele>469.19999999999993</ele><time>2026-03-28T09:13:37Z</time></trkpt><trkpt lat="44.24719306156438" lon="11.481419896767846"><ele>469.8</ele><time>2026-03-28T09:13:38Z</time></trkpt><trkpt lat="44.24709871189588" lon="11.48139328380238"><ele>470.4</ele><time>2026-03-28T09:13:39Z</time></trkpt><trkpt lat="44.247002669598125" lon="11.481381093699971"><ele>471.0</ele><time>2026-03-28T09:13:40Z</time></trkpt><trkpt lat="44.24690533439275" lon="11.481373634680773"><ele>471.0</ele><time>2026-03-28T09:13:41Z</time></trkpt><trkpt lat="44.24681113298101" lon="11.481368307149443"><ele>471.0</ele><time>2026-03-28T09:13:42Z</time></trkpt><trkpt lat="44.246719633550995" lon="11.481370401153702"><ele>471.0</ele><time>2026-03-28T09:13:43Z</time></trkpt><trkpt lat="44.24662632840968" lon="11.48138045198592"><ele>471.0</ele><time>2026-03-28T09:13:44Z</time></trkpt><trkpt lat="44.24653404608964" lon="11.481396845223943"><ele>471.0</ele><time>2026-03-28T09:13:45Z</time></trkpt><trkpt lat="44.246438275662435" lon="11.481420590622088"><ele>471.6</ele><time>2026-03-28T09:13:46Z</time></trkpt><trkpt lat="44.24634476921549" lon="11.481447167082006"><ele>472.20000000000005</ele><time>2026-03-28T09:13:47Z</time></trkpt><trkpt lat="44.24625254968939" lon="11.481482777541306"><ele>472.79999999999995</ele><time>2026-03-28T09:13:48Z</time></trkpt><trkpt lat="44.24616475807127" lon="11.48152177875457"><ele>473.4</ele><time>2026-03-28T09:13:49Z</time></trkpt><trkpt lat="44.24608142902321" lon="11.481563199373001"><ele>474.0</ele><time>2026-03-28T09:13:50Z</time></trkpt><trkpt lat="44.24599916180503" lon="11.481608925046945"><ele>474.0</ele><time>2026-03-28T09:13:51Z</time></trkpt><trkpt lat="44.24591745762373" lon="11.48165907694546"><ele>474.0</ele><time>2026-03-28T09:13:52Z</time></trkpt><trkpt lat="44.24583973850137" lon="11.481710517080353"><ele>474.0</ele><time>2026-03-28T09:13:53Z</time></trkpt><trkpt lat="44.24576207309989" lon="11.481769271609023"><ele>474.0</ele><time>2026-03-28T09:13:54Z</time></trkpt><trkpt lat="44.24568331689579" lon="11.481831913033497"><ele>474.0</ele><time>2026-03-28T09:13:55Z</time></trkpt><trkpt lat="44.24560655960948" lon="11.48189558275079"><ele>474.0</ele><time>2026-03-28T09:13:56Z</time></trkpt><trkpt lat="44.24552580380226" lon="11.48196058908704"><ele>473.2857142857142</ele><time>2026-03-28T09:13:57Z</time></trkpt><trkpt lat="44.24545073020504" lon="11.48201723907078"><ele>472.57142857142856</ele><time>2026-03-28T09:13:58Z</time></trkpt><trkpt lat="44.24537244500769" lon="11.482070188206848"><ele>471.85714285714283</ele><time>2026-03-28T09:13:59Z</time></trkpt><trkpt lat="44.245303732846104" lon="11.482111128190255"><ele>471.1428571428571</ele><time>2026-03-28T09:14:00Z</time></trkpt><trkpt lat="44.245239404499955" lon="11.482146033952622"><ele>470.42857142857144</ele><time>2026-03-28T09:14:01Z</time></trkpt><trkpt lat="44.24517673726945" lon="11.482174564012093"><ele>469.7142857142857</ele><time>2026-03-28T09:14:02Z</time></trkpt><trkpt lat="44.245115648584616" lon="11.482200295496224"><ele>469.0</ele><time>2026-03-28T09:14:03Z</time></trkpt><trkpt lat="44.24505170412258" lon="11.482228841785043"><ele>472.33333333333337</ele><time>2026-03-28T09:14:04Z</time></trkpt><trkpt lat="44.24497948648272" lon="11.482250045129392"><ele>475.6666666666667</ele><time>2026-03-28T09:14:05Z</time></trkpt><trkpt lat="44.24489705673471" lon="11.482262047837557"><ele>479.0</ele><time>2026-03-28T09:14:06Z</time></trkpt><trkpt lat="44.24480255370178" lon="11.48225454313447"><ele>482.33333333333337</ele><time>2026-03-28T09:14:07Z</time></trkpt><trkpt lat="44.244708351332655" lon="11.482240373959181"><ele>485.6666666666667</ele><time>2026-03-28T09:14:08Z</time></trkpt><trkpt lat="44.24461617290247" lon="11.482227089244986"><ele>489.0</ele><time>2026-03-28T09:14:09Z</time></trkpt><trkpt lat="44.24452408784783" lon="11.482230041770025"><ele>489.4</ele><time>2026-03-28T09:14:10Z</time></trkpt><trkpt lat="44.24443337707231" lon="11.482255228490676"><ele>489.79999999999995</ele><time>2026-03-28T09:14:11Z</time></trkpt><trkpt lat="44.24434564733514" lon="11.482287592950362"><ele>490.20000000000005</ele><time>2026-03-28T09:14:12Z</time></trkpt><trkpt lat="44.244254542235204" lon="11.482316168468234"><ele>490.6</ele><time>2026-03-28T09:14:13Z</time></trkpt><trkpt lat="44.24416015294746" lon="11.482335313455826"><ele>491.0</ele><time>2026-03-28T09:14:14Z</time></trkpt><trkpt lat="44.24406468636254" lon="11.482345061111445"><ele>491.0</ele><time>2026-03-28T09:14:15Z</time></trkpt><trkpt lat="44.243969905713826" lon="11.482340965537116"><ele>491.0</ele><time>2026-03-28T09:14:16Z</time></trkpt><trkpt lat="44.24387365208841" lon="11.482312607712556"><ele>491.0</ele><time>2026-03-28T09:14:17Z</time></trkpt><trkpt lat="44.243783079611134" lon="11.482264283143234"><ele>491.0</ele><time>2026-03-28T09:14:18Z</time></trkpt><trkpt lat="44.24369609040316" lon="11.48219646551382"><ele>491.0</ele><time>2026-03-28T09:14:19Z</time></trkpt><trkpt lat="44.24361012519948" lon="11.48211845123553"><ele>488.8</ele><time>2026-03-28T09:14:20Z</time></trkpt><trkpt lat="44.24352931554248" lon="11.482049354047886"><ele>486.6</ele><time>2026-03-28T09:14:21Z</time></trkpt><trkpt lat="44.24344348135346" lon="11.48197919933964"><ele>484.4</ele><time>2026-03-28T09:14:22Z</time></trkpt><trkpt lat="44.24335906282759" lon="11.481932342316808"><ele>482.2</ele><time>2026-03-28T09:14:23Z</time></trkpt><trkpt lat="44.243274493550416" lon="11.481909827541113"><ele>480.0</ele><time>2026-03-28T09:14:24Z</time></trkpt><trkpt lat="44.243191188371945" lon="11.481907656050204"><ele>480.0</ele><time>2026-03-28T09:14:25Z</time></trkpt><trkpt lat="44.243103915328525" lon="11.481917852530058"><ele>480.0</ele><time>2026-03-28T09:14:26Z</time></trkpt><trkpt lat="44.24300890755547" lon="11.48194163197615"><ele>480.0</ele><time>2026-03-28T09:14:27Z</time></trkpt><trkpt lat="44.24290990453321" lon="11.481962712298854"><ele>480.0</ele><time>2026-03-28T09:14:28Z</time></trkpt><trkpt lat="44.24280968723866" lon="11.481979707457615"><ele>480.0</ele><time>2026-03-28T09:14:29Z</time></trkpt><trkpt lat="44.24271152045885" lon="11.48198893303182"><ele>480.0</ele><time>2026-03-28T09:14:30Z</time></trkpt><trkpt lat="44.242609306410664" lon="11.481984959773909"><ele>480.0</ele><time>2026-03-28T09:14:31Z</time></trkpt><trkpt lat="44.24251442970196" lon="11.481968742042863"><ele>480.0</ele><time>2026-03-28T09:14:32Z</time></trkpt><trkpt lat="44.24242196489668" lon="11.481936354871348"><ele>480.0</ele><time>2026-03-28T09:14:33Z</time></trkpt><trkpt lat="44.24233685667261" lon="11.481889351394992"><ele>480.0</ele><time>2026-03-28T09:14:34Z</time></trkpt><trkpt lat="44.242255892869245" lon="11.481834659789858"><ele>481.4</ele><time>2026-03-28T09:14:35Z</time></trkpt><trkpt lat="44.242176060262544" lon="11.48177248495481"><ele>482.8</ele><time>2026-03-28T09:14:36Z</time></trkpt><trkpt lat="44.24208956897432" lon="11.481700654512007"><ele>484.20000000000005</ele><time>2026-03-28T09:14:37Z</time></trkpt><trkpt lat="44.24200565515959" lon="11.481635882808806"><ele>485.6</ele><time>2026-03-28T09:14:38Z</time></trkpt><trkpt lat="44.24191916067784" lon="11.481569607281353"><ele>487.0</ele><time>2026-03-28T09:14:39Z</time></trkpt><trkpt lat="44.2418353927727" lon="11.481505398648284"><ele>487.00000000000006</ele><time>2026-03-28T09:14:40Z</time></trkpt><trkpt lat="44.241758915034374" lon="11.481443953420644"><ele>487.0</ele><time>2026-03-28T09:14:41Z</time></trkpt><trkpt lat="44.2416817666355" lon="11.48138747361836"><ele>487.0</ele><time>2026-03-28T09:14:42Z</time></trkpt><trkpt lat="44.24160978536715" lon="11.481335754391427"><ele>487.0</ele><time>2026-03-28T09:14:43Z</time></trkpt><trkpt lat="44.24154687740356" lon="11.481297416842883"><ele>487.00000000000006</ele><time>2026-03-28T09:14:44Z</time></trkpt><trkpt lat="44.24142810784175" lon="11.481258481656194"><ele>487.0</ele><time>2026-03-28T09:14:46Z</time></trkpt><trkpt lat="44.24132165774705" lon="11.481253218074364"><ele>487.0</ele><time>2026-03-28T09:14:48Z</time></trkpt><trkpt lat="44.24124514242945" lon="11.481267950691832"><ele>485.0</ele><time>2026-03-28T09:14:50Z</time></trkpt><trkpt lat="44.24117863187424" lon="11.481295488277976"><ele>485.0</ele><time>2026-03-28T09:14:52Z</time></trkpt><trkpt lat="44.241119824035295" lon="11.481350122586992"><ele>485.0</ele><time>2026-03-28T09:14:54Z</time></trkpt><trkpt lat="44.241067653270385" lon="11.481408963438472"><ele>485.0</ele><time>2026-03-28T09:14:56Z</time></trkpt><trkpt lat="44.24099294957063" lon="11.48142292422433"><ele>485.0</ele><time>2026-03-28T09:14:59Z</time></trkpt><trkpt lat="44.24092282101222" lon="11.481377570590514"><ele>485.0</ele><time>2026-03-28T09:15:02Z</time></trkpt></trkseg><trkseg><trkpt lat="44.24096646331772" lon="11.48143253017034"><ele>484.99999999999994</ele><time>2026-03-28T09:26:22Z</time></trkpt><trkpt lat="44.241043921546144" lon="11.481490041844712"><ele>485.0</ele><time>2026-03-28T09:26:25Z</time></trkpt><trkpt lat="44.24107866609214" lon="11.481609048686476"><ele>485.0</ele><time>2026-03-28T09:26:27Z</time></trkpt><trkpt lat="44.24110838487551" lon="11.481700666556106"><ele>485.0</ele><time>2026-03-28T09:26:28Z</time></trkpt><trkpt lat="44.24110793842777" lon="11.481811973632237"><ele>484.99999999999994</ele><time>2026-03-28T09:26:29Z</time></trkpt><trkpt lat="44.24115342489156" lon="11.481889984378611"><ele>485.0</ele><time>2026-03-28T09:26:30Z</time></trkpt><trkpt lat="44.241228805299514" lon="11.481938273348831"><ele>484.99999999999994</ele><time>2026-03-28T09:26:31Z</time></trkpt><trkpt lat="44.241284675457095" lon="11.482002738504958"><ele>485.0</ele><time>2026-03-28T09:26:32Z</time></trkpt><trkpt lat="44.2413455004452" lon="11.482051089026761"><ele>485.0</ele><time>2026-03-28T09:26:33Z</time></trkpt><trkpt lat="44.24140614484211" lon="11.482088600937287"><ele>485.0</ele><time>2026-03-28T09:26:34Z</time></trkpt><trkpt lat="44.24151614646997" lon="11.482146479126689"><ele>484.99999999999994</ele><time>2026-03-28T09:26:36Z</time></trkpt><trkpt lat="44.24161741419964" lon="11.48219975583681"><ele>485.0</ele><time>2026-03-28T09:26:38Z</time></trkpt><trkpt lat="44.2417197091283" lon="11.482272342406663"><ele>482.8</ele><time>2026-03-28T09:26:40Z</time></trkpt><trkpt lat="44.241823678226574" lon="11.48234042749169"><ele>480.6</ele><time>2026-03-28T09:26:42Z</time></trkpt><trkpt lat="44.241881793538255" lon="11.482454182000172"><ele>478.4</ele><time>2026-03-28T09:26:44Z</time></trkpt><trkpt lat="44.241948541615926" lon="11.48258305485358"><ele>476.2</ele><time>2026-03-28T09:26:46Z</time></trkpt><trkpt lat="44.24199126226657" lon="11.482666932220589"><ele>474.0</ele><time>2026-03-28T09:26:47Z</time></trkpt><trkpt lat="44.24202569056931" lon="11.482748056032214"><ele>474.0</ele><time>2026-03-28T09:26:48Z</time></trkpt><trkpt lat="44.242083290027246" lon="11.48284189494182"><ele>474.0</ele><time>2026-03-28T09:26:49Z</time></trkpt><trkpt lat="44.242134776842256" lon="11.482939222862232"><ele>474.0</ele><time>2026-03-28T09:26:50Z</time></trkpt><trkpt lat="44.24219197458256" lon="11.483025299442838"><ele>474.0</ele><time>2026-03-28T09:26:51Z</time></trkpt><trkpt lat="44.24224934801678" lon="11.483122855815107"><ele>474.0</ele><time>2026-03-28T09:26:52Z</time></trkpt><trkpt lat="44.24229531626655" lon="11.483224836636326"><ele>474.0</ele><time>2026-03-28T09:26:53Z</time></trkpt><trkpt lat="44.242327681789504" lon="11.483345621715339"><ele>475.8333333333333</ele><time>2026-03-28T09:26:54Z</time></trkpt><trkpt lat="44.24235741234639" lon="11.483457451119518"><ele>477.66666666666663</ele><time>2026-03-28T09:26:55Z</time></trkpt><trkpt lat="44.24235879077677" lon="11.483574877653098"><ele>479.5</ele><time>2026-03-28T09:26:56Z</time></trkpt><trkpt lat="44.24234868357568" lon="11.483692913896464"><ele>481.3333333333333</ele><time>2026-03-28T09:26:57Z</time></trkpt><trkpt lat="44.24232945967874" lon="11.483805048911876"><ele>483.16666666666663</ele><time>2026-03-28T09:26:58Z</time></trkpt><trkpt lat="44.242265916358775" lon="11.483912837876053"><ele>485.0</ele><time>2026-03-28T09:26:59Z</time></trkpt><trkpt lat="44.24223779636273" lon="11.484025010711704"><ele>479.3333333333333</ele><time>2026-03-28T09:27:00Z</time></trkpt><trkpt lat="44.242205705821775" lon="11.48413539671509"><ele>473.66666666666663</ele><time>2026-03-28T09:27:01Z</time></trkpt><trkpt lat="44.2421632449475" lon="11.484224511308579"><ele>468.0</ele><time>2026-03-28T09:27:02Z</time></trkpt><trkpt lat="44.242132876325954" lon="11.48430755726202"><ele>462.33333333333337</ele><time>2026-03-28T09:27:03Z</time></trkpt><trkpt lat="44.24212566396826" lon="11.484482903799936"><ele>456.6666666666667</ele><time>2026-03-28T09:27:05Z</time></trkpt><trkpt lat="44.242155295725254" lon="11.484565835522153"><ele>451.0</ele><time>2026-03-28T09:27:06Z</time></trkpt><trkpt lat="44.242196589522926" lon="11.48465588604769"><ele>451.00000000000006</ele><time>2026-03-28T09:27:07Z</time></trkpt><trkpt lat="44.2422223458524" lon="11.484760570434645"><ele>451.0</ele><time>2026-03-28T09:27:08Z</time></trkpt><trkpt lat="44.24222315132459" lon="11.48488468483492"><ele>451.0</ele><time>2026-03-28T09:27:09Z</time></trkpt><trkpt lat="44.242175758199124" lon="11.484992108814275"><ele>451.0</ele><time>2026-03-28T09:27:10Z</time></trkpt><trkpt lat="44.24213855853016" lon="11.485104915931846"><ele>451.00000000000006</ele><time>2026-03-28T09:27:11Z</time></trkpt><trkpt lat="44.242098877628976" lon="11.485209896750352"><ele>451.0</ele><time>2026-03-28T09:27:12Z</time></trkpt><trkpt lat="44.24205630737538" lon="11.485319449989909"><ele>451.00000000000006</ele><time>2026-03-28T09:27:13Z</time></trkpt><trkpt lat="44.24201565475916" lon="11.485428958407972"><ele>451.0</ele><time>2026-03-28T09:27:14Z</time></trkpt><trkpt lat="44.24198389351515" lon="11.48553893230371"><ele>451.0</ele><time>2026-03-28T09:27:15Z</time></trkpt><trkpt lat="44.24197867017964" lon="11.485651628145483"><ele>451.0</ele><time>2026-03-28T09:27:16Z</time></trkpt><trkpt lat="44.241964931473575" lon="11.485761221040633"><ele>451.00000000000006</ele><time>2026-03-28T09:27:17Z</time></trkpt><trkpt lat="44.241960646227085" lon="11.48587732277088"><ele>451.0</ele><time>2026-03-28T09:27:18Z</time></trkpt><trkpt lat="44.24195203059023" lon="11.486002296616487"><ele>451.00000000000006</ele><time>2026-03-28T09:27:19Z</time></trkpt><trkpt lat="44.24193839146874" lon="11.486125635918704"><ele>451.0</ele><time>2026-03-28T09:27:20Z</time></trkpt><trkpt lat="44.241923904115296" lon="11.486244733003199"><ele>451.0</ele><time>2026-03-28T09:27:21Z</time></trkpt><trkpt lat="44.24190966302452" lon="11.486361442800447"><ele>451.0</ele><time>2026-03-28T09:27:22Z</time></trkpt><trkpt lat="44.24191319041224" lon="11.486491327196216"><ele>451.00000000000006</ele><time>2026-03-28T09:27:23Z</time></trkpt><trkpt lat="44.241927871848844" lon="11.486622886120385"><ele>451.0</ele><time>2026-03-28T09:27:24Z</time></trkpt><trkpt lat="44.24195043264899" lon="11.486750899059874"><ele>450.6</ele><time>2026-03-28T09:27:25Z</time></trkpt><trkpt lat="44.24196625133847" lon="11.486882870544443"><ele>450.20000000000005</ele><time>2026-03-28T09:27:26Z</time></trkpt><trkpt lat="44.24199019006676" lon="11.48701285860681"><ele>449.79999999999995</ele><time>2026-03-28T09:27:27Z</time></trkpt><trkpt lat="44.24201046492095" lon="11.487143072740267"><ele>449.4</ele><time>2026-03-28T09:27:28Z</time></trkpt><trkpt lat="44.24203151889486" lon="11.487273376386343"><ele>449.0</ele><time>2026-03-28T09:27:29Z</time></trkpt><trkpt lat="44.24204026423273" lon="11.487401366522288"><ele>449.0</ele><time>2026-03-28T09:27:30Z</time></trkpt><trkpt lat="44.24204052644086" lon="11.487529630503037"><ele>449.0</ele><time>2026-03-28T09:27:31Z</time></trkpt><trkpt lat="44.24199746739611" lon="11.487646508005401"><ele>449.0</ele><time>2026-03-28T09:27:32Z</time></trkpt><trkpt lat="44.24196070774745" lon="11.487755269677459"><ele>449.0</ele><time>2026-03-28T09:27:33Z</time></trkpt><trkpt lat="44.241912402455185" lon="11.487867620205721"><ele>449.0</ele><time>2026-03-28T09:27:34Z</time></trkpt><trkpt lat="44.24186068913083" lon="11.48797866636409"><ele>448.0</ele><time>2026-03-28T09:27:35Z</time></trkpt><trkpt lat="44.24179631295013" lon="11.48807879731664"><ele>447.0</ele><time>2026-03-28T09:27:36Z</time></trkpt><trkpt lat="44.241720003226774" lon="11.488151595880101"><ele>446.0</ele><time>2026-03-28T09:27:37Z</time></trkpt><trkpt lat="44.24164095357429" lon="11.488204310468596"><ele>445.0</ele><time>2026-03-28T09:27:38Z</time></trkpt><trkpt lat="44.2415384910862" lon="11.488247021687474"><ele>444.0</ele><time>2026-03-28T09:27:39Z</time></trkpt><trkpt lat="44.24144255226197" lon="11.488283481589876"><ele>444.0</ele><time>2026-03-28T09:27:40Z</time></trkpt><trkpt lat="44.24134702404938" lon="11.488316036296883"><ele>444.0</ele><time>2026-03-28T09:27:41Z</time></trkpt><trkpt lat="44.24124862673145" lon="11.48834421590686"><ele>444.0</ele><time>2026-03-28T09:27:42Z</time></trkpt><trkpt lat="44.24115088442434" lon="11.488369872059181"><ele>444.0</ele><time>2026-03-28T09:27:43Z</time></trkpt><trkpt lat="44.24105281006365" lon="11.488393095550174"><ele>444.0</ele><time>2026-03-28T09:27:44Z</time></trkpt><trkpt lat="44.24095477230511" lon="11.488413219190553"><ele>444.0</ele><time>2026-03-28T09:27:45Z</time></trkpt><trkpt lat="44.24085668298928" lon="11.488430104906218"><ele>444.0</ele><time>2026-03-28T09:27:46Z</time></trkpt><trkpt lat="44.24076205655941" lon="11.48843271907324"><ele>444.0</ele><time>2026-03-28T09:27:47Z</time></trkpt><trkpt lat="44.24066616774805" lon="11.48842245899842"><ele>444.0</ele><time>2026-03-28T09:27:48Z</time></trkpt><trkpt lat="44.24056855419259" lon="11.488427863312477"><ele>444.0</ele><time>2026-03-28T09:27:49Z</time></trkpt><trkpt lat="44.240470410128445" lon="11.48840559020312"><ele>443.4</ele><time>2026-03-28T09:27:50Z</time></trkpt><trkpt lat="44.240367929666704" lon="11.488413475383389"><ele>442.79999999999995</ele><time>2026-03-28T09:27:51Z</time></trkpt><trkpt lat="44.24026934383806" lon="11.488426186329185"><ele>442.20000000000005</ele><time>2026-03-28T09:27:52Z</time></trkpt><trkpt lat="44.24016990839061" lon="11.488422969046338"><ele>441.6</ele><time>2026-03-28T09:27:53Z</time></trkpt><trkpt lat="44.24007455883896" lon="11.488449528382874"><ele>441.0</ele><time>2026-03-28T09:27:54Z</time></trkpt><trkpt lat="44.23998213377015" lon="11.488460367973282"><ele>441.0</ele><time>2026-03-28T09:27:55Z</time></trkpt><trkpt lat="44.239895528604954" lon="11.488461042164463"><ele>441.0</ele><time>2026-03-28T09:27:56Z</time></trkpt><trkpt lat="44.239814396853774" lon="11.488407965093666"><ele>441.0</ele><time>2026-03-28T09:27:57Z</time></trkpt><trkpt lat="44.239732973767914" lon="11.488352900082052"><ele>441.0</ele><time>2026-03-28T09:27:58Z</time></trkpt><trkpt lat="44.239656689565" lon="11.488303736116357"><ele>441.0</ele><time>2026-03-28T09:27:59Z</time></trkpt><trkpt lat="44.239568157624824" lon="11.488268543938014"><ele>441.0</ele><time>2026-03-28T09:28:00Z</time></trkpt><trkpt lat="44.23947744349394" lon="11.488278215895582"><ele>438.6</ele><time>2026-03-28T09:28:01Z</time></trkpt><trkpt lat="44.239378953399616" lon="11.488310572265771"><ele>436.20000000000005</ele><time>2026-03-28T09:28:02Z</time></trkpt><trkpt lat="44.23928155846411" lon="11.488352591234612"><ele>433.79999999999995</ele><time>2026-03-28T09:28:03Z</time></trkpt><trkpt lat="44.23919145894486" lon="11.488395828246793"><ele>431.4</ele><time>2026-03-28T09:28:04Z</time></trkpt><trkpt lat="44.23910771147988" lon="11.488437182830841"><ele>429.0</ele><time>2026-03-28T09:28:05Z</time></trkpt><trkpt lat="44.23902395530726" lon="11.4884805793017"><ele>426.0</ele><time>2026-03-28T09:28:06Z</time></trkpt><trkpt lat="44.238944996012364" lon="11.488530809709204"><ele>423.0</ele><time>2026-03-28T09:28:07Z</time></trkpt><trkpt lat="44.2388797131427" lon="11.488605307110815"><ele>420.0</ele><time>2026-03-28T09:28:08Z</time></trkpt><trkpt lat="44.238822150665165" lon="11.488663772082575"><ele>417.0</ele><time>2026-03-28T09:28:09Z</time></trkpt><trkpt lat="44.238811815076915" lon="11.48876685864964"><ele>414.0</ele><time>2026-03-28T09:28:10Z</time></trkpt><trkpt lat="44.238810834506" lon="11.488881690805165"><ele>411.0</ele><time>2026-03-28T09:28:11Z</time></trkpt><trkpt lat="44.238860624318086" lon="11.488973104307751"><ele>410.20000000000005</ele><time>2026-03-28T09:28:12Z</time></trkpt><trkpt lat="44.23893229925257" lon="11.489072479968904"><ele>409.40000000000003</ele><time>2026-03-28T09:28:13Z</time></trkpt><trkpt lat="44.2389941604959" lon="11.489174488696879"><ele>408.6</ele><time>2026-03-28T09:28:14Z</time></trkpt><trkpt lat="44.23905046931875" lon="11.489280989394203"><ele>407.8</ele><time>2026-03-28T09:28:15Z</time></trkpt><trkpt lat="44.23909903755269" lon="11.489394001527083"><ele>407.0</ele><time>2026-03-28T09:28:16Z</time></trkpt><trkpt lat="44.239126018229726" lon="11.48951156498319"><ele>410.49999999999994</ele><time>2026-03-28T09:28:17Z</time></trkpt><trkpt lat="44.23910382983404" lon="11.48964698695348"><ele>414.0</ele><time>2026-03-28T09:28:18Z</time></trkpt><trkpt lat="44.23906743540103" lon="11.489760362166049"><ele>417.5</ele><time>2026-03-28T09:28:19Z</time></trkpt><trkpt lat="44.23905043707591" lon="11.48988264865438"><ele>421.0</ele><time>2026-03-28T09:28:20Z</time></trkpt><trkpt lat="44.239058034643314" lon="11.48998599781048"><ele>424.49999999999994</ele><time>2026-03-28T09:28:21Z</time></trkpt><trkpt lat="44.23907860722526" lon="11.490085459068803"><ele>428.0</ele><time>2026-03-28T09:28:22Z</time></trkpt><trkpt lat="44.23913862537305" lon="11.490166318778646"><ele>428.0</ele><time>2026-03-28T09:28:23Z</time></trkpt><trkpt lat="44.23921241719822" lon="11.49022771949879"><ele>427.99999999999994</ele><time>2026-03-28T09:28:24Z</time></trkpt><trkpt lat="44.23929551818833" lon="11.490234846044014"><ele>427.99999999999994</ele><time>2026-03-28T09:28:25Z</time></trkpt><trkpt lat="44.23938067985934" lon="11.490279546156989"><ele>428.0</ele><time>2026-03-28T09:28:26Z</time></trkpt><trkpt lat="44.23947831822883" lon="11.490321723051014"><ele>428.0</ele><time>2026-03-28T09:28:27Z</time></trkpt><trkpt lat="44.23954252845635" lon="11.490415685059942"><ele>425.0</ele><time>2026-03-28T09:28:28Z</time></trkpt><trkpt lat="44.23957639378885" lon="11.490565521500814"><ele>421.99999999999994</ele><time>2026-03-28T09:28:29Z</time></trkpt><trkpt lat="44.23960948568141" lon="11.490696587324958"><ele>419.0</ele><time>2026-03-28T09:28:30Z</time></trkpt><trkpt lat="44.23962909166079" lon="11.490825587318177"><ele>416.0</ele><time>2026-03-28T09:28:31Z</time></trkpt><trkpt lat="44.23963991972245" lon="11.49095681809943"><ele>413.0</ele><time>2026-03-28T09:28:32Z</time></trkpt><trkpt lat="44.239633054724" lon="11.491084444905113"><ele>413.0</ele><time>2026-03-28T09:28:33Z</time></trkpt><trkpt lat="44.239608688732" lon="11.49120671607374"><ele>413.0</ele><time>2026-03-28T09:28:34Z</time></trkpt><trkpt lat="44.23956617633975" lon="11.491326243890496"><ele>413.0</ele><time>2026-03-28T09:28:35Z</time></trkpt><trkpt lat="44.2395115768773" lon="11.491436663322196"><ele>413.0</ele><time>2026-03-28T09:28:36Z</time></trkpt><trkpt lat="44.23944714919198" lon="11.491533665792883"><ele>413.0</ele><time>2026-03-28T09:28:37Z</time></trkpt><trkpt lat="44.239370518561465" lon="11.491609659639026"><ele>413.2</ele><time>2026-03-28T09:28:38Z</time></trkpt><trkpt lat="44.239282571568374" lon="11.491677382605808"><ele>413.4</ele><time>2026-03-28T09:28:39Z</time></trkpt><trkpt lat="44.239193396942994" lon="11.491738959858944"><ele>413.59999999999997</ele><time>2026-03-28T09:28:40Z</time></trkpt><trkpt lat="44.239102541118946" lon="11.49180156778265"><ele>413.79999999999995</ele><time>2026-03-28T09:28:41Z</time></trkpt><trkpt lat="44.23901168850844" lon="11.491863478748083"><ele>414.0</ele><time>2026-03-28T09:28:42Z</time></trkpt><trkpt lat="44.238920529992136" lon="11.491900049270173"><ele>412.0</ele><time>2026-03-28T09:28:43Z</time></trkpt><trkpt lat="44.238824910071706" lon="11.49192032638688"><ele>410.0</ele><time>2026-03-28T09:28:44Z</time></trkpt><trkpt lat="44.23872631728074" lon="11.491933838308631"><ele>408.0</ele><time>2026-03-28T09:28:45Z</time></trkpt><trkpt lat="44.23862860721179" lon="11.4919370206956"><ele>406.0</ele><time>2026-03-28T09:28:46Z</time></trkpt><trkpt lat="44.23852655013557" lon="11.491938942056715"><ele>404.0</ele><time>2026-03-28T09:28:47Z</time></trkpt><trkpt lat="44.23842461194374" lon="11.491938390627555"><ele>404.0</ele><time>2026-03-28T09:28:48Z</time></trkpt><trkpt lat="44.23832323772216" lon="11.491933864733646"><ele>404.0</ele><time>2026-03-28T09:28:49Z</time></trkpt><trkpt lat="44.238222687221416" lon="11.491926566161647"><ele>404.0</ele><time>2026-03-28T09:28:50Z</time></trkpt><trkpt lat="44.238124452645145" lon="11.491912269671817"><ele>404.0</ele><time>2026-03-28T09:28:51Z</time></trkpt><trkpt lat="44.238036419727614" lon="11.491892622622672"><ele>404.0</ele><time>2026-03-28T09:28:52Z</time></trkpt><trkpt lat="44.23794880002975" lon="11.491877066392577"><ele>404.8333333333333</ele><time>2026-03-28T09:28:53Z</time></trkpt><trkpt lat="44.23785987597832" lon="11.491877476586254"><ele>405.66666666666663</ele><time>2026-03-28T09:28:54Z</time></trkpt><trkpt lat="44.23777339047956" lon="11.491903851361519"><ele>406.5</ele><time>2026-03-28T09:28:55Z</time></trkpt><trkpt lat="44.23769266123497" lon="11.491944789015493"><ele>407.33333333333337</ele><time>2026-03-28T09:28:56Z</time></trkpt><trkpt lat="44.237610229465766" lon="11.491996272626363"><ele>408.1666666666667</ele><time>2026-03-28T09:28:57Z</time></trkpt><trkpt lat="44.23753130902993" lon="11.49205919685791"><ele>409.0</ele><time>2026-03-28T09:28:58Z</time></trkpt><trkpt lat="44.23746496020094" lon="11.492137483294444"><ele>409.00000000000006</ele><time>2026-03-28T09:28:59Z</time></trkpt><trkpt lat="44.23742199232278" lon="11.492235541806965"><ele>409.0</ele><time>2026-03-28T09:29:00Z</time></trkpt><trkpt lat="44.23738749498444" lon="11.492314925434783"><ele>409.0</ele><time>2026-03-28T09:29:01Z</time></trkpt><trkpt lat="44.2373653908565" lon="11.492401385426511"><ele>409.0</ele><time>2026-03-28T09:29:02Z</time></trkpt><trkpt lat="44.237290559553124" lon="11.492527713051796"><ele>409.00000000000006</ele><time>2026-03-28T09:29:04Z</time></trkpt><trkpt lat="44.237187109173256" lon="11.492476322598131"><ele>409.0</ele><time>2026-03-28T09:29:06Z</time></trkpt><trkpt lat="44.237080529248104" lon="11.492363049833939"><ele>410.1666666666667</ele><time>2026-03-28T09:29:08Z</time></trkpt><trkpt lat="44.237027660726106" lon="11.4922971380887"><ele>411.33333333333337</ele><time>2026-03-28T09:29:09Z</time></trkpt><trkpt lat="44.23696921988592" lon="11.49222440654629"><ele>412.5</ele><time>2026-03-28T09:29:10Z</time></trkpt><trkpt lat="44.23690317274692" lon="11.492142521304183"><ele>413.66666666666663</ele><time>2026-03-28T09:29:11Z</time></trkpt><trkpt lat="44.2368338439682" lon="11.492057018920516"><ele>414.8333333333333</ele><time>2026-03-28T09:29:12Z</time></trkpt><trkpt lat="44.236764095753394" lon="11.491970999249878"><ele>416.0</ele><time>2026-03-28T09:29:13Z</time></trkpt><trkpt lat="44.236683670051164" lon="11.491902338912505"><ele>411.20000000000005</ele><time>2026-03-28T09:29:14Z</time></trkpt><trkpt lat="44.236613333158964" lon="11.491818163990004"><ele>406.40000000000003</ele><time>2026-03-28T09:29:15Z</time></trkpt><trkpt lat="44.23653084331616" lon="11.491753627360435"><ele>401.6</ele><time>2026-03-28T09:29:16Z</time></trkpt><trkpt lat="44.23644031553299" lon="11.491707602767658"><ele>396.8</ele><time>2026-03-28T09:29:17Z</time></trkpt><trkpt lat="44.2363511939084" lon="11.491665889347242"><ele>392.0</ele><time>2026-03-28T09:29:18Z</time></trkpt><trkpt lat="44.236259690369586" lon="11.491621083588537"><ele>392.0</ele><time>2026-03-28T09:29:19Z</time></trkpt><trkpt lat="44.236166782791805" lon="11.49158595922835"><ele>392.0</ele><time>2026-03-28T09:29:20Z</time></trkpt><trkpt lat="44.23607783333929" lon="11.491550196188244"><ele>392.0</ele><time>2026-03-28T09:29:21Z</time></trkpt><trkpt lat="44.23598771586429" lon="11.491516895634708"><ele>392.0</ele><time>2026-03-28T09:29:22Z</time></trkpt><trkpt lat="44.235895746058674" lon="11.49151204630358"><ele>392.0</ele><time>2026-03-28T09:29:23Z</time></trkpt><trkpt lat="44.23580921619929" lon="11.491541918102222"><ele>391.99999999999994</ele><time>2026-03-28T09:29:24Z</time></trkpt><trkpt lat="44.235725176647236" lon="11.49158658737815"><ele>392.0</ele><time>2026-03-28T09:29:25Z</time></trkpt><trkpt lat="44.2356478033244" lon="11.491640870332088"><ele>392.0</ele><time>2026-03-28T09:29:26Z</time></trkpt><trkpt lat="44.23558727557335" lon="11.491721791196989"><ele>392.0</ele><time>2026-03-28T09:29:27Z</time></trkpt><trkpt lat="44.23554640386437" lon="11.491820955291358"><ele>391.99999999999994</ele><time>2026-03-28T09:29:28Z</time></trkpt><trkpt lat="44.23552197424713" lon="11.49192048305489"><ele>392.0</ele><time>2026-03-28T09:29:29Z</time></trkpt><trkpt lat="44.23551222227746" lon="11.492037304146915"><ele>389.16666666666663</ele><time>2026-03-28T09:29:30Z</time></trkpt><trkpt lat="44.235521914733084" lon="11.49214536067768"><ele>386.3333333333333</ele><time>2026-03-28T09:29:31Z</time></trkpt><trkpt lat="44.23554427497997" lon="11.492267147713626"><ele>383.5</ele><time>2026-03-28T09:29:32Z</time></trkpt><trkpt lat="44.235566337220874" lon="11.49238475659827"><ele>380.66666666666663</ele><time>2026-03-28T09:29:33Z</time></trkpt><trkpt lat="44.23556100326349" lon="11.49250874358337"><ele>377.8333333333333</ele><time>2026-03-28T09:29:34Z</time></trkpt><trkpt lat="44.2355373089353" lon="11.492624239614269"><ele>375.0</ele><time>2026-03-28T09:29:35Z</time></trkpt><trkpt lat="44.23549331419443" lon="11.492728988076598"><ele>375.0</ele><time>2026-03-28T09:29:36Z</time></trkpt><trkpt lat="44.23541536394104" lon="11.492802496642737"><ele>375.0</ele><time>2026-03-28T09:29:37Z</time></trkpt><trkpt lat="44.23532894798551" lon="11.492859607605116"><ele>375.0</ele><time>2026-03-28T09:29:38Z</time></trkpt><trkpt lat="44.23524044259529" lon="11.492907398213674"><ele>375.0</ele><time>2026-03-28T09:29:39Z</time></trkpt><trkpt lat="44.23515460398053" lon="11.492962702598534"><ele>375.0</ele><time>2026-03-28T09:29:40Z</time></trkpt><trkpt lat="44.23506935211051" lon="11.493015021445233"><ele>377.5</ele><time>2026-03-28T09:29:41Z</time></trkpt><trkpt lat="44.235013910742474" lon="11.49310827155345"><ele>380.0</ele><time>2026-03-28T09:29:42Z</time></trkpt><trkpt lat="44.23495648398546" lon="11.493179394980068"><ele>382.5</ele><time>2026-03-28T09:29:43Z</time></trkpt><trkpt lat="44.234891302997156" lon="11.493229790564149"><ele>385.0</ele><time>2026-03-28T09:29:44Z</time></trkpt><trkpt lat="44.23481538985081" lon="11.493248593821974"><ele>387.5</ele><time>2026-03-28T09:29:45Z</time></trkpt><trkpt lat="44.234751747056634" lon="11.49320649845386"><ele>390.0</ele><time>2026-03-28T09:29:46Z</time></trkpt><trkpt lat="44.23468702259735" lon="11.493161490773566"><ele>390.1666666666667</ele><time>2026-03-28T09:29:47Z</time></trkpt><trkpt lat="44.234630963661026" lon="11.49309105364707"><ele>390.33333333333337</ele><time>2026-03-28T09:29:48Z</time></trkpt><trkpt lat="44.23459471544885" lon="11.492999035793746"><ele>390.5</ele><time>2026-03-28T09:29:49Z</time></trkpt><trkpt lat="44.23456713929037" lon="11.492885812758146"><ele>390.6666666666667</ele><time>2026-03-28T09:29:50Z</time></trkpt><trkpt lat="44.234571226709534" lon="11.49274818198299"><ele>390.83333333333337</ele><time>2026-03-28T09:29:51Z</time></trkpt><trkpt lat="44.234581671542834" lon="11.49261148794118"><ele>391.0</ele><time>2026-03-28T09:29:52Z</time></trkpt><trkpt lat="44.234593982682455" lon="11.492471556751159"><ele>388.4</ele><time>2026-03-28T09:29:53Z</time></trkpt><trkpt lat="44.234605505980625" lon="11.492328677786354"><ele>385.8</ele><time>2026-03-28T09:29:54Z</time></trkpt><trkpt lat="44.23461394079295" lon="11.49218752311797"><ele>383.2</ele><time>2026-03-28T09:29:55Z</time></trkpt><trkpt lat="44.23461576627676" lon="11.49204816331209"><ele>380.59999999999997</ele><time>2026-03-28T09:29:56Z</time></trkpt><trkpt lat="44.23461136484937" lon="11.49191403056079"><ele>378.0</ele><time>2026-03-28T09:29:57Z</time></trkpt><trkpt lat="44.23459937074138" lon="11.49179643800052"><ele>376.0</ele><time>2026-03-28T09:29:58Z</time></trkpt><trkpt lat="44.2345726886702" lon="11.491695448478996"><ele>374.0</ele><time>2026-03-28T09:29:59Z</time></trkpt><trkpt lat="44.23452282400506" lon="11.491615846210495"><ele>372.0</ele><time>2026-03-28T09:30:00Z</time></trkpt><trkpt lat="44.234457788257984" lon="11.491565794413214"><ele>370.0</ele><time>2026-03-28T09:30:01Z</time></trkpt><trkpt lat="44.23437703863398" lon="11.491561117352523"><ele>368.0</ele><time>2026-03-28T09:30:02Z</time></trkpt><trkpt lat="44.2342826172853" lon="11.491586961819939"><ele>366.0</ele><time>2026-03-28T09:30:03Z</time></trkpt><trkpt lat="44.23418928325249" lon="11.491605136747403"><ele>366.0</ele><time>2026-03-28T09:30:04Z</time></trkpt><trkpt lat="44.23408164594041" lon="11.491618515204994"><ele>366.0</ele><time>2026-03-28T09:30:05Z</time></trkpt><trkpt lat="44.23397350558583" lon="11.491636067868086"><ele>366.0</ele><time>2026-03-28T09:30:06Z</time></trkpt><trkpt lat="44.23386418846899" lon="11.4916530335019"><ele>366.0</ele><time>2026-03-28T09:30:07Z</time></trkpt><trkpt lat="44.23375885909908" lon="11.49167342183278"><ele>366.0</ele><time>2026-03-28T09:30:08Z</time></trkpt><trkpt lat="44.233650968033324" lon="11.491689918047875"><ele>365.0</ele><time>2026-03-28T09:30:09Z</time></trkpt><trkpt lat="44.233548199201906" lon="11.491714023236744"><ele>364.0</ele><time>2026-03-28T09:30:10Z</time></trkpt><trkpt lat="44.233452462428986" lon="11.49174500526918"><ele>363.0</ele><time>2026-03-28T09:30:11Z</time></trkpt><trkpt lat="44.23336479563873" lon="11.491781877258068"><ele>362.0</ele><time>2026-03-28T09:30:12Z</time></trkpt><trkpt lat="44.23327934177844" lon="11.491805946333825"><ele>361.0</ele><time>2026-03-28T09:30:13Z</time></trkpt><trkpt lat="44.233194527703155" lon="11.491777963907703"><ele>360.8333333333333</ele><time>2026-03-28T09:30:14Z</time></trkpt><trkpt lat="44.23311483870657" lon="11.491733974576615"><ele>360.66666666666663</ele><time>2026-03-28T09:30:15Z</time></trkpt><trkpt lat="44.23304639327743" lon="11.491658467146134"><ele>360.5</ele><time>2026-03-28T09:30:16Z</time></trkpt><trkpt lat="44.23298729727653" lon="11.49157222094825"><ele>360.3333333333333</ele><time>2026-03-28T09:30:17Z</time></trkpt><trkpt lat="44.2329358453321" lon="11.491466821423176"><ele>360.1666666666667</ele><time>2026-03-28T09:30:18Z</time></trkpt><trkpt lat="44.23288667482477" lon="11.491356940005804"><ele>360.0</ele><time>2026-03-28T09:30:19Z</time></trkpt><trkpt lat="44.232842296875646" lon="11.491251604281315"><ele>356.8</ele><time>2026-03-28T09:30:20Z</time></trkpt><trkpt lat="44.23279364271739" lon="11.491146573366006"><ele>353.6</ele><time>2026-03-28T09:30:21Z</time></trkpt><trkpt lat="44.23272550882516" lon="11.491050797760254"><ele>350.4</ele><time>2026-03-28T09:30:22Z</time></trkpt><trkpt lat="44.23263596086105" lon="11.491001085800004"><ele>347.2</ele><time>2026-03-28T09:30:23Z</time></trkpt><trkpt lat="44.23254999584008" lon="11.490958420463349"><ele>344.0</ele><time>2026-03-28T09:30:24Z</time></trkpt><trkpt lat="44.232458135332294" lon="11.490945080595019"><ele>344.0</ele><time>2026-03-28T09:30:25Z</time></trkpt><trkpt lat="44.23237050165248" lon="11.490949847127828"><ele>344.0</ele><time>2026-03-28T09:30:26Z</time></trkpt><trkpt lat="44.23228962996896" lon="11.490999517656533"><ele>344.0</ele><time>2026-03-28T09:30:27Z</time></trkpt><trkpt lat="44.23221805792388" lon="11.491070657486421"><ele>344.0</ele><time>2026-03-28T09:30:28Z</time></trkpt><trkpt lat="44.23215876860257" lon="11.491160144365526"><ele>344.0</ele><time>2026-03-28T09:30:29Z</time></trkpt><trkpt lat="44.23210255094459" lon="11.491240813697171"><ele>344.0</ele><time>2026-03-28T09:30:30Z</time></trkpt><trkpt lat="44.232036694089544" lon="11.491300128505545"><ele>342.5</ele><time>2026-03-28T09:30:31Z</time></trkpt><trkpt lat="44.23195645353695" lon="11.491313050936402"><ele>341.0</ele><time>2026-03-28T09:30:32Z</time></trkpt><trkpt lat="44.23188211329504" lon="11.491261481258036"><ele>339.5</ele><time>2026-03-28T09:30:33Z</time></trkpt><trkpt lat="44.231818567478506" lon="11.491205538826371"><ele>338.0</ele><time>2026-03-28T09:30:34Z</time></trkpt><trkpt lat="44.231744035551195" lon="11.49114480639062"><ele>336.5</ele><time>2026-03-28T09:30:35Z</time></trkpt><trkpt lat="44.23165098452683" lon="11.491101087033838"><ele>335.0</ele><time>2026-03-28T09:30:36Z</time></trkpt><trkpt lat="44.23155077437241" lon="11.491084055564441"><ele>334.2</ele><time>2026-03-28T09:30:37Z</time></trkpt><trkpt lat="44.23144333034944" lon="11.491103986427118"><ele>333.4</ele><time>2026-03-28T09:30:38Z</time></trkpt><trkpt lat="44.23133552393865" lon="11.491089247066158"><ele>332.6</ele><time>2026-03-28T09:30:39Z</time></trkpt><trkpt lat="44.23123185245297" lon="11.491091266192548"><ele>331.8</ele><time>2026-03-28T09:30:40Z</time></trkpt><trkpt lat="44.23112788195169" lon="11.49109159633785"><ele>331.0</ele><time>2026-03-28T09:30:41Z</time></trkpt><trkpt lat="44.23102770940965" lon="11.49109516244072"><ele>331.0</ele><time>2026-03-28T09:30:42Z</time></trkpt><trkpt lat="44.23092781801656" lon="11.491100855281706"><ele>331.0</ele><time>2026-03-28T09:30:43Z</time></trkpt><trkpt lat="44.230822831161724" lon="11.491101097579179"><ele>331.0</ele><time>2026-03-28T09:30:44Z</time></trkpt><trkpt lat="44.2307248050969" lon="11.491131888874243"><ele>331.0</ele><time>2026-03-28T09:30:45Z</time></trkpt><trkpt lat="44.230627440139614" lon="11.491165955725513"><ele>331.0</ele><time>2026-03-28T09:30:46Z</time></trkpt><trkpt lat="44.230532607033474" lon="11.491199227632407"><ele>330.4</ele><time>2026-03-28T09:30:47Z</time></trkpt><trkpt lat="44.230437805540305" lon="11.491226377617757"><ele>329.8</ele><time>2026-03-28T09:30:48Z</time></trkpt><trkpt lat="44.23034239836641" lon="11.491218733965454"><ele>329.2</ele><time>2026-03-28T09:30:49Z</time></trkpt><trkpt lat="44.230258127426005" lon="11.491170327500539"><ele>328.59999999999997</ele><time>2026-03-28T09:30:50Z</time></trkpt><trkpt lat="44.230169784099715" lon="11.491181216713628"><ele>328.0</ele><time>2026-03-28T09:30:51Z</time></trkpt><trkpt lat="44.23008371161041" lon="11.491192141363426"><ele>328.0</ele><time>2026-03-28T09:30:52Z</time></trkpt><trkpt lat="44.230002165883576" lon="11.49120479686191"><ele>328.0</ele><time>2026-03-28T09:30:53Z</time></trkpt><trkpt lat="44.22992752945966" lon="11.491216150074797"><ele>328.0</ele><time>2026-03-28T09:30:54Z</time></trkpt><trkpt lat="44.22986213038423" lon="11.491202568749587"><ele>328.0</ele><time>2026-03-28T09:30:55Z</time></trkpt><trkpt lat="44.22982218028901" lon="11.491134455574839"><ele>328.0</ele><time>2026-03-28T09:30:56Z</time></trkpt><trkpt lat="44.229745867155344" lon="11.491003535353803"><ele>328.0</ele><time>2026-03-28T09:30:58Z</time></trkpt><trkpt lat="44.229668109005814" lon="11.490915842054868"><ele>329.3333333333333</ele><time>2026-03-28T09:31:00Z</time></trkpt><trkpt lat="44.22961239457493" lon="11.490861478217223"><ele>330.66666666666663</ele><time>2026-03-28T09:31:03Z</time></trkpt><trkpt lat="44.229546875807536" lon="11.490801555222165"><ele>332.0</ele><time>2026-03-28T09:31:24Z</time></trkpt><trkpt lat="44.22946257915677" lon="11.490772001288532"><ele>333.3333333333333</ele><time>2026-03-28T09:31:26Z</time></trkpt><trkpt lat="44.229330400267386" lon="11.49073264249786"><ele>334.6666666666667</ele><time>2026-03-28T09:31:28Z</time></trkpt><trkpt lat="44.22926234597884" lon="11.490712378032406"><ele>336.0</ele><time>2026-03-28T09:31:29Z</time></trkpt><trkpt lat="44.229194284926116" lon="11.490692111553182"><ele>336.0</ele><time>2026-03-28T09:31:30Z</time></trkpt><trkpt lat="44.229116521636314" lon="11.490748258786432"><ele>336.0</ele><time>2026-03-28T09:31:31Z</time></trkpt><trkpt lat="44.22904816531276" lon="11.49072872663635"><ele>336.0</ele><time>2026-03-28T09:31:32Z</time></trkpt><trkpt lat="44.22897319541351" lon="11.490738025180466"><ele>336.0</ele><time>2026-03-28T09:31:33Z</time></trkpt><trkpt lat="44.22889615641298" lon="11.490754893588209"><ele>336.0</ele><time>2026-03-28T09:31:34Z</time></trkpt><trkpt lat="44.22881367312713" lon="11.490783839384129"><ele>336.0</ele><time>2026-03-28T09:31:35Z</time></trkpt><trkpt lat="44.22872731519476" lon="11.490795016414527"><ele>335.6</ele><time>2026-03-28T09:31:36Z</time></trkpt><trkpt lat="44.22863541538674" lon="11.49078690329669"><ele>335.20000000000005</ele><time>2026-03-28T09:31:37Z</time></trkpt><trkpt lat="44.22854537346892" lon="11.490764891512187"><ele>334.79999999999995</ele><time>2026-03-28T09:31:38Z</time></trkpt><trkpt lat="44.22845668372624" lon="11.490733582959209"><ele>334.4</ele><time>2026-03-28T09:31:39Z</time></trkpt><trkpt lat="44.22836458907706" lon="11.490679232470063"><ele>334.0</ele><time>2026-03-28T09:31:40Z</time></trkpt><trkpt lat="44.22826995538152" lon="11.49061683605821"><ele>334.0</ele><time>2026-03-28T09:31:41Z</time></trkpt><trkpt lat="44.22817857381835" lon="11.490549749508157"><ele>334.0</ele><time>2026-03-28T09:31:42Z</time></trkpt><trkpt lat="44.22808251574365" lon="11.490476462276673"><ele>334.0</ele><time>2026-03-28T09:31:43Z</time></trkpt><trkpt lat="44.227989017303024" lon="11.490405218705828"><ele>334.0</ele><time>2026-03-28T09:31:44Z</time></trkpt><trkpt lat="44.22789792184117" lon="11.490338608360213"><ele>334.0</ele><time>2026-03-28T09:31:45Z</time></trkpt><trkpt lat="44.2278147666851" lon="11.490269115337675"><ele>329.4</ele><time>2026-03-28T09:31:46Z</time></trkpt><trkpt lat="44.22773427892403" lon="11.490206496316212"><ele>324.79999999999995</ele><time>2026-03-28T09:31:47Z</time></trkpt><trkpt lat="44.22765176321403" lon="11.49015454113162"><ele>320.20000000000005</ele><time>2026-03-28T09:31:48Z</time></trkpt><trkpt lat="44.22756321524324" lon="11.490117579320126"><ele>315.6</ele><time>2026-03-28T09:31:49Z</time></trkpt><trkpt lat="44.22746180881039" lon="11.490097000303884"><ele>311.0</ele><time>2026-03-28T09:31:50Z</time></trkpt><trkpt lat="44.22735472784631" lon="11.490086550880921"><ele>309.0</ele><time>2026-03-28T09:31:51Z</time></trkpt><trkpt lat="44.22724447797377" lon="11.490080126154881"><ele>307.0</ele><time>2026-03-28T09:31:52Z</time></trkpt><trkpt lat="44.22712862893368" lon="11.490080226208194"><ele>305.0</ele><time>2026-03-28T09:31:53Z</time></trkpt><trkpt lat="44.227011480667834" lon="11.490076937477085"><ele>303.0</ele><time>2026-03-28T09:31:54Z</time></trkpt><trkpt lat="44.22689497655208" lon="11.490089811190701"><ele>303.0</ele><time>2026-03-28T09:31:55Z</time></trkpt><trkpt lat="44.22678097889388" lon="11.490103604588151"><ele>303.0</ele><time>2026-03-28T09:31:56Z</time></trkpt><trkpt lat="44.22667480378088" lon="11.490118928332102"><ele>303.0</ele><time>2026-03-28T09:31:57Z</time></trkpt><trkpt lat="44.22657870549083" lon="11.490128580194026"><ele>303.0</ele><time>2026-03-28T09:31:58Z</time></trkpt><trkpt lat="44.22649455030978" lon="11.49014348320362"><ele>303.0</ele><time>2026-03-28T09:31:59Z</time></trkpt><trkpt lat="44.226411824642824" lon="11.490164679316132"><ele>303.8333333333333</ele><time>2026-03-28T09:32:00Z</time></trkpt><trkpt lat="44.22634923692173" lon="11.490239924532236"><ele>304.6666666666667</ele><time>2026-03-28T09:32:01Z</time></trkpt><trkpt lat="44.226306256010325" lon="11.49032835860535"><ele>305.5</ele><time>2026-03-28T09:32:02Z</time></trkpt><trkpt lat="44.22628285797389" lon="11.490425796237075"><ele>306.33333333333337</ele><time>2026-03-28T09:32:03Z</time></trkpt><trkpt lat="44.22627671795859" lon="11.490521407483044"><ele>307.1666666666667</ele><time>2026-03-28T09:32:04Z</time></trkpt><trkpt lat="44.226240757881335" lon="11.490659108252991"><ele>308.0</ele><time>2026-03-28T09:32:06Z</time></trkpt><trkpt lat="44.226196031089195" lon="11.490735591098542"><ele>308.0</ele><time>2026-03-28T09:32:09Z</time></trkpt><trkpt lat="44.22610659581401" lon="11.490833122841368"><ele>308.0</ele><time>2026-03-28T09:32:25Z</time></trkpt><trkpt lat="44.226020143967915" lon="11.49089083439162"><ele>308.0</ele><time>2026-03-28T09:32:27Z</time></trkpt><trkpt lat="44.22595602398183" lon="11.49082904534571"><ele>308.0</ele><time>2026-03-28T09:32:28Z</time></trkpt><trkpt lat="44.225887072702584" lon="11.49083781988303"><ele>308.0</ele><time>2026-03-28T09:32:29Z</time></trkpt><trkpt lat="44.225812635897455" lon="11.490851021793132"><ele>308.0</ele><time>2026-03-28T09:32:30Z</time></trkpt><trkpt lat="44.2257390434907" lon="11.49086823570156"><ele>308.0</ele><time>2026-03-28T09:32:31Z</time></trkpt><trkpt lat="44.22566412688422" lon="11.49090116160279"><ele>308.0</ele><time>2026-03-28T09:32:32Z</time></trkpt><trkpt lat="44.225586310312956" lon="11.49094416587111"><ele>308.0</ele><time>2026-03-28T09:32:33Z</time></trkpt><trkpt lat="44.22550814012571" lon="11.491003160057554"><ele>308.0</ele><time>2026-03-28T09:32:34Z</time></trkpt><trkpt lat="44.22543431475491" lon="11.491079945945163"><ele>308.0</ele><time>2026-03-28T09:32:35Z</time></trkpt><trkpt lat="44.225369474876395" lon="11.491172196358622"><ele>308.0</ele><time>2026-03-28T09:32:36Z</time></trkpt><trkpt lat="44.22529396897841" lon="11.491242802005155"><ele>305.33333333333337</ele><time>2026-03-28T09:32:37Z</time></trkpt><trkpt lat="44.225228746050014" lon="11.49131411198161"><ele>302.6666666666667</ele><time>2026-03-28T09:32:38Z</time></trkpt><trkpt lat="44.22517317205667" lon="11.491389256256795"><ele>300.0</ele><time>2026-03-28T09:32:39Z</time></trkpt><trkpt lat="44.22514459361702" lon="11.491483447709104"><ele>297.3333333333333</ele><time>2026-03-28T09:32:40Z</time></trkpt><trkpt lat="44.22513853929967" lon="11.491583392278912"><ele>294.66666666666663</ele><time>2026-03-28T09:32:41Z</time></trkpt><trkpt lat="44.225163513123015" lon="11.49168777612571"><ele>292.0</ele><time>2026-03-28T09:32:42Z</time></trkpt><trkpt lat="44.22520906925737" lon="11.49177850515971"><ele>292.0</ele><time>2026-03-28T09:32:43Z</time></trkpt><trkpt lat="44.22528381203291" lon="11.491835942731345"><ele>292.0</ele><time>2026-03-28T09:32:44Z</time></trkpt><trkpt lat="44.22536264281044" lon="11.491881919396427"><ele>292.0</ele><time>2026-03-28T09:32:45Z</time></trkpt><trkpt lat="44.225441810538165" lon="11.491933900450377"><ele>292.0</ele><time>2026-03-28T09:32:46Z</time></trkpt><trkpt lat="44.22551682487061" lon="11.491992240944949"><ele>292.0</ele><time>2026-03-28T09:32:47Z</time></trkpt><trkpt lat="44.22558091769917" lon="11.492070261999329"><ele>292.0</ele><time>2026-03-28T09:32:48Z</time></trkpt><trkpt lat="44.225613553351764" lon="11.49215646130861"><ele>295.4</ele><time>2026-03-28T09:32:49Z</time></trkpt><trkpt lat="44.22561249346723" lon="11.492269039641458"><ele>298.79999999999995</ele><time>2026-03-28T09:32:50Z</time></trkpt><trkpt lat="44.225561058801794" lon="11.492325988926481"><ele>302.2</ele><time>2026-03-28T09:32:51Z</time></trkpt><trkpt lat="44.22544106945301" lon="11.492347089831537"><ele>305.59999999999997</ele><time>2026-03-28T09:32:53Z</time></trkpt><trkpt lat="44.22535588548587" lon="11.492364096775624"><ele>309.0</ele><time>2026-03-28T09:32:54Z</time></trkpt><trkpt lat="44.22525291988064" lon="11.492381314822346"><ele>309.0</ele><time>2026-03-28T09:32:55Z</time></trkpt><trkpt lat="44.2251542367308" lon="11.492388663520554"><ele>309.0</ele><time>2026-03-28T09:32:56Z</time></trkpt><trkpt lat="44.225053137439666" lon="11.492384040447217"><ele>309.0</ele><time>2026-03-28T09:32:57Z</time></trkpt><trkpt lat="44.22495665903767" lon="11.492361101743459"><ele>309.0</ele><time>2026-03-28T09:32:58Z</time></trkpt><trkpt lat="44.224858775322865" lon="11.492330250782183"><ele>309.0</ele><time>2026-03-28T09:32:59Z</time></trkpt><trkpt lat="44.2247740520475" lon="11.492281291769881"><ele>303.6666666666667</ele><time>2026-03-28T09:33:00Z</time></trkpt><trkpt lat="44.22469214372322" lon="11.492221163510807"><ele>298.3333333333333</ele><time>2026-03-28T09:33:01Z</time></trkpt><trkpt lat="44.22461473297883" lon="11.492169879074696"><ele>293.0</ele><time>2026-03-28T09:33:02Z</time></trkpt><trkpt lat="44.22453622299804" lon="11.49213905991976"><ele>287.66666666666663</ele><time>2026-03-28T09:33:03Z</time></trkpt><trkpt lat="44.22445730135962" lon="11.492155742781407"><ele>282.3333333333333</ele><time>2026-03-28T09:33:04Z</time></trkpt><trkpt lat="44.224395027862315" lon="11.492249451505831"><ele>277.0</ele><time>2026-03-28T09:33:05Z</time></trkpt><trkpt lat="44.224336636411145" lon="11.492351586803654"><ele>277.0</ele><time>2026-03-28T09:33:06Z</time></trkpt><trkpt lat="44.22428372938656" lon="11.49245731166178"><ele>277.0</ele><time>2026-03-28T09:33:07Z</time></trkpt><trkpt lat="44.224217285689626" lon="11.492570692760824"><ele>277.0</ele><time>2026-03-28T09:33:08Z</time></trkpt><trkpt lat="44.22413960723166" lon="11.492673708313191"><ele>277.0</ele><time>2026-03-28T09:33:09Z</time></trkpt><trkpt lat="44.22405855981647" lon="11.492774489726578"><ele>277.0</ele><time>2026-03-28T09:33:10Z</time></trkpt><trkpt lat="44.223990964937876" lon="11.492886920830653"><ele>273.0</ele><time>2026-03-28T09:33:11Z</time></trkpt><trkpt lat="44.223945647522136" lon="11.493023552753183"><ele>269.0</ele><time>2026-03-28T09:33:12Z</time></trkpt><trkpt lat="44.22390390293417" lon="11.493154148498972"><ele>265.0</ele><time>2026-03-28T09:33:13Z</time></trkpt><trkpt lat="44.223850453365394" lon="11.493279029385373"><ele>261.0</ele><time>2026-03-28T09:33:14Z</time></trkpt><trkpt lat="44.22377434991042" lon="11.49338302757372"><ele>257.0</ele><time>2026-03-28T09:33:15Z</time></trkpt><trkpt lat="44.223694535541156" lon="11.49347606940785"><ele>257.0</ele><time>2026-03-28T09:33:16Z</time></trkpt><trkpt lat="44.223632388722436" lon="11.493584005037249"><ele>257.0</ele><time>2026-03-28T09:33:17Z</time></trkpt><trkpt lat="44.22360073577162" lon="11.493711864834989"><ele>257.0</ele><time>2026-03-28T09:33:18Z</time></trkpt><trkpt lat="44.22360004255959" lon="11.493847308674452"><ele>257.0</ele><time>2026-03-28T09:33:19Z</time></trkpt><trkpt lat="44.22363387140619" lon="11.49397067045597"><ele>257.0</ele><time>2026-03-28T09:33:20Z</time></trkpt><trkpt lat="44.22369205782899" lon="11.49407985561958"><ele>257.6</ele><time>2026-03-28T09:33:21Z</time></trkpt><trkpt lat="44.22377699789438" lon="11.494151704131157"><ele>258.2</ele><time>2026-03-28T09:33:22Z</time></trkpt><trkpt lat="44.223874400353424" lon="11.494190668512067"><ele>258.8</ele><time>2026-03-28T09:33:23Z</time></trkpt><trkpt lat="44.22396642797743" lon="11.49424907148596"><ele>259.4</ele><time>2026-03-28T09:33:24Z</time></trkpt><trkpt lat="44.224056583455656" lon="11.494325115366374"><ele>260.0</ele><time>2026-03-28T09:33:25Z</time></trkpt><trkpt lat="44.22413767245983" lon="11.49442627879633"><ele>262.6</ele><time>2026-03-28T09:33:26Z</time></trkpt><trkpt lat="44.224212264933904" lon="11.494536676082488"><ele>265.2</ele><time>2026-03-28T09:33:27Z</time></trkpt><trkpt lat="44.22427939618437" lon="11.49464995254172"><ele>267.8</ele><time>2026-03-28T09:33:28Z</time></trkpt><trkpt lat="44.22435640523981" lon="11.494756544311679"><ele>270.4</ele><time>2026-03-28T09:33:29Z</time></trkpt><trkpt lat="44.224443909698195" lon="11.494839277456805"><ele>273.0</ele><time>2026-03-28T09:33:30Z</time></trkpt><trkpt lat="44.2245442360109" lon="11.494903906748311"><ele>273.0</ele><time>2026-03-28T09:33:31Z</time></trkpt><trkpt lat="44.22464455390592" lon="11.494958160019348"><ele>273.0</ele><time>2026-03-28T09:33:32Z</time></trkpt><trkpt lat="44.22474804429484" lon="11.495003419755847"><ele>273.0</ele><time>2026-03-28T09:33:33Z</time></trkpt><trkpt lat="44.224850353427165" lon="11.495034011170732"><ele>273.0</ele><time>2026-03-28T09:33:34Z</time></trkpt><trkpt lat="44.22495162647164" lon="11.495040175356667"><ele>273.0</ele><time>2026-03-28T09:33:35Z</time></trkpt><trkpt lat="44.22505078314955" lon="11.495024828864016"><ele>275.1666666666667</ele><time>2026-03-28T09:33:36Z</time></trkpt><trkpt lat="44.225148301597144" lon="11.495001114926888"><ele>277.3333333333333</ele><time>2026-03-28T09:33:37Z</time></trkpt><trkpt lat="44.225237231118" lon="11.494968085670155"><ele>279.5</ele><time>2026-03-28T09:33:38Z</time></trkpt><trkpt lat="44.22531091119828" lon="11.494934654443112"><ele>281.66666666666663</ele><time>2026-03-28T09:33:39Z</time></trkpt><trkpt lat="44.22540848657621" lon="11.494888314295746"><ele>283.8333333333333</ele><time>2026-03-28T09:33:41Z</time></trkpt><trkpt lat="44.225474268190126" lon="11.494862182634686"><ele>286.0</ele><time>2026-03-28T09:33:43Z</time></trkpt><trkpt lat="44.22556289270189" lon="11.494895723871325"><ele>286.0</ele><time>2026-03-28T09:33:45Z</time></trkpt><trkpt lat="44.22560596845289" lon="11.495034155861568"><ele>286.0</ele><time>2026-03-28T09:33:47Z</time></trkpt><trkpt lat="44.22555348825884" lon="11.495125810661513"><ele>286.0</ele><time>2026-03-28T09:33:48Z</time></trkpt><trkpt lat="44.22551244750624" lon="11.495195146644383"><ele>286.0</ele><time>2026-03-28T09:33:49Z</time></trkpt><trkpt lat="44.22548051604493" lon="11.495280678662652"><ele>286.0</ele><time>2026-03-28T09:33:50Z</time></trkpt><trkpt lat="44.225378951757776" lon="11.495291215950386"><ele>286.0</ele><time>2026-03-28T09:33:51Z</time></trkpt><trkpt lat="44.22532641144693" lon="11.495401635606868"><ele>287.0</ele><time>2026-03-28T09:33:52Z</time></trkpt><trkpt lat="44.22524082847098" lon="11.495455642856706"><ele>288.0</ele><time>2026-03-28T09:33:53Z</time></trkpt><trkpt lat="44.225149549027634" lon="11.495519693809443"><ele>289.0</ele><time>2026-03-28T09:33:54Z</time></trkpt><trkpt lat="44.22505551006833" lon="11.495569388031914"><ele>290.0</ele><time>2026-03-28T09:33:55Z</time></trkpt><trkpt lat="44.22494488350833" lon="11.495556018987012"><ele>291.0</ele><time>2026-03-28T09:33:56Z</time></trkpt><trkpt lat="44.22485115047744" lon="11.49559685258593"><ele>292.0</ele><time>2026-03-28T09:33:57Z</time></trkpt><trkpt lat="44.22475717026894" lon="11.495628015742051"><ele>293.0</ele><time>2026-03-28T09:33:58Z</time></trkpt><trkpt lat="44.224653571145254" lon="11.495652657398693"><ele>294.0</ele><time>2026-03-28T09:33:59Z</time></trkpt><trkpt lat="44.224548086196386" lon="11.495664301156916"><ele>295.0</ele><time>2026-03-28T09:34:00Z</time></trkpt><trkpt lat="44.2244467755136" lon="11.495659472290825"><ele>296.0</ele><time>2026-03-28T09:34:01Z</time></trkpt><trkpt lat="44.22434477620571" lon="11.495637919100956"><ele>296.0</ele><time>2026-03-28T09:34:02Z</time></trkpt><trkpt lat="44.224239582888295" lon="11.495605057812288"><ele>296.0</ele><time>2026-03-28T09:34:03Z</time></trkpt><trkpt lat="44.22413251864243" lon="11.49556572224893"><ele>296.0</ele><time>2026-03-28T09:34:04Z</time></trkpt><trkpt lat="44.22402346120009" lon="11.495525340900171"><ele>296.0</ele><time>2026-03-28T09:34:05Z</time></trkpt><trkpt lat="44.22391621538572" lon="11.495485630334915"><ele>296.0</ele><time>2026-03-28T09:34:06Z</time></trkpt><trkpt lat="44.22381098432353" lon="11.495452142720547"><ele>295.40000000000003</ele><time>2026-03-28T09:34:07Z</time></trkpt><trkpt lat="44.22370934249581" lon="11.495439972557406"><ele>294.8</ele><time>2026-03-28T09:34:08Z</time></trkpt><trkpt lat="44.2236159492067" lon="11.495391100527476"><ele>294.20000000000005</ele><time>2026-03-28T09:34:09Z</time></trkpt><trkpt lat="44.223533502987465" lon="11.49533903644109"><ele>293.6</ele><time>2026-03-28T09:34:10Z</time></trkpt><trkpt lat="44.22345944490519" lon="11.49528501082215"><ele>293.0</ele><time>2026-03-28T09:34:11Z</time></trkpt><trkpt lat="44.223385059202236" lon="11.495237156533275"><ele>286.2</ele><time>2026-03-28T09:34:12Z</time></trkpt><trkpt lat="44.223302526130794" lon="11.495266929165524"><ele>279.4</ele><time>2026-03-28T09:34:13Z</time></trkpt><trkpt lat="44.223212251820634" lon="11.49529056909481"><ele>272.59999999999997</ele><time>2026-03-28T09:34:14Z</time></trkpt><trkpt lat="44.22312976823246" lon="11.495379290159272"><ele>265.8</ele><time>2026-03-28T09:34:15Z</time></trkpt><trkpt lat="44.22306542211444" lon="11.495498770544945"><ele>259.0</ele><time>2026-03-28T09:34:16Z</time></trkpt><trkpt lat="44.22298511732076" lon="11.495604933939523"><ele>257.75</ele><time>2026-03-28T09:34:17Z</time></trkpt><trkpt lat="44.22290165560373" lon="11.495726301179786"><ele>256.5</ele><time>2026-03-28T09:34:18Z</time></trkpt><trkpt lat="44.22281515498668" lon="11.495849187259102"><ele>255.25</ele><time>2026-03-28T09:34:19Z</time></trkpt><trkpt lat="44.2227253973197" lon="11.49597148484301"><ele>254.0</ele><time>2026-03-28T09:34:20Z</time></trkpt><trkpt lat="44.22263913825713" lon="11.496106314707019"><ele>254.0</ele><time>2026-03-28T09:34:21Z</time></trkpt><trkpt lat="44.22255846581447" lon="11.49624202225253"><ele>254.0</ele><time>2026-03-28T09:34:22Z</time></trkpt><trkpt lat="44.22248666968998" lon="11.496384814872572"><ele>254.0</ele><time>2026-03-28T09:34:23Z</time></trkpt><trkpt lat="44.222419345106104" lon="11.496530404971281"><ele>254.0</ele><time>2026-03-28T09:34:24Z</time></trkpt><trkpt lat="44.2223644365764" lon="11.496675678115663"><ele>252.39999999999998</ele><time>2026-03-28T09:34:25Z</time></trkpt><trkpt lat="44.22231332844912" lon="11.496818402461985"><ele>250.79999999999998</ele><time>2026-03-28T09:34:26Z</time></trkpt><trkpt lat="44.22226594400094" lon="11.496945532921146"><ele>249.20000000000002</ele><time>2026-03-28T09:34:27Z</time></trkpt><trkpt lat="44.22223656234915" lon="11.497075510246383"><ele>247.60000000000002</ele><time>2026-03-28T09:34:28Z</time></trkpt><trkpt lat="44.222237730785686" lon="11.497214563569083"><ele>246.0</ele><time>2026-03-28T09:34:29Z</time></trkpt><trkpt lat="44.222250774665746" lon="11.497335500409445"><ele>246.00000000000003</ele><time>2026-03-28T09:34:30Z</time></trkpt><trkpt lat="44.22226092804414" lon="11.497446811721936"><ele>246.0</ele><time>2026-03-28T09:34:31Z</time></trkpt><trkpt lat="44.222252099970056" lon="11.497540957813248"><ele>246.00000000000003</ele><time>2026-03-28T09:34:32Z</time></trkpt><trkpt lat="44.22219796664163" lon="11.49759899497316"><ele>246.00000000000003</ele><time>2026-03-28T09:34:33Z</time></trkpt><trkpt lat="44.22213885535901" lon="11.497638137977278"><ele>246.0</ele><time>2026-03-28T09:34:34Z</time></trkpt><trkpt lat="44.22206935898866" lon="11.497631217370945"><ele>246.00000000000003</ele><time>2026-03-28T09:34:35Z</time></trkpt><trkpt lat="44.221994462419296" lon="11.497642050066057"><ele>246.00000000000003</ele><time>2026-03-28T09:34:36Z</time></trkpt><trkpt lat="44.22190933244753" lon="11.497664866392263"><ele>246.0</ele><time>2026-03-28T09:34:37Z</time></trkpt><trkpt lat="44.22182365898768" lon="11.497715961498075"><ele>246.00000000000003</ele><time>2026-03-28T09:34:38Z</time></trkpt><trkpt lat="44.22174516562823" lon="11.497808001498319"><ele>246.00000000000003</ele><time>2026-03-28T09:34:39Z</time></trkpt><trkpt lat="44.22168720486284" lon="11.497924245652126"><ele>246.0</ele><time>2026-03-28T09:34:40Z</time></trkpt><trkpt lat="44.22163201131982" lon="11.49803527735017"><ele>246.0</ele><time>2026-03-28T09:34:41Z</time></trkpt><trkpt lat="44.221578301456695" lon="11.498148453748126"><ele>249.4</ele><time>2026-03-28T09:34:42Z</time></trkpt><trkpt lat="44.22153320581023" lon="11.498267386411387"><ele>252.8</ele><time>2026-03-28T09:34:43Z</time></trkpt><trkpt lat="44.221512469338236" lon="11.498393406268976"><ele>256.20000000000005</ele><time>2026-03-28T09:34:44Z</time></trkpt><trkpt lat="44.22151370841976" lon="11.498520050274912"><ele>259.6</ele><time>2026-03-28T09:34:45Z</time></trkpt><trkpt lat="44.2215272514592" lon="11.498642702763178"><ele>263.0</ele><time>2026-03-28T09:34:46Z</time></trkpt><trkpt lat="44.22153776367492" lon="11.498769658907591"><ele>266.0</ele><time>2026-03-28T09:34:47Z</time></trkpt><trkpt lat="44.22151975442021" lon="11.498889216463612"><ele>269.0</ele><time>2026-03-28T09:34:48Z</time></trkpt><trkpt lat="44.221479299777585" lon="11.498999025640043"><ele>272.0</ele><time>2026-03-28T09:34:49Z</time></trkpt><trkpt lat="44.22141195337989" lon="11.49909233058653"><ele>275.0</ele><time>2026-03-28T09:34:50Z</time></trkpt><trkpt lat="44.221326590592696" lon="11.499186828243365"><ele>278.0</ele><time>2026-03-28T09:34:51Z</time></trkpt><trkpt lat="44.221255114783446" lon="11.499283412087467"><ele>274.2</ele><time>2026-03-28T09:34:52Z</time></trkpt><trkpt lat="44.221191330255614" lon="11.499396236971423"><ele>270.4</ele><time>2026-03-28T09:34:53Z</time></trkpt><trkpt lat="44.22113768217201" lon="11.499501285660347"><ele>266.59999999999997</ele><time>2026-03-28T09:34:54Z</time></trkpt><trkpt lat="44.221078372053896" lon="11.499595159562242"><ele>262.8</ele><time>2026-03-28T09:34:55Z</time></trkpt><trkpt lat="44.22101017792364" lon="11.499667313925979"><ele>259.0</ele><time>2026-03-28T09:34:56Z</time></trkpt><trkpt lat="44.220924885300384" lon="11.499710896752914"><ele>259.0</ele><time>2026-03-28T09:34:57Z</time></trkpt><trkpt lat="44.22082523061817" lon="11.499745623359061"><ele>259.0</ele><time>2026-03-28T09:34:58Z</time></trkpt><trkpt lat="44.220719518472066" lon="11.49977557683141"><ele>259.0</ele><time>2026-03-28T09:34:59Z</time></trkpt><trkpt lat="44.22061241044099" lon="11.499812110634863"><ele>259.0</ele><time>2026-03-28T09:35:00Z</time></trkpt><trkpt lat="44.22050830087268" lon="11.499855610438871"><ele>259.0</ele><time>2026-03-28T09:35:01Z</time></trkpt><trkpt lat="44.220408479822794" lon="11.499910408716712"><ele>255.79999999999998</ele><time>2026-03-28T09:35:02Z</time></trkpt><trkpt lat="44.22031702262123" lon="11.50000674194733"><ele>252.59999999999997</ele><time>2026-03-28T09:35:03Z</time></trkpt><trkpt lat="44.2202361225691" lon="11.500087885618816"><ele>249.4</ele><time>2026-03-28T09:35:04Z</time></trkpt><trkpt lat="44.22015683664473" lon="11.500145283432962"><ele>246.2</ele><time>2026-03-28T09:35:05Z</time></trkpt><trkpt lat="44.22006542701878" lon="11.500165095980313"><ele>243.0</ele><time>2026-03-28T09:35:06Z</time></trkpt><trkpt lat="44.219967827488155" lon="11.500165998726951"><ele>243.0</ele><time>2026-03-28T09:35:07Z</time></trkpt><trkpt lat="44.219863406742036" lon="11.500165152948787"><ele>243.0</ele><time>2026-03-28T09:35:08Z</time></trkpt><trkpt lat="44.219768823963825" lon="11.500161742704199"><ele>243.0</ele><time>2026-03-28T09:35:09Z</time></trkpt><trkpt lat="44.21966870492747" lon="11.5001630979044"><ele>243.0</ele><time>2026-03-28T09:35:10Z</time></trkpt><trkpt lat="44.21956619485408" lon="11.500198082808758"><ele>243.0</ele><time>2026-03-28T09:35:11Z</time></trkpt><trkpt lat="44.21947958664329" lon="11.500261578095305"><ele>240.60000000000002</ele><time>2026-03-28T09:35:12Z</time></trkpt><trkpt lat="44.21939048249873" lon="11.50030715876923"><ele>238.20000000000002</ele><time>2026-03-28T09:35:13Z</time></trkpt><trkpt lat="44.219300580758855" lon="11.500320884195576"><ele>235.8</ele><time>2026-03-28T09:35:14Z</time></trkpt><trkpt lat="44.21920832597367" lon="11.500305178744721"><ele>233.4</ele><time>2026-03-28T09:35:15Z</time></trkpt><trkpt lat="44.219114463484935" lon="11.500288166417642"><ele>231.0</ele><time>2026-03-28T09:35:16Z</time></trkpt><trkpt lat="44.219011633651135" lon="11.50027720563399"><ele>230.0</ele><time>2026-03-28T09:35:17Z</time></trkpt><trkpt lat="44.21890716071067" lon="11.500293156057253"><ele>229.00000000000003</ele><time>2026-03-28T09:35:18Z</time></trkpt><trkpt lat="44.2188109221927" lon="11.500341742505395"><ele>228.00000000000003</ele><time>2026-03-28T09:35:19Z</time></trkpt><trkpt lat="44.21871950881336" lon="11.500408328726483"><ele>227.0</ele><time>2026-03-28T09:35:20Z</time></trkpt><trkpt lat="44.218629694009394" lon="11.500490455737708"><ele>226.0</ele><time>2026-03-28T09:35:21Z</time></trkpt><trkpt lat="44.21854612093123" lon="11.500585070506563"><ele>226.0</ele><time>2026-03-28T09:35:22Z</time></trkpt><trkpt lat="44.21846605269442" lon="11.500688964367434"><ele>226.00000000000003</ele><time>2026-03-28T09:35:23Z</time></trkpt><trkpt lat="44.218392352653495" lon="11.500801812897588"><ele>226.00000000000003</ele><time>2026-03-28T09:35:24Z</time></trkpt><trkpt lat="44.218320806588856" lon="11.500923298337659"><ele>226.0</ele><time>2026-03-28T09:35:25Z</time></trkpt><trkpt lat="44.21825100978104" lon="11.50104977099792"><ele>226.0</ele><time>2026-03-28T09:35:26Z</time></trkpt><trkpt lat="44.21818365083244" lon="11.501176595630557"><ele>222.20000000000002</ele><time>2026-03-28T09:35:27Z</time></trkpt><trkpt lat="44.218123470608106" lon="11.501308744003365"><ele>218.40000000000003</ele><time>2026-03-28T09:35:28Z</time></trkpt><trkpt lat="44.218079459233536" lon="11.501456116786365"><ele>214.6</ele><time>2026-03-28T09:35:29Z</time></trkpt><trkpt lat="44.21803151748718" lon="11.501591853635386"><ele>210.8</ele><time>2026-03-28T09:35:30Z</time></trkpt><trkpt lat="44.21797958363606" lon="11.501727994836441"><ele>207.0</ele><time>2026-03-28T09:35:31Z</time></trkpt><trkpt lat="44.2179297363007" lon="11.50186327522475"><ele>207.0</ele><time>2026-03-28T09:35:32Z</time></trkpt><trkpt lat="44.217879364054255" lon="11.501996680058006"><ele>207.0</ele><time>2026-03-28T09:35:33Z</time></trkpt><trkpt lat="44.21783116234966" lon="11.502136774453113"><ele>207.0</ele><time>2026-03-28T09:35:34Z</time></trkpt><trkpt lat="44.21779664509536" lon="11.502286363765561"><ele>207.0</ele><time>2026-03-28T09:35:35Z</time></trkpt><trkpt lat="44.21777367197433" lon="11.502445899023554"><ele>207.0</ele><time>2026-03-28T09:35:36Z</time></trkpt><trkpt lat="44.21775677255484" lon="11.502605984364592"><ele>206.66666666666666</ele><time>2026-03-28T09:35:37Z</time></trkpt><trkpt lat="44.21772564780672" lon="11.502748257674341"><ele>206.33333333333331</ele><time>2026-03-28T09:35:38Z</time></trkpt><trkpt lat="44.217714050526034" lon="11.502882771717239"><ele>206.0</ele><time>2026-03-28T09:35:39Z</time></trkpt><trkpt lat="44.21772707086146" lon="11.503007433754153"><ele>205.66666666666666</ele><time>2026-03-28T09:35:40Z</time></trkpt><trkpt lat="44.21773536443238" lon="11.503110422715208"><ele>205.33333333333331</ele><time>2026-03-28T09:35:41Z</time></trkpt><trkpt lat="44.21776378672601" lon="11.503196699574467"><ele>205.0</ele><time>2026-03-28T09:35:42Z</time></trkpt><trkpt lat="44.21784636610124" lon="11.503289179838001"><ele>205.0</ele><time>2026-03-28T09:35:44Z</time></trkpt><trkpt lat="44.2178475554452" lon="11.503412957288793"><ele>205.0</ele><time>2026-03-28T09:35:46Z</time></trkpt><trkpt lat="44.217779442628135" lon="11.50346553365223"><ele>205.0</ele><time>2026-03-28T09:35:48Z</time></trkpt><trkpt lat="44.21768353034127" lon="11.50339836631415"><ele>205.0</ele><time>2026-03-28T09:35:50Z</time></trkpt><trkpt lat="44.217610362838705" lon="11.503227412871983"><ele>205.0</ele><time>2026-03-28T09:35:52Z</time></trkpt><trkpt lat="44.21758347460864" lon="11.503111611513905"><ele>204.99999999999997</ele><time>2026-03-28T09:35:53Z</time></trkpt><trkpt lat="44.21756671150592" lon="11.502990095607702"><ele>205.0</ele><time>2026-03-28T09:35:54Z</time></trkpt><trkpt lat="44.21754276428938" lon="11.502869541110169"><ele>205.0</ele><time>2026-03-28T09:35:55Z</time></trkpt><trkpt lat="44.217538913443356" lon="11.502744338695777"><ele>205.0</ele><time>2026-03-28T09:35:56Z</time></trkpt><trkpt lat="44.217537863199524" lon="11.502625003939915"><ele>204.99999999999997</ele><time>2026-03-28T09:35:57Z</time></trkpt><trkpt lat="44.21753771832963" lon="11.502514215892763"><ele>205.0</ele><time>2026-03-28T09:35:58Z</time></trkpt><trkpt lat="44.217524214470245" lon="11.502412067318787"><ele>205.83333333333331</ele><time>2026-03-28T09:35:59Z</time></trkpt><trkpt lat="44.21746377166216" lon="11.502294808881164"><ele>206.66666666666666</ele><time>2026-03-28T09:36:01Z</time></trkpt><trkpt lat="44.21735910293996" lon="11.502318283726412"><ele>207.5</ele><time>2026-03-28T09:36:03Z</time></trkpt><trkpt lat="44.21732656722886" lon="11.502397001458927"><ele>208.33333333333331</ele><time>2026-03-28T09:36:04Z</time></trkpt><trkpt lat="44.21732175147625" lon="11.502489616090369"><ele>209.16666666666666</ele><time>2026-03-28T09:36:05Z</time></trkpt><trkpt lat="44.217331613543756" lon="11.502589366591382"><ele>210.0</ele><time>2026-03-28T09:36:06Z</time></trkpt><trkpt lat="44.2173390913569" lon="11.502690792226149"><ele>210.0</ele><time>2026-03-28T09:36:07Z</time></trkpt><trkpt lat="44.21734071105075" lon="11.502788417416923"><ele>210.0</ele><time>2026-03-28T09:36:08Z</time></trkpt><trkpt lat="44.21733994569187" lon="11.502880685963646"><ele>210.0</ele><time>2026-03-28T09:36:09Z</time></trkpt><trkpt lat="44.2173118577361" lon="11.502964677664039"><ele>210.0</ele><time>2026-03-28T09:36:10Z</time></trkpt><trkpt lat="44.217301280051736" lon="11.503103606467"><ele>210.0</ele><time>2026-03-28T09:36:12Z</time></trkpt><trkpt lat="44.21727239187989" lon="11.503185951309701"><ele>210.0</ele><time>2026-03-28T09:36:14Z</time></trkpt><trkpt lat="44.21726911384004" lon="11.503317231406088"><ele>209.16666666666666</ele><time>2026-03-28T09:36:16Z</time></trkpt><trkpt lat="44.21728868930597" lon="11.503422601196963"><ele>208.33333333333331</ele><time>2026-03-28T09:36:17Z</time></trkpt><trkpt lat="44.21730884462974" lon="11.503535021834228"><ele>207.5</ele><time>2026-03-28T09:36:18Z</time></trkpt><trkpt lat="44.21732875927862" lon="11.503644185796528"><ele>206.66666666666666</ele><time>2026-03-28T09:36:19Z</time></trkpt><trkpt lat="44.21734728930739" lon="11.503761395991159"><ele>205.83333333333331</ele><time>2026-03-28T09:36:20Z</time></trkpt><trkpt lat="44.21736804922124" lon="11.503900504313576"><ele>205.0</ele><time>2026-03-28T09:36:21Z</time></trkpt><trkpt lat="44.217390500616055" lon="11.504055932764304"><ele>204.0</ele><time>2026-03-28T09:36:22Z</time></trkpt><trkpt lat="44.21741343359117" lon="11.504213266931233"><ele>203.0</ele><time>2026-03-28T09:36:23Z</time></trkpt><trkpt lat="44.21743564382641" lon="11.504371719427924"><ele>202.0</ele><time>2026-03-28T09:36:24Z</time></trkpt><trkpt lat="44.2174569559994" lon="11.504526916374067"><ele>201.0</ele><time>2026-03-28T09:36:25Z</time></trkpt><trkpt lat="44.21747868947626" lon="11.504678022194568"><ele>199.4</ele><time>2026-03-28T09:36:26Z</time></trkpt><trkpt lat="44.21750532527698" lon="11.504811521261125"><ele>197.8</ele><time>2026-03-28T09:36:27Z</time></trkpt><trkpt lat="44.21755272910237" lon="11.504921536628451"><ele>196.20000000000002</ele><time>2026-03-28T09:36:28Z</time></trkpt><trkpt lat="44.21762232689723" lon="11.50500883448599"><ele>194.60000000000002</ele><time>2026-03-28T09:36:29Z</time></trkpt><trkpt lat="44.2177114645252" lon="11.505070089065503"><ele>193.0</ele><time>2026-03-28T09:36:30Z</time></trkpt><trkpt lat="44.21781698125421" lon="11.50509964243961"><ele>193.0</ele><time>2026-03-28T09:36:31Z</time></trkpt><trkpt lat="44.21792894793188" lon="11.505133165552268"><ele>193.0</ele><time>2026-03-28T09:36:32Z</time></trkpt><trkpt lat="44.21806309849121" lon="11.505170361660225"><ele>193.0</ele><time>2026-03-28T09:36:33Z</time></trkpt><trkpt lat="44.2181894788455" lon="11.505209709506921"><ele>193.0</ele><time>2026-03-28T09:36:34Z</time></trkpt><trkpt lat="44.218319794777635" lon="11.505243781751359"><ele>193.25</ele><time>2026-03-28T09:36:35Z</time></trkpt><trkpt lat="44.2184489102501" lon="11.505280706910176"><ele>193.5</ele><time>2026-03-28T09:36:36Z</time></trkpt><trkpt lat="44.218577104583545" lon="11.505319094387792"><ele>193.75</ele><time>2026-03-28T09:36:37Z</time></trkpt><trkpt lat="44.21870304056453" lon="11.505348595008853"><ele>194.0</ele><time>2026-03-28T09:36:38Z</time></trkpt><trkpt lat="44.21882597362563" lon="11.505352558774193"><ele>194.0</ele><time>2026-03-28T09:36:39Z</time></trkpt><trkpt lat="44.218947720614345" lon="11.505310205822202"><ele>194.0</ele><time>2026-03-28T09:36:40Z</time></trkpt><trkpt lat="44.219074851047324" lon="11.505245012491658"><ele>194.0</ele><time>2026-03-28T09:36:41Z</time></trkpt><trkpt lat="44.21920806390909" lon="11.50516358642465"><ele>194.0</ele><time>2026-03-28T09:36:42Z</time></trkpt><trkpt lat="44.21934800203878" lon="11.505085717841634"><ele>192.66666666666669</ele><time>2026-03-28T09:36:43Z</time></trkpt><trkpt lat="44.219488988544036" lon="11.505007321616555"><ele>191.33333333333334</ele><time>2026-03-28T09:36:44Z</time></trkpt><trkpt lat="44.21963622421682" lon="11.50492781949738"><ele>190.0</ele><time>2026-03-28T09:36:45Z</time></trkpt><trkpt lat="44.21977696333468" lon="11.504844577898675"><ele>187.0</ele><time>2026-03-28T09:36:46Z</time></trkpt><trkpt lat="44.219923318230975" lon="11.504761944950051"><ele>184.0</ele><time>2026-03-28T09:36:47Z</time></trkpt><trkpt lat="44.220065487627444" lon="11.50467834828066"><ele>181.0</ele><time>2026-03-28T09:36:48Z</time></trkpt><trkpt lat="44.220208260422424" lon="11.504596564429368"><ele>182.0</ele><time>2026-03-28T09:36:49Z</time></trkpt><trkpt lat="44.220350039102094" lon="11.504512990332932"><ele>183.0</ele><time>2026-03-28T09:36:50Z</time></trkpt><trkpt lat="44.22048864625369" lon="11.5044310694509"><ele>184.0</ele><time>2026-03-28T09:36:51Z</time></trkpt><trkpt lat="44.22063094586137" lon="11.504351424603975"><ele>182.75</ele><time>2026-03-28T09:36:52Z</time></trkpt><trkpt lat="44.22077133975262" lon="11.504269424708252"><ele>181.5</ele><time>2026-03-28T09:36:53Z</time></trkpt><trkpt lat="44.22090552414363" lon="11.504183576982152"><ele>180.25</ele><time>2026-03-28T09:36:54Z</time></trkpt><trkpt lat="44.221036453175564" lon="11.504095551682118"><ele>179.0</ele><time>2026-03-28T09:36:55Z</time></trkpt><trkpt lat="44.22116267381537" lon="11.50401097475039"><ele>179.0</ele><time>2026-03-28T09:36:56Z</time></trkpt><trkpt lat="44.22127844231041" lon="11.503935168500886"><ele>179.0</ele><time>2026-03-28T09:36:57Z</time></trkpt><trkpt lat="44.22138247219524" lon="11.503876613538091"><ele>179.0</ele><time>2026-03-28T09:36:58Z</time></trkpt><trkpt lat="44.221477845620484" lon="11.503846734871171"><ele>179.0</ele><time>2026-03-28T09:36:59Z</time></trkpt><trkpt lat="44.22156547178992" lon="11.503845071583287"><ele>179.0</ele><time>2026-03-28T09:37:00Z</time></trkpt><trkpt lat="44.22165117410438" lon="11.503885968419743"><ele>177.6</ele><time>2026-03-28T09:37:01Z</time></trkpt><trkpt lat="44.22173058828811" lon="11.503960291688312"><ele>176.2</ele><time>2026-03-28T09:37:02Z</time></trkpt><trkpt lat="44.22182163090794" lon="11.504038974313092"><ele>174.79999999999998</ele><time>2026-03-28T09:37:03Z</time></trkpt><trkpt lat="44.221919309129554" lon="11.50412694962127"><ele>173.39999999999998</ele><time>2026-03-28T09:37:04Z</time></trkpt><trkpt lat="44.22201850166004" lon="11.504214467127095"><ele>172.0</ele><time>2026-03-28T09:37:05Z</time></trkpt><trkpt lat="44.222113483868704" lon="11.504303183786217"><ele>172.0</ele><time>2026-03-28T09:37:06Z</time></trkpt><trkpt lat="44.22220458592668" lon="11.504387405929998"><ele>172.0</ele><time>2026-03-28T09:37:07Z</time></trkpt><trkpt lat="44.22228870709512" lon="11.504464808592028"><ele>172.0</ele><time>2026-03-28T09:37:08Z</time></trkpt><trkpt lat="44.22237434054712" lon="11.50452798677471"><ele>172.0</ele><time>2026-03-28T09:37:09Z</time></trkpt><trkpt lat="44.22246933460984" lon="11.504548269514911"><ele>172.0</ele><time>2026-03-28T09:37:10Z</time></trkpt><trkpt lat="44.22256623770637" lon="11.50454204854225"><ele>171.75</ele><time>2026-03-28T09:37:11Z</time></trkpt><trkpt lat="44.22267542939978" lon="11.50451151356725"><ele>171.5</ele><time>2026-03-28T09:37:12Z</time></trkpt><trkpt lat="44.22279100356004" lon="11.504472552674585"><ele>171.25</ele><time>2026-03-28T09:37:13Z</time></trkpt><trkpt lat="44.222907334427276" lon="11.504431538110019"><ele>171.0</ele><time>2026-03-28T09:37:14Z</time></trkpt><trkpt lat="44.22303324913562" lon="11.504406143180093"><ele>172.25</ele><time>2026-03-28T09:37:15Z</time></trkpt><trkpt lat="44.22315633699749" lon="11.504391104320794"><ele>173.5</ele><time>2026-03-28T09:37:16Z</time></trkpt><trkpt lat="44.22328040907588" lon="11.504385385077853"><ele>174.75</ele><time>2026-03-28T09:37:17Z</time></trkpt><trkpt lat="44.22340382235278" lon="11.504398782302474"><ele>176.0</ele><time>2026-03-28T09:37:18Z</time></trkpt><trkpt lat="44.22352795250437" lon="11.504427110726272"><ele>176.0</ele><time>2026-03-28T09:37:19Z</time></trkpt><trkpt lat="44.223659037371185" lon="11.504467186866396"><ele>176.0</ele><time>2026-03-28T09:37:20Z</time></trkpt><trkpt lat="44.22379202611583" lon="11.504501507677677"><ele>176.0</ele><time>2026-03-28T09:37:21Z</time></trkpt><trkpt lat="44.22392279625684" lon="11.504542255978668"><ele>176.0</ele><time>2026-03-28T09:37:22Z</time></trkpt><trkpt lat="44.22405571618531" lon="11.504577414716985"><ele>180.25</ele><time>2026-03-28T09:37:23Z</time></trkpt><trkpt lat="44.22418821291287" lon="11.504611033373154"><ele>184.5</ele><time>2026-03-28T09:37:24Z</time></trkpt><trkpt lat="44.22431997122769" lon="11.504652613491016"><ele>188.75</ele><time>2026-03-28T09:37:25Z</time></trkpt><trkpt lat="44.224457214954" lon="11.504691646299912"><ele>193.0</ele><time>2026-03-28T09:37:26Z</time></trkpt><trkpt lat="44.22459486373555" lon="11.504739122234037"><ele>193.0</ele><time>2026-03-28T09:37:27Z</time></trkpt><trkpt lat="44.22473478376983" lon="11.50478819865816"><ele>193.0</ele><time>2026-03-28T09:37:28Z</time></trkpt><trkpt lat="44.224875941250104" lon="11.504831606653509"><ele>193.0</ele><time>2026-03-28T09:37:29Z</time></trkpt><trkpt lat="44.22501717259476" lon="11.504875443936966"><ele>193.0</ele><time>2026-03-28T09:37:30Z</time></trkpt><trkpt lat="44.22515888277747" lon="11.504920887995544"><ele>191.0</ele><time>2026-03-28T09:37:31Z</time></trkpt><trkpt lat="44.22530046950014" lon="11.50496092873877"><ele>189.0</ele><time>2026-03-28T09:37:32Z</time></trkpt><trkpt lat="44.225442791355185" lon="11.504993599465223"><ele>187.0</ele><time>2026-03-28T09:37:33Z</time></trkpt><trkpt lat="44.22558498189105" lon="11.505049886472559"><ele>185.0</ele><time>2026-03-28T09:37:34Z</time></trkpt><trkpt lat="44.22572909086766" lon="11.505098113086284"><ele>182.25</ele><time>2026-03-28T09:37:35Z</time></trkpt><trkpt lat="44.2258721037522" lon="11.505147578607447"><ele>179.5</ele><time>2026-03-28T09:37:36Z</time></trkpt><trkpt lat="44.2260159568712" lon="11.505186145831475"><ele>176.75</ele><time>2026-03-28T09:37:37Z</time></trkpt><trkpt lat="44.22615920296998" lon="11.505230081023232"><ele>174.0</ele><time>2026-03-28T09:37:38Z</time></trkpt><trkpt lat="44.22630220054723" lon="11.505273049695479"><ele>174.0</ele><time>2026-03-28T09:37:39Z</time></trkpt><trkpt lat="44.226448036109446" lon="11.505313333084972"><ele>174.0</ele><time>2026-03-28T09:37:40Z</time></trkpt><trkpt lat="44.22659550291628" lon="11.50535788633294"><ele>174.0</ele><time>2026-03-28T09:37:41Z</time></trkpt><trkpt lat="44.226746713693245" lon="11.505403012479867"><ele>177.33333333333334</ele><time>2026-03-28T09:37:42Z</time></trkpt><trkpt lat="44.22689775505888" lon="11.505453523012081"><ele>180.66666666666669</ele><time>2026-03-28T09:37:43Z</time></trkpt><trkpt lat="44.227044095612385" lon="11.505515403017556"><ele>184.0</ele><time>2026-03-28T09:37:44Z</time></trkpt><trkpt lat="44.22718405501394" lon="11.505588010593895"><ele>180.75</ele><time>2026-03-28T09:37:45Z</time></trkpt><trkpt lat="44.22731635066764" lon="11.505673873163135"><ele>177.5</ele><time>2026-03-28T09:37:46Z</time></trkpt><trkpt lat="44.227439454051776" lon="11.505774665471579"><ele>174.25</ele><time>2026-03-28T09:37:47Z</time></trkpt><trkpt lat="44.22754707717743" lon="11.50589760310717"><ele>171.0</ele><time>2026-03-28T09:37:48Z</time></trkpt><trkpt lat="44.22763542964708" lon="11.506039476145984"><ele>171.0</ele><time>2026-03-28T09:37:49Z</time></trkpt><trkpt lat="44.22769994279481" lon="11.506202999123262"><ele>171.0</ele><time>2026-03-28T09:37:50Z</time></trkpt><trkpt lat="44.22775047697165" lon="11.506381315317022"><ele>171.0</ele><time>2026-03-28T09:37:51Z</time></trkpt><trkpt lat="44.22778998683259" lon="11.506575200651188"><ele>171.0</ele><time>2026-03-28T09:37:52Z</time></trkpt><trkpt lat="44.227819017018696" lon="11.506771511707374"><ele>173.5</ele><time>2026-03-28T09:37:53Z</time></trkpt><trkpt lat="44.22784833088633" lon="11.506963477886847"><ele>176.0</ele><time>2026-03-28T09:37:54Z</time></trkpt><trkpt lat="44.22787697922771" lon="11.507147118820528"><ele>178.5</ele><time>2026-03-28T09:37:55Z</time></trkpt><trkpt lat="44.22790700355406" lon="11.50732939009317"><ele>181.0</ele><time>2026-03-28T09:37:56Z</time></trkpt><trkpt lat="44.22794982929402" lon="11.507498230706647"><ele>181.75</ele><time>2026-03-28T09:37:57Z</time></trkpt><trkpt lat="44.22801417864722" lon="11.507654257448866"><ele>182.5</ele><time>2026-03-28T09:37:58Z</time></trkpt><trkpt lat="44.22809894956759" lon="11.50779210821298"><ele>183.25</ele><time>2026-03-28T09:37:59Z</time></trkpt><trkpt lat="44.22820567245516" lon="11.507904010913853"><ele>184.0</ele><time>2026-03-28T09:38:00Z</time></trkpt><trkpt lat="44.22831747155909" lon="11.50802277049532"><ele>180.66666666666669</ele><time>2026-03-28T09:38:01Z</time></trkpt><trkpt lat="44.22843640951409" lon="11.508155735722397"><ele>177.33333333333334</ele><time>2026-03-28T09:38:02Z</time></trkpt><trkpt lat="44.22855975997016" lon="11.508294055900075"><ele>174.0</ele><time>2026-03-28T09:38:03Z</time></trkpt><trkpt lat="44.228689782251934" lon="11.508438458897688"><ele>174.0</ele><time>2026-03-28T09:38:04Z</time></trkpt><trkpt lat="44.228823431481096" lon="11.508584125793336"><ele>174.0</ele><time>2026-03-28T09:38:05Z</time></trkpt><trkpt lat="44.2289511219879" lon="11.508725561488166"><ele>174.0</ele><time>2026-03-28T09:38:06Z</time></trkpt><trkpt lat="44.22907518284762" lon="11.508863479052765"><ele>173.33333333333334</ele><time>2026-03-28T09:38:07Z</time></trkpt><trkpt lat="44.22920793229286" lon="11.509003368362553"><ele>172.66666666666669</ele><time>2026-03-28T09:38:08Z</time></trkpt><trkpt lat="44.22934819447327" lon="11.50914291730322"><ele>172.0</ele><time>2026-03-28T09:38:09Z</time></trkpt><trkpt lat="44.22948912929695" lon="11.509272440145576"><ele>172.0</ele><time>2026-03-28T09:38:10Z</time></trkpt><trkpt lat="44.22962730101683" lon="11.5094060451704"><ele>172.0</ele><time>2026-03-28T09:38:11Z</time></trkpt><trkpt lat="44.22976439683463" lon="11.509536121979835"><ele>172.0</ele><time>2026-03-28T09:38:12Z</time></trkpt><trkpt lat="44.22990491536696" lon="11.509663023554483"><ele>171.0</ele><time>2026-03-28T09:38:13Z</time></trkpt><trkpt lat="44.23004523267916" lon="11.509796365860385"><ele>170.0</ele><time>2026-03-28T09:38:14Z</time></trkpt><trkpt lat="44.230185471989735" lon="11.509930084589696"><ele>169.0</ele><time>2026-03-28T09:38:15Z</time></trkpt><trkpt lat="44.23032947740704" lon="11.510063537000606"><ele>169.0</ele><time>2026-03-28T09:38:16Z</time></trkpt><trkpt lat="44.23047399479395" lon="11.510196525908746"><ele>169.0</ele><time>2026-03-28T09:38:17Z</time></trkpt><trkpt lat="44.230618460314346" lon="11.510332206974004"><ele>169.0</ele><time>2026-03-28T09:38:18Z</time></trkpt><trkpt lat="44.23076483561246" lon="11.510466940723596"><ele>169.66666666666669</ele><time>2026-03-28T09:38:19Z</time></trkpt><trkpt lat="44.23091084298339" lon="11.51060337563906"><ele>170.33333333333334</ele><time>2026-03-28T09:38:20Z</time></trkpt><trkpt lat="44.23105933662156" lon="11.510739066416244"><ele>171.0</ele><time>2026-03-28T09:38:21Z</time></trkpt><trkpt lat="44.2312065958137" lon="11.510878007424209"><ele>171.0</ele><time>2026-03-28T09:38:22Z</time></trkpt><trkpt lat="44.23135374668964" lon="11.511017457696934"><ele>171.0</ele><time>2026-03-28T09:38:23Z</time></trkpt><trkpt lat="44.23150281508306" lon="11.511157857881104"><ele>171.0</ele><time>2026-03-28T09:38:24Z</time></trkpt><trkpt lat="44.23165249770065" lon="11.511297949565412"><ele>169.66666666666666</ele><time>2026-03-28T09:38:25Z</time></trkpt><trkpt lat="44.231803500218724" lon="11.51143870804655"><ele>168.33333333333331</ele><time>2026-03-28T09:38:26Z</time></trkpt><trkpt lat="44.231954974547065" lon="11.511580512302933"><ele>167.0</ele><time>2026-03-28T09:38:27Z</time></trkpt><trkpt lat="44.23210669350925" lon="11.51172291605783"><ele>167.0</ele><time>2026-03-28T09:38:28Z</time></trkpt><trkpt lat="44.23225782826065" lon="11.511866348956781"><ele>167.0</ele><time>2026-03-28T09:38:29Z</time></trkpt><trkpt lat="44.23240969073731" lon="11.512008937956093"><ele>167.0</ele><time>2026-03-28T09:38:30Z</time></trkpt><trkpt lat="44.232560284280865" lon="11.51215060293533"><ele>168.0</ele><time>2026-03-28T09:38:31Z</time></trkpt><trkpt lat="44.23271146127802" lon="11.512290234649482"><ele>169.0</ele><time>2026-03-28T09:38:32Z</time></trkpt><trkpt lat="44.23285928335476" lon="11.512426895183596"><ele>170.0</ele><time>2026-03-28T09:38:33Z</time></trkpt><trkpt lat="44.233006087405876" lon="11.512562496979129"><ele>169.33333333333331</ele><time>2026-03-28T09:38:34Z</time></trkpt><trkpt lat="44.23314850064194" lon="11.512695448657869"><ele>168.66666666666666</ele><time>2026-03-28T09:38:35Z</time></trkpt><trkpt lat="44.23328855476773" lon="11.512827634398025"><ele>168.0</ele><time>2026-03-28T09:38:36Z</time></trkpt><trkpt lat="44.23342269009223" lon="11.512956370688002"><ele>169.75</ele><time>2026-03-28T09:38:37Z</time></trkpt><trkpt lat="44.233549741261314" lon="11.513078512282142"><ele>171.5</ele><time>2026-03-28T09:38:38Z</time></trkpt><trkpt lat="44.23367250325965" lon="11.513195936307888"><ele>173.25</ele><time>2026-03-28T09:38:39Z</time></trkpt><trkpt lat="44.2337919617148" lon="11.513312502687484"><ele>175.0</ele><time>2026-03-28T09:38:40Z</time></trkpt><trkpt lat="44.23390070740147" lon="11.513433670093809"><ele>173.75</ele><time>2026-03-28T09:38:41Z</time></trkpt><trkpt lat="44.23398928896814" lon="11.513568112911278"><ele>172.5</ele><time>2026-03-28T09:38:42Z</time></trkpt><trkpt lat="44.23405151324989" lon="11.513721185816102"><ele>171.25</ele><time>2026-03-28T09:38:43Z</time></trkpt><trkpt lat="44.23408669121266" lon="11.513887773718151"><ele>170.0</ele><time>2026-03-28T09:38:44Z</time></trkpt><trkpt lat="44.234102681979785" lon="11.514064209834155"><ele>170.0</ele><time>2026-03-28T09:38:45Z</time></trkpt><trkpt lat="44.234115657755275" lon="11.51425180663187"><ele>170.0</ele><time>2026-03-28T09:38:46Z</time></trkpt><trkpt lat="44.2341306384353" lon="11.514446259150166"><ele>170.0</ele><time>2026-03-28T09:38:47Z</time></trkpt><trkpt lat="44.23415035999949" lon="11.514646525958609"><ele>170.0</ele><time>2026-03-28T09:38:48Z</time></trkpt><trkpt lat="44.23418515461521" lon="11.514838944495546"><ele>171.75</ele><time>2026-03-28T09:38:49Z</time></trkpt><trkpt lat="44.2342390719305" lon="11.515030500720101"><ele>173.5</ele><time>2026-03-28T09:38:50Z</time></trkpt><trkpt lat="44.23429569099652" lon="11.515222195711356"><ele>175.25</ele><time>2026-03-28T09:38:51Z</time></trkpt><trkpt lat="44.2343456192632" lon="11.515419771558479"><ele>177.0</ele><time>2026-03-28T09:38:52Z</time></trkpt><trkpt lat="44.234386455577045" lon="11.51562224528716"><ele>178.0</ele><time>2026-03-28T09:38:53Z</time></trkpt><trkpt lat="44.234416327222796" lon="11.515830726696285"><ele>179.0</ele><time>2026-03-28T09:38:54Z</time></trkpt><trkpt lat="44.23443789277514" lon="11.516046052601581"><ele>180.0</ele><time>2026-03-28T09:38:55Z</time></trkpt><trkpt lat="44.234459335250854" lon="11.516262782347098"><ele>181.0</ele><time>2026-03-28T09:38:56Z</time></trkpt><trkpt lat="44.23448161355475" lon="11.516475794377765"><ele>182.0</ele><time>2026-03-28T09:38:57Z</time></trkpt><trkpt lat="44.23451373202093" lon="11.516677477092085"><ele>183.0</ele><time>2026-03-28T09:38:58Z</time></trkpt><trkpt lat="44.23455805537345" lon="11.516869822810191"><ele>184.0</ele><time>2026-03-28T09:38:59Z</time></trkpt><trkpt lat="44.2346086325718" lon="11.517049284595048"><ele>185.75</ele><time>2026-03-28T09:39:00Z</time></trkpt><trkpt lat="44.23466857826568" lon="11.517215484860381"><ele>187.5</ele><time>2026-03-28T09:39:01Z</time></trkpt><trkpt lat="44.23475200831043" lon="11.517360500913064"><ele>189.25</ele><time>2026-03-28T09:39:02Z</time></trkpt><trkpt lat="44.23485711069659" lon="11.517484176079625"><ele>191.0</ele><time>2026-03-28T09:39:03Z</time></trkpt><trkpt lat="44.234974979723226" lon="11.517604403640659"><ele>186.33333333333331</ele><time>2026-03-28T09:39:04Z</time></trkpt><trkpt lat="44.23509404515098" lon="11.517733928163022"><ele>181.66666666666666</ele><time>2026-03-28T09:39:05Z</time></trkpt><trkpt lat="44.23521712794795" lon="11.517871793200147"><ele>177.0</ele><time>2026-03-28T09:39:06Z</time></trkpt><trkpt lat="44.235345594070694" lon="11.518010225250805"><ele>177.0</ele><time>2026-03-28T09:39:07Z</time></trkpt><trkpt lat="44.235473048544954" lon="11.51814723926236"><ele>177.0</ele><time>2026-03-28T09:39:08Z</time></trkpt><trkpt lat="44.2355986788572" lon="11.518289999501762"><ele>177.0</ele><time>2026-03-28T09:39:09Z</time></trkpt><trkpt lat="44.235724320265994" lon="11.518428708316392"><ele>174.33333333333334</ele><time>2026-03-28T09:39:10Z</time></trkpt><trkpt lat="44.2358537763747" lon="11.518572624464037"><ele>171.66666666666669</ele><time>2026-03-28T09:39:11Z</time></trkpt><trkpt lat="44.23598247869941" lon="11.518717369286797"><ele>169.0</ele><time>2026-03-28T09:39:12Z</time></trkpt><trkpt lat="44.236108552885845" lon="11.51885948304726"><ele>169.0</ele><time>2026-03-28T09:39:13Z</time></trkpt><trkpt lat="44.23623221764307" lon="11.518998725671286"><ele>169.0</ele><time>2026-03-28T09:39:14Z</time></trkpt><trkpt lat="44.236352878628814" lon="11.51913355316755"><ele>169.0</ele><time>2026-03-28T09:39:15Z</time></trkpt><trkpt lat="44.23647026163637" lon="11.519267635168998"><ele>168.5</ele><time>2026-03-28T09:39:16Z</time></trkpt><trkpt lat="44.23658500875839" lon="11.519397777099114"><ele>168.0</ele><time>2026-03-28T09:39:17Z</time></trkpt><trkpt lat="44.23669410404306" lon="11.519518762109891"><ele>167.5</ele><time>2026-03-28T09:39:18Z</time></trkpt><trkpt lat="44.23679938527084" lon="11.519632187447437"><ele>167.0</ele><time>2026-03-28T09:39:19Z</time></trkpt><trkpt lat="44.236916382182166" lon="11.519716220349649"><ele>168.0</ele><time>2026-03-28T09:39:20Z</time></trkpt><trkpt lat="44.23704159302629" lon="11.519775537955711"><ele>169.0</ele><time>2026-03-28T09:39:21Z</time></trkpt><trkpt lat="44.237179258260795" lon="11.519801040283134"><ele>170.0</ele><time>2026-03-28T09:39:22Z</time></trkpt><trkpt lat="44.2373062544701" lon="11.51983137883427"><ele>171.0</ele><time>2026-03-28T09:39:23Z</time></trkpt><trkpt lat="44.23741754017033" lon="11.519888247164054"><ele>171.0</ele><time>2026-03-28T09:39:24Z</time></trkpt><trkpt lat="44.23748990714184" lon="11.519967878326113"><ele>171.0</ele><time>2026-03-28T09:39:25Z</time></trkpt><trkpt lat="44.23755451337425" lon="11.5200982232247"><ele>171.0</ele><time>2026-03-28T09:39:26Z</time></trkpt><trkpt lat="44.237607316993085" lon="11.5202282681943"><ele>171.0</ele><time>2026-03-28T09:39:27Z</time></trkpt><trkpt lat="44.23766066599199" lon="11.520349171424149"><ele>171.0</ele><time>2026-03-28T09:39:28Z</time></trkpt><trkpt lat="44.23772197147647" lon="11.520467568660631"><ele>176.25</ele><time>2026-03-28T09:39:29Z</time></trkpt><trkpt lat="44.23780245808312" lon="11.520571431614359"><ele>181.5</ele><time>2026-03-28T09:39:30Z</time></trkpt><trkpt lat="44.2379006299064" lon="11.520659204642334"><ele>186.75</ele><time>2026-03-28T09:39:31Z</time></trkpt><trkpt lat="44.23800524008611" lon="11.520733719121754"><ele>192.0</ele><time>2026-03-28T09:39:32Z</time></trkpt><trkpt lat="44.23811525209879" lon="11.520808370063419"><ele>192.5</ele><time>2026-03-28T09:39:33Z</time></trkpt><trkpt lat="44.23822642073922" lon="11.520891859470163"><ele>193.0</ele><time>2026-03-28T09:39:34Z</time></trkpt><trkpt lat="44.23833960670651" lon="11.520992683296706"><ele>193.5</ele><time>2026-03-28T09:39:35Z</time></trkpt><trkpt lat="44.23843679275771" lon="11.521117994358287"><ele>194.0</ele><time>2026-03-28T09:39:36Z</time></trkpt><trkpt lat="44.238521250283256" lon="11.521268579943639"><ele>194.0</ele><time>2026-03-28T09:39:37Z</time></trkpt><trkpt lat="44.238594395420776" lon="11.521429148856036"><ele>194.0</ele><time>2026-03-28T09:39:38Z</time></trkpt><trkpt lat="44.238684128854246" lon="11.52158336729522"><ele>194.0</ele><time>2026-03-28T09:39:39Z</time></trkpt><trkpt lat="44.23878312786507" lon="11.521720424624025"><ele>194.0</ele><time>2026-03-28T09:39:40Z</time></trkpt><trkpt lat="44.238891511737805" lon="11.521851108196168"><ele>192.0</ele><time>2026-03-28T09:39:41Z</time></trkpt><trkpt lat="44.23899611396763" lon="11.521988661553095"><ele>190.0</ele><time>2026-03-28T09:39:42Z</time></trkpt><trkpt lat="44.23908370269589" lon="11.52214372975222"><ele>188.0</ele><time>2026-03-28T09:39:43Z</time></trkpt><trkpt lat="44.23915159347728" lon="11.522314143599571"><ele>186.0</ele><time>2026-03-28T09:39:44Z</time></trkpt><trkpt lat="44.23921553256867" lon="11.52248374044573"><ele>186.0</ele><time>2026-03-28T09:39:45Z</time></trkpt><trkpt lat="44.2392894812524" lon="11.522645234385374"><ele>186.0</ele><time>2026-03-28T09:39:46Z</time></trkpt><trkpt lat="44.23938020682843" lon="11.52279200801575"><ele>186.0</ele><time>2026-03-28T09:39:47Z</time></trkpt><trkpt lat="44.23947583690984" lon="11.52293234913341"><ele>186.0</ele><time>2026-03-28T09:39:48Z</time></trkpt><trkpt lat="44.239571210211516" lon="11.52306461851935"><ele>187.25</ele><time>2026-03-28T09:39:49Z</time></trkpt><trkpt lat="44.239657937196135" lon="11.523186458423167"><ele>188.5</ele><time>2026-03-28T09:39:50Z</time></trkpt><trkpt lat="44.23974305116256" lon="11.523295322682001"><ele>189.75</ele><time>2026-03-28T09:39:51Z</time></trkpt><trkpt lat="44.239842490989794" lon="11.523368437870683"><ele>191.0</ele><time>2026-03-28T09:39:52Z</time></trkpt><trkpt lat="44.23995780345193" lon="11.523396692092135"><ele>191.0</ele><time>2026-03-28T09:39:53Z</time></trkpt><trkpt lat="44.24007876165518" lon="11.523381727214147"><ele>191.0</ele><time>2026-03-28T09:39:54Z</time></trkpt><trkpt lat="44.24020441120974" lon="11.523323518587034"><ele>191.0</ele><time>2026-03-28T09:39:55Z</time></trkpt><trkpt lat="44.240330544954624" lon="11.523252921534489"><ele>191.0</ele><time>2026-03-28T09:39:56Z</time></trkpt><trkpt lat="44.240457240252034" lon="11.52317549825022"><ele>191.0</ele><time>2026-03-28T09:39:57Z</time></trkpt><trkpt lat="44.2405830167792" lon="11.523113633441953"><ele>191.0</ele><time>2026-03-28T09:39:58Z</time></trkpt><trkpt lat="44.24070922334888" lon="11.523077052655784"><ele>191.0</ele><time>2026-03-28T09:39:59Z</time></trkpt><trkpt lat="44.24083772930555" lon="11.523079927765082"><ele>191.0</ele><time>2026-03-28T09:40:00Z</time></trkpt><trkpt lat="44.24095861824523" lon="11.523127013883073"><ele>191.0</ele><time>2026-03-28T09:40:01Z</time></trkpt><trkpt lat="44.24107366491439" lon="11.523218015879024"><ele>191.0</ele><time>2026-03-28T09:40:02Z</time></trkpt><trkpt lat="44.24117677787825" lon="11.523343761047514"><ele>191.0</ele><time>2026-03-28T09:40:03Z</time></trkpt><trkpt lat="44.24127701164605" lon="11.523486896165231"><ele>191.0</ele><time>2026-03-28T09:40:04Z</time></trkpt><trkpt lat="44.24138124185465" lon="11.523639693943421"><ele>192.33333333333331</ele><time>2026-03-28T09:40:05Z</time></trkpt><trkpt lat="44.24149425995749" lon="11.523792498929343"><ele>193.66666666666666</ele><time>2026-03-28T09:40:06Z</time></trkpt><trkpt lat="44.24160526409876" lon="11.523943291491637"><ele>195.0</ele><time>2026-03-28T09:40:07Z</time></trkpt><trkpt lat="44.241714904090294" lon="11.524092124970036"><ele>195.0</ele><time>2026-03-28T09:40:08Z</time></trkpt><trkpt lat="44.24182218712134" lon="11.524234129813816"><ele>195.0</ele><time>2026-03-28T09:40:09Z</time></trkpt><trkpt lat="44.24192757809818" lon="11.52437144289291"><ele>195.0</ele><time>2026-03-28T09:40:10Z</time></trkpt><trkpt lat="44.24204158383868" lon="11.52449223536961"><ele>195.0</ele><time>2026-03-28T09:40:11Z</time></trkpt><trkpt lat="44.2421640088386" lon="11.524587120098415"><ele>195.25</ele><time>2026-03-28T09:40:12Z</time></trkpt><trkpt lat="44.242288611349366" lon="11.524668881722297"><ele>195.5</ele><time>2026-03-28T09:40:13Z</time></trkpt><trkpt lat="44.24241299653361" lon="11.524741390495203"><ele>195.75</ele><time>2026-03-28T09:40:14Z</time></trkpt><trkpt lat="44.242532893226546" lon="11.524821182601622"><ele>196.0</ele><time>2026-03-28T09:40:15Z</time></trkpt><trkpt lat="44.24264996116594" lon="11.524912216176538"><ele>196.0</ele><time>2026-03-28T09:40:16Z</time></trkpt><trkpt lat="44.2427623939839" lon="11.52501792324927"><ele>196.0</ele><time>2026-03-28T09:40:17Z</time></trkpt><trkpt lat="44.242860835391504" lon="11.525145561556572"><ele>196.0</ele><time>2026-03-28T09:40:18Z</time></trkpt><trkpt lat="44.242944826932934" lon="11.525292251632466"><ele>196.0</ele><time>2026-03-28T09:40:19Z</time></trkpt><trkpt lat="44.2430138827425" lon="11.5254540398491"><ele>196.5</ele><time>2026-03-28T09:40:20Z</time></trkpt><trkpt lat="44.24306462079772" lon="11.525627069258237"><ele>197.0</ele><time>2026-03-28T09:40:21Z</time></trkpt><trkpt lat="44.243096531089165" lon="11.525809243538038"><ele>197.5</ele><time>2026-03-28T09:40:22Z</time></trkpt><trkpt lat="44.24311009970587" lon="11.525997528505425"><ele>198.0</ele><time>2026-03-28T09:40:23Z</time></trkpt><trkpt lat="44.24311025871673" lon="11.526192555207057"><ele>196.75</ele><time>2026-03-28T09:40:24Z</time></trkpt><trkpt lat="44.24307722893576" lon="11.526388135944167"><ele>195.5</ele><time>2026-03-28T09:40:25Z</time></trkpt><trkpt lat="44.24304382427962" lon="11.526589477851815"><ele>194.25</ele><time>2026-03-28T09:40:26Z</time></trkpt><trkpt lat="44.243006089481824" lon="11.52679499313888"><ele>193.0</ele><time>2026-03-28T09:40:27Z</time></trkpt><trkpt lat="44.24298174408331" lon="11.527010355852262"><ele>188.66666666666666</ele><time>2026-03-28T09:40:28Z</time></trkpt><trkpt lat="44.24294126015588" lon="11.527219774272675"><ele>184.33333333333331</ele><time>2026-03-28T09:40:29Z</time></trkpt><trkpt lat="44.24290331514811" lon="11.527427192514509"><ele>180.0</ele><time>2026-03-28T09:40:30Z</time></trkpt><trkpt lat="44.242865602115984" lon="11.527629640668977"><ele>180.0</ele><time>2026-03-28T09:40:31Z</time></trkpt><trkpt lat="44.242827910701266" lon="11.527822907525128"><ele>180.0</ele><time>2026-03-28T09:40:32Z</time></trkpt><trkpt lat="44.24279216888589" lon="11.528008820885074"><ele>180.0</ele><time>2026-03-28T09:40:33Z</time></trkpt><trkpt lat="44.24275738068059" lon="11.52818777818184"><ele>180.0</ele><time>2026-03-28T09:40:34Z</time></trkpt><trkpt lat="44.24272670707757" lon="11.52836233433804"><ele>182.0</ele><time>2026-03-28T09:40:35Z</time></trkpt><trkpt lat="44.24271462737039" lon="11.528535190390427"><ele>184.0</ele><time>2026-03-28T09:40:36Z</time></trkpt><trkpt lat="44.24273765514337" lon="11.528698623967117"><ele>186.0</ele><time>2026-03-28T09:40:37Z</time></trkpt><trkpt lat="44.24279712038078" lon="11.528844435018966"><ele>188.0</ele><time>2026-03-28T09:40:38Z</time></trkpt><trkpt lat="44.24287876813023" lon="11.528977443743479"><ele>190.75</ele><time>2026-03-28T09:40:39Z</time></trkpt><trkpt lat="44.24296786451525" lon="11.529111134736164"><ele>193.5</ele><time>2026-03-28T09:40:40Z</time></trkpt><trkpt lat="44.243057118665774" lon="11.529259638464271"><ele>196.25</ele><time>2026-03-28T09:40:41Z</time></trkpt><trkpt lat="44.24314755918895" lon="11.529415434963946"><ele>199.0</ele><time>2026-03-28T09:40:42Z</time></trkpt><trkpt lat="44.24324373449306" lon="11.52957557343418"><ele>200.5</ele><time>2026-03-28T09:40:43Z</time></trkpt><trkpt lat="44.24333385651111" lon="11.529735809093825"><ele>202.0</ele><time>2026-03-28T09:40:44Z</time></trkpt><trkpt lat="44.24342495424918" lon="11.529893598089917"><ele>203.5</ele><time>2026-03-28T09:40:45Z</time></trkpt><trkpt lat="44.243516017111425" lon="11.530051660849669"><ele>205.0</ele><time>2026-03-28T09:40:46Z</time></trkpt><trkpt lat="44.24360683390244" lon="11.530209637944731"><ele>205.0</ele><time>2026-03-28T09:40:47Z</time></trkpt><trkpt lat="44.24369767192177" lon="11.53036848822012"><ele>205.0</ele><time>2026-03-28T09:40:48Z</time></trkpt><trkpt lat="44.243790410761676" lon="11.53052659842205"><ele>205.0</ele><time>2026-03-28T09:40:49Z</time></trkpt><trkpt lat="44.24388704202001" lon="11.530686571824658"><ele>205.0</ele><time>2026-03-28T09:40:50Z</time></trkpt><trkpt lat="44.24398096965958" lon="11.5308433619068"><ele>205.2</ele><time>2026-03-28T09:40:51Z</time></trkpt><trkpt lat="44.244065385300594" lon="11.530991238640116"><ele>205.4</ele><time>2026-03-28T09:40:52Z</time></trkpt><trkpt lat="44.24413973297548" lon="11.53111857892902"><ele>205.60000000000002</ele><time>2026-03-28T09:40:53Z</time></trkpt><trkpt lat="44.244202888495366" lon="11.531224136078738"><ele>205.8</ele><time>2026-03-28T09:40:54Z</time></trkpt><trkpt lat="44.24425592173028" lon="11.531313353016309"><ele>206.0</ele><time>2026-03-28T09:40:55Z</time></trkpt><trkpt lat="44.24430347817675" lon="11.53139410404011"><ele>205.99999999999997</ele><time>2026-03-28T09:40:56Z</time></trkpt><trkpt lat="44.24434981216474" lon="11.531469645975022"><ele>206.0</ele><time>2026-03-28T09:40:57Z</time></trkpt><trkpt lat="44.24439421566665" lon="11.531539369721491"><ele>206.0</ele><time>2026-03-28T09:40:58Z</time></trkpt><trkpt lat="44.244438441259376" lon="11.531614615087568"><ele>206.0</ele><time>2026-03-28T09:40:59Z</time></trkpt><trkpt lat="44.24448546987293" lon="11.53169140395127"><ele>206.0</ele><time>2026-03-28T09:41:00Z</time></trkpt><trkpt lat="44.24453202956371" lon="11.531768942862477"><ele>205.99999999999997</ele><time>2026-03-28T09:41:01Z</time></trkpt><trkpt lat="44.24457479466547" lon="11.531842365214699"><ele>206.0</ele><time>2026-03-28T09:41:02Z</time></trkpt><trkpt lat="44.24461700923701" lon="11.531915660174755"><ele>206.00000000000003</ele><time>2026-03-28T09:41:03Z</time></trkpt><trkpt lat="44.24465945632575" lon="11.531988728952532"><ele>206.0</ele><time>2026-03-28T09:41:04Z</time></trkpt><trkpt lat="44.244698544321075" lon="11.532058116615158"><ele>206.0</ele><time>2026-03-28T09:41:05Z</time></trkpt><trkpt lat="44.244774376715974" lon="11.532190026617585"><ele>206.0</ele><time>2026-03-28T09:41:07Z</time></trkpt><trkpt lat="44.2448511962443" lon="11.53232951951069"><ele>206.00000000000003</ele><time>2026-03-28T09:41:09Z</time></trkpt><trkpt lat="44.244892249066716" lon="11.532407622192517"><ele>206.0</ele><time>2026-03-28T09:41:10Z</time></trkpt><trkpt lat="44.24493394535664" lon="11.532490860889208"><ele>206.33333333333334</ele><time>2026-03-28T09:41:11Z</time></trkpt><trkpt lat="44.24497719930744" lon="11.532581183458742"><ele>206.66666666666669</ele><time>2026-03-28T09:41:12Z</time></trkpt><trkpt lat="44.24502353512133" lon="11.532681745749807"><ele>207.0</ele><time>2026-03-28T09:41:13Z</time></trkpt><trkpt lat="44.24507288936749" lon="11.532786211171375"><ele>207.33333333333331</ele><time>2026-03-28T09:41:14Z</time></trkpt><trkpt lat="44.245124488915096" lon="11.532893819386443"><ele>207.66666666666666</ele><time>2026-03-28T09:41:15Z</time></trkpt><trkpt lat="44.24517735710091" lon="11.53300486068134"><ele>208.0</ele><time>2026-03-28T09:41:16Z</time></trkpt><trkpt lat="44.24523165927123" lon="11.533117895811275"><ele>208.0</ele><time>2026-03-28T09:41:17Z</time></trkpt><trkpt lat="44.24528787260738" lon="11.53323857739685"><ele>208.0</ele><time>2026-03-28T09:41:18Z</time></trkpt><trkpt lat="44.245348391023086" lon="11.53336522991638"><ele>208.0</ele><time>2026-03-28T09:41:19Z</time></trkpt><trkpt lat="44.24541229472543" lon="11.533498189820632"><ele>208.0</ele><time>2026-03-28T09:41:20Z</time></trkpt><trkpt lat="44.245479887760574" lon="11.533632686818764"><ele>208.0</ele><time>2026-03-28T09:41:21Z</time></trkpt><trkpt lat="44.245545537273436" lon="11.53377027968851"><ele>209.2</ele><time>2026-03-28T09:41:22Z</time></trkpt><trkpt lat="44.245608501216665" lon="11.53390777234115"><ele>210.4</ele><time>2026-03-28T09:41:23Z</time></trkpt><trkpt lat="44.245669356598604" lon="11.534042083902698"><ele>211.59999999999997</ele><time>2026-03-28T09:41:24Z</time></trkpt><trkpt lat="44.24572488578599" lon="11.53417072506698"><ele>212.79999999999998</ele><time>2026-03-28T09:41:25Z</time></trkpt><trkpt lat="44.24577933179112" lon="11.53429632566382"><ele>214.0</ele><time>2026-03-28T09:41:26Z</time></trkpt><trkpt lat="44.24583493926735" lon="11.534429787212012"><ele>211.0</ele><time>2026-03-28T09:41:27Z</time></trkpt><trkpt lat="44.245892995114616" lon="11.534568965156089"><ele>208.0</ele><time>2026-03-28T09:41:28Z</time></trkpt><trkpt lat="44.245957022334174" lon="11.534717631597243"><ele>205.0</ele><time>2026-03-28T09:41:29Z</time></trkpt><trkpt lat="44.246030632412015" lon="11.534873453236182"><ele>202.0</ele><time>2026-03-28T09:41:30Z</time></trkpt><trkpt lat="44.24611399604557" lon="11.535024234656825"><ele>202.0</ele><time>2026-03-28T09:41:31Z</time></trkpt><trkpt lat="44.246195210412516" lon="11.535165775734885"><ele>202.0</ele><time>2026-03-28T09:41:32Z</time></trkpt><trkpt lat="44.246275019930565" lon="11.535305611267944"><ele>202.0</ele><time>2026-03-28T09:41:33Z</time></trkpt><trkpt lat="44.246350215302535" lon="11.535448815986376"><ele>202.0</ele><time>2026-03-28T09:41:34Z</time></trkpt><trkpt lat="44.24642160929613" lon="11.53559039587843"><ele>198.6</ele><time>2026-03-28T09:41:35Z</time></trkpt><trkpt lat="44.24648566356164" lon="11.53572857452022"><ele>195.2</ele><time>2026-03-28T09:41:36Z</time></trkpt><trkpt lat="44.246544760312005" lon="11.535860616828748"><ele>191.8</ele><time>2026-03-28T09:41:37Z</time></trkpt><trkpt lat="44.24659732039153" lon="11.53597585852161"><ele>188.4</ele><time>2026-03-28T09:41:38Z</time></trkpt><trkpt lat="44.24665187043548" lon="11.53608922840112"><ele>185.0</ele><time>2026-03-28T09:41:39Z</time></trkpt><trkpt lat="44.2467112407426" lon="11.536209380118333"><ele>187.75</ele><time>2026-03-28T09:41:40Z</time></trkpt><trkpt lat="44.24677523087629" lon="11.536349309815495"><ele>190.5</ele><time>2026-03-28T09:41:41Z</time></trkpt><trkpt lat="44.2468408223397" lon="11.53650560249547"><ele>193.25</ele><time>2026-03-28T09:41:42Z</time></trkpt><trkpt lat="44.24691466940328" lon="11.53667440459227"><ele>196.0</ele><time>2026-03-28T09:41:43Z</time></trkpt><trkpt lat="44.24698974859196" lon="11.536844864976539"><ele>196.0</ele><time>2026-03-28T09:41:44Z</time></trkpt><trkpt lat="44.24706067982424" lon="11.537010054494909"><ele>196.0</ele><time>2026-03-28T09:41:45Z</time></trkpt><trkpt lat="44.24713321932939" lon="11.537181086816473"><ele>196.0</ele><time>2026-03-28T09:41:46Z</time></trkpt><trkpt lat="44.24721018183249" lon="11.537361172105479"><ele>196.0</ele><time>2026-03-28T09:41:47Z</time></trkpt><trkpt lat="44.24728697206749" lon="11.537539646617217"><ele>193.75</ele><time>2026-03-28T09:41:48Z</time></trkpt><trkpt lat="44.247360821552135" lon="11.537718942430617"><ele>191.5</ele><time>2026-03-28T09:41:49Z</time></trkpt><trkpt lat="44.24741818924626" lon="11.537905666170357"><ele>189.25</ele><time>2026-03-28T09:41:50Z</time></trkpt><trkpt lat="44.24746779942135" lon="11.538096761635858"><ele>187.0</ele><time>2026-03-28T09:41:51Z</time></trkpt><trkpt lat="44.24751448119646" lon="11.538291360561919"><ele>187.0</ele><time>2026-03-28T09:41:52Z</time></trkpt><trkpt lat="44.24756418198716" lon="11.53848917741076"><ele>187.0</ele><time>2026-03-28T09:41:53Z</time></trkpt><trkpt lat="44.2476194478626" lon="11.538692076611095"><ele>187.0</ele><time>2026-03-28T09:41:54Z</time></trkpt><trkpt lat="44.24767884139814" lon="11.538904342657101"><ele>189.0</ele><time>2026-03-28T09:41:55Z</time></trkpt><trkpt lat="44.24774502755057" lon="11.539120649936724"><ele>191.0</ele><time>2026-03-28T09:41:56Z</time></trkpt><trkpt lat="44.247810065274926" lon="11.53933747127555"><ele>193.0</ele><time>2026-03-28T09:41:57Z</time></trkpt><trkpt lat="44.2478772949085" lon="11.539556187171753"><ele>197.0</ele><time>2026-03-28T09:41:58Z</time></trkpt><trkpt lat="44.24794055388261" lon="11.539775109048346"><ele>201.0</ele><time>2026-03-28T09:41:59Z</time></trkpt><trkpt lat="44.24800554110637" lon="11.53999387850931"><ele>205.0</ele><time>2026-03-28T09:42:00Z</time></trkpt><trkpt lat="44.24807038605819" lon="11.540212255241057"><ele>198.0</ele><time>2026-03-28T09:42:01Z</time></trkpt><trkpt lat="44.248132887948515" lon="11.540423138454683"><ele>191.0</ele><time>2026-03-28T09:42:02Z</time></trkpt><trkpt lat="44.24819446203614" lon="11.54062729713365"><ele>184.0</ele><time>2026-03-28T09:42:03Z</time></trkpt><trkpt lat="44.24825473928889" lon="11.540835802598652"><ele>184.0</ele><time>2026-03-28T09:42:04Z</time></trkpt><trkpt lat="44.24831485611738" lon="11.541038121933205"><ele>184.0</ele><time>2026-03-28T09:42:05Z</time></trkpt><trkpt lat="44.24837626956851" lon="11.541236213819033"><ele>184.0</ele><time>2026-03-28T09:42:06Z</time></trkpt><trkpt lat="44.2484346428836" lon="11.541432671467694"><ele>186.66666666666669</ele><time>2026-03-28T09:42:07Z</time></trkpt><trkpt lat="44.24849700427818" lon="11.541628014607436"><ele>189.33333333333334</ele><time>2026-03-28T09:42:08Z</time></trkpt><trkpt lat="44.24856754919394" lon="11.541815726582433"><ele>192.0</ele><time>2026-03-28T09:42:09Z</time></trkpt><trkpt lat="44.24864966358641" lon="11.54199275295148"><ele>189.33333333333334</ele><time>2026-03-28T09:42:10Z</time></trkpt><trkpt lat="44.24875138221445" lon="11.54214975532027"><ele>186.66666666666669</ele><time>2026-03-28T09:42:11Z</time></trkpt><trkpt lat="44.24886905314477" lon="11.542284151163694"><ele>184.0</ele><time>2026-03-28T09:42:12Z</time></trkpt><trkpt lat="44.24899664004611" lon="11.542409663637823"><ele>184.0</ele><time>2026-03-28T09:42:13Z</time></trkpt><trkpt lat="44.24911944684865" lon="11.542537599404397"><ele>184.0</ele><time>2026-03-28T09:42:14Z</time></trkpt><trkpt lat="44.249230333866706" lon="11.542685890758506"><ele>184.0</ele><time>2026-03-28T09:42:15Z</time></trkpt><trkpt lat="44.24932946433813" lon="11.542849140687553"><ele>188.0</ele><time>2026-03-28T09:42:16Z</time></trkpt><trkpt lat="44.24942945189157" lon="11.543014657182507"><ele>192.0</ele><time>2026-03-28T09:42:17Z</time></trkpt><trkpt lat="44.24952821882939" lon="11.543178571803994"><ele>196.0</ele><time>2026-03-28T09:42:18Z</time></trkpt><trkpt lat="44.24962831196279" lon="11.54334048695888"><ele>196.0</ele><time>2026-03-28T09:42:19Z</time></trkpt><trkpt lat="44.24973329365961" lon="11.543500035047982"><ele>196.0</ele><time>2026-03-28T09:42:20Z</time></trkpt><trkpt lat="44.24984326953461" lon="11.543651488190983"><ele>196.0</ele><time>2026-03-28T09:42:21Z</time></trkpt><trkpt lat="44.24996130115995" lon="11.543791914081208"><ele>190.66666666666666</ele><time>2026-03-28T09:42:22Z</time></trkpt><trkpt lat="44.25008289731142" lon="11.543922838379052"><ele>185.33333333333331</ele><time>2026-03-28T09:42:23Z</time></trkpt><trkpt lat="44.250207372919405" lon="11.544053730884778"><ele>180.0</ele><time>2026-03-28T09:42:24Z</time></trkpt><trkpt lat="44.2503294599744" lon="11.544184724018798"><ele>180.0</ele><time>2026-03-28T09:42:25Z</time></trkpt><trkpt lat="44.250452319575864" lon="11.544314575679321"><ele>180.0</ele><time>2026-03-28T09:42:26Z</time></trkpt><trkpt lat="44.250573384083815" lon="11.544444282858361"><ele>180.0</ele><time>2026-03-28T09:42:27Z</time></trkpt><trkpt lat="44.25069196366121" lon="11.544573750303293"><ele>178.66666666666666</ele><time>2026-03-28T09:42:28Z</time></trkpt><trkpt lat="44.250809888248206" lon="11.54470490502235"><ele>177.33333333333331</ele><time>2026-03-28T09:42:29Z</time></trkpt><trkpt lat="44.25092616765951" lon="11.54484051345156"><ele>176.0</ele><time>2026-03-28T09:42:30Z</time></trkpt><trkpt lat="44.25104116131271" lon="11.544972028456835"><ele>176.0</ele><time>2026-03-28T09:42:31Z</time></trkpt><trkpt lat="44.251154708809096" lon="11.545101558639473"><ele>176.0</ele><time>2026-03-28T09:42:32Z</time></trkpt><trkpt lat="44.251263181196215" lon="11.545231332149264"><ele>176.0</ele><time>2026-03-28T09:42:33Z</time></trkpt><trkpt lat="44.251371403827775" lon="11.54535813417813"><ele>176.0</ele><time>2026-03-28T09:42:34Z</time></trkpt><trkpt lat="44.251483483077045" lon="11.545489007336483"><ele>176.0</ele><time>2026-03-28T09:42:35Z</time></trkpt><trkpt lat="44.25158936602175" lon="11.545615337573832"><ele>176.0</ele><time>2026-03-28T09:42:36Z</time></trkpt><trkpt lat="44.25169686379721" lon="11.545740603628499"><ele>176.0</ele><time>2026-03-28T09:42:37Z</time></trkpt><trkpt lat="44.251798607617864" lon="11.545869318439834"><ele>176.0</ele><time>2026-03-28T09:42:38Z</time></trkpt><trkpt lat="44.25189564608164" lon="11.546005384460782"><ele>176.0</ele><time>2026-03-28T09:42:39Z</time></trkpt><trkpt lat="44.25198390972962" lon="11.546149907306175"><ele>176.0</ele><time>2026-03-28T09:42:40Z</time></trkpt><trkpt lat="44.252066593516425" lon="11.546305603423006"><ele>176.0</ele><time>2026-03-28T09:42:41Z</time></trkpt><trkpt lat="44.25213420096244" lon="11.546477608163743"><ele>176.0</ele><time>2026-03-28T09:42:42Z</time></trkpt><trkpt lat="44.252190503598335" lon="11.546664506432089"><ele>175.66666666666666</ele><time>2026-03-28T09:42:43Z</time></trkpt><trkpt lat="44.25223675227943" lon="11.546864270760263"><ele>175.33333333333334</ele><time>2026-03-28T09:42:44Z</time></trkpt><trkpt lat="44.25227623248968" lon="11.547069425646766"><ele>175.0</ele><time>2026-03-28T09:42:45Z</time></trkpt><trkpt lat="44.252314709876494" lon="11.547277969232468"><ele>175.33333333333334</ele><time>2026-03-28T09:42:46Z</time></trkpt><trkpt lat="44.252348606486976" lon="11.547484650367336"><ele>175.66666666666666</ele><time>2026-03-28T09:42:47Z</time></trkpt><trkpt lat="44.25238356359905" lon="11.547691551476676"><ele>176.0</ele><time>2026-03-28T09:42:48Z</time></trkpt><trkpt lat="44.25241976884536" lon="11.547898377145017"><ele>176.0</ele><time>2026-03-28T09:42:49Z</time></trkpt><trkpt lat="44.25245515952454" lon="11.548104303629042"><ele>176.0</ele><time>2026-03-28T09:42:50Z</time></trkpt><trkpt lat="44.25248826535622" lon="11.548307281723874"><ele>176.0</ele><time>2026-03-28T09:42:51Z</time></trkpt><trkpt lat="44.2525237547366" lon="11.548507463595788"><ele>176.0</ele><time>2026-03-28T09:42:52Z</time></trkpt><trkpt lat="44.2525561162394" lon="11.548709841842232"><ele>175.75</ele><time>2026-03-28T09:42:53Z</time></trkpt><trkpt lat="44.25259115264716" lon="11.548908974608723"><ele>175.5</ele><time>2026-03-28T09:42:54Z</time></trkpt><trkpt lat="44.25262458066897" lon="11.549104994990712"><ele>175.25</ele><time>2026-03-28T09:42:55Z</time></trkpt><trkpt lat="44.25265659488869" lon="11.54929649491917"><ele>175.0</ele><time>2026-03-28T09:42:56Z</time></trkpt><trkpt lat="44.25269012142665" lon="11.54948469102227"><ele>175.5</ele><time>2026-03-28T09:42:57Z</time></trkpt><trkpt lat="44.252730197720005" lon="11.549664484124621"><ele>176.0</ele><time>2026-03-28T09:42:58Z</time></trkpt><trkpt lat="44.25277967304627" lon="11.549837154919011"><ele>176.5</ele><time>2026-03-28T09:42:59Z</time></trkpt><trkpt lat="44.25284888454155" lon="11.549998534570676"><ele>177.0</ele><time>2026-03-28T09:43:00Z</time></trkpt><trkpt lat="44.25293386975708" lon="11.550148287396965"><ele>177.0</ele><time>2026-03-28T09:43:01Z</time></trkpt><trkpt lat="44.253036307564955" lon="11.550286263690861"><ele>177.0</ele><time>2026-03-28T09:43:02Z</time></trkpt><trkpt lat="44.253156940551435" lon="11.550411493409415"><ele>177.0</ele><time>2026-03-28T09:43:03Z</time></trkpt><trkpt lat="44.253287752078386" lon="11.55053281536777"><ele>176.0</ele><time>2026-03-28T09:43:04Z</time></trkpt><trkpt lat="44.25342304815888" lon="11.550649875869759"><ele>175.0</ele><time>2026-03-28T09:43:05Z</time></trkpt><trkpt lat="44.25355735971978" lon="11.55077055683234"><ele>174.0</ele><time>2026-03-28T09:43:06Z</time></trkpt><trkpt lat="44.25369163512267" lon="11.550893595993253"><ele>174.0</ele><time>2026-03-28T09:43:07Z</time></trkpt><trkpt lat="44.25382575771877" lon="11.551016215853286"><ele>174.0</ele><time>2026-03-28T09:43:08Z</time></trkpt><trkpt lat="44.253962941400104" lon="11.551136188584815"><ele>174.0</ele><time>2026-03-28T09:43:09Z</time></trkpt><trkpt lat="44.25409547045404" lon="11.551254084168459"><ele>172.0</ele><time>2026-03-28T09:43:10Z</time></trkpt><trkpt lat="44.2542223237106" lon="11.55137385227759"><ele>170.0</ele><time>2026-03-28T09:43:11Z</time></trkpt><trkpt lat="44.25434120009209" lon="11.551501105582304"><ele>168.0</ele><time>2026-03-28T09:43:12Z</time></trkpt><trkpt lat="44.254451850001175" lon="11.551637317078484"><ele>168.0</ele><time>2026-03-28T09:43:13Z</time></trkpt><trkpt lat="44.254548548978825" lon="11.55178761570566"><ele>168.0</ele><time>2026-03-28T09:43:14Z</time></trkpt><trkpt lat="44.254632329984425" lon="11.551949810558122"><ele>168.0</ele><time>2026-03-28T09:43:15Z</time></trkpt><trkpt lat="44.25470315406479" lon="11.552112806465189"><ele>168.0</ele><time>2026-03-28T09:43:16Z</time></trkpt><trkpt lat="44.25476610651015" lon="11.552272099312713"><ele>168.0</ele><time>2026-03-28T09:43:17Z</time></trkpt><trkpt lat="44.25482589951978" lon="11.552426772447737"><ele>168.0</ele><time>2026-03-28T09:43:18Z</time></trkpt><trkpt lat="44.254884882332526" lon="11.552573348164657"><ele>168.0</ele><time>2026-03-28T09:43:19Z</time></trkpt><trkpt lat="44.25494304141262" lon="11.552718125819641"><ele>168.0</ele><time>2026-03-28T09:43:20Z</time></trkpt><trkpt lat="44.255002981417476" lon="11.55286783357099"><ele>168.5</ele><time>2026-03-28T09:43:21Z</time></trkpt><trkpt lat="44.255060103584" lon="11.553017193428929"><ele>169.0</ele><time>2026-03-28T09:43:22Z</time></trkpt><trkpt lat="44.25512013119528" lon="11.553167753207099"><ele>169.5</ele><time>2026-03-28T09:43:23Z</time></trkpt><trkpt lat="44.2551789719854" lon="11.553321355488047"><ele>170.0</ele><time>2026-03-28T09:43:24Z</time></trkpt><trkpt lat="44.255238726153955" lon="11.553474713207356"><ele>170.0</ele><time>2026-03-28T09:43:25Z</time></trkpt><trkpt lat="44.25530015740231" lon="11.553626587728328"><ele>170.0</ele><time>2026-03-28T09:43:26Z</time></trkpt><trkpt lat="44.25536298647816" lon="11.553777296116126"><ele>170.0</ele><time>2026-03-28T09:43:27Z</time></trkpt><trkpt lat="44.25543306203826" lon="11.553921214712556"><ele>170.0</ele><time>2026-03-28T09:43:28Z</time></trkpt><trkpt lat="44.25550298271309" lon="11.554061073552925"><ele>170.25</ele><time>2026-03-28T09:43:29Z</time></trkpt><trkpt lat="44.255578173098584" lon="11.554198067017074"><ele>170.5</ele><time>2026-03-28T09:43:30Z</time></trkpt><trkpt lat="44.25565710012349" lon="11.554330019050965"><ele>170.75</ele><time>2026-03-28T09:43:31Z</time></trkpt><trkpt lat="44.255736719683306" lon="11.554462006395624"><ele>171.0</ele><time>2026-03-28T09:43:32Z</time></trkpt><trkpt lat="44.255818807401965" lon="11.554589532701486"><ele>171.75</ele><time>2026-03-28T09:43:33Z</time></trkpt><trkpt lat="44.255896563459665" lon="11.554710582183002"><ele>172.5</ele><time>2026-03-28T09:43:34Z</time></trkpt><trkpt lat="44.25597140397456" lon="11.554826356911098"><ele>173.25</ele><time>2026-03-28T09:43:35Z</time></trkpt><trkpt lat="44.25604769086704" lon="11.554941445143811"><ele>174.0</ele><time>2026-03-28T09:43:36Z</time></trkpt><trkpt lat="44.25612198408843" lon="11.555053328598206"><ele>174.0</ele><time>2026-03-28T09:43:37Z</time></trkpt><trkpt lat="44.25619183215903" lon="11.555156662278849"><ele>174.0</ele><time>2026-03-28T09:43:38Z</time></trkpt><trkpt lat="44.25626332332995" lon="11.555264557708997"><ele>174.0</ele><time>2026-03-28T09:43:39Z</time></trkpt><trkpt lat="44.25632641233029" lon="11.555362915253006"><ele>174.0</ele><time>2026-03-28T09:43:40Z</time></trkpt><trkpt lat="44.25638707168818" lon="11.5554534113688"><ele>174.0</ele><time>2026-03-28T09:43:41Z</time></trkpt><trkpt lat="44.25643931787048" lon="11.555530807123308"><ele>174.0</ele><time>2026-03-28T09:43:42Z</time></trkpt><trkpt lat="44.25648027087425" lon="11.555599471852306"><ele>174.0</ele><time>2026-03-28T09:43:43Z</time></trkpt><trkpt lat="44.256522770947186" lon="11.555715053688374"><ele>174.0</ele><time>2026-03-28T09:43:45Z</time></trkpt><trkpt lat="44.25655276567183" lon="11.5558011378625"><ele>174.0</ele><time>2026-03-28T09:43:49Z</time></trkpt><trkpt lat="44.25659703466027" lon="11.555868752861105"><ele>174.0</ele><time>2026-03-28T09:45:13Z</time></trkpt><trkpt lat="44.25664504391944" lon="11.55594208080751"><ele>174.0</ele><time>2026-03-28T09:45:17Z</time></trkpt><trkpt lat="44.256684492518566" lon="11.556022902416768"><ele>174.0</ele><time>2026-03-28T09:45:23Z</time></trkpt><trkpt lat="44.25676316439252" lon="11.556051543438771"><ele>174.0</ele><time>2026-03-28T09:45:27Z</time></trkpt><trkpt lat="44.25681537435081" lon="11.556122232353637"><ele>174.0</ele><time>2026-03-28T09:45:29Z</time></trkpt><trkpt lat="44.25689220418973" lon="11.556228613991934"><ele>174.0</ele><time>2026-03-28T09:45:31Z</time></trkpt><trkpt lat="44.25694877788341" lon="11.556305803465234"><ele>174.0</ele><time>2026-03-28T09:45:32Z</time></trkpt><trkpt lat="44.25699922558014" lon="11.55639035429216"><ele>174.0</ele><time>2026-03-28T09:45:33Z</time></trkpt><trkpt lat="44.257049740520166" lon="11.55646931931886"><ele>174.0</ele><time>2026-03-28T09:45:34Z</time></trkpt><trkpt lat="44.25709688284141" lon="11.556544033975497"><ele>174.0</ele><time>2026-03-28T09:45:35Z</time></trkpt><trkpt lat="44.25715153975347" lon="11.556615304324506"><ele>174.0</ele><time>2026-03-28T09:45:36Z</time></trkpt><trkpt lat="44.25720902626173" lon="11.556700802108823"><ele>174.0</ele><time>2026-03-28T09:45:37Z</time></trkpt><trkpt lat="44.25727037278087" lon="11.556791242904598"><ele>174.0</ele><time>2026-03-28T09:45:38Z</time></trkpt><trkpt lat="44.257331419768185" lon="11.556885540942792"><ele>174.0</ele><time>2026-03-28T09:45:39Z</time></trkpt><trkpt lat="44.25739154075243" lon="11.55698001534315"><ele>174.0</ele><time>2026-03-28T09:45:40Z</time></trkpt><trkpt lat="44.2574530109513" lon="11.557071738531969"><ele>173.83333333333334</ele><time>2026-03-28T09:45:41Z</time></trkpt><trkpt lat="44.25751339715256" lon="11.55716095375906"><ele>173.66666666666666</ele><time>2026-03-28T09:45:42Z</time></trkpt><trkpt lat="44.2575707273168" lon="11.55724610073338"><ele>173.5</ele><time>2026-03-28T09:45:43Z</time></trkpt><trkpt lat="44.2576239199867" lon="11.557330030153642"><ele>173.33333333333331</ele><time>2026-03-28T09:45:44Z</time></trkpt><trkpt lat="44.25767589049595" lon="11.557410165797997"><ele>173.16666666666666</ele><time>2026-03-28T09:45:45Z</time></trkpt><trkpt lat="44.25772807619143" lon="11.557482024033204"><ele>173.0</ele><time>2026-03-28T09:45:46Z</time></trkpt><trkpt lat="44.25778019757528" lon="11.557547125326545"><ele>173.0</ele><time>2026-03-28T09:45:47Z</time></trkpt><trkpt lat="44.25782768112033" lon="11.557608374119395"><ele>173.0</ele><time>2026-03-28T09:45:48Z</time></trkpt><trkpt lat="44.25791388666729" lon="11.557717625660828"><ele>173.0</ele><time>2026-03-28T09:45:50Z</time></trkpt><trkpt lat="44.25796344841392" lon="11.557788639258648"><ele>173.0</ele><time>2026-03-28T09:45:52Z</time></trkpt><trkpt lat="44.25804285870829" lon="11.557646378269931"><ele>173.0</ele><time>2026-03-28T09:45:53Z</time></trkpt><trkpt lat="44.2581231938036" lon="11.557525826954944"><ele>172.25</ele><time>2026-03-28T09:45:55Z</time></trkpt><trkpt lat="44.25823208823706" lon="11.557342300828328"><ele>171.5</ele><time>2026-03-28T09:45:58Z</time></trkpt><trkpt lat="44.258324651419535" lon="11.55721363306415"><ele>170.75</ele><time>2026-03-28T09:46:00Z</time></trkpt><trkpt lat="44.258373152845316" lon="11.557122998112053"><ele>170.0</ele><time>2026-03-28T09:46:01Z</time></trkpt><trkpt lat="44.25841690274495" lon="11.557028884456228"><ele>169.6</ele><time>2026-03-28T09:46:02Z</time></trkpt><trkpt lat="44.258463847243725" lon="11.55694568323532"><ele>169.2</ele><time>2026-03-28T09:46:03Z</time></trkpt><trkpt lat="44.258513064744065" lon="11.556853977151292"><ele>168.8</ele><time>2026-03-28T09:46:04Z</time></trkpt><trkpt lat="44.25857280789442" lon="11.556740336242296"><ele>168.4</ele><time>2026-03-28T09:46:05Z</time></trkpt><trkpt lat="44.25863405610645" lon="11.556628709813966"><ele>168.0</ele><time>2026-03-28T09:46:06Z</time></trkpt><trkpt lat="44.25869602467299" lon="11.55651985179645"><ele>168.0</ele><time>2026-03-28T09:46:07Z</time></trkpt><trkpt lat="44.258757003644696" lon="11.556406846097607"><ele>168.0</ele><time>2026-03-28T09:46:08Z</time></trkpt><trkpt lat="44.2588232972965" lon="11.556292790761102"><ele>168.0</ele><time>2026-03-28T09:46:09Z</time></trkpt><trkpt lat="44.25889222916183" lon="11.556180441165248"><ele>168.0</ele><time>2026-03-28T09:46:10Z</time></trkpt><trkpt lat="44.25896636834866" lon="11.556074948938354"><ele>168.0</ele><time>2026-03-28T09:46:11Z</time></trkpt><trkpt lat="44.2590413284457" lon="11.555971074406814"><ele>167.60000000000002</ele><time>2026-03-28T09:46:12Z</time></trkpt><trkpt lat="44.259123079127846" lon="11.555877183005268"><ele>167.20000000000002</ele><time>2026-03-28T09:46:13Z</time></trkpt><trkpt lat="44.25920610613581" lon="11.555791260442755"><ele>166.8</ele><time>2026-03-28T09:46:14Z</time></trkpt><trkpt lat="44.259289382237796" lon="11.555711759368519"><ele>166.4</ele><time>2026-03-28T09:46:15Z</time></trkpt><trkpt lat="44.25937354840083" lon="11.555635264955702"><ele>166.0</ele><time>2026-03-28T09:46:16Z</time></trkpt><trkpt lat="44.25945922309717" lon="11.5555566607335"><ele>166.0</ele><time>2026-03-28T09:46:17Z</time></trkpt><trkpt lat="44.2595414450244" lon="11.555479192952351"><ele>166.0</ele><time>2026-03-28T09:46:18Z</time></trkpt><trkpt lat="44.259628895102296" lon="11.55539906947227"><ele>166.0</ele><time>2026-03-28T09:46:19Z</time></trkpt><trkpt lat="44.25971531025744" lon="11.55531602633789"><ele>166.0</ele><time>2026-03-28T09:46:20Z</time></trkpt><trkpt lat="44.259803075061214" lon="11.555230074773585"><ele>166.0</ele><time>2026-03-28T09:46:21Z</time></trkpt><trkpt lat="44.259888661435276" lon="11.55514047871981"><ele>164.0</ele><time>2026-03-28T09:46:22Z</time></trkpt><trkpt lat="44.259978169151566" lon="11.555040506902598"><ele>162.0</ele><time>2026-03-28T09:46:23Z</time></trkpt><trkpt lat="44.26006534657509" lon="11.554939226911648"><ele>160.0</ele><time>2026-03-28T09:46:24Z</time></trkpt><trkpt lat="44.260148932853134" lon="11.554830589354228"><ele>158.0</ele><time>2026-03-28T09:46:25Z</time></trkpt><trkpt lat="44.260231251689646" lon="11.554723794293606"><ele>158.0</ele><time>2026-03-28T09:46:26Z</time></trkpt><trkpt lat="44.26031278541592" lon="11.554614164213387"><ele>158.0</ele><time>2026-03-28T09:46:27Z</time></trkpt><trkpt lat="44.260387822982345" lon="11.554506241181004"><ele>158.0</ele><time>2026-03-28T09:46:28Z</time></trkpt><trkpt lat="44.26046126286836" lon="11.554403589301993"><ele>158.0</ele><time>2026-03-28T09:46:29Z</time></trkpt><trkpt lat="44.26053401685581" lon="11.554308634960094"><ele>158.0</ele><time>2026-03-28T09:46:30Z</time></trkpt><trkpt lat="44.26059778537166" lon="11.554233315695624"><ele>156.0</ele><time>2026-03-28T09:46:31Z</time></trkpt><trkpt lat="44.26067096557107" lon="11.554183819776336"><ele>154.0</ele><time>2026-03-28T09:46:32Z</time></trkpt><trkpt lat="44.26076335158042" lon="11.554150687500501"><ele>152.0</ele><time>2026-03-28T09:46:33Z</time></trkpt><trkpt lat="44.26083671373421" lon="11.554208981707953"><ele>150.0</ele><time>2026-03-28T09:46:34Z</time></trkpt><trkpt lat="44.260926936275055" lon="11.554259547509231"><ele>148.0</ele><time>2026-03-28T09:46:35Z</time></trkpt><trkpt lat="44.26100224624177" lon="11.55434431327277"><ele>148.0</ele><time>2026-03-28T09:46:36Z</time></trkpt><trkpt lat="44.261093751379235" lon="11.554424448383982"><ele>148.0</ele><time>2026-03-28T09:46:37Z</time></trkpt><trkpt lat="44.261189014501774" lon="11.554480610033574"><ele>148.0</ele><time>2026-03-28T09:46:38Z</time></trkpt><trkpt lat="44.26129537457175" lon="11.554496653856665"><ele>148.0</ele><time>2026-03-28T09:46:39Z</time></trkpt><trkpt lat="44.261403631854336" lon="11.554460423192866"><ele>148.0</ele><time>2026-03-28T09:46:40Z</time></trkpt><trkpt lat="44.26150943299757" lon="11.554393681527513"><ele>146.0</ele><time>2026-03-28T09:46:41Z</time></trkpt><trkpt lat="44.261613560924516" lon="11.554324980448195"><ele>144.0</ele><time>2026-03-28T09:46:42Z</time></trkpt><trkpt lat="44.261723747421165" lon="11.55426240469636"><ele>142.0</ele><time>2026-03-28T09:46:43Z</time></trkpt><trkpt lat="44.261831810134915" lon="11.55419649188027"><ele>140.0</ele><time>2026-03-28T09:46:44Z</time></trkpt><trkpt lat="44.26193749010728" lon="11.554127855698152"><ele>140.0</ele><time>2026-03-28T09:46:45Z</time></trkpt><trkpt lat="44.2620441564216" lon="11.554062628636572"><ele>140.0</ele><time>2026-03-28T09:46:46Z</time></trkpt><trkpt lat="44.262146316217155" lon="11.55399674175977"><ele>140.0</ele><time>2026-03-28T09:46:47Z</time></trkpt><trkpt lat="44.26224210859632" lon="11.55393594473593"><ele>140.0</ele><time>2026-03-28T09:46:48Z</time></trkpt><trkpt lat="44.262328770578634" lon="11.553886692522239"><ele>140.0</ele><time>2026-03-28T09:46:49Z</time></trkpt><trkpt lat="44.26241421543342" lon="11.553864809075407"><ele>138.6</ele><time>2026-03-28T09:46:50Z</time></trkpt><trkpt lat="44.26250583201081" lon="11.553882519068484"><ele>137.2</ele><time>2026-03-28T09:46:51Z</time></trkpt><trkpt lat="44.26260123721354" lon="11.55393411694349"><ele>135.8</ele><time>2026-03-28T09:46:52Z</time></trkpt><trkpt lat="44.26268367455819" lon="11.55401724798487"><ele>134.4</ele><time>2026-03-28T09:46:53Z</time></trkpt><trkpt lat="44.26274707656211" lon="11.554127068761153"><ele>133.0</ele><time>2026-03-28T09:46:54Z</time></trkpt><trkpt lat="44.26278659563074" lon="11.554259219773474"><ele>133.0</ele><time>2026-03-28T09:46:55Z</time></trkpt><trkpt lat="44.26278872532076" lon="11.554406061333816"><ele>133.0</ele><time>2026-03-28T09:46:56Z</time></trkpt><trkpt lat="44.26279715675659" lon="11.554571476949997"><ele>133.0</ele><time>2026-03-28T09:46:57Z</time></trkpt><trkpt lat="44.26281821197088" lon="11.554743781687487"><ele>133.0</ele><time>2026-03-28T09:46:58Z</time></trkpt><trkpt lat="44.26282461728289" lon="11.55492807065701"><ele>132.75</ele><time>2026-03-28T09:46:59Z</time></trkpt><trkpt lat="44.262825577415455" lon="11.555116488410105"><ele>132.5</ele><time>2026-03-28T09:47:00Z</time></trkpt><trkpt lat="44.262829221290644" lon="11.555303326295528"><ele>132.25</ele><time>2026-03-28T09:47:01Z</time></trkpt><trkpt lat="44.26283480111201" lon="11.555484903436266"><ele>132.0</ele><time>2026-03-28T09:47:02Z</time></trkpt><trkpt lat="44.2628404388609" lon="11.555662386686366"><ele>131.25</ele><time>2026-03-28T09:47:03Z</time></trkpt><trkpt lat="44.26283992139062" lon="11.555833108607315"><ele>130.5</ele><time>2026-03-28T09:47:04Z</time></trkpt><trkpt lat="44.262842718828075" lon="11.5559981736866"><ele>129.75</ele><time>2026-03-28T09:47:05Z</time></trkpt><trkpt lat="44.26284670834468" lon="11.556160409551714"><ele>129.0</ele><time>2026-03-28T09:47:06Z</time></trkpt><trkpt lat="44.26285522770021" lon="11.556314421664204"><ele>130.33333333333334</ele><time>2026-03-28T09:47:07Z</time></trkpt><trkpt lat="44.262868958583695" lon="11.556454477173757"><ele>131.66666666666666</ele><time>2026-03-28T09:47:08Z</time></trkpt><trkpt lat="44.26289119118108" lon="11.55658625962422"><ele>133.0</ele><time>2026-03-28T09:47:09Z</time></trkpt><trkpt lat="44.26291890629985" lon="11.55670162529011"><ele>134.33333333333331</ele><time>2026-03-28T09:47:10Z</time></trkpt><trkpt lat="44.262949422271156" lon="11.556787462826279"><ele>135.66666666666666</ele><time>2026-03-28T09:47:11Z</time></trkpt><trkpt lat="44.26298992723381" lon="11.556860546980705"><ele>137.0</ele><time>2026-03-28T09:47:12Z</time></trkpt><trkpt lat="44.26304297947803" lon="11.55691084853639"><ele>133.79999999999998</ele><time>2026-03-28T09:47:13Z</time></trkpt><trkpt lat="44.26311532109513" lon="11.556921008310116"><ele>130.6</ele><time>2026-03-28T09:47:14Z</time></trkpt><trkpt lat="44.26319715096256" lon="11.556891634906771"><ele>127.39999999999999</ele><time>2026-03-28T09:47:15Z</time></trkpt><trkpt lat="44.263290787319455" lon="11.556839107814737"><ele>124.19999999999999</ele><time>2026-03-28T09:47:16Z</time></trkpt><trkpt lat="44.26338772658044" lon="11.556789596041657"><ele>121.0</ele><time>2026-03-28T09:47:17Z</time></trkpt><trkpt lat="44.26348945622687" lon="11.55673939744245"><ele>121.0</ele><time>2026-03-28T09:47:18Z</time></trkpt><trkpt lat="44.263589456960204" lon="11.556686621677205"><ele>121.0</ele><time>2026-03-28T09:47:19Z</time></trkpt><trkpt lat="44.263691411908376" lon="11.556633355481441"><ele>121.0</ele><time>2026-03-28T09:47:20Z</time></trkpt><trkpt lat="44.263794398618934" lon="11.556579240125167"><ele>121.0</ele><time>2026-03-28T09:47:21Z</time></trkpt><trkpt lat="44.26389763467244" lon="11.556524869626786"><ele>121.0</ele><time>2026-03-28T09:47:22Z</time></trkpt><trkpt lat="44.264004745473045" lon="11.556468047446732"><ele>120.5</ele><time>2026-03-28T09:47:23Z</time></trkpt><trkpt lat="44.26411219796511" lon="11.556408067720707"><ele>120.0</ele><time>2026-03-28T09:47:24Z</time></trkpt><trkpt lat="44.26422118793089" lon="11.556346798175353"><ele>119.5</ele><time>2026-03-28T09:47:25Z</time></trkpt><trkpt lat="44.26433109931583" lon="11.55628781723393"><ele>119.0</ele><time>2026-03-28T09:47:26Z</time></trkpt><trkpt lat="44.264438723554996" lon="11.55623522783417"><ele>119.0</ele><time>2026-03-28T09:47:27Z</time></trkpt><trkpt lat="44.2645503490816" lon="11.556174527780398"><ele>119.0</ele><time>2026-03-28T09:47:28Z</time></trkpt><trkpt lat="44.26466247518423" lon="11.556116275325913"><ele>119.0</ele><time>2026-03-28T09:47:29Z</time></trkpt><trkpt lat="44.26477564311454" lon="11.556058556743945"><ele>119.0</ele><time>2026-03-28T09:47:30Z</time></trkpt><trkpt lat="44.26488792738224" lon="11.555998401778929"><ele>119.75</ele><time>2026-03-28T09:47:31Z</time></trkpt><trkpt lat="44.264999934246006" lon="11.555938299207465"><ele>120.5</ele><time>2026-03-28T09:47:32Z</time></trkpt><trkpt lat="44.26511256157685" lon="11.555873760105808"><ele>121.25</ele><time>2026-03-28T09:47:33Z</time></trkpt><trkpt lat="44.26522600056718" lon="11.555810770389801"><ele>122.0</ele><time>2026-03-28T09:47:34Z</time></trkpt><trkpt lat="44.26533920101762" lon="11.555763370722751"><ele>122.0</ele><time>2026-03-28T09:47:35Z</time></trkpt><trkpt lat="44.265453697800616" lon="11.555740322039707"><ele>122.0</ele><time>2026-03-28T09:47:36Z</time></trkpt><trkpt lat="44.26556890678626" lon="11.555752191513259"><ele>122.0</ele><time>2026-03-28T09:47:37Z</time></trkpt><trkpt lat="44.26567636329676" lon="11.5558239213738"><ele>122.0</ele><time>2026-03-28T09:47:38Z</time></trkpt><trkpt lat="44.26578760036328" lon="11.555895794350196"><ele>124.0</ele><time>2026-03-28T09:47:39Z</time></trkpt><trkpt lat="44.2658937760088" lon="11.555974586448317"><ele>126.0</ele><time>2026-03-28T09:47:40Z</time></trkpt><trkpt lat="44.26600621439988" lon="11.556060161463943"><ele>128.0</ele><time>2026-03-28T09:47:41Z</time></trkpt><trkpt lat="44.26612586574184" lon="11.55612194911005"><ele>130.0</ele><time>2026-03-28T09:47:42Z</time></trkpt><trkpt lat="44.26623684038492" lon="11.556214759110306"><ele>130.0</ele><time>2026-03-28T09:47:43Z</time></trkpt><trkpt lat="44.26635418330378" lon="11.556295725709663"><ele>130.0</ele><time>2026-03-28T09:47:44Z</time></trkpt><trkpt lat="44.26647244741285" lon="11.556373107074082"><ele>130.0</ele><time>2026-03-28T09:47:45Z</time></trkpt><trkpt lat="44.26658771432214" lon="11.556446376010701"><ele>130.0</ele><time>2026-03-28T09:47:46Z</time></trkpt><trkpt lat="44.266706265245574" lon="11.55651017960453"><ele>130.25</ele><time>2026-03-28T09:47:47Z</time></trkpt><trkpt lat="44.26682957707926" lon="11.556563951192398"><ele>130.5</ele><time>2026-03-28T09:47:48Z</time></trkpt><trkpt lat="44.266960620125" lon="11.5566045229708"><ele>130.75</ele><time>2026-03-28T09:47:49Z</time></trkpt><trkpt lat="44.267096915241744" lon="11.55662953804153"><ele>131.0</ele><time>2026-03-28T09:47:50Z</time></trkpt><trkpt lat="44.26723578241517" lon="11.556652267397856"><ele>132.5</ele><time>2026-03-28T09:47:51Z</time></trkpt><trkpt lat="44.26737113180686" lon="11.55667926136108"><ele>134.0</ele><time>2026-03-28T09:47:52Z</time></trkpt><trkpt lat="44.267502767280945" lon="11.556709648384075"><ele>135.5</ele><time>2026-03-28T09:47:53Z</time></trkpt><trkpt lat="44.26763298515189" lon="11.556742745821357"><ele>137.0</ele><time>2026-03-28T09:47:54Z</time></trkpt><trkpt lat="44.26775736720072" lon="11.556771434744991"><ele>137.0</ele><time>2026-03-28T09:47:55Z</time></trkpt><trkpt lat="44.2678792497804" lon="11.556796881499544"><ele>137.0</ele><time>2026-03-28T09:47:56Z</time></trkpt><trkpt lat="44.26799924957708" lon="11.556806010329034"><ele>137.0</ele><time>2026-03-28T09:47:57Z</time></trkpt><trkpt lat="44.268118079213494" lon="11.556787598922702"><ele>137.0</ele><time>2026-03-28T09:47:58Z</time></trkpt><trkpt lat="44.26822953713608" lon="11.556741967616489"><ele>138.25</ele><time>2026-03-28T09:47:59Z</time></trkpt><trkpt lat="44.26833846927973" lon="11.556671283538648"><ele>139.5</ele><time>2026-03-28T09:48:00Z</time></trkpt><trkpt lat="44.26843694419597" lon="11.556565600914107"><ele>140.75</ele><time>2026-03-28T09:48:01Z</time></trkpt><trkpt lat="44.268515286479115" lon="11.556434270798128"><ele>142.0</ele><time>2026-03-28T09:48:02Z</time></trkpt><trkpt lat="44.26857958037832" lon="11.556291270271794"><ele>144.5</ele><time>2026-03-28T09:48:03Z</time></trkpt><trkpt lat="44.26861895677737" lon="11.556137791972443"><ele>147.0</ele><time>2026-03-28T09:48:04Z</time></trkpt><trkpt lat="44.268639863276235" lon="11.555976781334529"><ele>149.5</ele><time>2026-03-28T09:48:05Z</time></trkpt><trkpt lat="44.26863245929475" lon="11.555807344915825"><ele>152.0</ele><time>2026-03-28T09:48:06Z</time></trkpt><trkpt lat="44.26860770233945" lon="11.55563707023193"><ele>152.0</ele><time>2026-03-28T09:48:07Z</time></trkpt><trkpt lat="44.268551208754886" lon="11.555474699460007"><ele>152.0</ele><time>2026-03-28T09:48:08Z</time></trkpt><trkpt lat="44.26847223970739" lon="11.55533545814401"><ele>152.0</ele><time>2026-03-28T09:48:09Z</time></trkpt><trkpt lat="44.2683842460167" lon="11.55520006126548"><ele>152.0</ele><time>2026-03-28T09:48:10Z</time></trkpt><trkpt lat="44.268310900836966" lon="11.555065245981174"><ele>152.5</ele><time>2026-03-28T09:48:11Z</time></trkpt><trkpt lat="44.26826781561467" lon="11.554915728203728"><ele>153.0</ele><time>2026-03-28T09:48:12Z</time></trkpt><trkpt lat="44.26827612895796" lon="11.554756333717759"><ele>153.5</ele><time>2026-03-28T09:48:13Z</time></trkpt><trkpt lat="44.26828860407831" lon="11.554599951237496"><ele>154.0</ele><time>2026-03-28T09:48:14Z</time></trkpt><trkpt lat="44.26836870439955" lon="11.554481053138403"><ele>157.0</ele><time>2026-03-28T09:48:15Z</time></trkpt><trkpt lat="44.26845708442955" lon="11.554378899264261"><ele>160.0</ele><time>2026-03-28T09:48:16Z</time></trkpt><trkpt lat="44.268560613952246" lon="11.554321699530947"><ele>163.0</ele><time>2026-03-28T09:48:17Z</time></trkpt><trkpt lat="44.268669777957044" lon="11.554277039388076"><ele>166.0</ele><time>2026-03-28T09:48:18Z</time></trkpt><trkpt lat="44.268770895865" lon="11.554190942008038"><ele>166.0</ele><time>2026-03-28T09:48:19Z</time></trkpt><trkpt lat="44.26886481138414" lon="11.554095176862106"><ele>166.0</ele><time>2026-03-28T09:48:20Z</time></trkpt><trkpt lat="44.26894599709042" lon="11.55396637155169"><ele>166.0</ele><time>2026-03-28T09:48:21Z</time></trkpt><trkpt lat="44.269006744395654" lon="11.55381521990347"><ele>166.0</ele><time>2026-03-28T09:48:22Z</time></trkpt><trkpt lat="44.269058566712715" lon="11.553651268796608"><ele>166.25</ele><time>2026-03-28T09:48:23Z</time></trkpt><trkpt lat="44.26911471163939" lon="11.553482033220147"><ele>166.5</ele><time>2026-03-28T09:48:24Z</time></trkpt><trkpt lat="44.26916971471969" lon="11.553309705871609"><ele>166.75</ele><time>2026-03-28T09:48:25Z</time></trkpt><trkpt lat="44.269221849393446" lon="11.553148236535131"><ele>167.0</ele><time>2026-03-28T09:48:26Z</time></trkpt><trkpt lat="44.269263157560516" lon="11.552993701349674"><ele>167.8</ele><time>2026-03-28T09:48:27Z</time></trkpt><trkpt lat="44.26929207616807" lon="11.552851297488415"><ele>168.6</ele><time>2026-03-28T09:48:28Z</time></trkpt><trkpt lat="44.269288542063315" lon="11.552723062598576"><ele>169.4</ele><time>2026-03-28T09:48:29Z</time></trkpt><trkpt lat="44.269258826413754" lon="11.552606064333162"><ele>170.20000000000002</ele><time>2026-03-28T09:48:30Z</time></trkpt><trkpt lat="44.269207079541886" lon="11.552491754973511"><ele>171.0</ele><time>2026-03-28T09:48:31Z</time></trkpt><trkpt lat="44.26913278245636" lon="11.55238846134737"><ele>171.0</ele><time>2026-03-28T09:48:32Z</time></trkpt><trkpt lat="44.269037312558496" lon="11.552320237705718"><ele>171.0</ele><time>2026-03-28T09:48:33Z</time></trkpt><trkpt lat="44.26893068137249" lon="11.552283673257602"><ele>171.0</ele><time>2026-03-28T09:48:34Z</time></trkpt><trkpt lat="44.26882028967164" lon="11.552274187276229"><ele>171.0</ele><time>2026-03-28T09:48:35Z</time></trkpt><trkpt lat="44.26870152091677" lon="11.552269854298318"><ele>171.0</ele><time>2026-03-28T09:48:36Z</time></trkpt><trkpt lat="44.26858057668456" lon="11.552261685142899"><ele>172.60000000000002</ele><time>2026-03-28T09:48:37Z</time></trkpt><trkpt lat="44.268476049187434" lon="11.552203883761862"><ele>174.2</ele><time>2026-03-28T09:48:38Z</time></trkpt><trkpt lat="44.26838400783074" lon="11.552139506773946"><ele>175.8</ele><time>2026-03-28T09:48:39Z</time></trkpt><trkpt lat="44.26829920333747" lon="11.55205936829889"><ele>177.39999999999998</ele><time>2026-03-28T09:48:40Z</time></trkpt><trkpt lat="44.26822967218289" lon="11.551960989846453"><ele>179.0</ele><time>2026-03-28T09:48:41Z</time></trkpt><trkpt lat="44.26816796113836" lon="11.551839693789084"><ele>179.0</ele><time>2026-03-28T09:48:42Z</time></trkpt><trkpt lat="44.26812518786719" lon="11.551698398858345"><ele>179.0</ele><time>2026-03-28T09:48:43Z</time></trkpt><trkpt lat="44.2681058878516" lon="11.551544464964651"><ele>179.0</ele><time>2026-03-28T09:48:44Z</time></trkpt><trkpt lat="44.26807754629222" lon="11.551383507368978"><ele>179.0</ele><time>2026-03-28T09:48:45Z</time></trkpt><trkpt lat="44.26808568114438" lon="11.551211748674609"><ele>180.0</ele><time>2026-03-28T09:48:46Z</time></trkpt><trkpt lat="44.26809830469885" lon="11.551035080000343"><ele>181.0</ele><time>2026-03-28T09:48:47Z</time></trkpt><trkpt lat="44.26811101904916" lon="11.550852756028812"><ele>182.0</ele><time>2026-03-28T09:48:48Z</time></trkpt><trkpt lat="44.26812438101403" lon="11.55066521543268"><ele>183.0</ele><time>2026-03-28T09:48:49Z</time></trkpt><trkpt lat="44.26816076677282" lon="11.550479814365687"><ele>185.0</ele><time>2026-03-28T09:48:50Z</time></trkpt><trkpt lat="44.26817998261172" lon="11.550294768354645"><ele>187.0</ele><time>2026-03-28T09:48:51Z</time></trkpt><trkpt lat="44.26818658993587" lon="11.550113273734125"><ele>189.0</ele><time>2026-03-28T09:48:52Z</time></trkpt><trkpt lat="44.26821248361092" lon="11.549934966133543"><ele>191.0</ele><time>2026-03-28T09:48:53Z</time></trkpt><trkpt lat="44.268232475772805" lon="11.549757375366745"><ele>191.0</ele><time>2026-03-28T09:48:54Z</time></trkpt><trkpt lat="44.26825844525957" lon="11.549588504661543"><ele>191.0</ele><time>2026-03-28T09:48:55Z</time></trkpt><trkpt lat="44.268272963749126" lon="11.549419148121052"><ele>191.0</ele><time>2026-03-28T09:48:56Z</time></trkpt><trkpt lat="44.26829511149144" lon="11.54925782251267"><ele>191.0</ele><time>2026-03-28T09:48:57Z</time></trkpt><trkpt lat="44.26831912883307" lon="11.549100880908792"><ele>192.0</ele><time>2026-03-28T09:48:58Z</time></trkpt><trkpt lat="44.26834644111167" lon="11.54895002113552"><ele>193.0</ele><time>2026-03-28T09:48:59Z</time></trkpt><trkpt lat="44.26839876593868" lon="11.548818036325114"><ele>194.0</ele><time>2026-03-28T09:49:00Z</time></trkpt><trkpt lat="44.26847035471288" lon="11.548695880122315"><ele>195.0</ele><time>2026-03-28T09:49:01Z</time></trkpt><trkpt lat="44.268553344301466" lon="11.548581540770577"><ele>196.0</ele><time>2026-03-28T09:49:02Z</time></trkpt><trkpt lat="44.26866463047139" lon="11.548530063430551"><ele>197.4</ele><time>2026-03-28T09:49:03Z</time></trkpt><trkpt lat="44.26876554606363" lon="11.548468480095405"><ele>198.8</ele><time>2026-03-28T09:49:04Z</time></trkpt><trkpt lat="44.26887038144971" lon="11.54842069101597"><ele>200.20000000000002</ele><time>2026-03-28T09:49:05Z</time></trkpt><trkpt lat="44.26897380992892" lon="11.548401442433747"><ele>201.60000000000002</ele><time>2026-03-28T09:49:06Z</time></trkpt><trkpt lat="44.26907693523038" lon="11.54836406341887"><ele>203.0</ele><time>2026-03-28T09:49:07Z</time></trkpt><trkpt lat="44.269177666006065" lon="11.548363388364523"><ele>203.0</ele><time>2026-03-28T09:49:08Z</time></trkpt><trkpt lat="44.26928170230973" lon="11.54835058661053"><ele>203.0</ele><time>2026-03-28T09:49:09Z</time></trkpt><trkpt lat="44.269386861410254" lon="11.548314255093548"><ele>203.0</ele><time>2026-03-28T09:49:10Z</time></trkpt><trkpt lat="44.26948227184935" lon="11.548247980044824"><ele>203.0</ele><time>2026-03-28T09:49:11Z</time></trkpt><trkpt lat="44.26956435452005" lon="11.548155262936541"><ele>203.0</ele><time>2026-03-28T09:49:12Z</time></trkpt><trkpt lat="44.26964123760988" lon="11.548044852943097"><ele>203.0</ele><time>2026-03-28T09:49:13Z</time></trkpt><trkpt lat="44.26970168410431" lon="11.547921065452497"><ele>203.0</ele><time>2026-03-28T09:49:14Z</time></trkpt><trkpt lat="44.26973832915565" lon="11.547782705940508"><ele>203.0</ele><time>2026-03-28T09:49:15Z</time></trkpt><trkpt lat="44.269757263499564" lon="11.547636090053746"><ele>203.0</ele><time>2026-03-28T09:49:16Z</time></trkpt><trkpt lat="44.26975237331506" lon="11.54749101784935"><ele>203.0</ele><time>2026-03-28T09:49:17Z</time></trkpt><trkpt lat="44.26973502026368" lon="11.547351766561611"><ele>206.4</ele><time>2026-03-28T09:49:18Z</time></trkpt><trkpt lat="44.269696313624756" lon="11.547210516682211"><ele>209.8</ele><time>2026-03-28T09:49:19Z</time></trkpt><trkpt lat="44.26964820011005" lon="11.547075347538161"><ele>213.2</ele><time>2026-03-28T09:49:20Z</time></trkpt><trkpt lat="44.269599675425155" lon="11.546942665997067"><ele>216.6</ele><time>2026-03-28T09:49:21Z</time></trkpt><trkpt lat="44.26955866048651" lon="11.546804967750637"><ele>220.0</ele><time>2026-03-28T09:49:22Z</time></trkpt><trkpt lat="44.26954847401731" lon="11.546662607185732"><ele>220.0</ele><time>2026-03-28T09:49:23Z</time></trkpt><trkpt lat="44.269573740496824" lon="11.546531082176207"><ele>220.0</ele><time>2026-03-28T09:49:24Z</time></trkpt><trkpt lat="44.269622947779645" lon="11.546416944029957"><ele>220.0</ele><time>2026-03-28T09:49:25Z</time></trkpt><trkpt lat="44.26968737628726" lon="11.546314531431054"><ele>220.0</ele><time>2026-03-28T09:49:26Z</time></trkpt><trkpt lat="44.269769214716355" lon="11.546230981148012"><ele>220.0</ele><time>2026-03-28T09:49:27Z</time></trkpt><trkpt lat="44.26985951359674" lon="11.546159983045996"><ele>220.0</ele><time>2026-03-28T09:49:28Z</time></trkpt><trkpt lat="44.269952367144256" lon="11.5461066705498"><ele>220.0</ele><time>2026-03-28T09:49:29Z</time></trkpt><trkpt lat="44.27001769981913" lon="11.546004649859277"><ele>220.0</ele><time>2026-03-28T09:49:30Z</time></trkpt><trkpt lat="44.27007544314791" lon="11.545918874782082"><ele>220.0</ele><time>2026-03-28T09:49:31Z</time></trkpt><trkpt lat="44.270069624371054" lon="11.545790034408961"><ele>220.0</ele><time>2026-03-28T09:49:32Z</time></trkpt><trkpt lat="44.27004422595673" lon="11.545679939421943"><ele>220.0</ele><time>2026-03-28T09:49:33Z</time></trkpt><trkpt lat="44.26998140539609" lon="11.545588513874455"><ele>220.0</ele><time>2026-03-28T09:49:34Z</time></trkpt><trkpt lat="44.269894119021174" lon="11.54554800897225"><ele>220.0</ele><time>2026-03-28T09:49:35Z</time></trkpt><trkpt lat="44.26980102870028" lon="11.545562638312724"><ele>220.0</ele><time>2026-03-28T09:49:36Z</time></trkpt><trkpt lat="44.269713698721716" lon="11.545620419610144"><ele>220.0</ele><time>2026-03-28T09:49:37Z</time></trkpt><trkpt lat="44.269632379294" lon="11.54569584917783"><ele>221.8</ele><time>2026-03-28T09:49:38Z</time></trkpt><trkpt lat="44.26954682183991" lon="11.545769326862443"><ele>223.6</ele><time>2026-03-28T09:49:39Z</time></trkpt><trkpt lat="44.26945060258844" lon="11.545820921356736"><ele>225.39999999999998</ele><time>2026-03-28T09:49:40Z</time></trkpt><trkpt lat="44.26934464464831" lon="11.54583372140191"><ele>227.2</ele><time>2026-03-28T09:49:41Z</time></trkpt><trkpt lat="44.269240444184284" lon="11.545816866825247"><ele>229.0</ele><time>2026-03-28T09:49:42Z</time></trkpt><trkpt lat="44.269140061190605" lon="11.545775147637567"><ele>229.0</ele><time>2026-03-28T09:49:43Z</time></trkpt><trkpt lat="44.26904182186445" lon="11.545727200174307"><ele>228.99999999999997</ele><time>2026-03-28T09:49:44Z</time></trkpt><trkpt lat="44.26894839310622" lon="11.545654663117375"><ele>228.99999999999997</ele><time>2026-03-28T09:49:45Z</time></trkpt><trkpt lat="44.26884880802288" lon="11.545621520910858"><ele>229.0</ele><time>2026-03-28T09:49:46Z</time></trkpt><trkpt lat="44.26875452424304" lon="11.545590417719836"><ele>229.0</ele><time>2026-03-28T09:49:47Z</time></trkpt><trkpt lat="44.2686577473809" lon="11.545586223189606"><ele>231.39999999999998</ele><time>2026-03-28T09:49:48Z</time></trkpt><trkpt lat="44.26856274179546" lon="11.545619965115582"><ele>233.79999999999998</ele><time>2026-03-28T09:49:49Z</time></trkpt><trkpt lat="44.26847335404646" lon="11.545682443454519"><ele>236.20000000000002</ele><time>2026-03-28T09:49:50Z</time></trkpt><trkpt lat="44.26839265237481" lon="11.545771037472084"><ele>238.60000000000002</ele><time>2026-03-28T09:49:51Z</time></trkpt><trkpt lat="44.26832266435552" lon="11.545878301080183"><ele>241.0</ele><time>2026-03-28T09:49:52Z</time></trkpt><trkpt lat="44.26826566985067" lon="11.546003227239579"><ele>241.0</ele><time>2026-03-28T09:49:53Z</time></trkpt><trkpt lat="44.26820826737812" lon="11.54612716841392"><ele>241.00000000000003</ele><time>2026-03-28T09:49:54Z</time></trkpt><trkpt lat="44.26814461880232" lon="11.546236535086708"><ele>241.00000000000003</ele><time>2026-03-28T09:49:55Z</time></trkpt><trkpt lat="44.2680794621709" lon="11.546339927275039"><ele>241.0</ele><time>2026-03-28T09:49:56Z</time></trkpt><trkpt lat="44.268011986860856" lon="11.546439383757557"><ele>241.0</ele><time>2026-03-28T09:49:57Z</time></trkpt><trkpt lat="44.26794059003129" lon="11.546543948212422"><ele>242.75</ele><time>2026-03-28T09:49:58Z</time></trkpt><trkpt lat="44.26785590648683" lon="11.546651734640559"><ele>244.5</ele><time>2026-03-28T09:49:59Z</time></trkpt><trkpt lat="44.2677659376353" lon="11.546752057655542"><ele>246.25</ele><time>2026-03-28T09:50:00Z</time></trkpt><trkpt lat="44.267674204750115" lon="11.546845050724253"><ele>248.0</ele><time>2026-03-28T09:50:01Z</time></trkpt><trkpt lat="44.26757861877419" lon="11.546926628970708"><ele>248.0</ele><time>2026-03-28T09:50:02Z</time></trkpt><trkpt lat="44.26747872285893" lon="11.54698376613483"><ele>248.0</ele><time>2026-03-28T09:50:03Z</time></trkpt><trkpt lat="44.26737391935525" lon="11.546976952388615"><ele>248.0</ele><time>2026-03-28T09:50:04Z</time></trkpt><trkpt lat="44.267271567765924" lon="11.546984054391677"><ele>248.0</ele><time>2026-03-28T09:50:05Z</time></trkpt><trkpt lat="44.267177952757315" lon="11.54690917758499"><ele>248.0</ele><time>2026-03-28T09:50:06Z</time></trkpt><trkpt lat="44.26707588878386" lon="11.546846018998519"><ele>250.0</ele><time>2026-03-28T09:50:07Z</time></trkpt><trkpt lat="44.266969730543266" lon="11.546790262729724"><ele>252.0</ele><time>2026-03-28T09:50:08Z</time></trkpt><trkpt lat="44.266867914263024" lon="11.546722975892786"><ele>254.0</ele><time>2026-03-28T09:50:09Z</time></trkpt><trkpt lat="44.266769707383204" lon="11.546650534988293"><ele>256.0</ele><time>2026-03-28T09:50:10Z</time></trkpt><trkpt lat="44.26666887353961" lon="11.546585338457389"><ele>258.0</ele><time>2026-03-28T09:50:11Z</time></trkpt><trkpt lat="44.266573834397114" lon="11.546512887702228"><ele>258.0</ele><time>2026-03-28T09:50:12Z</time></trkpt><trkpt lat="44.26647428067588" lon="11.546452752953996"><ele>258.0</ele><time>2026-03-28T09:50:13Z</time></trkpt><trkpt lat="44.2663759888229" lon="11.546401435637804"><ele>258.0</ele><time>2026-03-28T09:50:14Z</time></trkpt><trkpt lat="44.26628157768409" lon="11.546357119175271"><ele>258.0</ele><time>2026-03-28T09:50:15Z</time></trkpt><trkpt lat="44.266184749302944" lon="11.546330450597695"><ele>258.0</ele><time>2026-03-28T09:50:16Z</time></trkpt><trkpt lat="44.26608889066854" lon="11.546337241827032"><ele>259.4</ele><time>2026-03-28T09:50:17Z</time></trkpt><trkpt lat="44.26599146478147" lon="11.546368669763817"><ele>260.8</ele><time>2026-03-28T09:50:18Z</time></trkpt><trkpt lat="44.26590346000131" lon="11.546430003044245"><ele>262.2</ele><time>2026-03-28T09:50:19Z</time></trkpt><trkpt lat="44.2658255273736" lon="11.546521143168848"><ele>263.6</ele><time>2026-03-28T09:50:20Z</time></trkpt><trkpt lat="44.26576413979727" lon="11.546649056663092"><ele>265.0</ele><time>2026-03-28T09:50:21Z</time></trkpt><trkpt lat="44.26571546602128" lon="11.546791255482564"><ele>265.0</ele><time>2026-03-28T09:50:22Z</time></trkpt><trkpt lat="44.26567403821823" lon="11.546939708268908"><ele>265.0</ele><time>2026-03-28T09:50:23Z</time></trkpt><trkpt lat="44.265632892201666" lon="11.547094095963692"><ele>265.0</ele><time>2026-03-28T09:50:24Z</time></trkpt><trkpt lat="44.26558888800624" lon="11.547248506412183"><ele>265.0</ele><time>2026-03-28T09:50:25Z</time></trkpt><trkpt lat="44.26554068023584" lon="11.547400557775886"><ele>267.75</ele><time>2026-03-28T09:50:26Z</time></trkpt><trkpt lat="44.26548977910168" lon="11.547550409701321"><ele>270.5</ele><time>2026-03-28T09:50:27Z</time></trkpt><trkpt lat="44.265441801716776" lon="11.547701499467923"><ele>273.25</ele><time>2026-03-28T09:50:28Z</time></trkpt><trkpt lat="44.265395386520375" lon="11.547854739826574"><ele>276.0</ele><time>2026-03-28T09:50:29Z</time></trkpt><trkpt lat="44.265350779467894" lon="11.548006711317882"><ele>276.0</ele><time>2026-03-28T09:50:30Z</time></trkpt><trkpt lat="44.26530687913278" lon="11.548159336532613"><ele>276.0</ele><time>2026-03-28T09:50:31Z</time></trkpt><trkpt lat="44.26526086833126" lon="11.54831272456176"><ele>276.0</ele><time>2026-03-28T09:50:32Z</time></trkpt><trkpt lat="44.26521290406606" lon="11.548464131893297"><ele>276.0</ele><time>2026-03-28T09:50:33Z</time></trkpt><trkpt lat="44.26516289577115" lon="11.548606383893597"><ele>275.0</ele><time>2026-03-28T09:50:34Z</time></trkpt><trkpt lat="44.26511322120833" lon="11.548740816814561"><ele>274.0</ele><time>2026-03-28T09:50:35Z</time></trkpt><trkpt lat="44.265063190630414" lon="11.548864024193497"><ele>273.0</ele><time>2026-03-28T09:50:36Z</time></trkpt><trkpt lat="44.26500164303142" lon="11.548967460406175"><ele>272.0</ele><time>2026-03-28T09:50:37Z</time></trkpt><trkpt lat="44.264925851854954" lon="11.549040703792777"><ele>271.0</ele><time>2026-03-28T09:50:38Z</time></trkpt><trkpt lat="44.26484096740489" lon="11.549080560930046"><ele>272.16666666666663</ele><time>2026-03-28T09:50:39Z</time></trkpt><trkpt lat="44.26475622813286" lon="11.549042835512964"><ele>273.3333333333333</ele><time>2026-03-28T09:50:40Z</time></trkpt><trkpt lat="44.26468062273641" lon="11.548991436757893"><ele>274.5</ele><time>2026-03-28T09:50:41Z</time></trkpt><trkpt lat="44.264626392034046" lon="11.54889949530142"><ele>275.6666666666667</ele><time>2026-03-28T09:50:42Z</time></trkpt><trkpt lat="44.26459182372238" lon="11.548787371443899"><ele>276.83333333333337</ele><time>2026-03-28T09:50:43Z</time></trkpt><trkpt lat="44.264568170212186" lon="11.548654037232856"><ele>278.0</ele><time>2026-03-28T09:50:44Z</time></trkpt><trkpt lat="44.26453246252223" lon="11.54852244180003"><ele>278.0</ele><time>2026-03-28T09:50:45Z</time></trkpt><trkpt lat="44.26446912287877" lon="11.548404121710007"><ele>278.0</ele><time>2026-03-28T09:50:46Z</time></trkpt><trkpt lat="44.264386176511834" lon="11.54831303207255"><ele>278.0</ele><time>2026-03-28T09:50:47Z</time></trkpt><trkpt lat="44.264278244157914" lon="11.548283527773117"><ele>278.0</ele><time>2026-03-28T09:50:48Z</time></trkpt><trkpt lat="44.264186282150476" lon="11.548224410679094"><ele>278.0</ele><time>2026-03-28T09:50:49Z</time></trkpt><trkpt lat="44.26410175594844" lon="11.548176627128877"><ele>278.0</ele><time>2026-03-28T09:50:50Z</time></trkpt><trkpt lat="44.264035235479625" lon="11.54811014510068"><ele>278.0</ele><time>2026-03-28T09:50:51Z</time></trkpt><trkpt lat="44.26400037365885" lon="11.548017982071647"><ele>278.0</ele><time>2026-03-28T09:50:52Z</time></trkpt><trkpt lat="44.26398834192891" lon="11.547908554917214"><ele>278.0</ele><time>2026-03-28T09:50:53Z</time></trkpt><trkpt lat="44.26399721115925" lon="11.547788000010238"><ele>278.0</ele><time>2026-03-28T09:50:54Z</time></trkpt><trkpt lat="44.264040636292684" lon="11.5476737853"><ele>278.0</ele><time>2026-03-28T09:50:55Z</time></trkpt><trkpt lat="44.264089076710896" lon="11.54754342836191"><ele>280.75</ele><time>2026-03-28T09:50:56Z</time></trkpt><trkpt lat="44.26413176807389" lon="11.5473968490677"><ele>283.5</ele><time>2026-03-28T09:50:57Z</time></trkpt><trkpt lat="44.26415497595142" lon="11.54723706678956"><ele>286.25</ele><time>2026-03-28T09:50:58Z</time></trkpt><trkpt lat="44.264153340064944" lon="11.547072126999563"><ele>289.0</ele><time>2026-03-28T09:50:59Z</time></trkpt><trkpt lat="44.2641391332862" lon="11.546909185555577"><ele>289.5</ele><time>2026-03-28T09:51:00Z</time></trkpt><trkpt lat="44.26410833345472" lon="11.546745226511947"><ele>290.0</ele><time>2026-03-28T09:51:01Z</time></trkpt><trkpt lat="44.264079440426144" lon="11.546581394347193"><ele>290.5</ele><time>2026-03-28T09:51:02Z</time></trkpt><trkpt lat="44.26404849936672" lon="11.546416030705837"><ele>291.0</ele><time>2026-03-28T09:51:03Z</time></trkpt><trkpt lat="44.26401771061587" lon="11.54625148104708"><ele>292.75</ele><time>2026-03-28T09:51:04Z</time></trkpt><trkpt lat="44.26398856602041" lon="11.546083235715624"><ele>294.5</ele><time>2026-03-28T09:51:05Z</time></trkpt><trkpt lat="44.263954007543255" lon="11.545922238687208"><ele>296.25</ele><time>2026-03-28T09:51:06Z</time></trkpt><trkpt lat="44.263949502597264" lon="11.545764503402214"><ele>298.0</ele><time>2026-03-28T09:51:07Z</time></trkpt><trkpt lat="44.263948848265954" lon="11.545609034956772"><ele>298.0</ele><time>2026-03-28T09:51:08Z</time></trkpt><trkpt lat="44.26396262528511" lon="11.54545998577546"><ele>298.0</ele><time>2026-03-28T09:51:09Z</time></trkpt><trkpt lat="44.263974080118885" lon="11.545302185541978"><ele>298.0</ele><time>2026-03-28T09:51:10Z</time></trkpt><trkpt lat="44.26400429354423" lon="11.545150343545371"><ele>298.0</ele><time>2026-03-28T09:51:11Z</time></trkpt><trkpt lat="44.26404777531761" lon="11.545005949087155"><ele>298.0</ele><time>2026-03-28T09:51:12Z</time></trkpt><trkpt lat="44.26408053655107" lon="11.544851807442742"><ele>299.2</ele><time>2026-03-28T09:51:13Z</time></trkpt><trkpt lat="44.26409811184217" lon="11.54468790203418"><ele>300.4</ele><time>2026-03-28T09:51:14Z</time></trkpt><trkpt lat="44.26413628457231" lon="11.544536220508085"><ele>301.59999999999997</ele><time>2026-03-28T09:51:15Z</time></trkpt><trkpt lat="44.26416681906282" lon="11.544387403498435"><ele>302.8</ele><time>2026-03-28T09:51:16Z</time></trkpt><trkpt lat="44.264189180594414" lon="11.544244549642848"><ele>304.0</ele><time>2026-03-28T09:51:17Z</time></trkpt><trkpt lat="44.264174724616176" lon="11.544099673338065"><ele>305.59999999999997</ele><time>2026-03-28T09:51:18Z</time></trkpt><trkpt lat="44.26413801115304" lon="11.54396514475434"><ele>307.2</ele><time>2026-03-28T09:51:19Z</time></trkpt><trkpt lat="44.26407818884293" lon="11.543851677262166"><ele>308.79999999999995</ele><time>2026-03-28T09:51:20Z</time></trkpt><trkpt lat="44.264000778906265" lon="11.543759916941179"><ele>310.4</ele><time>2026-03-28T09:51:21Z</time></trkpt><trkpt lat="44.26391044385212" lon="11.543698314035135"><ele>312.0</ele><time>2026-03-28T09:51:22Z</time></trkpt><trkpt lat="44.26381113758215" lon="11.543669215259406"><ele>312.3333333333333</ele><time>2026-03-28T09:51:23Z</time></trkpt><trkpt lat="44.263717260657714" lon="11.543659603472669"><ele>312.6666666666667</ele><time>2026-03-28T09:51:24Z</time></trkpt><trkpt lat="44.26362667435629" lon="11.543672890429864"><ele>313.0</ele><time>2026-03-28T09:51:25Z</time></trkpt><trkpt lat="44.26354360480881" lon="11.543706288077379"><ele>313.33333333333337</ele><time>2026-03-28T09:51:26Z</time></trkpt><trkpt lat="44.263462188502075" lon="11.543725794489898"><ele>313.6666666666667</ele><time>2026-03-28T09:51:27Z</time></trkpt><trkpt lat="44.26338315171697" lon="11.543699278982013"><ele>314.0</ele><time>2026-03-28T09:51:28Z</time></trkpt><trkpt lat="44.2633189461019" lon="11.543633093920523"><ele>313.99999999999994</ele><time>2026-03-28T09:51:29Z</time></trkpt><trkpt lat="44.26328492395455" lon="11.543533253477506"><ele>314.0</ele><time>2026-03-28T09:51:30Z</time></trkpt><trkpt lat="44.26330344822288" lon="11.543423689044293"><ele>314.0</ele><time>2026-03-28T09:51:31Z</time></trkpt><trkpt lat="44.26334597465779" lon="11.543349826758314"><ele>314.0</ele><time>2026-03-28T09:51:32Z</time></trkpt><trkpt lat="44.263403883368596" lon="11.543303041539469"><ele>314.0</ele><time>2026-03-28T09:51:33Z</time></trkpt><trkpt lat="44.26347378391971" lon="11.54329302413335"><ele>313.99999999999994</ele><time>2026-03-28T09:51:34Z</time></trkpt><trkpt lat="44.26355755898936" lon="11.54328822802056"><ele>314.0</ele><time>2026-03-28T09:51:35Z</time></trkpt><trkpt lat="44.26365130956693" lon="11.54328639774452"><ele>314.0</ele><time>2026-03-28T09:51:36Z</time></trkpt><trkpt lat="44.26375096610477" lon="11.54328393549983"><ele>314.0</ele><time>2026-03-28T09:51:37Z</time></trkpt><trkpt lat="44.26384937922019" lon="11.543281398580925"><ele>314.0</ele><time>2026-03-28T09:51:38Z</time></trkpt><trkpt lat="44.26394938973959" lon="11.543278481201423"><ele>314.0</ele><time>2026-03-28T09:51:39Z</time></trkpt><trkpt lat="44.264048094747174" lon="11.54325542443178"><ele>314.0</ele><time>2026-03-28T09:51:40Z</time></trkpt><trkpt lat="44.264147061310005" lon="11.543279953390075"><ele>313.59999999999997</ele><time>2026-03-28T09:51:41Z</time></trkpt><trkpt lat="44.264237960302566" lon="11.543327163516208"><ele>313.2</ele><time>2026-03-28T09:51:42Z</time></trkpt><trkpt lat="44.264316142428136" lon="11.54340153247646"><ele>312.79999999999995</ele><time>2026-03-28T09:51:43Z</time></trkpt><trkpt lat="44.26438203021719" lon="11.543493433886326"><ele>312.4</ele><time>2026-03-28T09:51:44Z</time></trkpt><trkpt lat="44.264418040493496" lon="11.54361159684949"><ele>312.0</ele><time>2026-03-28T09:51:45Z</time></trkpt><trkpt lat="44.26447089245428" lon="11.543715567323144"><ele>312.0</ele><time>2026-03-28T09:51:46Z</time></trkpt><trkpt lat="44.264502193904775" lon="11.543830958223001"><ele>312.0</ele><time>2026-03-28T09:51:47Z</time></trkpt><trkpt lat="44.26454320546335" lon="11.543934063103492"><ele>312.0</ele><time>2026-03-28T09:51:48Z</time></trkpt><trkpt lat="44.264603200219796" lon="11.544008583774712"><ele>312.0</ele><time>2026-03-28T09:51:49Z</time></trkpt><trkpt lat="44.26467405140252" lon="11.544046146957502"><ele>312.0</ele><time>2026-03-28T09:51:50Z</time></trkpt><trkpt lat="44.264748248300904" lon="11.544037510601166"><ele>312.0</ele><time>2026-03-28T09:51:51Z</time></trkpt><trkpt lat="44.264814636374815" lon="11.543980450476933"><ele>312.8333333333333</ele><time>2026-03-28T09:51:52Z</time></trkpt><trkpt lat="44.26485779983647" lon="11.543876339977343"><ele>313.6666666666667</ele><time>2026-03-28T09:51:53Z</time></trkpt><trkpt lat="44.26486958040287" lon="11.543764179968191"><ele>314.5</ele><time>2026-03-28T09:51:54Z</time></trkpt><trkpt lat="44.26483959163484" lon="11.54365105853791"><ele>315.33333333333337</ele><time>2026-03-28T09:51:55Z</time></trkpt><trkpt lat="44.26479621579906" lon="11.543545212271578"><ele>316.1666666666667</ele><time>2026-03-28T09:51:56Z</time></trkpt><trkpt lat="44.264733019483096" lon="11.5434479608012"><ele>317.0</ele><time>2026-03-28T09:51:57Z</time></trkpt><trkpt lat="44.2646657168462" lon="11.543346173403977"><ele>318.2</ele><time>2026-03-28T09:51:58Z</time></trkpt><trkpt lat="44.264596975346194" lon="11.54323768093336"><ele>319.4</ele><time>2026-03-28T09:51:59Z</time></trkpt><trkpt lat="44.26452660233565" lon="11.543125661058209"><ele>320.59999999999997</ele><time>2026-03-28T09:52:00Z</time></trkpt><trkpt lat="44.26445149255798" lon="11.543014574229867"><ele>321.79999999999995</ele><time>2026-03-28T09:52:01Z</time></trkpt><trkpt lat="44.264376715526815" lon="11.542901531178245"><ele>323.0</ele><time>2026-03-28T09:52:02Z</time></trkpt><trkpt lat="44.26430157103491" lon="11.542788412235257"><ele>326.59999999999997</ele><time>2026-03-28T09:52:03Z</time></trkpt><trkpt lat="44.26422335086146" lon="11.542681686700694"><ele>330.2</ele><time>2026-03-28T09:52:04Z</time></trkpt><trkpt lat="44.26413855167762" lon="11.542582991687203"><ele>333.8</ele><time>2026-03-28T09:52:05Z</time></trkpt><trkpt lat="44.26405133588592" lon="11.542489615773102"><ele>337.4</ele><time>2026-03-28T09:52:06Z</time></trkpt><trkpt lat="44.26395742210617" lon="11.5424121798392"><ele>341.0</ele><time>2026-03-28T09:52:07Z</time></trkpt><trkpt lat="44.26386249999614" lon="11.542335155860929"><ele>341.0</ele><time>2026-03-28T09:52:08Z</time></trkpt><trkpt lat="44.26375951631281" lon="11.542269745122725"><ele>341.0</ele><time>2026-03-28T09:52:09Z</time></trkpt><trkpt lat="44.2636557704335" lon="11.5422087452694"><ele>341.0</ele><time>2026-03-28T09:52:10Z</time></trkpt><trkpt lat="44.26354998870377" lon="11.542152397533517"><ele>341.0</ele><time>2026-03-28T09:52:11Z</time></trkpt><trkpt lat="44.26344220307453" lon="11.542108124876904"><ele>341.0</ele><time>2026-03-28T09:52:12Z</time></trkpt><trkpt lat="44.26333165584065" lon="11.542061033546451"><ele>341.0</ele><time>2026-03-28T09:52:13Z</time></trkpt><trkpt lat="44.26322293255993" lon="11.542019980395603"><ele>341.0</ele><time>2026-03-28T09:52:14Z</time></trkpt><trkpt lat="44.26311370309803" lon="11.541975599256835"><ele>341.0</ele><time>2026-03-28T09:52:15Z</time></trkpt><trkpt lat="44.263005089994245" lon="11.541929032183111"><ele>345.20000000000005</ele><time>2026-03-28T09:52:16Z</time></trkpt><trkpt lat="44.2628963381689" lon="11.541879628213747"><ele>349.40000000000003</ele><time>2026-03-28T09:52:17Z</time></trkpt><trkpt lat="44.26278665367559" lon="11.541834335814922"><ele>353.6</ele><time>2026-03-28T09:52:18Z</time></trkpt><trkpt lat="44.26268149615444" lon="11.541789464294892"><ele>357.8</ele><time>2026-03-28T09:52:19Z</time></trkpt><trkpt lat="44.262581545320124" lon="11.541744836853685"><ele>362.0</ele><time>2026-03-28T09:52:20Z</time></trkpt><trkpt lat="44.262483267604416" lon="11.541699128607583"><ele>362.0</ele><time>2026-03-28T09:52:21Z</time></trkpt><trkpt lat="44.26239076828381" lon="11.541648238171906"><ele>362.0</ele><time>2026-03-28T09:52:22Z</time></trkpt><trkpt lat="44.26231256387574" lon="11.54156853562953"><ele>362.0</ele><time>2026-03-28T09:52:23Z</time></trkpt><trkpt lat="44.26224049060011" lon="11.541488707888906"><ele>362.0</ele><time>2026-03-28T09:52:24Z</time></trkpt><trkpt lat="44.26217276989511" lon="11.541394036820243"><ele>362.0</ele><time>2026-03-28T09:52:25Z</time></trkpt><trkpt lat="44.262136670052435" lon="11.54127602145009"><ele>360.20000000000005</ele><time>2026-03-28T09:52:26Z</time></trkpt><trkpt lat="44.26210605655833" lon="11.541155323416334"><ele>358.4</ele><time>2026-03-28T09:52:27Z</time></trkpt><trkpt lat="44.2620895012605" lon="11.541024487166705"><ele>356.6</ele><time>2026-03-28T09:52:28Z</time></trkpt><trkpt lat="44.26209139797092" lon="11.540892273553025"><ele>354.79999999999995</ele><time>2026-03-28T09:52:29Z</time></trkpt><trkpt lat="44.26210861568872" lon="11.540760761966613"><ele>353.0</ele><time>2026-03-28T09:52:30Z</time></trkpt><trkpt lat="44.26214377298657" lon="11.540647048522748"><ele>353.0</ele><time>2026-03-28T09:52:31Z</time></trkpt><trkpt lat="44.2621963149873" lon="11.540538621971422"><ele>353.0</ele><time>2026-03-28T09:52:32Z</time></trkpt><trkpt lat="44.262261553841064" lon="11.540439337519139"><ele>353.0</ele><time>2026-03-28T09:52:33Z</time></trkpt><trkpt lat="44.26233974866874" lon="11.540363231943752"><ele>353.0</ele><time>2026-03-28T09:52:34Z</time></trkpt><trkpt lat="44.262429294648655" lon="11.540305033641486"><ele>353.0</ele><time>2026-03-28T09:52:35Z</time></trkpt><trkpt lat="44.262522638534826" lon="11.540272061787292"><ele>353.4</ele><time>2026-03-28T09:52:36Z</time></trkpt><trkpt lat="44.262625058718996" lon="11.5402469345177"><ele>353.79999999999995</ele><time>2026-03-28T09:52:37Z</time></trkpt><trkpt lat="44.26272281160248" lon="11.540268401654608"><ele>354.2</ele><time>2026-03-28T09:52:38Z</time></trkpt><trkpt lat="44.262820226766365" lon="11.540305553878103"><ele>354.6</ele><time>2026-03-28T09:52:39Z</time></trkpt><trkpt lat="44.262914812272335" lon="11.540341172597975"><ele>355.0</ele><time>2026-03-28T09:52:40Z</time></trkpt><trkpt lat="44.26300564526843" lon="11.540376495222645"><ele>357.6</ele><time>2026-03-28T09:52:41Z</time></trkpt><trkpt lat="44.26309782353014" lon="11.54040805284559"><ele>360.2</ele><time>2026-03-28T09:52:42Z</time></trkpt><trkpt lat="44.26319373350269" lon="11.540434558274171"><ele>362.79999999999995</ele><time>2026-03-28T09:52:43Z</time></trkpt><trkpt lat="44.263294004118514" lon="11.540453629369475"><ele>365.4</ele><time>2026-03-28T09:52:44Z</time></trkpt><trkpt lat="44.26339782748044" lon="11.540491741720576"><ele>368.0</ele><time>2026-03-28T09:52:45Z</time></trkpt><trkpt lat="44.263505210251296" lon="11.540510728848108"><ele>369.2</ele><time>2026-03-28T09:52:46Z</time></trkpt><trkpt lat="44.26361682459358" lon="11.540530464201943"><ele>370.4</ele><time>2026-03-28T09:52:47Z</time></trkpt><trkpt lat="44.263729006353934" lon="11.540550886716606"><ele>371.59999999999997</ele><time>2026-03-28T09:52:48Z</time></trkpt><trkpt lat="44.26384046422667" lon="11.54054988213822"><ele>372.79999999999995</ele><time>2026-03-28T09:52:49Z</time></trkpt><trkpt lat="44.263944023494616" lon="11.54057414732457"><ele>374.0</ele><time>2026-03-28T09:52:50Z</time></trkpt><trkpt lat="44.26405056435558" lon="11.54058878455843"><ele>374.0</ele><time>2026-03-28T09:52:51Z</time></trkpt><trkpt lat="44.264154718085436" lon="11.540586953546864"><ele>374.0</ele><time>2026-03-28T09:52:52Z</time></trkpt><trkpt lat="44.264256586949934" lon="11.540567871940885"><ele>374.0</ele><time>2026-03-28T09:52:53Z</time></trkpt><trkpt lat="44.264354817337406" lon="11.540526680503822"><ele>374.0</ele><time>2026-03-28T09:52:54Z</time></trkpt><trkpt lat="44.26444988645621" lon="11.54046891926986"><ele>374.0</ele><time>2026-03-28T09:52:55Z</time></trkpt><trkpt lat="44.264547472152024" lon="11.540394301330402"><ele>373.5</ele><time>2026-03-28T09:52:56Z</time></trkpt><trkpt lat="44.26464276102411" lon="11.54031180029495"><ele>373.0</ele><time>2026-03-28T09:52:57Z</time></trkpt><trkpt lat="44.264734225604585" lon="11.540219883046055"><ele>372.5</ele><time>2026-03-28T09:52:58Z</time></trkpt><trkpt lat="44.26482504313052" lon="11.540122474468708"><ele>372.0</ele><time>2026-03-28T09:52:59Z</time></trkpt><trkpt lat="44.26491644392215" lon="11.54002433261158"><ele>372.0</ele><time>2026-03-28T09:53:00Z</time></trkpt><trkpt lat="44.2650085765806" lon="11.53993127327441"><ele>372.0</ele><time>2026-03-28T09:53:01Z</time></trkpt><trkpt lat="44.26509907694286" lon="11.53983694443507"><ele>372.0</ele><time>2026-03-28T09:53:02Z</time></trkpt><trkpt lat="44.26518968927366" lon="11.539742353029073"><ele>372.0</ele><time>2026-03-28T09:53:03Z</time></trkpt><trkpt lat="44.265281885532595" lon="11.539651351942682"><ele>372.0</ele><time>2026-03-28T09:53:04Z</time></trkpt><trkpt lat="44.2653727570387" lon="11.539560592160694"><ele>372.0</ele><time>2026-03-28T09:53:05Z</time></trkpt><trkpt lat="44.2654645572332" lon="11.539470048513195"><ele>372.0</ele><time>2026-03-28T09:53:06Z</time></trkpt><trkpt lat="44.26555081402075" lon="11.53938453883922"><ele>372.0</ele><time>2026-03-28T09:53:07Z</time></trkpt><trkpt lat="44.26562928987742" lon="11.539296791273518"><ele>372.0</ele><time>2026-03-28T09:53:08Z</time></trkpt><trkpt lat="44.26569840729245" lon="11.53920076195263"><ele>373.8</ele><time>2026-03-28T09:53:09Z</time></trkpt><trkpt lat="44.26576832064479" lon="11.53910053210896"><ele>375.6</ele><time>2026-03-28T09:53:10Z</time></trkpt><trkpt lat="44.26581800738118" lon="11.538978665751115"><ele>377.40000000000003</ele><time>2026-03-28T09:53:11Z</time></trkpt><trkpt lat="44.26585457632294" lon="11.538838211088"><ele>379.20000000000005</ele><time>2026-03-28T09:53:12Z</time></trkpt><trkpt lat="44.26588636719008" lon="11.538692392151894"><ele>381.0</ele><time>2026-03-28T09:53:13Z</time></trkpt><trkpt lat="44.265915833704256" lon="11.538543129274839"><ele>382.75</ele><time>2026-03-28T09:53:14Z</time></trkpt><trkpt lat="44.26594410917995" lon="11.538389676903357"><ele>384.5</ele><time>2026-03-28T09:53:15Z</time></trkpt><trkpt lat="44.26597367541637" lon="11.538235839314998"><ele>386.25</ele><time>2026-03-28T09:53:16Z</time></trkpt><trkpt lat="44.26600516763116" lon="11.538080684181267"><ele>388.0</ele><time>2026-03-28T09:53:17Z</time></trkpt><trkpt lat="44.266036076876325" lon="11.537924796824756"><ele>390.5</ele><time>2026-03-28T09:53:18Z</time></trkpt><trkpt lat="44.266065617968394" lon="11.537769503342533"><ele>393.0</ele><time>2026-03-28T09:53:19Z</time></trkpt><trkpt lat="44.26609617817846" lon="11.537614543981618"><ele>395.5</ele><time>2026-03-28T09:53:20Z</time></trkpt><trkpt lat="44.266127716062286" lon="11.537463560724147"><ele>398.0</ele><time>2026-03-28T09:53:21Z</time></trkpt><trkpt lat="44.26616015353412" lon="11.537315629470609"><ele>398.0</ele><time>2026-03-28T09:53:22Z</time></trkpt><trkpt lat="44.26619206850827" lon="11.53717617646381"><ele>398.0</ele><time>2026-03-28T09:53:23Z</time></trkpt><trkpt lat="44.26623063348527" lon="11.537046220120336"><ele>398.0</ele><time>2026-03-28T09:53:24Z</time></trkpt><trkpt lat="44.26628243286039" lon="11.536934157074601"><ele>398.0</ele><time>2026-03-28T09:53:25Z</time></trkpt><trkpt lat="44.26634801066019" lon="11.536841247913634"><ele>398.0</ele><time>2026-03-28T09:53:26Z</time></trkpt><trkpt lat="44.26642310098808" lon="11.536766353668716"><ele>397.59999999999997</ele><time>2026-03-28T09:53:27Z</time></trkpt><trkpt lat="44.266505253376984" lon="11.536708543489468"><ele>397.2</ele><time>2026-03-28T09:53:28Z</time></trkpt><trkpt lat="44.266596726100005" lon="11.536660520200016"><ele>396.8</ele><time>2026-03-28T09:53:29Z</time></trkpt><trkpt lat="44.26669626726723" lon="11.536622599790508"><ele>396.4</ele><time>2026-03-28T09:53:30Z</time></trkpt><trkpt lat="44.26680285032693" lon="11.536593620924549"><ele>396.0</ele><time>2026-03-28T09:53:31Z</time></trkpt><trkpt lat="44.266915042373576" lon="11.53655900938317"><ele>396.0</ele><time>2026-03-28T09:53:32Z</time></trkpt><trkpt lat="44.26702941595504" lon="11.536520838535859"><ele>396.0</ele><time>2026-03-28T09:53:33Z</time></trkpt><trkpt lat="44.26714928537024" lon="11.536492906105993"><ele>396.0</ele><time>2026-03-28T09:53:34Z</time></trkpt><trkpt lat="44.26726616938314" lon="11.536456836142905"><ele>396.0</ele><time>2026-03-28T09:53:35Z</time></trkpt><trkpt lat="44.267383482443826" lon="11.536422077346424"><ele>397.5</ele><time>2026-03-28T09:53:36Z</time></trkpt><trkpt lat="44.26749982963851" lon="11.536383128022237"><ele>399.0</ele><time>2026-03-28T09:53:37Z</time></trkpt><trkpt lat="44.26761761315225" lon="11.536344119440532"><ele>400.5</ele><time>2026-03-28T09:53:38Z</time></trkpt><trkpt lat="44.267729590533925" lon="11.536310880123496"><ele>402.0</ele><time>2026-03-28T09:53:39Z</time></trkpt><trkpt lat="44.26784120566818" lon="11.536277278666114"><ele>402.0</ele><time>2026-03-28T09:53:40Z</time></trkpt><trkpt lat="44.26794912226943" lon="11.536240011604935"><ele>402.0</ele><time>2026-03-28T09:53:41Z</time></trkpt><trkpt lat="44.26805854820537" lon="11.536205501866009"><ele>402.0</ele><time>2026-03-28T09:53:42Z</time></trkpt><trkpt lat="44.26816954593293" lon="11.536169803870747"><ele>402.0</ele><time>2026-03-28T09:53:43Z</time></trkpt><trkpt lat="44.268276534472925" lon="11.536130020446224"><ele>402.0</ele><time>2026-03-28T09:53:44Z</time></trkpt><trkpt lat="44.26838391305288" lon="11.536085121853539"><ele>402.0</ele><time>2026-03-28T09:53:45Z</time></trkpt><trkpt lat="44.26849749842097" lon="11.536032441717952"><ele>402.0</ele><time>2026-03-28T09:53:46Z</time></trkpt><trkpt lat="44.26860773520947" lon="11.535959421479442"><ele>402.0</ele><time>2026-03-28T09:53:47Z</time></trkpt><trkpt lat="44.26870713654777" lon="11.535880907115397"><ele>402.0</ele><time>2026-03-28T09:53:48Z</time></trkpt><trkpt lat="44.268804513762156" lon="11.535784723552236"><ele>402.0</ele><time>2026-03-28T09:53:49Z</time></trkpt><trkpt lat="44.268895131922264" lon="11.535676473820391"><ele>402.0</ele><time>2026-03-28T09:53:50Z</time></trkpt><trkpt lat="44.2689801441168" lon="11.535557424239059"><ele>402.0</ele><time>2026-03-28T09:53:51Z</time></trkpt><trkpt lat="44.269058438257176" lon="11.535435320403565"><ele>402.0</ele><time>2026-03-28T09:53:52Z</time></trkpt><trkpt lat="44.26913655563061" lon="11.535317359465708"><ele>404.20000000000005</ele><time>2026-03-28T09:53:53Z</time></trkpt><trkpt lat="44.26921641813116" lon="11.535199954385508"><ele>406.4</ele><time>2026-03-28T09:53:54Z</time></trkpt><trkpt lat="44.269297149942226" lon="11.53508219964827"><ele>408.6</ele><time>2026-03-28T09:53:55Z</time></trkpt><trkpt lat="44.26936881436997" lon="11.534967316988801"><ele>410.79999999999995</ele><time>2026-03-28T09:53:56Z</time></trkpt><trkpt lat="44.26943124008541" lon="11.534846563677993"><ele>413.0</ele><time>2026-03-28T09:53:57Z</time></trkpt><trkpt lat="44.269473509368126" lon="11.534711028724017"><ele>413.0</ele><time>2026-03-28T09:53:58Z</time></trkpt><trkpt lat="44.26949808207136" lon="11.534571296230904"><ele>413.0</ele><time>2026-03-28T09:53:59Z</time></trkpt><trkpt lat="44.269501577922114" lon="11.534427839633445"><ele>413.0</ele><time>2026-03-28T09:54:00Z</time></trkpt><trkpt lat="44.26948985062946" lon="11.534275787861525"><ele>413.0</ele><time>2026-03-28T09:54:01Z</time></trkpt><trkpt lat="44.269454098659516" lon="11.534125917995702"><ele>413.0</ele><time>2026-03-28T09:54:02Z</time></trkpt><trkpt lat="44.26940672917134" lon="11.533989096621331"><ele>413.4</ele><time>2026-03-28T09:54:03Z</time></trkpt><trkpt lat="44.26934632893956" lon="11.533868940528093"><ele>413.79999999999995</ele><time>2026-03-28T09:54:04Z</time></trkpt><trkpt lat="44.269271814024826" lon="11.533767614446042"><ele>414.2</ele><time>2026-03-28T09:54:05Z</time></trkpt><trkpt lat="44.2691948380145" lon="11.53368017153921"><ele>414.6</ele><time>2026-03-28T09:54:06Z</time></trkpt><trkpt lat="44.26912368705887" lon="11.533600581468109"><ele>415.0</ele><time>2026-03-28T09:54:07Z</time></trkpt><trkpt lat="44.269064937436475" lon="11.533519462237715"><ele>417.1666666666667</ele><time>2026-03-28T09:54:08Z</time></trkpt><trkpt lat="44.26901731606252" lon="11.533425249419157"><ele>419.33333333333337</ele><time>2026-03-28T09:54:09Z</time></trkpt><trkpt lat="44.269004586161856" lon="11.533306515123005"><ele>421.5</ele><time>2026-03-28T09:54:10Z</time></trkpt><trkpt lat="44.26899556189997" lon="11.533196755842127"><ele>423.66666666666663</ele><time>2026-03-28T09:54:11Z</time></trkpt><trkpt lat="44.268987446111424" lon="11.533075768266768"><ele>425.8333333333333</ele><time>2026-03-28T09:54:12Z</time></trkpt><trkpt lat="44.26901687217159" lon="11.532955335249326"><ele>428.0</ele><time>2026-03-28T09:54:13Z</time></trkpt><trkpt lat="44.2690659694571" lon="11.53284169514842"><ele>428.59999999999997</ele><time>2026-03-28T09:54:14Z</time></trkpt><trkpt lat="44.26912929245943" lon="11.532740915694225"><ele>429.19999999999993</ele><time>2026-03-28T09:54:15Z</time></trkpt><trkpt lat="44.269208182185366" lon="11.532650214561095"><ele>429.8</ele><time>2026-03-28T09:54:16Z</time></trkpt><trkpt lat="44.26930214886058" lon="11.532589451800716"><ele>430.4</ele><time>2026-03-28T09:54:17Z</time></trkpt><trkpt lat="44.269384537775416" lon="11.532504071260764"><ele>431.0</ele><time>2026-03-28T09:54:18Z</time></trkpt><trkpt lat="44.269459501237485" lon="11.532393694910814"><ele>431.0</ele><time>2026-03-28T09:54:19Z</time></trkpt><trkpt lat="44.269499951633804" lon="11.532256073028602"><ele>431.0</ele><time>2026-03-28T09:54:20Z</time></trkpt><trkpt lat="44.269529552148576" lon="11.532116800942829"><ele>431.0</ele><time>2026-03-28T09:54:21Z</time></trkpt><trkpt lat="44.26953356501177" lon="11.53197149163359"><ele>431.0</ele><time>2026-03-28T09:54:22Z</time></trkpt><trkpt lat="44.26951275755129" lon="11.53182394373603"><ele>431.0</ele><time>2026-03-28T09:54:23Z</time></trkpt><trkpt lat="44.26948272202753" lon="11.531683721997984"><ele>430.49999999999994</ele><time>2026-03-28T09:54:24Z</time></trkpt><trkpt lat="44.2694500249639" lon="11.531547433887303"><ele>430.0</ele><time>2026-03-28T09:54:25Z</time></trkpt><trkpt lat="44.26941891047189" lon="11.531425434481958"><ele>429.5</ele><time>2026-03-28T09:54:26Z</time></trkpt><trkpt lat="44.269397210458955" lon="11.531310737171488"><ele>429.0</ele><time>2026-03-28T09:54:27Z</time></trkpt><trkpt lat="44.26940440257979" lon="11.531211412454322"><ele>428.49999999999994</ele><time>2026-03-28T09:54:28Z</time></trkpt><trkpt lat="44.26943781157835" lon="11.531126176375837"><ele>428.0</ele><time>2026-03-28T09:54:29Z</time></trkpt><trkpt lat="44.26950758799132" lon="11.531093495441063"><ele>428.0</ele><time>2026-03-28T09:54:30Z</time></trkpt><trkpt lat="44.269581142401606" lon="11.531107706570682"><ele>427.99999999999994</ele><time>2026-03-28T09:54:31Z</time></trkpt><trkpt lat="44.26964355834082" lon="11.531188202319814"><ele>427.99999999999994</ele><time>2026-03-28T09:54:32Z</time></trkpt><trkpt lat="44.2697270019426" lon="11.531237321739813"><ele>428.0</ele><time>2026-03-28T09:54:33Z</time></trkpt><trkpt lat="44.269824437327735" lon="11.531293330665363"><ele>428.0</ele><time>2026-03-28T09:54:34Z</time></trkpt><trkpt lat="44.269930181906794" lon="11.531331179906768"><ele>433.25</ele><time>2026-03-28T09:54:35Z</time></trkpt><trkpt lat="44.27004346189578" lon="11.53133863960937"><ele>438.5</ele><time>2026-03-28T09:54:36Z</time></trkpt><trkpt lat="44.27016094172878" lon="11.531328513879272"><ele>443.75</ele><time>2026-03-28T09:54:37Z</time></trkpt><trkpt lat="44.27027523652051" lon="11.531320114687826"><ele>449.0</ele><time>2026-03-28T09:54:38Z</time></trkpt><trkpt lat="44.27038874484897" lon="11.531320662425253"><ele>449.0</ele><time>2026-03-28T09:54:39Z</time></trkpt><trkpt lat="44.270496848316775" lon="11.531321291692834"><ele>449.0</ele><time>2026-03-28T09:54:40Z</time></trkpt><trkpt lat="44.27060170909636" lon="11.531334100669362"><ele>449.0</ele><time>2026-03-28T09:54:41Z</time></trkpt><trkpt lat="44.27070030442889" lon="11.531363864334029"><ele>449.0</ele><time>2026-03-28T09:54:42Z</time></trkpt><trkpt lat="44.27079325345011" lon="11.531409527486886"><ele>449.0</ele><time>2026-03-28T09:54:43Z</time></trkpt><trkpt lat="44.27088658139884" lon="11.53146926395058"><ele>449.2</ele><time>2026-03-28T09:54:44Z</time></trkpt><trkpt lat="44.27097847546901" lon="11.53154287200359"><ele>449.4</ele><time>2026-03-28T09:54:45Z</time></trkpt><trkpt lat="44.27107058675914" lon="11.531631812750696"><ele>449.6</ele><time>2026-03-28T09:54:46Z</time></trkpt><trkpt lat="44.27116192800313" lon="11.531718160949685"><ele>449.8</ele><time>2026-03-28T09:54:47Z</time></trkpt><trkpt lat="44.27124821242426" lon="11.531806345237333"><ele>450.0</ele><time>2026-03-28T09:54:48Z</time></trkpt><trkpt lat="44.27133620807678" lon="11.531892745359439"><ele>450.0</ele><time>2026-03-28T09:54:49Z</time></trkpt><trkpt lat="44.27142196105359" lon="11.531982630905942"><ele>450.0</ele><time>2026-03-28T09:54:50Z</time></trkpt><trkpt lat="44.271506216423006" lon="11.532076088989177"><ele>450.0</ele><time>2026-03-28T09:54:51Z</time></trkpt><trkpt lat="44.271593158142025" lon="11.532164749953063"><ele>450.0</ele><time>2026-03-28T09:54:52Z</time></trkpt><trkpt lat="44.27167937844147" lon="11.53224396601074"><ele>450.0</ele><time>2026-03-28T09:54:53Z</time></trkpt><trkpt lat="44.27176398708508" lon="11.532318082194392"><ele>448.0</ele><time>2026-03-28T09:54:54Z</time></trkpt><trkpt lat="44.27185007130373" lon="11.53238097892939"><ele>446.0</ele><time>2026-03-28T09:54:55Z</time></trkpt><trkpt lat="44.27194349226523" lon="11.53242455096753"><ele>444.0</ele><time>2026-03-28T09:54:56Z</time></trkpt><trkpt lat="44.272039629964496" lon="11.532454544725795"><ele>442.0</ele><time>2026-03-28T09:54:57Z</time></trkpt><trkpt lat="44.272137804169205" lon="11.532474509072143"><ele>440.0</ele><time>2026-03-28T09:54:58Z</time></trkpt><trkpt lat="44.27223733708927" lon="11.532471808235409"><ele>438.8</ele><time>2026-03-28T09:54:59Z</time></trkpt><trkpt lat="44.272335791005595" lon="11.532445532286427"><ele>437.6</ele><time>2026-03-28T09:55:00Z</time></trkpt><trkpt lat="44.272434806392006" lon="11.532398197628998"><ele>436.4</ele><time>2026-03-28T09:55:01Z</time></trkpt><trkpt lat="44.27253467393359" lon="11.532328660538656"><ele>435.2</ele><time>2026-03-28T09:55:02Z</time></trkpt><trkpt lat="44.272633202055296" lon="11.53224432197878"><ele>434.0</ele><time>2026-03-28T09:55:03Z</time></trkpt><trkpt lat="44.272727969212625" lon="11.532147995596223"><ele>433.25</ele><time>2026-03-28T09:55:04Z</time></trkpt><trkpt lat="44.27282367592321" lon="11.53204593895969"><ele>432.5</ele><time>2026-03-28T09:55:05Z</time></trkpt><trkpt lat="44.27291839669802" lon="11.53193804420238"><ele>431.75</ele><time>2026-03-28T09:55:06Z</time></trkpt><trkpt lat="44.27301213518862" lon="11.531826875537375"><ele>431.0</ele><time>2026-03-28T09:55:07Z</time></trkpt><trkpt lat="44.273106392295304" lon="11.531716777649937"><ele>430.5</ele><time>2026-03-28T09:55:08Z</time></trkpt><trkpt lat="44.2731994718565" lon="11.531609045452349"><ele>430.0</ele><time>2026-03-28T09:55:09Z</time></trkpt><trkpt lat="44.273293051434585" lon="11.53150718037317"><ele>429.5</ele><time>2026-03-28T09:55:10Z</time></trkpt><trkpt lat="44.27338878408048" lon="11.531414160466559"><ele>429.0</ele><time>2026-03-28T09:55:11Z</time></trkpt><trkpt lat="44.27349787310158" lon="11.531329919242337"><ele>429.0</ele><time>2026-03-28T09:55:12Z</time></trkpt><trkpt lat="44.27361043820377" lon="11.531260141414387"><ele>429.0</ele><time>2026-03-28T09:55:13Z</time></trkpt><trkpt lat="44.27371742502003" lon="11.531184592440814"><ele>429.0</ele><time>2026-03-28T09:55:14Z</time></trkpt><trkpt lat="44.273821235776786" lon="11.531105203256466"><ele>429.0</ele><time>2026-03-28T09:55:15Z</time></trkpt><trkpt lat="44.273923301350614" lon="11.53100753579306"><ele>430.25</ele><time>2026-03-28T09:55:16Z</time></trkpt><trkpt lat="44.27401535705739" lon="11.530883839445469"><ele>431.5</ele><time>2026-03-28T09:55:17Z</time></trkpt><trkpt lat="44.2741003457143" lon="11.530745037416352"><ele>432.75</ele><time>2026-03-28T09:55:18Z</time></trkpt><trkpt lat="44.27419037984704" lon="11.530613717242003"><ele>434.0</ele><time>2026-03-28T09:55:19Z</time></trkpt><trkpt lat="44.274259119424535" lon="11.53045605770191"><ele>433.75</ele><time>2026-03-28T09:55:20Z</time></trkpt><trkpt lat="44.27434026191133" lon="11.530311215139688"><ele>433.5</ele><time>2026-03-28T09:55:21Z</time></trkpt><trkpt lat="44.274412270145355" lon="11.53016614050385"><ele>433.25</ele><time>2026-03-28T09:55:22Z</time></trkpt><trkpt lat="44.27449228634091" lon="11.53003785077027"><ele>433.0</ele><time>2026-03-28T09:55:23Z</time></trkpt><trkpt lat="44.274586126380576" lon="11.529931381463447"><ele>433.0</ele><time>2026-03-28T09:55:24Z</time></trkpt><trkpt lat="44.27469122559577" lon="11.529846287430587"><ele>433.0</ele><time>2026-03-28T09:55:25Z</time></trkpt><trkpt lat="44.274804677623436" lon="11.529785090110822"><ele>433.0</ele><time>2026-03-28T09:55:26Z</time></trkpt><trkpt lat="44.274925202887665" lon="11.529752252398001"><ele>433.0</ele><time>2026-03-28T09:55:27Z</time></trkpt><trkpt lat="44.2750505737043" lon="11.529745500746126"><ele>435.25</ele><time>2026-03-28T09:55:28Z</time></trkpt><trkpt lat="44.27518099858329" lon="11.529756788362517"><ele>437.5</ele><time>2026-03-28T09:55:29Z</time></trkpt><trkpt lat="44.275315900895606" lon="11.529775663941813"><ele>439.75</ele><time>2026-03-28T09:55:30Z</time></trkpt><trkpt lat="44.27545629295768" lon="11.529794074064064"><ele>442.0</ele><time>2026-03-28T09:55:31Z</time></trkpt><trkpt lat="44.27559774393007" lon="11.52981392691315"><ele>441.5</ele><time>2026-03-28T09:55:32Z</time></trkpt><trkpt lat="44.275738884537674" lon="11.529834376997924"><ele>441.0</ele><time>2026-03-28T09:55:33Z</time></trkpt><trkpt lat="44.27588051495695" lon="11.529852316013107"><ele>440.5</ele><time>2026-03-28T09:55:34Z</time></trkpt><trkpt lat="44.27602245817093" lon="11.529868302666339"><ele>440.0</ele><time>2026-03-28T09:55:35Z</time></trkpt><trkpt lat="44.27616280686643" lon="11.529884240529034"><ele>440.0</ele><time>2026-03-28T09:55:36Z</time></trkpt><trkpt lat="44.276304866995574" lon="11.529902242649571"><ele>440.0</ele><time>2026-03-28T09:55:37Z</time></trkpt><trkpt lat="44.2764430553888" lon="11.52992136011055"><ele>440.0</ele><time>2026-03-28T09:55:38Z</time></trkpt><trkpt lat="44.276576026428" lon="11.52993940442601"><ele>440.0</ele><time>2026-03-28T09:55:39Z</time></trkpt><trkpt lat="44.2767039154556" lon="11.529958376210072"><ele>441.4</ele><time>2026-03-28T09:55:40Z</time></trkpt><trkpt lat="44.27682373737543" lon="11.529975921389035"><ele>442.8</ele><time>2026-03-28T09:55:41Z</time></trkpt><trkpt lat="44.27693773167421" lon="11.52999063370098"><ele>444.20000000000005</ele><time>2026-03-28T09:55:42Z</time></trkpt><trkpt lat="44.27704418977001" lon="11.52999400367445"><ele>445.6</ele><time>2026-03-28T09:55:43Z</time></trkpt><trkpt lat="44.277140333214895" lon="11.529970290797333"><ele>447.0</ele><time>2026-03-28T09:55:44Z</time></trkpt><trkpt lat="44.27722541305622" lon="11.529916652732958"><ele>448.20000000000005</ele><time>2026-03-28T09:55:45Z</time></trkpt><trkpt lat="44.27732390541823" lon="11.52983340956342"><ele>449.40000000000003</ele><time>2026-03-28T09:55:46Z</time></trkpt><trkpt lat="44.277353718495995" lon="11.52969290168814"><ele>450.59999999999997</ele><time>2026-03-28T09:55:47Z</time></trkpt><trkpt lat="44.277389887277025" lon="11.529548904108378"><ele>451.79999999999995</ele><time>2026-03-28T09:55:48Z</time></trkpt><trkpt lat="44.27743141316541" lon="11.52940668169915"><ele>453.0</ele><time>2026-03-28T09:55:49Z</time></trkpt><trkpt lat="44.27748177982376" lon="11.52927177606703"><ele>453.0</ele><time>2026-03-28T09:55:50Z</time></trkpt><trkpt lat="44.27754319370329" lon="11.529155855744744"><ele>452.99999999999994</ele><time>2026-03-28T09:55:51Z</time></trkpt><trkpt lat="44.27762593613389" lon="11.529064719943829"><ele>452.99999999999994</ele><time>2026-03-28T09:55:52Z</time></trkpt><trkpt lat="44.27772545730912" lon="11.528998150031391"><ele>453.0</ele><time>2026-03-28T09:55:53Z</time></trkpt><trkpt lat="44.27783047126691" lon="11.528940236482333"><ele>453.0</ele><time>2026-03-28T09:55:54Z</time></trkpt><trkpt lat="44.27793216782992" lon="11.528853993877457"><ele>453.0</ele><time>2026-03-28T09:55:55Z</time></trkpt><trkpt lat="44.27802320622677" lon="11.528733821715617"><ele>453.0</ele><time>2026-03-28T09:55:56Z</time></trkpt><trkpt lat="44.27809938158435" lon="11.528599252398063"><ele>453.0</ele><time>2026-03-28T09:55:57Z</time></trkpt><trkpt lat="44.27818151120802" lon="11.528471797269189"><ele>453.0</ele><time>2026-03-28T09:55:58Z</time></trkpt><trkpt lat="44.278264028239604" lon="11.528351051043234"><ele>453.75</ele><time>2026-03-28T09:55:59Z</time></trkpt><trkpt lat="44.27835035834925" lon="11.528235354273763"><ele>454.5</ele><time>2026-03-28T09:56:00Z</time></trkpt><trkpt lat="44.27844570251121" lon="11.528138200577114"><ele>455.25</ele><time>2026-03-28T09:56:01Z</time></trkpt><trkpt lat="44.278549034258674" lon="11.528052539494139"><ele>456.0</ele><time>2026-03-28T09:56:02Z</time></trkpt><trkpt lat="44.27865935462898" lon="11.527986701702003"><ele>456.0</ele><time>2026-03-28T09:56:03Z</time></trkpt><trkpt lat="44.278773350645984" lon="11.527928979601688"><ele>456.0</ele><time>2026-03-28T09:56:04Z</time></trkpt><trkpt lat="44.278888041264764" lon="11.527870526775365"><ele>456.0</ele><time>2026-03-28T09:56:05Z</time></trkpt><trkpt lat="44.27900354077165" lon="11.52781330095494"><ele>456.0</ele><time>2026-03-28T09:56:06Z</time></trkpt><trkpt lat="44.27911368359588" lon="11.527740163333988"><ele>453.0</ele><time>2026-03-28T09:56:07Z</time></trkpt><trkpt lat="44.279208887398745" lon="11.527640007831668"><ele>450.0</ele><time>2026-03-28T09:56:08Z</time></trkpt><trkpt lat="44.2792906918792" lon="11.527531756511234"><ele>447.0</ele><time>2026-03-28T09:56:09Z</time></trkpt><trkpt lat="44.27936321984146" lon="11.527411310815042"><ele>444.0</ele><time>2026-03-28T09:56:10Z</time></trkpt><trkpt lat="44.27942876778397" lon="11.527297926334663"><ele>441.0</ele><time>2026-03-28T09:56:11Z</time></trkpt><trkpt lat="44.279496480532366" lon="11.527198014390464"><ele>441.0</ele><time>2026-03-28T09:56:12Z</time></trkpt><trkpt lat="44.27956532242762" lon="11.527109059841957"><ele>441.0</ele><time>2026-03-28T09:56:13Z</time></trkpt><trkpt lat="44.27964879645264" lon="11.527030286828111"><ele>441.0</ele><time>2026-03-28T09:56:14Z</time></trkpt><trkpt lat="44.279735332715795" lon="11.526956883190051"><ele>441.0</ele><time>2026-03-28T09:56:15Z</time></trkpt><trkpt lat="44.27982143267739" lon="11.526878444369693"><ele>441.0</ele><time>2026-03-28T09:56:16Z</time></trkpt><trkpt lat="44.27990142865171" lon="11.526793824100423"><ele>439.6666666666667</ele><time>2026-03-28T09:56:17Z</time></trkpt><trkpt lat="44.27997240540054" lon="11.526691700841532"><ele>438.33333333333337</ele><time>2026-03-28T09:56:18Z</time></trkpt><trkpt lat="44.28003397143768" lon="11.526588835806336"><ele>437.0</ele><time>2026-03-28T09:56:19Z</time></trkpt><trkpt lat="44.28008382540293" lon="11.52648478406293"><ele>435.6666666666667</ele><time>2026-03-28T09:56:20Z</time></trkpt><trkpt lat="44.280118063708116" lon="11.526388293374058"><ele>434.33333333333337</ele><time>2026-03-28T09:56:21Z</time></trkpt><trkpt lat="44.28014659977454" lon="11.526302462442066"><ele>433.0</ele><time>2026-03-28T09:56:22Z</time></trkpt><trkpt lat="44.280190330704684" lon="11.5261554757749"><ele>424.0</ele><time>2026-03-28T09:56:24Z</time></trkpt><trkpt lat="44.28023018723019" lon="11.526041892282107"><ele>424.0</ele><time>2026-03-28T09:56:26Z</time></trkpt></trkseg><trkseg><trkpt lat="44.28042332369097" lon="11.52621817731107"><ele>425.1666666666667</ele><time>2026-03-28T10:07:22Z</time></trkpt><trkpt lat="44.28046364003445" lon="11.526297831210846"><ele>426.33333333333337</ele><time>2026-03-28T10:07:23Z</time></trkpt><trkpt lat="44.28051486423971" lon="11.526380030829667"><ele>427.5</ele><time>2026-03-28T10:07:24Z</time></trkpt><trkpt lat="44.280572518692644" lon="11.526451546419867"><ele>428.66666666666663</ele><time>2026-03-28T10:07:25Z</time></trkpt><trkpt lat="44.28064130379107" lon="11.526510756727099"><ele>429.8333333333333</ele><time>2026-03-28T10:07:26Z</time></trkpt><trkpt lat="44.280722677628326" lon="11.526551131679042"><ele>431.0</ele><time>2026-03-28T10:07:27Z</time></trkpt><trkpt lat="44.28080359614895" lon="11.526588228672978"><ele>431.0</ele><time>2026-03-28T10:07:28Z</time></trkpt><trkpt lat="44.28089613647305" lon="11.526615137838224"><ele>431.0</ele><time>2026-03-28T10:07:29Z</time></trkpt><trkpt lat="44.280997938425834" lon="11.526636949242695"><ele>431.0</ele><time>2026-03-28T10:07:30Z</time></trkpt><trkpt lat="44.28110391409511" lon="11.526658517524345"><ele>431.0</ele><time>2026-03-28T10:07:31Z</time></trkpt><trkpt lat="44.281210961835406" lon="11.526679921009723"><ele>431.0</ele><time>2026-03-28T10:07:32Z</time></trkpt><trkpt lat="44.2813173552398" lon="11.526696160595861"><ele>431.0</ele><time>2026-03-28T10:07:33Z</time></trkpt><trkpt lat="44.28142294954716" lon="11.52671625470894"><ele>431.0</ele><time>2026-03-28T10:07:34Z</time></trkpt><trkpt lat="44.2815309641837" lon="11.5267307958944"><ele>431.0</ele><time>2026-03-28T10:07:35Z</time></trkpt><trkpt lat="44.28164225876473" lon="11.526745099869055"><ele>431.0</ele><time>2026-03-28T10:07:36Z</time></trkpt><trkpt lat="44.28175070265392" lon="11.526761669377326"><ele>431.0</ele><time>2026-03-28T10:07:37Z</time></trkpt><trkpt lat="44.28185498279089" lon="11.526780905148268"><ele>429.0</ele><time>2026-03-28T10:07:38Z</time></trkpt><trkpt lat="44.2819549679459" lon="11.52681781354734"><ele>427.0</ele><time>2026-03-28T10:07:39Z</time></trkpt><trkpt lat="44.28205022060458" lon="11.526866070630373"><ele>425.0</ele><time>2026-03-28T10:07:40Z</time></trkpt><trkpt lat="44.28213544164304" lon="11.526940077195459"><ele>423.0</ele><time>2026-03-28T10:07:41Z</time></trkpt><trkpt lat="44.28221459397036" lon="11.52703357098418"><ele>421.0</ele><time>2026-03-28T10:07:42Z</time></trkpt><trkpt lat="44.28229406282475" lon="11.527143255434162"><ele>420.0</ele><time>2026-03-28T10:07:43Z</time></trkpt><trkpt lat="44.28237311033566" lon="11.527262745226524"><ele>419.0</ele><time>2026-03-28T10:07:44Z</time></trkpt><trkpt lat="44.28245177758989" lon="11.527389698712334"><ele>418.0</ele><time>2026-03-28T10:07:45Z</time></trkpt><trkpt lat="44.28252703987631" lon="11.527522344946036"><ele>417.0</ele><time>2026-03-28T10:07:46Z</time></trkpt><trkpt lat="44.28260413512075" lon="11.527656887243946"><ele>417.0</ele><time>2026-03-28T10:07:47Z</time></trkpt><trkpt lat="44.282682710091436" lon="11.527794894281293"><ele>417.0</ele><time>2026-03-28T10:07:48Z</time></trkpt><trkpt lat="44.28275443520664" lon="11.527932660401623"><ele>417.0</ele><time>2026-03-28T10:07:49Z</time></trkpt><trkpt lat="44.28283445400226" lon="11.528066987260937"><ele>417.0</ele><time>2026-03-28T10:07:50Z</time></trkpt><trkpt lat="44.28290866391938" lon="11.52820114705864"><ele>417.5</ele><time>2026-03-28T10:07:51Z</time></trkpt><trkpt lat="44.282992710074794" lon="11.528315415013852"><ele>418.0</ele><time>2026-03-28T10:07:52Z</time></trkpt><trkpt lat="44.28308385826179" lon="11.528408082252342"><ele>418.5</ele><time>2026-03-28T10:07:53Z</time></trkpt><trkpt lat="44.283190072494016" lon="11.528477368228591"><ele>419.0</ele><time>2026-03-28T10:07:54Z</time></trkpt><trkpt lat="44.28330325439351" lon="11.52852164161312"><ele>414.5</ele><time>2026-03-28T10:07:55Z</time></trkpt><trkpt lat="44.2834251197155" lon="11.528542775617293"><ele>410.0</ele><time>2026-03-28T10:07:56Z</time></trkpt><trkpt lat="44.28354600203753" lon="11.528536704831122"><ele>405.5</ele><time>2026-03-28T10:07:57Z</time></trkpt><trkpt lat="44.283670431322385" lon="11.528520758041486"><ele>401.0</ele><time>2026-03-28T10:07:58Z</time></trkpt><trkpt lat="44.283796964967294" lon="11.528484461311315"><ele>401.0</ele><time>2026-03-28T10:07:59Z</time></trkpt><trkpt lat="44.28392674763228" lon="11.528451557766012"><ele>401.0</ele><time>2026-03-28T10:08:00Z</time></trkpt><trkpt lat="44.284059180579" lon="11.528418629470659"><ele>401.0</ele><time>2026-03-28T10:08:01Z</time></trkpt><trkpt lat="44.28418943904702" lon="11.528383874256406"><ele>401.0</ele><time>2026-03-28T10:08:02Z</time></trkpt><trkpt lat="44.284318220943064" lon="11.52834842575249"><ele>399.25</ele><time>2026-03-28T10:08:03Z</time></trkpt><trkpt lat="44.28444570644235" lon="11.528321890044992"><ele>397.5</ele><time>2026-03-28T10:08:04Z</time></trkpt><trkpt lat="44.28457069472699" lon="11.528299543377567"><ele>395.75</ele><time>2026-03-28T10:08:05Z</time></trkpt><trkpt lat="44.284692505200354" lon="11.528278108169694"><ele>394.0</ele><time>2026-03-28T10:08:06Z</time></trkpt><trkpt lat="44.284807186701016" lon="11.528250030066125"><ele>393.5</ele><time>2026-03-28T10:08:07Z</time></trkpt><trkpt lat="44.2849222878984" lon="11.528285139317111"><ele>393.0</ele><time>2026-03-28T10:08:08Z</time></trkpt><trkpt lat="44.285028334310006" lon="11.528321698766081"><ele>392.5</ele><time>2026-03-28T10:08:09Z</time></trkpt><trkpt lat="44.285139747447104" lon="11.528371240005544"><ele>392.0</ele><time>2026-03-28T10:08:10Z</time></trkpt><trkpt lat="44.28525148292647" lon="11.52843090567846"><ele>392.0</ele><time>2026-03-28T10:08:11Z</time></trkpt><trkpt lat="44.285364808575515" lon="11.528501948564376"><ele>392.0</ele><time>2026-03-28T10:08:12Z</time></trkpt><trkpt lat="44.28547712360817" lon="11.52857728588594"><ele>392.0</ele><time>2026-03-28T10:08:13Z</time></trkpt><trkpt lat="44.28558677991991" lon="11.528654949338028"><ele>392.0</ele><time>2026-03-28T10:08:14Z</time></trkpt><trkpt lat="44.285691024111735" lon="11.528739375030636"><ele>391.25</ele><time>2026-03-28T10:08:15Z</time></trkpt><trkpt lat="44.2857920273864" lon="11.52883185184712"><ele>390.5</ele><time>2026-03-28T10:08:16Z</time></trkpt><trkpt lat="44.28589395917364" lon="11.528932329822817"><ele>389.75</ele><time>2026-03-28T10:08:17Z</time></trkpt><trkpt lat="44.285990596681785" lon="11.529038696797091"><ele>389.0</ele><time>2026-03-28T10:08:18Z</time></trkpt><trkpt lat="44.28608689326607" lon="11.529150367763146"><ele>389.0</ele><time>2026-03-28T10:08:19Z</time></trkpt><trkpt lat="44.286183078711964" lon="11.529269268781057"><ele>389.0</ele><time>2026-03-28T10:08:20Z</time></trkpt><trkpt lat="44.286278056904244" lon="11.529396736731659"><ele>389.0</ele><time>2026-03-28T10:08:21Z</time></trkpt><trkpt lat="44.28637075805105" lon="11.529528098367393"><ele>389.0</ele><time>2026-03-28T10:08:22Z</time></trkpt><trkpt lat="44.286462238319835" lon="11.529665280676745"><ele>388.0</ele><time>2026-03-28T10:08:23Z</time></trkpt><trkpt lat="44.28655347412516" lon="11.529807391448372"><ele>387.0</ele><time>2026-03-28T10:08:24Z</time></trkpt><trkpt lat="44.28664783232197" lon="11.529945436674133"><ele>386.0</ele><time>2026-03-28T10:08:25Z</time></trkpt><trkpt lat="44.28674063355804" lon="11.530079028378085"><ele>385.0</ele><time>2026-03-28T10:08:26Z</time></trkpt><trkpt lat="44.28683077231418" lon="11.530211660781172"><ele>385.0</ele><time>2026-03-28T10:08:27Z</time></trkpt><trkpt lat="44.28692259191098" lon="11.530335983671856"><ele>385.0</ele><time>2026-03-28T10:08:28Z</time></trkpt><trkpt lat="44.2870147940233" lon="11.53046046355185"><ele>385.0</ele><time>2026-03-28T10:08:29Z</time></trkpt><trkpt lat="44.287112289240774" lon="11.530574158943223"><ele>385.0</ele><time>2026-03-28T10:08:30Z</time></trkpt><trkpt lat="44.28721963688592" lon="11.530666215649923"><ele>384.5</ele><time>2026-03-28T10:08:31Z</time></trkpt><trkpt lat="44.28733526126284" lon="11.530740522949367"><ele>384.0</ele><time>2026-03-28T10:08:32Z</time></trkpt><trkpt lat="44.28745819857661" lon="11.530791519825724"><ele>383.5</ele><time>2026-03-28T10:08:33Z</time></trkpt><trkpt lat="44.28758617280641" lon="11.530826809563807"><ele>383.0</ele><time>2026-03-28T10:08:34Z</time></trkpt><trkpt lat="44.287715194277645" lon="11.53086457096594"><ele>383.0</ele><time>2026-03-28T10:08:35Z</time></trkpt><trkpt lat="44.28784223601267" lon="11.530904317966415"><ele>383.0</ele><time>2026-03-28T10:08:36Z</time></trkpt><trkpt lat="44.28796645961236" lon="11.53095742246741"><ele>383.0</ele><time>2026-03-28T10:08:37Z</time></trkpt><trkpt lat="44.28808634135065" lon="11.531022600354781"><ele>383.0</ele><time>2026-03-28T10:08:38Z</time></trkpt><trkpt lat="44.288203391252196" lon="11.531095151094071"><ele>382.75</ele><time>2026-03-28T10:08:39Z</time></trkpt><trkpt lat="44.28831633301127" lon="11.531179349151383"><ele>382.5</ele><time>2026-03-28T10:08:40Z</time></trkpt><trkpt lat="44.28842478462752" lon="11.531280963290358"><ele>382.25</ele><time>2026-03-28T10:08:41Z</time></trkpt><trkpt lat="44.28852902232591" lon="11.531389368673949"><ele>382.0</ele><time>2026-03-28T10:08:42Z</time></trkpt><trkpt lat="44.28863545388013" lon="11.531498037513634"><ele>382.75</ele><time>2026-03-28T10:08:43Z</time></trkpt><trkpt lat="44.28874092393401" lon="11.531603114534697"><ele>383.5</ele><time>2026-03-28T10:08:44Z</time></trkpt><trkpt lat="44.28884175781071" lon="11.531711041396163"><ele>384.25</ele><time>2026-03-28T10:08:45Z</time></trkpt><trkpt lat="44.288942198539644" lon="11.53180541446548"><ele>385.0</ele><time>2026-03-28T10:08:46Z</time></trkpt><trkpt lat="44.28904484935898" lon="11.531885173288323"><ele>385.0</ele><time>2026-03-28T10:08:47Z</time></trkpt><trkpt lat="44.28915338915255" lon="11.531939739263379"><ele>385.0</ele><time>2026-03-28T10:08:48Z</time></trkpt><trkpt lat="44.28927316893143" lon="11.531970632417162"><ele>385.0</ele><time>2026-03-28T10:08:49Z</time></trkpt><trkpt lat="44.28939813857359" lon="11.531984786095917"><ele>385.0</ele><time>2026-03-28T10:08:50Z</time></trkpt><trkpt lat="44.289522376426724" lon="11.531981779062773"><ele>385.0</ele><time>2026-03-28T10:08:51Z</time></trkpt><trkpt lat="44.28964712898912" lon="11.531965458182857"><ele>385.0</ele><time>2026-03-28T10:08:52Z</time></trkpt><trkpt lat="44.289775802552505" lon="11.531948524500393"><ele>385.0</ele><time>2026-03-28T10:08:53Z</time></trkpt><trkpt lat="44.289906348836254" lon="11.531928091272341"><ele>385.0</ele><time>2026-03-28T10:08:54Z</time></trkpt><trkpt lat="44.290036133894525" lon="11.531907142875294"><ele>384.0</ele><time>2026-03-28T10:08:55Z</time></trkpt><trkpt lat="44.29016599498073" lon="11.531891560713015"><ele>383.0</ele><time>2026-03-28T10:08:56Z</time></trkpt><trkpt lat="44.29029859704405" lon="11.531882178786859"><ele>382.0</ele><time>2026-03-28T10:08:57Z</time></trkpt><trkpt lat="44.29043503706152" lon="11.531872015873793"><ele>381.0</ele><time>2026-03-28T10:08:58Z</time></trkpt><trkpt lat="44.290570241737115" lon="11.531861277866087"><ele>378.25</ele><time>2026-03-28T10:08:59Z</time></trkpt><trkpt lat="44.29070847171849" lon="11.531847525611122"><ele>375.5</ele><time>2026-03-28T10:09:00Z</time></trkpt><trkpt lat="44.2908448999972" lon="11.53183505667418"><ele>372.75</ele><time>2026-03-28T10:09:01Z</time></trkpt><trkpt lat="44.29098372545891" lon="11.531819162937254"><ele>370.0</ele><time>2026-03-28T10:09:02Z</time></trkpt><trkpt lat="44.29112230396786" lon="11.531801489186169"><ele>370.0</ele><time>2026-03-28T10:09:03Z</time></trkpt><trkpt lat="44.29126158074827" lon="11.531782625402318"><ele>370.0</ele><time>2026-03-28T10:09:04Z</time></trkpt><trkpt lat="44.29140071877868" lon="11.531770021782826"><ele>370.0</ele><time>2026-03-28T10:09:05Z</time></trkpt><trkpt lat="44.29153692647437" lon="11.531753172661166"><ele>370.0</ele><time>2026-03-28T10:09:06Z</time></trkpt><trkpt lat="44.29167389989866" lon="11.531738912179595"><ele>369.75</ele><time>2026-03-28T10:09:07Z</time></trkpt><trkpt lat="44.2918132236491" lon="11.531718542437824"><ele>369.5</ele><time>2026-03-28T10:09:08Z</time></trkpt><trkpt lat="44.291950211829146" lon="11.531701825493304"><ele>369.25</ele><time>2026-03-28T10:09:09Z</time></trkpt><trkpt lat="44.29209157600609" lon="11.531681908220913"><ele>369.0</ele><time>2026-03-28T10:09:10Z</time></trkpt><trkpt lat="44.292231430122676" lon="11.531665454220835"><ele>371.25</ele><time>2026-03-28T10:09:11Z</time></trkpt><trkpt lat="44.29237176107112" lon="11.531643011525823"><ele>373.5</ele><time>2026-03-28T10:09:12Z</time></trkpt><trkpt lat="44.29250766405721" lon="11.53162200081065"><ele>375.75</ele><time>2026-03-28T10:09:13Z</time></trkpt><trkpt lat="44.292638402424586" lon="11.531603692188863"><ele>378.0</ele><time>2026-03-28T10:09:14Z</time></trkpt><trkpt lat="44.292766277318215" lon="11.531592069343123"><ele>378.0</ele><time>2026-03-28T10:09:15Z</time></trkpt><trkpt lat="44.29289827327942" lon="11.53158775353991"><ele>378.0</ele><time>2026-03-28T10:09:16Z</time></trkpt><trkpt lat="44.29302971069831" lon="11.531589984685587"><ele>378.0</ele><time>2026-03-28T10:09:17Z</time></trkpt><trkpt lat="44.29316303219953" lon="11.531597197943833"><ele>378.0</ele><time>2026-03-28T10:09:18Z</time></trkpt><trkpt lat="44.293296575862726" lon="11.531614131304991"><ele>377.5</ele><time>2026-03-28T10:09:19Z</time></trkpt><trkpt lat="44.29342822781554" lon="11.531630498079704"><ele>377.0</ele><time>2026-03-28T10:09:20Z</time></trkpt><trkpt lat="44.293549456718914" lon="11.531650817933945"><ele>376.5</ele><time>2026-03-28T10:09:21Z</time></trkpt><trkpt lat="44.29366536171837" lon="11.53166116993582"><ele>376.0</ele><time>2026-03-28T10:09:22Z</time></trkpt><trkpt lat="44.293780127186174" lon="11.531653702737124"><ele>376.0</ele><time>2026-03-28T10:09:23Z</time></trkpt><trkpt lat="44.293888620122694" lon="11.531614173736992"><ele>376.0</ele><time>2026-03-28T10:09:24Z</time></trkpt><trkpt lat="44.293992225600675" lon="11.531544630996871"><ele>376.0</ele><time>2026-03-28T10:09:25Z</time></trkpt><trkpt lat="44.29409392812827" lon="11.531454164769848"><ele>376.0</ele><time>2026-03-28T10:09:26Z</time></trkpt><trkpt lat="44.29420334607071" lon="11.531368686020738"><ele>377.25</ele><time>2026-03-28T10:09:27Z</time></trkpt><trkpt lat="44.294318400626764" lon="11.531291949585153"><ele>378.5</ele><time>2026-03-28T10:09:28Z</time></trkpt><trkpt lat="44.29444036276189" lon="11.531230828087425"><ele>379.75</ele><time>2026-03-28T10:09:29Z</time></trkpt><trkpt lat="44.29457062936489" lon="11.53119276358686"><ele>381.0</ele><time>2026-03-28T10:09:30Z</time></trkpt><trkpt lat="44.29470223986237" lon="11.531184085299273"><ele>377.75</ele><time>2026-03-28T10:09:31Z</time></trkpt><trkpt lat="44.29483491670499" lon="11.531196247592893"><ele>374.5</ele><time>2026-03-28T10:09:32Z</time></trkpt><trkpt lat="44.29496922047029" lon="11.531232578056162"><ele>371.25</ele><time>2026-03-28T10:09:33Z</time></trkpt><trkpt lat="44.29510356496529" lon="11.53128268983932"><ele>368.0</ele><time>2026-03-28T10:09:34Z</time></trkpt><trkpt lat="44.295231215094056" lon="11.53135249271041"><ele>364.75</ele><time>2026-03-28T10:09:35Z</time></trkpt><trkpt lat="44.29535219004706" lon="11.531450250168614"><ele>361.5</ele><time>2026-03-28T10:09:36Z</time></trkpt><trkpt lat="44.29546452632926" lon="11.531573493767898"><ele>358.25</ele><time>2026-03-28T10:09:37Z</time></trkpt><trkpt lat="44.29557053138035" lon="11.531716273946909"><ele>355.0</ele><time>2026-03-28T10:09:38Z</time></trkpt><trkpt lat="44.29567608070011" lon="11.531868281275443"><ele>354.0</ele><time>2026-03-28T10:09:39Z</time></trkpt><trkpt lat="44.29577909918266" lon="11.532033510248004"><ele>353.0</ele><time>2026-03-28T10:09:40Z</time></trkpt><trkpt lat="44.29588459196758" lon="11.532195649302821"><ele>352.0</ele><time>2026-03-28T10:09:41Z</time></trkpt><trkpt lat="44.29598831085795" lon="11.532357652205688"><ele>349.66666666666663</ele><time>2026-03-28T10:09:42Z</time></trkpt><trkpt lat="44.29609384088438" lon="11.5325155115669"><ele>347.3333333333333</ele><time>2026-03-28T10:09:43Z</time></trkpt><trkpt lat="44.29619577153079" lon="11.532674476059412"><ele>345.0</ele><time>2026-03-28T10:09:44Z</time></trkpt><trkpt lat="44.296298291962835" lon="11.532831708233381"><ele>342.6666666666667</ele><time>2026-03-28T10:09:45Z</time></trkpt><trkpt lat="44.29640055832532" lon="11.532989904273917"><ele>340.33333333333337</ele><time>2026-03-28T10:09:46Z</time></trkpt><trkpt lat="44.29650153145467" lon="11.533147339677635"><ele>338.0</ele><time>2026-03-28T10:09:47Z</time></trkpt><trkpt lat="44.29660147884762" lon="11.533304446155933"><ele>338.0</ele><time>2026-03-28T10:09:48Z</time></trkpt><trkpt lat="44.29670258815772" lon="11.533456910673484"><ele>338.0</ele><time>2026-03-28T10:09:49Z</time></trkpt><trkpt lat="44.29680146265298" lon="11.533607827475329"><ele>338.0</ele><time>2026-03-28T10:09:50Z</time></trkpt><trkpt lat="44.29689793653469" lon="11.533759369575387"><ele>338.0</ele><time>2026-03-28T10:09:51Z</time></trkpt><trkpt lat="44.296994532162806" lon="11.533906764627371"><ele>337.75</ele><time>2026-03-28T10:09:52Z</time></trkpt><trkpt lat="44.297094645131516" lon="11.534054084065026"><ele>337.5</ele><time>2026-03-28T10:09:53Z</time></trkpt><trkpt lat="44.29719107516824" lon="11.534205087855979"><ele>337.25</ele><time>2026-03-28T10:09:54Z</time></trkpt><trkpt lat="44.29728913004834" lon="11.534356153265056"><ele>337.0</ele><time>2026-03-28T10:09:55Z</time></trkpt><trkpt lat="44.29738867367894" lon="11.534501888683206"><ele>336.5</ele><time>2026-03-28T10:09:56Z</time></trkpt><trkpt lat="44.29749348914523" lon="11.534641354140694"><ele>336.0</ele><time>2026-03-28T10:09:57Z</time></trkpt><trkpt lat="44.297604356771394" lon="11.53476878152361"><ele>335.5</ele><time>2026-03-28T10:09:58Z</time></trkpt><trkpt lat="44.29772099979743" lon="11.534881690941853"><ele>335.0</ele><time>2026-03-28T10:09:59Z</time></trkpt><trkpt lat="44.297844465642285" lon="11.534983358632225"><ele>335.0</ele><time>2026-03-28T10:10:00Z</time></trkpt><trkpt lat="44.29797546385597" lon="11.535075128409495"><ele>335.0</ele><time>2026-03-28T10:10:01Z</time></trkpt><trkpt lat="44.298109032979994" lon="11.535161801166398"><ele>335.0</ele><time>2026-03-28T10:10:02Z</time></trkpt><trkpt lat="44.298246580175864" lon="11.535243255897718"><ele>335.0</ele><time>2026-03-28T10:10:03Z</time></trkpt><trkpt lat="44.29838350048746" lon="11.535319663598626"><ele>332.6666666666667</ele><time>2026-03-28T10:10:04Z</time></trkpt><trkpt lat="44.29852307322704" lon="11.535397058093737"><ele>330.3333333333333</ele><time>2026-03-28T10:10:05Z</time></trkpt><trkpt lat="44.298662746455754" lon="11.5354764897165"><ele>328.0</ele><time>2026-03-28T10:10:06Z</time></trkpt><trkpt lat="44.29880196224923" lon="11.535557923214414"><ele>327.25</ele><time>2026-03-28T10:10:07Z</time></trkpt><trkpt lat="44.298938484466085" lon="11.535642587925926"><ele>326.5</ele><time>2026-03-28T10:10:08Z</time></trkpt><trkpt lat="44.2990715038146" lon="11.535722205767417"><ele>325.75</ele><time>2026-03-28T10:10:09Z</time></trkpt><trkpt lat="44.299196952424616" lon="11.53579865461195"><ele>325.0</ele><time>2026-03-28T10:10:10Z</time></trkpt><trkpt lat="44.29931162020022" lon="11.535874537236614"><ele>325.0</ele><time>2026-03-28T10:10:11Z</time></trkpt><trkpt lat="44.29941647621623" lon="11.535958006765743"><ele>325.0</ele><time>2026-03-28T10:10:12Z</time></trkpt><trkpt lat="44.29950775162113" lon="11.536064968334214"><ele>325.0</ele><time>2026-03-28T10:10:13Z</time></trkpt><trkpt lat="44.29958727243125" lon="11.536195986966344"><ele>325.0</ele><time>2026-03-28T10:10:14Z</time></trkpt><trkpt lat="44.299655035758924" lon="11.536345311503153"><ele>324.75</ele><time>2026-03-28T10:10:15Z</time></trkpt><trkpt lat="44.29972585647427" lon="11.536496131460003"><ele>324.5</ele><time>2026-03-28T10:10:16Z</time></trkpt><trkpt lat="44.29981369061119" lon="11.536630010484135"><ele>324.25</ele><time>2026-03-28T10:10:17Z</time></trkpt><trkpt lat="44.29991416686966" lon="11.536742546756017"><ele>324.0</ele><time>2026-03-28T10:10:18Z</time></trkpt><trkpt lat="44.30002869207334" lon="11.536845100086559"><ele>321.25</ele><time>2026-03-28T10:10:19Z</time></trkpt><trkpt lat="44.30014644391524" lon="11.53693904446798"><ele>318.5</ele><time>2026-03-28T10:10:20Z</time></trkpt><trkpt lat="44.30026556772754" lon="11.537040529355583"><ele>315.75</ele><time>2026-03-28T10:10:21Z</time></trkpt><trkpt lat="44.300385734300704" lon="11.537142656585516"><ele>313.0</ele><time>2026-03-28T10:10:22Z</time></trkpt><trkpt lat="44.30050709804686" lon="11.53724497708618"><ele>312.0</ele><time>2026-03-28T10:10:23Z</time></trkpt><trkpt lat="44.3006247769949" lon="11.537348280464704"><ele>311.0</ele><time>2026-03-28T10:10:24Z</time></trkpt><trkpt lat="44.30074420538594" lon="11.537450154370365"><ele>310.0</ele><time>2026-03-28T10:10:25Z</time></trkpt><trkpt lat="44.30086430341921" lon="11.537551420446567"><ele>309.0</ele><time>2026-03-28T10:10:26Z</time></trkpt><trkpt lat="44.30098764147938" lon="11.537650511416413"><ele>309.0</ele><time>2026-03-28T10:10:27Z</time></trkpt><trkpt lat="44.30111346912183" lon="11.537746912395027"><ele>309.0</ele><time>2026-03-28T10:10:28Z</time></trkpt><trkpt lat="44.301246306650235" lon="11.537836060134877"><ele>309.0</ele><time>2026-03-28T10:10:29Z</time></trkpt><trkpt lat="44.301382070877416" lon="11.537921564405993"><ele>309.0</ele><time>2026-03-28T10:10:30Z</time></trkpt><trkpt lat="44.30152340254059" lon="11.53800143322408"><ele>311.0</ele><time>2026-03-28T10:10:31Z</time></trkpt><trkpt lat="44.30166592493089" lon="11.538080074934921"><ele>313.0</ele><time>2026-03-28T10:10:32Z</time></trkpt><trkpt lat="44.301809117680726" lon="11.538158551748412"><ele>315.0</ele><time>2026-03-28T10:10:33Z</time></trkpt><trkpt lat="44.301951122203036" lon="11.538237953032663"><ele>315.0</ele><time>2026-03-28T10:10:34Z</time></trkpt><trkpt lat="44.30209116603666" lon="11.538317978789761"><ele>315.0</ele><time>2026-03-28T10:10:35Z</time></trkpt><trkpt lat="44.30223020452533" lon="11.53839388184353"><ele>315.0</ele><time>2026-03-28T10:10:36Z</time></trkpt><trkpt lat="44.30236947676375" lon="11.5384678728216"><ele>314.25</ele><time>2026-03-28T10:10:37Z</time></trkpt><trkpt lat="44.30250445521253" lon="11.538540782039695"><ele>313.5</ele><time>2026-03-28T10:10:38Z</time></trkpt><trkpt lat="44.30263480559932" lon="11.538614429278113"><ele>312.75</ele><time>2026-03-28T10:10:39Z</time></trkpt><trkpt lat="44.30275808791477" lon="11.538696600251729"><ele>312.0</ele><time>2026-03-28T10:10:40Z</time></trkpt><trkpt lat="44.30287307527957" lon="11.538796646011795"><ele>312.0</ele><time>2026-03-28T10:10:41Z</time></trkpt><trkpt lat="44.30297748229685" lon="11.538919707552306"><ele>312.0</ele><time>2026-03-28T10:10:42Z</time></trkpt><trkpt lat="44.30306857713597" lon="11.539061165651496"><ele>312.0</ele><time>2026-03-28T10:10:43Z</time></trkpt><trkpt lat="44.303150551938465" lon="11.539214378223015"><ele>312.0</ele><time>2026-03-28T10:10:44Z</time></trkpt><trkpt lat="44.30323862750362" lon="11.53936899984158"><ele>309.25</ele><time>2026-03-28T10:10:45Z</time></trkpt><trkpt lat="44.303328598156014" lon="11.539523194852581"><ele>306.5</ele><time>2026-03-28T10:10:46Z</time></trkpt><trkpt lat="44.30341836987293" lon="11.539681000796481"><ele>303.75</ele><time>2026-03-28T10:10:47Z</time></trkpt><trkpt lat="44.303506969261804" lon="11.539838931830664"><ele>301.0</ele><time>2026-03-28T10:10:48Z</time></trkpt><trkpt lat="44.30359716936941" lon="11.539996055396692"><ele>301.0</ele><time>2026-03-28T10:10:49Z</time></trkpt><trkpt lat="44.303686798284396" lon="11.540150511279748"><ele>301.0</ele><time>2026-03-28T10:10:50Z</time></trkpt><trkpt lat="44.30377895766154" lon="11.54030677793087"><ele>301.0</ele><time>2026-03-28T10:10:51Z</time></trkpt><trkpt lat="44.30387678747013" lon="11.54045325753439"><ele>301.0</ele><time>2026-03-28T10:10:52Z</time></trkpt><trkpt lat="44.303984051552206" lon="11.540590274048759"><ele>299.5</ele><time>2026-03-28T10:10:53Z</time></trkpt><trkpt lat="44.30409991196483" lon="11.540712173719152"><ele>298.0</ele><time>2026-03-28T10:10:54Z</time></trkpt><trkpt lat="44.3042230454569" lon="11.540818643187535"><ele>296.5</ele><time>2026-03-28T10:10:55Z</time></trkpt><trkpt lat="44.304350195769025" lon="11.540919331232784"><ele>295.0</ele><time>2026-03-28T10:10:56Z</time></trkpt><trkpt lat="44.304475437640264" lon="11.54101636789585"><ele>295.0</ele><time>2026-03-28T10:10:57Z</time></trkpt><trkpt lat="44.304600307794324" lon="11.541108001575122"><ele>295.0</ele><time>2026-03-28T10:10:58Z</time></trkpt><trkpt lat="44.30471367841436" lon="11.54119338831636"><ele>295.0</ele><time>2026-03-28T10:10:59Z</time></trkpt><trkpt lat="44.30481730652346" lon="11.541285537273774"><ele>295.0</ele><time>2026-03-28T10:11:00Z</time></trkpt><trkpt lat="44.30490400179766" lon="11.541387082537758"><ele>293.8</ele><time>2026-03-28T10:11:01Z</time></trkpt><trkpt lat="44.3049669695537" lon="11.541502216911974"><ele>292.6</ele><time>2026-03-28T10:11:02Z</time></trkpt><trkpt lat="44.30501167571657" lon="11.541639902880311"><ele>291.4</ele><time>2026-03-28T10:11:03Z</time></trkpt><trkpt lat="44.30504656695511" lon="11.541785101656691"><ele>290.2</ele><time>2026-03-28T10:11:04Z</time></trkpt><trkpt lat="44.30510100621121" lon="11.541919585527598"><ele>289.0</ele><time>2026-03-28T10:11:05Z</time></trkpt><trkpt lat="44.30517930785166" lon="11.54205564055955"><ele>289.0</ele><time>2026-03-28T10:11:06Z</time></trkpt><trkpt lat="44.30527310781597" lon="11.542131337852881"><ele>289.0</ele><time>2026-03-28T10:11:07Z</time></trkpt><trkpt lat="44.305384282705916" lon="11.542207631425486"><ele>289.0</ele><time>2026-03-28T10:11:08Z</time></trkpt><trkpt lat="44.305495204491315" lon="11.542293311919458"><ele>289.0</ele><time>2026-03-28T10:11:09Z</time></trkpt><trkpt lat="44.305612825003536" lon="11.542383097942373"><ele>285.0</ele><time>2026-03-28T10:11:10Z</time></trkpt><trkpt lat="44.305728551737886" lon="11.542475212816244"><ele>281.0</ele><time>2026-03-28T10:11:11Z</time></trkpt><trkpt lat="44.30584491508674" lon="11.54257477742916"><ele>277.0</ele><time>2026-03-28T10:11:12Z</time></trkpt><trkpt lat="44.30595483923376" lon="11.542685115539687"><ele>273.0</ele><time>2026-03-28T10:11:13Z</time></trkpt><trkpt lat="44.306056519490916" lon="11.542801022357727"><ele>273.25</ele><time>2026-03-28T10:11:14Z</time></trkpt><trkpt lat="44.30615351752323" lon="11.54292868324025"><ele>273.5</ele><time>2026-03-28T10:11:15Z</time></trkpt><trkpt lat="44.3062452064369" lon="11.543069706620376"><ele>273.75</ele><time>2026-03-28T10:11:16Z</time></trkpt><trkpt lat="44.30632694887268" lon="11.543224512792778"><ele>274.0</ele><time>2026-03-28T10:11:17Z</time></trkpt><trkpt lat="44.30640664115749" lon="11.543386654063452"><ele>270.75</ele><time>2026-03-28T10:11:18Z</time></trkpt><trkpt lat="44.30648267666842" lon="11.54355091869865"><ele>267.5</ele><time>2026-03-28T10:11:19Z</time></trkpt><trkpt lat="44.30655890653004" lon="11.54371564797706"><ele>264.25</ele><time>2026-03-28T10:11:20Z</time></trkpt><trkpt lat="44.30662935897861" lon="11.543869844987091"><ele>261.0</ele><time>2026-03-28T10:11:21Z</time></trkpt><trkpt lat="44.306692613446515" lon="11.54400979591894"><ele>261.0</ele><time>2026-03-28T10:11:22Z</time></trkpt><trkpt lat="44.306749650856716" lon="11.544142398906732"><ele>261.0</ele><time>2026-03-28T10:11:23Z</time></trkpt><trkpt lat="44.30680119873137" lon="11.544264427978042"><ele>261.0</ele><time>2026-03-28T10:11:24Z</time></trkpt><trkpt lat="44.306835481214854" lon="11.54437380704062"><ele>261.0</ele><time>2026-03-28T10:11:25Z</time></trkpt><trkpt lat="44.30683820133972" lon="11.544485704839015"><ele>261.0</ele><time>2026-03-28T10:11:26Z</time></trkpt><trkpt lat="44.306805174187815" lon="11.544580822206216"><ele>261.0</ele><time>2026-03-28T10:11:27Z</time></trkpt><trkpt lat="44.306756266515876" lon="11.544642976486468"><ele>261.0</ele><time>2026-03-28T10:11:28Z</time></trkpt><trkpt lat="44.306693045379276" lon="11.544668078845847"><ele>261.0</ele><time>2026-03-28T10:11:29Z</time></trkpt><trkpt lat="44.30662703577088" lon="11.54466371482728"><ele>261.0</ele><time>2026-03-28T10:11:30Z</time></trkpt><trkpt lat="44.30655616685192" lon="11.544620323155074"><ele>261.0</ele><time>2026-03-28T10:11:31Z</time></trkpt><trkpt lat="44.3064899537329" lon="11.544542671197732"><ele>261.0</ele><time>2026-03-28T10:11:32Z</time></trkpt><trkpt lat="44.30641792434601" lon="11.544453757427997"><ele>260.2</ele><time>2026-03-28T10:11:33Z</time></trkpt><trkpt lat="44.30633866808413" lon="11.544360497027165"><ele>259.40000000000003</ele><time>2026-03-28T10:11:34Z</time></trkpt><trkpt lat="44.30624732314981" lon="11.544279005573122"><ele>258.6</ele><time>2026-03-28T10:11:35Z</time></trkpt><trkpt lat="44.306139180825596" lon="11.544240815613621"><ele>257.8</ele><time>2026-03-28T10:11:36Z</time></trkpt><trkpt lat="44.306021284507096" lon="11.54424223461516"><ele>257.0</ele><time>2026-03-28T10:11:37Z</time></trkpt><trkpt lat="44.30590698975533" lon="11.54426814948348"><ele>257.0</ele><time>2026-03-28T10:11:38Z</time></trkpt><trkpt lat="44.305795381433036" lon="11.54430859438789"><ele>257.0</ele><time>2026-03-28T10:11:39Z</time></trkpt><trkpt lat="44.305678081949615" lon="11.544332493216423"><ele>257.0</ele><time>2026-03-28T10:11:40Z</time></trkpt><trkpt lat="44.305557231295296" lon="11.54433830519005"><ele>257.0</ele><time>2026-03-28T10:11:41Z</time></trkpt><trkpt lat="44.305436145358534" lon="11.544315924040603"><ele>255.5</ele><time>2026-03-28T10:11:42Z</time></trkpt><trkpt lat="44.30531862828894" lon="11.544268806570413"><ele>254.0</ele><time>2026-03-28T10:11:43Z</time></trkpt><trkpt lat="44.30521182873605" lon="11.544204148603862"><ele>252.5</ele><time>2026-03-28T10:11:44Z</time></trkpt><trkpt lat="44.305110133293205" lon="11.544154039720098"><ele>251.0</ele><time>2026-03-28T10:11:45Z</time></trkpt><trkpt lat="44.305003096183654" lon="11.54412568931835"><ele>251.0</ele><time>2026-03-28T10:11:46Z</time></trkpt><trkpt lat="44.30489165892615" lon="11.544126737267844"><ele>251.0</ele><time>2026-03-28T10:11:47Z</time></trkpt><trkpt lat="44.30478145117585" lon="11.544161787009696"><ele>251.0</ele><time>2026-03-28T10:11:48Z</time></trkpt><trkpt lat="44.30467372354085" lon="11.544228701790392"><ele>251.0</ele><time>2026-03-28T10:11:49Z</time></trkpt><trkpt lat="44.30457204405952" lon="11.54431970695195"><ele>250.75</ele><time>2026-03-28T10:11:50Z</time></trkpt><trkpt lat="44.3044739871988" lon="11.544417801040789"><ele>250.5</ele><time>2026-03-28T10:11:51Z</time></trkpt><trkpt lat="44.30437403527037" lon="11.544511018337618"><ele>250.25</ele><time>2026-03-28T10:11:52Z</time></trkpt><trkpt lat="44.30427591781721" lon="11.544607926683774"><ele>250.0</ele><time>2026-03-28T10:11:53Z</time></trkpt><trkpt lat="44.30418495694331" lon="11.54468819664271"><ele>247.49999999999997</ele><time>2026-03-28T10:11:54Z</time></trkpt><trkpt lat="44.304102748939144" lon="11.544757715911246"><ele>245.0</ele><time>2026-03-28T10:11:55Z</time></trkpt><trkpt lat="44.30403635053135" lon="11.544825071343084"><ele>242.5</ele><time>2026-03-28T10:11:56Z</time></trkpt><trkpt lat="44.303993017181" lon="11.544902114398829"><ele>240.0</ele><time>2026-03-28T10:11:57Z</time></trkpt><trkpt lat="44.303985677044686" lon="11.544995160626614"><ele>237.49999999999997</ele><time>2026-03-28T10:11:58Z</time></trkpt><trkpt lat="44.30399556140539" lon="11.545090516868449"><ele>235.0</ele><time>2026-03-28T10:11:59Z</time></trkpt><trkpt lat="44.30403331436329" lon="11.545174041861264"><ele>234.99999999999997</ele><time>2026-03-28T10:12:00Z</time></trkpt><trkpt lat="44.30409290041628" lon="11.545227792057391"><ele>235.0</ele><time>2026-03-28T10:12:01Z</time></trkpt><trkpt lat="44.30416410242201" lon="11.545250384777127"><ele>235.0</ele><time>2026-03-28T10:12:02Z</time></trkpt><trkpt lat="44.30424407213258" lon="11.545243744880194"><ele>235.0</ele><time>2026-03-28T10:12:03Z</time></trkpt><trkpt lat="44.30433384238952" lon="11.545223101686807"><ele>234.99999999999997</ele><time>2026-03-28T10:12:04Z</time></trkpt><trkpt lat="44.304428359083836" lon="11.545204835825668"><ele>235.0</ele><time>2026-03-28T10:12:05Z</time></trkpt><trkpt lat="44.3045257414244" lon="11.545190458308186"><ele>235.0</ele><time>2026-03-28T10:12:06Z</time></trkpt><trkpt lat="44.30462223113781" lon="11.545178289489787"><ele>235.0</ele><time>2026-03-28T10:12:07Z</time></trkpt><trkpt lat="44.304720060641245" lon="11.54516639353912"><ele>235.0</ele><time>2026-03-28T10:12:08Z</time></trkpt><trkpt lat="44.304821213690744" lon="11.545157041935312"><ele>235.0</ele><time>2026-03-28T10:12:09Z</time></trkpt><trkpt lat="44.30492695412106" lon="11.545163097217422"><ele>235.0</ele><time>2026-03-28T10:12:10Z</time></trkpt><trkpt lat="44.30504055985016" lon="11.545180019224725"><ele>234.25</ele><time>2026-03-28T10:12:11Z</time></trkpt><trkpt lat="44.30515543882318" lon="11.545204478255073"><ele>233.5</ele><time>2026-03-28T10:12:12Z</time></trkpt><trkpt lat="44.3052677421265" lon="11.545236665803081"><ele>232.75</ele><time>2026-03-28T10:12:13Z</time></trkpt><trkpt lat="44.30538203999713" lon="11.545274970807121"><ele>232.0</ele><time>2026-03-28T10:12:14Z</time></trkpt><trkpt lat="44.30549639069" lon="11.54532672286121"><ele>230.0</ele><time>2026-03-28T10:12:15Z</time></trkpt><trkpt lat="44.305610971149385" lon="11.545388784422242"><ele>228.0</ele><time>2026-03-28T10:12:16Z</time></trkpt><trkpt lat="44.30572139660479" lon="11.545461366405775"><ele>226.0</ele><time>2026-03-28T10:12:17Z</time></trkpt><trkpt lat="44.30582854487483" lon="11.545545753975022"><ele>224.0</ele><time>2026-03-28T10:12:18Z</time></trkpt><trkpt lat="44.305933549051694" lon="11.545635132519813"><ele>224.0</ele><time>2026-03-28T10:12:19Z</time></trkpt><trkpt lat="44.30604207326044" lon="11.545726049341518"><ele>224.0</ele><time>2026-03-28T10:12:20Z</time></trkpt><trkpt lat="44.306148681841094" lon="11.545825228344977"><ele>224.0</ele><time>2026-03-28T10:12:21Z</time></trkpt><trkpt lat="44.30625386572828" lon="11.545924134988772"><ele>224.0</ele><time>2026-03-28T10:12:22Z</time></trkpt><trkpt lat="44.30636227589225" lon="11.546017346447927"><ele>224.75</ele><time>2026-03-28T10:12:23Z</time></trkpt><trkpt lat="44.30647017461927" lon="11.546114861805936"><ele>225.5</ele><time>2026-03-28T10:12:24Z</time></trkpt><trkpt lat="44.306576388627626" lon="11.546214561000532"><ele>226.25</ele><time>2026-03-28T10:12:25Z</time></trkpt><trkpt lat="44.30668042851921" lon="11.546308118569158"><ele>227.0</ele><time>2026-03-28T10:12:26Z</time></trkpt><trkpt lat="44.3067851827974" lon="11.54638841417757"><ele>223.0</ele><time>2026-03-28T10:12:27Z</time></trkpt><trkpt lat="44.30689443971651" lon="11.54645325154104"><ele>219.0</ele><time>2026-03-28T10:12:28Z</time></trkpt><trkpt lat="44.3070091743361" lon="11.546503434826022"><ele>215.0</ele><time>2026-03-28T10:12:29Z</time></trkpt><trkpt lat="44.30713341085157" lon="11.546542164954998"><ele>211.0</ele><time>2026-03-28T10:12:30Z</time></trkpt><trkpt lat="44.30726378553866" lon="11.546565494481827"><ele>211.0</ele><time>2026-03-28T10:12:31Z</time></trkpt><trkpt lat="44.30739535686982" lon="11.546582088316793"><ele>211.0</ele><time>2026-03-28T10:12:32Z</time></trkpt><trkpt lat="44.30752700848887" lon="11.546600073536677"><ele>211.0</ele><time>2026-03-28T10:12:33Z</time></trkpt><trkpt lat="44.30765637965643" lon="11.546619027938467"><ele>211.0</ele><time>2026-03-28T10:12:34Z</time></trkpt><trkpt lat="44.3077786434813" lon="11.546628395027053"><ele>211.0</ele><time>2026-03-28T10:12:35Z</time></trkpt><trkpt lat="44.30789612560478" lon="11.546629123379665"><ele>211.0</ele><time>2026-03-28T10:12:36Z</time></trkpt><trkpt lat="44.30800816520825" lon="11.546640704352786"><ele>211.0</ele><time>2026-03-28T10:12:37Z</time></trkpt><trkpt lat="44.30811091579726" lon="11.546674610150019"><ele>211.0</ele><time>2026-03-28T10:12:38Z</time></trkpt><trkpt lat="44.30820453132031" lon="11.546732992438638"><ele>211.0</ele><time>2026-03-28T10:12:39Z</time></trkpt><trkpt lat="44.30828932377118" lon="11.546820892027474"><ele>210.0</ele><time>2026-03-28T10:12:40Z</time></trkpt><trkpt lat="44.30836115037918" lon="11.546930327275517"><ele>209.0</ele><time>2026-03-28T10:12:41Z</time></trkpt><trkpt lat="44.30840864826327" lon="11.547063979537361"><ele>208.0</ele><time>2026-03-28T10:12:42Z</time></trkpt><trkpt lat="44.30842590134632" lon="11.547212125388713"><ele>207.0</ele><time>2026-03-28T10:12:43Z</time></trkpt><trkpt lat="44.308415679519854" lon="11.547367589650367"><ele>206.0</ele><time>2026-03-28T10:12:44Z</time></trkpt><trkpt lat="44.30838879592041" lon="11.547522496552075"><ele>206.0</ele><time>2026-03-28T10:12:45Z</time></trkpt><trkpt lat="44.30835445906447" lon="11.54768021848168"><ele>206.0</ele><time>2026-03-28T10:12:46Z</time></trkpt><trkpt lat="44.30832795202671" lon="11.54784486246264"><ele>206.0</ele><time>2026-03-28T10:12:47Z</time></trkpt><trkpt lat="44.3083236922808" lon="11.548009272247516"><ele>206.0</ele><time>2026-03-28T10:12:48Z</time></trkpt><trkpt lat="44.30834323228173" lon="11.548173787760504"><ele>206.5</ele><time>2026-03-28T10:12:49Z</time></trkpt><trkpt lat="44.30839200495601" lon="11.548328392276272"><ele>207.0</ele><time>2026-03-28T10:12:50Z</time></trkpt><trkpt lat="44.30845884662368" lon="11.548479839669529"><ele>207.5</ele><time>2026-03-28T10:12:51Z</time></trkpt><trkpt lat="44.30854732479964" lon="11.548616164435812"><ele>208.0</ele><time>2026-03-28T10:12:52Z</time></trkpt><trkpt lat="44.3086522814248" lon="11.54874945315658"><ele>210.66666666666666</ele><time>2026-03-28T10:12:53Z</time></trkpt><trkpt lat="44.308767194286425" lon="11.5488822653902"><ele>213.33333333333331</ele><time>2026-03-28T10:12:54Z</time></trkpt><trkpt lat="44.30888911753517" lon="11.549030290142698"><ele>216.0</ele><time>2026-03-28T10:12:55Z</time></trkpt><trkpt lat="44.3090148020777" lon="11.54918410184632"><ele>210.66666666666669</ele><time>2026-03-28T10:12:56Z</time></trkpt><trkpt lat="44.30913921126039" lon="11.549338980852884"><ele>205.33333333333334</ele><time>2026-03-28T10:12:57Z</time></trkpt><trkpt lat="44.30925632913957" lon="11.549488810596397"><ele>200.0</ele><time>2026-03-28T10:12:58Z</time></trkpt><trkpt lat="44.30937484326649" lon="11.549639244441552"><ele>200.0</ele><time>2026-03-28T10:12:59Z</time></trkpt><trkpt lat="44.30949926176268" lon="11.549793122297856"><ele>200.0</ele><time>2026-03-28T10:13:00Z</time></trkpt><trkpt lat="44.30962242161544" lon="11.549946280150078"><ele>200.0</ele><time>2026-03-28T10:13:01Z</time></trkpt><trkpt lat="44.30974376381421" lon="11.550097690428322"><ele>199.66666666666669</ele><time>2026-03-28T10:13:02Z</time></trkpt><trkpt lat="44.30986322555516" lon="11.550248218837906"><ele>199.33333333333331</ele><time>2026-03-28T10:13:03Z</time></trkpt><trkpt lat="44.30997993816414" lon="11.550402038251736"><ele>199.0</ele><time>2026-03-28T10:13:04Z</time></trkpt><trkpt lat="44.310094762074506" lon="11.550556927461821"><ele>199.66666666666666</ele><time>2026-03-28T10:13:05Z</time></trkpt><trkpt lat="44.31020690171588" lon="11.55072326864013"><ele>200.33333333333331</ele><time>2026-03-28T10:13:06Z</time></trkpt><trkpt lat="44.31030184435008" lon="11.55090185236197"><ele>201.0</ele><time>2026-03-28T10:13:07Z</time></trkpt><trkpt lat="44.31039573876167" lon="11.551086874576203"><ele>202.33333333333331</ele><time>2026-03-28T10:13:08Z</time></trkpt><trkpt lat="44.310489663463244" lon="11.551274616373625"><ele>203.66666666666666</ele><time>2026-03-28T10:13:09Z</time></trkpt><trkpt lat="44.31057859618683" lon="11.551465794868054"><ele>205.0</ele><time>2026-03-28T10:13:10Z</time></trkpt><trkpt lat="44.31067138008233" lon="11.551651605300735"><ele>203.5</ele><time>2026-03-28T10:13:11Z</time></trkpt><trkpt lat="44.310759396087384" lon="11.551833988505164"><ele>202.0</ele><time>2026-03-28T10:13:12Z</time></trkpt><trkpt lat="44.310838559307015" lon="11.552004445438614"><ele>200.5</ele><time>2026-03-28T10:13:13Z</time></trkpt><trkpt lat="44.310904755879704" lon="11.552171663540683"><ele>199.0</ele><time>2026-03-28T10:13:14Z</time></trkpt><trkpt lat="44.31095458732867" lon="11.552348040080155"><ele>199.0</ele><time>2026-03-28T10:13:15Z</time></trkpt><trkpt lat="44.31098575932532" lon="11.5525362393876"><ele>199.0</ele><time>2026-03-28T10:13:16Z</time></trkpt><trkpt lat="44.311001043689835" lon="11.552724935706204"><ele>199.0</ele><time>2026-03-28T10:13:17Z</time></trkpt><trkpt lat="44.31101436171081" lon="11.552912432111091"><ele>199.0</ele><time>2026-03-28T10:13:18Z</time></trkpt><trkpt lat="44.31103522278089" lon="11.553099977324306"><ele>199.25</ele><time>2026-03-28T10:13:19Z</time></trkpt><trkpt lat="44.31107329761332" lon="11.553276946893648"><ele>199.5</ele><time>2026-03-28T10:13:20Z</time></trkpt><trkpt lat="44.31112713842378" lon="11.553443572138347"><ele>199.75</ele><time>2026-03-28T10:13:21Z</time></trkpt><trkpt lat="44.311195454793186" lon="11.553597957127334"><ele>200.0</ele><time>2026-03-28T10:13:22Z</time></trkpt><trkpt lat="44.31128031156818" lon="11.553734995711782"><ele>198.25</ele><time>2026-03-28T10:13:23Z</time></trkpt><trkpt lat="44.31137881728465" lon="11.5538554704353"><ele>196.5</ele><time>2026-03-28T10:13:24Z</time></trkpt><trkpt lat="44.311487038306915" lon="11.553955316274566"><ele>194.75</ele><time>2026-03-28T10:13:25Z</time></trkpt><trkpt lat="44.31160655281647" lon="11.554037750901331"><ele>193.0</ele><time>2026-03-28T10:13:26Z</time></trkpt><trkpt lat="44.31173354836378" lon="11.554093644842842"><ele>193.0</ele><time>2026-03-28T10:13:27Z</time></trkpt><trkpt lat="44.31186587363011" lon="11.55412065435881"><ele>193.0</ele><time>2026-03-28T10:13:28Z</time></trkpt><trkpt lat="44.31200152817681" lon="11.554119015358287"><ele>193.0</ele><time>2026-03-28T10:13:29Z</time></trkpt><trkpt lat="44.31214380689937" lon="11.554097805943085"><ele>193.0</ele><time>2026-03-28T10:13:30Z</time></trkpt><trkpt lat="44.31227979072494" lon="11.554083741189254"><ele>192.5</ele><time>2026-03-28T10:13:31Z</time></trkpt><trkpt lat="44.312420078099414" lon="11.554078576293"><ele>192.0</ele><time>2026-03-28T10:13:32Z</time></trkpt><trkpt lat="44.31256437910136" lon="11.554095027129755"><ele>191.5</ele><time>2026-03-28T10:13:33Z</time></trkpt><trkpt lat="44.312705274637125" lon="11.554135090473661"><ele>191.0</ele><time>2026-03-28T10:13:34Z</time></trkpt><trkpt lat="44.31284473375136" lon="11.554199502960635"><ele>191.0</ele><time>2026-03-28T10:13:35Z</time></trkpt><trkpt lat="44.31298114152324" lon="11.55428382974172"><ele>191.0</ele><time>2026-03-28T10:13:36Z</time></trkpt><trkpt lat="44.31310778405321" lon="11.55439088871104"><ele>191.0</ele><time>2026-03-28T10:13:37Z</time></trkpt><trkpt lat="44.31322665999634" lon="11.55451842337678"><ele>191.0</ele><time>2026-03-28T10:13:38Z</time></trkpt><trkpt lat="44.31333474103946" lon="11.554661763273565"><ele>189.66666666666666</ele><time>2026-03-28T10:13:39Z</time></trkpt><trkpt lat="44.313436919232984" lon="11.554820257351418"><ele>188.33333333333334</ele><time>2026-03-28T10:13:40Z</time></trkpt><trkpt lat="44.31352874093424" lon="11.554994484553113"><ele>187.0</ele><time>2026-03-28T10:13:41Z</time></trkpt><trkpt lat="44.31362272028534" lon="11.555178935863623"><ele>187.0</ele><time>2026-03-28T10:13:42Z</time></trkpt><trkpt lat="44.31371776574569" lon="11.555369664895517"><ele>187.0</ele><time>2026-03-28T10:13:43Z</time></trkpt><trkpt lat="44.313816232355094" lon="11.555561086351481"><ele>187.0</ele><time>2026-03-28T10:13:44Z</time></trkpt><trkpt lat="44.313914349377754" lon="11.555755882603883"><ele>187.0</ele><time>2026-03-28T10:13:45Z</time></trkpt><trkpt lat="44.31401310326859" lon="11.55595002392276"><ele>187.0</ele><time>2026-03-28T10:13:46Z</time></trkpt><trkpt lat="44.31411091764883" lon="11.556144695939269"><ele>187.0</ele><time>2026-03-28T10:13:47Z</time></trkpt><trkpt lat="44.3142091517336" lon="11.556344158726015"><ele>187.0</ele><time>2026-03-28T10:13:48Z</time></trkpt><trkpt lat="44.31430919339646" lon="11.556542122931685"><ele>187.0</ele><time>2026-03-28T10:13:49Z</time></trkpt><trkpt lat="44.31441183407366" lon="11.556737928702471"><ele>187.0</ele><time>2026-03-28T10:13:50Z</time></trkpt><trkpt lat="44.31451529236156" lon="11.556935906280502"><ele>186.0</ele><time>2026-03-28T10:13:51Z</time></trkpt><trkpt lat="44.31461889321536" lon="11.557132960914112"><ele>185.0</ele><time>2026-03-28T10:13:52Z</time></trkpt><trkpt lat="44.314716883144506" lon="11.557327721089221"><ele>184.0</ele><time>2026-03-28T10:13:53Z</time></trkpt><trkpt lat="44.314816551800654" lon="11.557524726384283"><ele>184.0</ele><time>2026-03-28T10:13:54Z</time></trkpt><trkpt lat="44.314914490787075" lon="11.557718876227666"><ele>184.0</ele><time>2026-03-28T10:13:55Z</time></trkpt><trkpt lat="44.31501381766968" lon="11.557913821589539"><ele>184.0</ele><time>2026-03-28T10:13:56Z</time></trkpt><trkpt lat="44.31511104530491" lon="11.558102304123844"><ele>183.66666666666669</ele><time>2026-03-28T10:13:57Z</time></trkpt><trkpt lat="44.31520444865466" lon="11.558290454553418"><ele>183.33333333333334</ele><time>2026-03-28T10:13:58Z</time></trkpt><trkpt lat="44.31529162561964" lon="11.558477823863068"><ele>183.0</ele><time>2026-03-28T10:13:59Z</time></trkpt><trkpt lat="44.3153697088187" lon="11.55866927805573"><ele>184.33333333333334</ele><time>2026-03-28T10:14:00Z</time></trkpt><trkpt lat="44.31543716894941" lon="11.55886525363989"><ele>185.66666666666669</ele><time>2026-03-28T10:14:01Z</time></trkpt><trkpt lat="44.31548618979191" lon="11.559066792920364"><ele>187.0</ele><time>2026-03-28T10:14:02Z</time></trkpt><trkpt lat="44.3155275165346" lon="11.559279878164753"><ele>187.0</ele><time>2026-03-28T10:14:03Z</time></trkpt><trkpt lat="44.31555878996511" lon="11.559487647241985"><ele>187.0</ele><time>2026-03-28T10:14:04Z</time></trkpt><trkpt lat="44.315589764973154" lon="11.559696930205224"><ele>187.0</ele><time>2026-03-28T10:14:05Z</time></trkpt><trkpt lat="44.315621098965515" lon="11.55990567037622"><ele>184.0</ele><time>2026-03-28T10:14:06Z</time></trkpt><trkpt lat="44.31565254628329" lon="11.560113671897202"><ele>181.0</ele><time>2026-03-28T10:14:07Z</time></trkpt><trkpt lat="44.31568194446682" lon="11.560320781319373"><ele>178.0</ele><time>2026-03-28T10:14:08Z</time></trkpt><trkpt lat="44.31571057220126" lon="11.560526413533118"><ele>178.0</ele><time>2026-03-28T10:14:09Z</time></trkpt><trkpt lat="44.3157427215652" lon="11.560733641362122"><ele>178.0</ele><time>2026-03-28T10:14:10Z</time></trkpt><trkpt lat="44.315772929474285" lon="11.560933783852475"><ele>178.0</ele><time>2026-03-28T10:14:11Z</time></trkpt><trkpt lat="44.315794973040596" lon="11.561137136001348"><ele>178.0</ele><time>2026-03-28T10:14:12Z</time></trkpt><trkpt lat="44.31580489565841" lon="11.561341039229529"><ele>177.0</ele><time>2026-03-28T10:14:13Z</time></trkpt><trkpt lat="44.315801690098354" lon="11.56154531785563"><ele>176.0</ele><time>2026-03-28T10:14:14Z</time></trkpt><trkpt lat="44.315783297318866" lon="11.561756507187292"><ele>175.0</ele><time>2026-03-28T10:14:15Z</time></trkpt><trkpt lat="44.31575660085714" lon="11.561968050840926"><ele>175.0</ele><time>2026-03-28T10:14:16Z</time></trkpt><trkpt lat="44.31572645599663" lon="11.562185370966564"><ele>175.0</ele><time>2026-03-28T10:14:17Z</time></trkpt><trkpt lat="44.315692046533144" lon="11.562399894162889"><ele>175.0</ele><time>2026-03-28T10:14:18Z</time></trkpt><trkpt lat="44.315655917779715" lon="11.56262341512449"><ele>175.0</ele><time>2026-03-28T10:14:19Z</time></trkpt><trkpt lat="44.31561801310184" lon="11.562843685986463"><ele>175.0</ele><time>2026-03-28T10:14:20Z</time></trkpt><trkpt lat="44.315581927339004" lon="11.563064230323064"><ele>175.0</ele><time>2026-03-28T10:14:21Z</time></trkpt><trkpt lat="44.31554183579979" lon="11.56328719222531"><ele>176.66666666666669</ele><time>2026-03-28T10:14:22Z</time></trkpt><trkpt lat="44.3155060968991" lon="11.56351000532142"><ele>178.33333333333334</ele><time>2026-03-28T10:14:23Z</time></trkpt><trkpt lat="44.315467344122276" lon="11.563731277041597"><ele>180.0</ele><time>2026-03-28T10:14:24Z</time></trkpt><trkpt lat="44.315428080828696" lon="11.563947864631835"><ele>180.0</ele><time>2026-03-28T10:14:25Z</time></trkpt><trkpt lat="44.31539047640344" lon="11.56416189211414"><ele>180.0</ele><time>2026-03-28T10:14:26Z</time></trkpt><trkpt lat="44.315353665826684" lon="11.564372949482708"><ele>180.0</ele><time>2026-03-28T10:14:27Z</time></trkpt><trkpt lat="44.315317962512324" lon="11.564583639640452"><ele>178.33333333333334</ele><time>2026-03-28T10:14:28Z</time></trkpt><trkpt lat="44.31528271909762" lon="11.564796642051698"><ele>176.66666666666669</ele><time>2026-03-28T10:14:29Z</time></trkpt><trkpt lat="44.315242523907585" lon="11.565004402934154"><ele>175.0</ele><time>2026-03-28T10:14:30Z</time></trkpt><trkpt lat="44.315197982420024" lon="11.565209837875198"><ele>174.33333333333334</ele><time>2026-03-28T10:14:31Z</time></trkpt><trkpt lat="44.31514741521493" lon="11.565415158566065"><ele>173.66666666666666</ele><time>2026-03-28T10:14:32Z</time></trkpt><trkpt lat="44.315096178021705" lon="11.565621824232819"><ele>173.0</ele><time>2026-03-28T10:14:33Z</time></trkpt><trkpt lat="44.31504063535831" lon="11.565825240872151"><ele>173.0</ele><time>2026-03-28T10:14:34Z</time></trkpt><trkpt lat="44.31498525789798" lon="11.566028496309318"><ele>173.0</ele><time>2026-03-28T10:14:35Z</time></trkpt><trkpt lat="44.31493372207565" lon="11.5662275856949"><ele>173.0</ele><time>2026-03-28T10:14:36Z</time></trkpt><trkpt lat="44.31488728096247" lon="11.566423470305208"><ele>172.75</ele><time>2026-03-28T10:14:37Z</time></trkpt><trkpt lat="44.314847804709935" lon="11.56661087916283"><ele>172.5</ele><time>2026-03-28T10:14:38Z</time></trkpt><trkpt lat="44.31482614115074" lon="11.566797990129318"><ele>172.25</ele><time>2026-03-28T10:14:39Z</time></trkpt><trkpt lat="44.31482445582214" lon="11.566984335294597"><ele>172.0</ele><time>2026-03-28T10:14:40Z</time></trkpt><trkpt lat="44.314857282353415" lon="11.567153304444371"><ele>171.25</ele><time>2026-03-28T10:14:41Z</time></trkpt><trkpt lat="44.3148989147415" lon="11.567340438908568"><ele>170.5</ele><time>2026-03-28T10:14:42Z</time></trkpt><trkpt lat="44.314964891399235" lon="11.567517839388334"><ele>169.75</ele><time>2026-03-28T10:14:43Z</time></trkpt><trkpt lat="44.31505162438136" lon="11.567677745098155"><ele>169.0</ele><time>2026-03-28T10:14:44Z</time></trkpt><trkpt lat="44.31513734634664" lon="11.567848560075582"><ele>169.33333333333334</ele><time>2026-03-28T10:14:45Z</time></trkpt><trkpt lat="44.31522029069294" lon="11.56802785865635"><ele>169.66666666666666</ele><time>2026-03-28T10:14:46Z</time></trkpt><trkpt lat="44.315306646376555" lon="11.56821340590834"><ele>170.0</ele><time>2026-03-28T10:14:47Z</time></trkpt><trkpt lat="44.315395212584676" lon="11.5684048004012"><ele>170.0</ele><time>2026-03-28T10:14:48Z</time></trkpt><trkpt lat="44.31548659649275" lon="11.568596181607967"><ele>170.0</ele><time>2026-03-28T10:14:49Z</time></trkpt><trkpt lat="44.315579024466" lon="11.56879051631116"><ele>170.0</ele><time>2026-03-28T10:14:50Z</time></trkpt><trkpt lat="44.31566904546279" lon="11.568980547281845"><ele>169.33333333333331</ele><time>2026-03-28T10:14:51Z</time></trkpt><trkpt lat="44.31575976309492" lon="11.56916268901839"><ele>168.66666666666666</ele><time>2026-03-28T10:14:52Z</time></trkpt><trkpt lat="44.3158451248179" lon="11.569341802439205"><ele>168.0</ele><time>2026-03-28T10:14:53Z</time></trkpt><trkpt lat="44.315927417296614" lon="11.569516851065812"><ele>169.33333333333334</ele><time>2026-03-28T10:14:54Z</time></trkpt><trkpt lat="44.3160016543967" lon="11.56969829379893"><ele>170.66666666666669</ele><time>2026-03-28T10:14:55Z</time></trkpt><trkpt lat="44.31606753126776" lon="11.569890604544545"><ele>172.0</ele><time>2026-03-28T10:14:56Z</time></trkpt><trkpt lat="44.316126073407105" lon="11.570085862703944"><ele>172.0</ele><time>2026-03-28T10:14:57Z</time></trkpt><trkpt lat="44.31617954948965" lon="11.57028196029011"><ele>172.0</ele><time>2026-03-28T10:14:58Z</time></trkpt><trkpt lat="44.31623262124795" lon="11.570472290020703"><ele>172.0</ele><time>2026-03-28T10:14:59Z</time></trkpt><trkpt lat="44.31629023176427" lon="11.570652023155333"><ele>172.0</ele><time>2026-03-28T10:15:00Z</time></trkpt><trkpt lat="44.3163508722251" lon="11.570823991700916"><ele>172.25</ele><time>2026-03-28T10:15:01Z</time></trkpt><trkpt lat="44.3164135040405" lon="11.570989376204489"><ele>172.5</ele><time>2026-03-28T10:15:02Z</time></trkpt><trkpt lat="44.316477419741354" lon="11.571149557876359"><ele>172.75</ele><time>2026-03-28T10:15:03Z</time></trkpt><trkpt lat="44.31654296839661" lon="11.571307907946965"><ele>173.0</ele><time>2026-03-28T10:15:04Z</time></trkpt><trkpt lat="44.31661009500184" lon="11.57145088697605"><ele>173.0</ele><time>2026-03-28T10:15:05Z</time></trkpt><trkpt lat="44.31668576053197" lon="11.571579310709547"><ele>173.0</ele><time>2026-03-28T10:15:06Z</time></trkpt><trkpt lat="44.316782649473744" lon="11.57168749259472"><ele>173.0</ele><time>2026-03-28T10:15:07Z</time></trkpt><trkpt lat="44.31688877499693" lon="11.571767193407744"><ele>173.0</ele><time>2026-03-28T10:15:08Z</time></trkpt><trkpt lat="44.316998456259604" lon="11.571839572854245"><ele>173.0</ele><time>2026-03-28T10:15:09Z</time></trkpt><trkpt lat="44.317101435321526" lon="11.571911347813842"><ele>173.0</ele><time>2026-03-28T10:15:10Z</time></trkpt><trkpt lat="44.31719094580987" lon="11.572004953336224"><ele>173.0</ele><time>2026-03-28T10:15:11Z</time></trkpt><trkpt lat="44.31725591698667" lon="11.572124535371882"><ele>173.0</ele><time>2026-03-28T10:15:12Z</time></trkpt><trkpt lat="44.31730386964632" lon="11.572253972936139"><ele>173.0</ele><time>2026-03-28T10:15:13Z</time></trkpt><trkpt lat="44.317318932122106" lon="11.572407118929496"><ele>171.5</ele><time>2026-03-28T10:15:14Z</time></trkpt><trkpt lat="44.3173127867888" lon="11.572569282586517"><ele>170.0</ele><time>2026-03-28T10:15:15Z</time></trkpt><trkpt lat="44.31731173701448" lon="11.572728859519723"><ele>168.5</ele><time>2026-03-28T10:15:16Z</time></trkpt><trkpt lat="44.317307049761716" lon="11.572894266058086"><ele>167.0</ele><time>2026-03-28T10:15:17Z</time></trkpt><trkpt lat="44.31731031114606" lon="11.573058710897573"><ele>166.75</ele><time>2026-03-28T10:15:18Z</time></trkpt><trkpt lat="44.31731234409002" lon="11.573230250594806"><ele>166.5</ele><time>2026-03-28T10:15:19Z</time></trkpt><trkpt lat="44.31733457611654" lon="11.57340190165204"><ele>166.25</ele><time>2026-03-28T10:15:20Z</time></trkpt><trkpt lat="44.31737343813818" lon="11.57356872344764"><ele>166.0</ele><time>2026-03-28T10:15:21Z</time></trkpt><trkpt lat="44.31743155657032" lon="11.57372603353157"><ele>166.75</ele><time>2026-03-28T10:15:22Z</time></trkpt><trkpt lat="44.31750531675052" lon="11.57387235839375"><ele>167.5</ele><time>2026-03-28T10:15:23Z</time></trkpt><trkpt lat="44.31758853866568" lon="11.574009445108336"><ele>168.25</ele><time>2026-03-28T10:15:24Z</time></trkpt><trkpt lat="44.31767268425838" lon="11.574148696718538"><ele>169.0</ele><time>2026-03-28T10:15:25Z</time></trkpt><trkpt lat="44.317756455791354" lon="11.574288628225366"><ele>169.0</ele><time>2026-03-28T10:15:26Z</time></trkpt><trkpt lat="44.3178351197108" lon="11.574429297730735"><ele>169.0</ele><time>2026-03-28T10:15:27Z</time></trkpt><trkpt lat="44.31791358078372" lon="11.57456598144316"><ele>169.0</ele><time>2026-03-28T10:15:28Z</time></trkpt><trkpt lat="44.31798916985845" lon="11.574702294197392"><ele>169.0</ele><time>2026-03-28T10:15:29Z</time></trkpt><trkpt lat="44.318060888818295" lon="11.574836809712824"><ele>168.25</ele><time>2026-03-28T10:15:30Z</time></trkpt><trkpt lat="44.31813937717589" lon="11.574970873755998"><ele>167.5</ele><time>2026-03-28T10:15:31Z</time></trkpt><trkpt lat="44.318214291745534" lon="11.575107685195432"><ele>166.75</ele><time>2026-03-28T10:15:32Z</time></trkpt><trkpt lat="44.31829526701494" lon="11.57524309709562"><ele>166.0</ele><time>2026-03-28T10:15:33Z</time></trkpt><trkpt lat="44.31837979103549" lon="11.575371646274151"><ele>165.5</ele><time>2026-03-28T10:15:34Z</time></trkpt><trkpt lat="44.31848319676286" lon="11.575477286439497"><ele>165.0</ele><time>2026-03-28T10:15:35Z</time></trkpt><trkpt lat="44.31859044146915" lon="11.575563294900695"><ele>164.5</ele><time>2026-03-28T10:15:36Z</time></trkpt><trkpt lat="44.31870802256305" lon="11.575630456181038"><ele>164.0</ele><time>2026-03-28T10:15:37Z</time></trkpt><trkpt lat="44.318829160545945" lon="11.575673920175706"><ele>163.25</ele><time>2026-03-28T10:15:38Z</time></trkpt><trkpt lat="44.31895572585827" lon="11.575702174569182"><ele>162.5</ele><time>2026-03-28T10:15:39Z</time></trkpt><trkpt lat="44.31908325339207" lon="11.575719864330283"><ele>161.75</ele><time>2026-03-28T10:15:40Z</time></trkpt><trkpt lat="44.319209913315134" lon="11.57573733699917"><ele>161.0</ele><time>2026-03-28T10:15:41Z</time></trkpt><trkpt lat="44.319336586615215" lon="11.575759922773884"><ele>161.0</ele><time>2026-03-28T10:15:42Z</time></trkpt><trkpt lat="44.31946267816985" lon="11.575800366123257"><ele>161.0</ele><time>2026-03-28T10:15:43Z</time></trkpt><trkpt lat="44.31958872052587" lon="11.575859329602133"><ele>161.0</ele><time>2026-03-28T10:15:44Z</time></trkpt><trkpt lat="44.31971647223813" lon="11.575936027582424"><ele>161.0</ele><time>2026-03-28T10:15:45Z</time></trkpt><trkpt lat="44.31984433545069" lon="11.57602192660788"><ele>161.0</ele><time>2026-03-28T10:15:46Z</time></trkpt><trkpt lat="44.31997442867279" lon="11.576107305456917"><ele>161.0</ele><time>2026-03-28T10:15:47Z</time></trkpt><trkpt lat="44.320108752477466" lon="11.576185205559355"><ele>161.0</ele><time>2026-03-28T10:15:48Z</time></trkpt><trkpt lat="44.32024609339182" lon="11.57625842770736"><ele>161.0</ele><time>2026-03-28T10:15:49Z</time></trkpt><trkpt lat="44.32038281264451" lon="11.576324197420872"><ele>160.5</ele><time>2026-03-28T10:15:50Z</time></trkpt><trkpt lat="44.32052327544817" lon="11.576386379209305"><ele>160.0</ele><time>2026-03-28T10:15:51Z</time></trkpt><trkpt lat="44.320664347623165" lon="11.57644695943081"><ele>159.5</ele><time>2026-03-28T10:15:52Z</time></trkpt><trkpt lat="44.32080576928092" lon="11.576510779466956"><ele>159.0</ele><time>2026-03-28T10:15:53Z</time></trkpt><trkpt lat="44.32094538675094" lon="11.576573233645378"><ele>159.25</ele><time>2026-03-28T10:15:54Z</time></trkpt><trkpt lat="44.32108601277239" lon="11.576640349129205"><ele>159.5</ele><time>2026-03-28T10:15:55Z</time></trkpt><trkpt lat="44.32122621531054" lon="11.576707613274511"><ele>159.75</ele><time>2026-03-28T10:15:56Z</time></trkpt><trkpt lat="44.32136341974371" lon="11.576775966034916"><ele>160.0</ele><time>2026-03-28T10:15:57Z</time></trkpt><trkpt lat="44.321508317320216" lon="11.576842833293252"><ele>160.0</ele><time>2026-03-28T10:15:58Z</time></trkpt><trkpt lat="44.321644140154824" lon="11.576905346948687"><ele>160.0</ele><time>2026-03-28T10:15:59Z</time></trkpt><trkpt lat="44.32177841638423" lon="11.576970395970351"><ele>160.0</ele><time>2026-03-28T10:16:00Z</time></trkpt><trkpt lat="44.32190795703645" lon="11.577039552109996"><ele>160.0</ele><time>2026-03-28T10:16:01Z</time></trkpt><trkpt lat="44.32203188812369" lon="11.57711816960854"><ele>159.25</ele><time>2026-03-28T10:16:02Z</time></trkpt><trkpt lat="44.322152325085014" lon="11.577211006102475"><ele>158.5</ele><time>2026-03-28T10:16:03Z</time></trkpt><trkpt lat="44.32226610764476" lon="11.577316245472677"><ele>157.75</ele><time>2026-03-28T10:16:04Z</time></trkpt><trkpt lat="44.322368943159496" lon="11.577426077939817"><ele>157.0</ele><time>2026-03-28T10:16:05Z</time></trkpt><trkpt lat="44.322467475366814" lon="11.577532733918511"><ele>157.0</ele><time>2026-03-28T10:16:06Z</time></trkpt><trkpt lat="44.32256950842645" lon="11.577619810682156"><ele>157.0</ele><time>2026-03-28T10:16:07Z</time></trkpt><trkpt lat="44.32268042901012" lon="11.577680830050967"><ele>157.0</ele><time>2026-03-28T10:16:08Z</time></trkpt><trkpt lat="44.3227934464059" lon="11.577699337273513"><ele>157.0</ele><time>2026-03-28T10:16:09Z</time></trkpt><trkpt lat="44.322910649436785" lon="11.57768835700322"><ele>157.0</ele><time>2026-03-28T10:16:10Z</time></trkpt><trkpt lat="44.32303084847467" lon="11.577650307264785"><ele>157.0</ele><time>2026-03-28T10:16:11Z</time></trkpt><trkpt lat="44.32314803740447" lon="11.57758569708437"><ele>157.0</ele><time>2026-03-28T10:16:12Z</time></trkpt><trkpt lat="44.323262906266486" lon="11.577495597545196"><ele>157.0</ele><time>2026-03-28T10:16:13Z</time></trkpt><trkpt lat="44.32337579883298" lon="11.577404161848133"><ele>155.75</ele><time>2026-03-28T10:16:14Z</time></trkpt><trkpt lat="44.323491184306036" lon="11.577317757068709"><ele>154.5</ele><time>2026-03-28T10:16:15Z</time></trkpt><trkpt lat="44.323608809546016" lon="11.577223481174782"><ele>153.25</ele><time>2026-03-28T10:16:16Z</time></trkpt><trkpt lat="44.32372537326867" lon="11.577133878534516"><ele>152.0</ele><time>2026-03-28T10:16:17Z</time></trkpt><trkpt lat="44.32384873836238" lon="11.577053745999528"><ele>153.5</ele><time>2026-03-28T10:16:18Z</time></trkpt><trkpt lat="44.323976257954676" lon="11.57698946339782"><ele>155.0</ele><time>2026-03-28T10:16:19Z</time></trkpt><trkpt lat="44.32410903648991" lon="11.57695143696751"><ele>156.5</ele><time>2026-03-28T10:16:20Z</time></trkpt><trkpt lat="44.324241892423395" lon="11.576937576815721"><ele>158.0</ele><time>2026-03-28T10:16:21Z</time></trkpt><trkpt lat="44.324377501272785" lon="11.576936500844457"><ele>158.0</ele><time>2026-03-28T10:16:22Z</time></trkpt><trkpt lat="44.32451353772651" lon="11.576943822364624"><ele>158.0</ele><time>2026-03-28T10:16:23Z</time></trkpt><trkpt lat="44.324647809748434" lon="11.576969332817157"><ele>158.0</ele><time>2026-03-28T10:16:24Z</time></trkpt><trkpt lat="44.32478016295696" lon="11.577015925485767"><ele>158.0</ele><time>2026-03-28T10:16:25Z</time></trkpt><trkpt lat="44.32490800780692" lon="11.577089109873096"><ele>155.75</ele><time>2026-03-28T10:16:26Z</time></trkpt><trkpt lat="44.325023011170856" lon="11.577194129284056"><ele>153.5</ele><time>2026-03-28T10:16:27Z</time></trkpt><trkpt lat="44.3251283005648" lon="11.57731033555987"><ele>151.25</ele><time>2026-03-28T10:16:28Z</time></trkpt><trkpt lat="44.3252247988526" lon="11.577430431324855"><ele>149.0</ele><time>2026-03-28T10:16:29Z</time></trkpt><trkpt lat="44.32532287406795" lon="11.57754131478519"><ele>149.0</ele><time>2026-03-28T10:16:30Z</time></trkpt><trkpt lat="44.32542578738537" lon="11.577638725690992"><ele>149.0</ele><time>2026-03-28T10:16:31Z</time></trkpt><trkpt lat="44.325538030401006" lon="11.577708437840915"><ele>149.0</ele><time>2026-03-28T10:16:32Z</time></trkpt><trkpt lat="44.325654814736815" lon="11.577751655595195"><ele>149.0</ele><time>2026-03-28T10:16:33Z</time></trkpt><trkpt lat="44.325778370283786" lon="11.5777749984124"><ele>149.75</ele><time>2026-03-28T10:16:34Z</time></trkpt><trkpt lat="44.32590222213896" lon="11.57777284404292"><ele>150.5</ele><time>2026-03-28T10:16:35Z</time></trkpt><trkpt lat="44.3260292399754" lon="11.577760026925523"><ele>151.25</ele><time>2026-03-28T10:16:36Z</time></trkpt><trkpt lat="44.32615769566095" lon="11.577747523436878"><ele>152.0</ele><time>2026-03-28T10:16:37Z</time></trkpt><trkpt lat="44.32628139176629" lon="11.577738016463247"><ele>151.4</ele><time>2026-03-28T10:16:38Z</time></trkpt><trkpt lat="44.32639981574557" lon="11.577726886631527"><ele>150.79999999999998</ele><time>2026-03-28T10:16:39Z</time></trkpt><trkpt lat="44.32651316400114" lon="11.577716087917588"><ele>150.2</ele><time>2026-03-28T10:16:40Z</time></trkpt><trkpt lat="44.326622930570785" lon="11.577704565125119"><ele>149.6</ele><time>2026-03-28T10:16:41Z</time></trkpt><trkpt lat="44.32672935307541" lon="11.577698745961372"><ele>149.0</ele><time>2026-03-28T10:16:42Z</time></trkpt><trkpt lat="44.32682839211926" lon="11.577691253508963"><ele>149.0</ele><time>2026-03-28T10:16:43Z</time></trkpt><trkpt lat="44.32692276161918" lon="11.577687735665902"><ele>149.0</ele><time>2026-03-28T10:16:44Z</time></trkpt><trkpt lat="44.327009363909546" lon="11.577685989017834"><ele>149.0</ele><time>2026-03-28T10:16:45Z</time></trkpt><trkpt lat="44.32708666045001" lon="11.577686044368557"><ele>149.0</ele><time>2026-03-28T10:16:46Z</time></trkpt><trkpt lat="44.32715330205222" lon="11.577696296260388"><ele>149.0</ele><time>2026-03-28T10:16:47Z</time></trkpt><trkpt lat="44.327251683848836" lon="11.577747053136296"><ele>149.0</ele><time>2026-03-28T10:16:49Z</time></trkpt><trkpt lat="44.32728047018794" lon="11.577851616994852"><ele>148.5</ele><time>2026-03-28T10:16:51Z</time></trkpt><trkpt lat="44.32726588132468" lon="11.577943820327143"><ele>148.0</ele><time>2026-03-28T10:16:53Z</time></trkpt><trkpt lat="44.32730934957724" lon="11.578034889053441"><ele>147.5</ele><time>2026-03-28T10:16:56Z</time></trkpt><trkpt lat="44.3273877207249" lon="11.57811893006648"><ele>147.0</ele><time>2026-03-28T10:18:20Z</time></trkpt><trkpt lat="44.32744924482446" lon="11.578166031603859"><ele>146.5</ele><time>2026-03-28T10:18:22Z</time></trkpt><trkpt lat="44.32752258751096" lon="11.578224885799127"><ele>146.0</ele><time>2026-03-28T10:18:24Z</time></trkpt><trkpt lat="44.32761016573439" lon="11.578320687970772"><ele>146.0</ele><time>2026-03-28T10:18:26Z</time></trkpt><trkpt lat="44.32770053700977" lon="11.578418664096972"><ele>146.0</ele><time>2026-03-28T10:18:28Z</time></trkpt><trkpt lat="44.327802086345166" lon="11.578474313882488"><ele>146.0</ele><time>2026-03-28T10:18:30Z</time></trkpt><trkpt lat="44.32789705420676" lon="11.5785246747805"><ele>146.0</ele><time>2026-03-28T10:18:32Z</time></trkpt><trkpt lat="44.32795588393422" lon="11.578559992193648"><ele>146.0</ele><time>2026-03-28T10:18:33Z</time></trkpt><trkpt lat="44.328023064623146" lon="11.57861036128812"><ele>146.0</ele><time>2026-03-28T10:18:34Z</time></trkpt><trkpt lat="44.328092824545976" lon="11.578659011569338"><ele>146.0</ele><time>2026-03-28T10:18:35Z</time></trkpt><trkpt lat="44.32816211335313" lon="11.578694672501534"><ele>146.0</ele><time>2026-03-28T10:18:36Z</time></trkpt><trkpt lat="44.32823930764841" lon="11.578726566277243"><ele>146.0</ele><time>2026-03-28T10:18:37Z</time></trkpt><trkpt lat="44.32832579900848" lon="11.578755878290762"><ele>146.0</ele><time>2026-03-28T10:18:38Z</time></trkpt><trkpt lat="44.32840484744366" lon="11.578782365614707"><ele>146.0</ele><time>2026-03-28T10:18:39Z</time></trkpt><trkpt lat="44.32848125612129" lon="11.578806106371632"><ele>146.0</ele><time>2026-03-28T10:18:40Z</time></trkpt><trkpt lat="44.32856047395056" lon="11.578815748134899"><ele>146.0</ele><time>2026-03-28T10:18:41Z</time></trkpt><trkpt lat="44.328635248059484" lon="11.578845858063183"><ele>146.0</ele><time>2026-03-28T10:18:42Z</time></trkpt><trkpt lat="44.32870928921289" lon="11.578876558039553"><ele>146.0</ele><time>2026-03-28T10:18:43Z</time></trkpt><trkpt lat="44.32878500393913" lon="11.578910004189224"><ele>146.0</ele><time>2026-03-28T10:18:44Z</time></trkpt><trkpt lat="44.32886546834076" lon="11.578952711908103"><ele>146.0</ele><time>2026-03-28T10:18:45Z</time></trkpt><trkpt lat="44.32895184232118" lon="11.578997963145957"><ele>145.75</ele><time>2026-03-28T10:18:46Z</time></trkpt><trkpt lat="44.32904909522594" lon="11.579054434913989"><ele>145.5</ele><time>2026-03-28T10:18:47Z</time></trkpt><trkpt lat="44.3291592427314" lon="11.579124069438553"><ele>145.25</ele><time>2026-03-28T10:18:48Z</time></trkpt><trkpt lat="44.32927357794221" lon="11.579197669041388"><ele>145.0</ele><time>2026-03-28T10:18:49Z</time></trkpt><trkpt lat="44.329386068705205" lon="11.579268202390782"><ele>145.0</ele><time>2026-03-28T10:18:50Z</time></trkpt><trkpt lat="44.329498639489785" lon="11.579342256686555"><ele>145.0</ele><time>2026-03-28T10:18:51Z</time></trkpt><trkpt lat="44.329607934031735" lon="11.579420201248269"><ele>145.0</ele><time>2026-03-28T10:18:52Z</time></trkpt><trkpt lat="44.32971577049272" lon="11.579501481632493"><ele>145.0</ele><time>2026-03-28T10:18:53Z</time></trkpt><trkpt lat="44.32982073866224" lon="11.579590957286815"><ele>145.5</ele><time>2026-03-28T10:18:54Z</time></trkpt><trkpt lat="44.32992364312127" lon="11.57968210621747"><ele>146.0</ele><time>2026-03-28T10:18:55Z</time></trkpt><trkpt lat="44.33002433082737" lon="11.579776294690731"><ele>146.5</ele><time>2026-03-28T10:18:56Z</time></trkpt><trkpt lat="44.330129999227374" lon="11.579875647957698"><ele>147.0</ele><time>2026-03-28T10:18:57Z</time></trkpt><trkpt lat="44.33024115888492" lon="11.579976420378305"><ele>147.0</ele><time>2026-03-28T10:18:58Z</time></trkpt><trkpt lat="44.33035841061735" lon="11.580086358772505"><ele>147.0</ele><time>2026-03-28T10:18:59Z</time></trkpt><trkpt lat="44.33048046372065" lon="11.580201573731518"><ele>147.0</ele><time>2026-03-28T10:19:00Z</time></trkpt><trkpt lat="44.330601667091194" lon="11.580319141008143"><ele>147.0</ele><time>2026-03-28T10:19:01Z</time></trkpt><trkpt lat="44.330718872750076" lon="11.580437090974453"><ele>145.75</ele><time>2026-03-28T10:19:02Z</time></trkpt><trkpt lat="44.33083629432602" lon="11.580552256804031"><ele>144.5</ele><time>2026-03-28T10:19:03Z</time></trkpt><trkpt lat="44.330949000314796" lon="11.58067047707172"><ele>143.25</ele><time>2026-03-28T10:19:04Z</time></trkpt><trkpt lat="44.331057626505384" lon="11.580789449205028"><ele>142.0</ele><time>2026-03-28T10:19:05Z</time></trkpt><trkpt lat="44.33116226140317" lon="11.580906874183627"><ele>142.0</ele><time>2026-03-28T10:19:06Z</time></trkpt><trkpt lat="44.33126247232387" lon="11.581020643746745"><ele>142.0</ele><time>2026-03-28T10:19:07Z</time></trkpt><trkpt lat="44.3313632621446" lon="11.581131326074713"><ele>142.0</ele><time>2026-03-28T10:19:08Z</time></trkpt><trkpt lat="44.331468497485666" lon="11.58123183336912"><ele>142.0</ele><time>2026-03-28T10:19:09Z</time></trkpt><trkpt lat="44.331577063433144" lon="11.58132260697905"><ele>142.0</ele><time>2026-03-28T10:19:10Z</time></trkpt><trkpt lat="44.331690119999045" lon="11.581406577439207"><ele>142.0</ele><time>2026-03-28T10:19:11Z</time></trkpt><trkpt lat="44.33181150131568" lon="11.581478522914002"><ele>142.0</ele><time>2026-03-28T10:19:12Z</time></trkpt><trkpt lat="44.331942265581795" lon="11.581538056597664"><ele>142.0</ele><time>2026-03-28T10:19:13Z</time></trkpt><trkpt lat="44.332082273791315" lon="11.581596280187052"><ele>142.33333333333334</ele><time>2026-03-28T10:19:14Z</time></trkpt><trkpt lat="44.3322303127818" lon="11.581652764542696"><ele>142.66666666666666</ele><time>2026-03-28T10:19:15Z</time></trkpt><trkpt lat="44.332379601261536" lon="11.581711962827894"><ele>143.0</ele><time>2026-03-28T10:19:16Z</time></trkpt><trkpt lat="44.332527656559996" lon="11.581770167641332"><ele>143.0</ele><time>2026-03-28T10:19:17Z</time></trkpt><trkpt lat="44.33267250877063" lon="11.581828264756732"><ele>143.0</ele><time>2026-03-28T10:19:18Z</time></trkpt><trkpt lat="44.332816242497515" lon="11.581885120051547"><ele>143.0</ele><time>2026-03-28T10:19:19Z</time></trkpt><trkpt lat="44.33295611303357" lon="11.58194323146042"><ele>143.0</ele><time>2026-03-28T10:19:20Z</time></trkpt><trkpt lat="44.33309289067472" lon="11.582002743140471"><ele>142.25</ele><time>2026-03-28T10:19:21Z</time></trkpt><trkpt lat="44.33322712298133" lon="11.582063721238232"><ele>141.5</ele><time>2026-03-28T10:19:22Z</time></trkpt><trkpt lat="44.33335389743431" lon="11.58213646886115"><ele>140.75</ele><time>2026-03-28T10:19:23Z</time></trkpt><trkpt lat="44.3334779968523" lon="11.582216409800349"><ele>140.0</ele><time>2026-03-28T10:19:24Z</time></trkpt><trkpt lat="44.333591061753204" lon="11.582309216819223"><ele>140.0</ele><time>2026-03-28T10:19:25Z</time></trkpt><trkpt lat="44.33369986281218" lon="11.58241627779356"><ele>140.0</ele><time>2026-03-28T10:19:26Z</time></trkpt><trkpt lat="44.33380154793605" lon="11.582536868830724"><ele>140.0</ele><time>2026-03-28T10:19:27Z</time></trkpt><trkpt lat="44.333896937661365" lon="11.582666972808978"><ele>140.0</ele><time>2026-03-28T10:19:28Z</time></trkpt><trkpt lat="44.33399295586718" lon="11.582791354928641"><ele>140.75</ele><time>2026-03-28T10:19:29Z</time></trkpt><trkpt lat="44.33408816111566" lon="11.582910099886352"><ele>141.5</ele><time>2026-03-28T10:19:30Z</time></trkpt><trkpt lat="44.334189797015796" lon="11.583015966579346"><ele>142.25</ele><time>2026-03-28T10:19:31Z</time></trkpt><trkpt lat="44.33429375517078" lon="11.583108836508215"><ele>143.0</ele><time>2026-03-28T10:19:32Z</time></trkpt><trkpt lat="44.334402074744354" lon="11.583192423883172"><ele>143.0</ele><time>2026-03-28T10:19:33Z</time></trkpt><trkpt lat="44.33450983019576" lon="11.583274668088993"><ele>143.0</ele><time>2026-03-28T10:19:34Z</time></trkpt><trkpt lat="44.334620424812464" lon="11.583350170595905"><ele>143.0</ele><time>2026-03-28T10:19:35Z</time></trkpt><trkpt lat="44.334731592080495" lon="11.583425062451603"><ele>143.0</ele><time>2026-03-28T10:19:36Z</time></trkpt><trkpt lat="44.334840050907246" lon="11.583502688806197"><ele>143.5</ele><time>2026-03-28T10:19:37Z</time></trkpt><trkpt lat="44.33495184602963" lon="11.583573837900879"><ele>144.0</ele><time>2026-03-28T10:19:38Z</time></trkpt><trkpt lat="44.33506140679317" lon="11.583641730163691"><ele>144.5</ele><time>2026-03-28T10:19:39Z</time></trkpt><trkpt lat="44.33517077352789" lon="11.58371211665963"><ele>145.0</ele><time>2026-03-28T10:19:40Z</time></trkpt><trkpt lat="44.335277866371776" lon="11.583781064471744"><ele>144.0</ele><time>2026-03-28T10:19:41Z</time></trkpt><trkpt lat="44.33538531332723" lon="11.583842918509097"><ele>143.0</ele><time>2026-03-28T10:19:42Z</time></trkpt><trkpt lat="44.335500342930004" lon="11.583886424616892"><ele>142.0</ele><time>2026-03-28T10:19:43Z</time></trkpt><trkpt lat="44.33561945173196" lon="11.583910602305833"><ele>141.0</ele><time>2026-03-28T10:19:44Z</time></trkpt><trkpt lat="44.33574313955625" lon="11.583924925231246"><ele>141.0</ele><time>2026-03-28T10:19:45Z</time></trkpt><trkpt lat="44.33587403498979" lon="11.583935187843837"><ele>141.0</ele><time>2026-03-28T10:19:46Z</time></trkpt><trkpt lat="44.33600474463239" lon="11.583949511973316"><ele>141.0</ele><time>2026-03-28T10:19:47Z</time></trkpt><trkpt lat="44.33613071297427" lon="11.583963581693734"><ele>141.0</ele><time>2026-03-28T10:19:48Z</time></trkpt><trkpt lat="44.33625266233694" lon="11.58397945306653"><ele>141.0</ele><time>2026-03-28T10:19:49Z</time></trkpt><trkpt lat="44.33637406424821" lon="11.583993560187288"><ele>141.0</ele><time>2026-03-28T10:19:50Z</time></trkpt><trkpt lat="44.336497801534904" lon="11.584008619501777"><ele>141.0</ele><time>2026-03-28T10:19:51Z</time></trkpt><trkpt lat="44.33663004475234" lon="11.584027157813193"><ele>141.0</ele><time>2026-03-28T10:19:52Z</time></trkpt><trkpt lat="44.336759660980015" lon="11.584044924110184"><ele>141.0</ele><time>2026-03-28T10:19:53Z</time></trkpt><trkpt lat="44.33688762578217" lon="11.584064804128216"><ele>141.0</ele><time>2026-03-28T10:19:54Z</time></trkpt><trkpt lat="44.337014454624075" lon="11.584085100001088"><ele>141.0</ele><time>2026-03-28T10:19:55Z</time></trkpt><trkpt lat="44.33713893242305" lon="11.58410690888661"><ele>141.0</ele><time>2026-03-28T10:19:56Z</time></trkpt><trkpt lat="44.337262348813596" lon="11.584135209000115"><ele>141.0</ele><time>2026-03-28T10:19:57Z</time></trkpt><trkpt lat="44.33738309955558" lon="11.584169872293137"><ele>141.0</ele><time>2026-03-28T10:19:58Z</time></trkpt><trkpt lat="44.337501386235566" lon="11.584219182184784"><ele>141.0</ele><time>2026-03-28T10:19:59Z</time></trkpt><trkpt lat="44.337620141303155" lon="11.584278956201935"><ele>141.0</ele><time>2026-03-28T10:20:00Z</time></trkpt><trkpt lat="44.33773297900704" lon="11.58435514606983"><ele>141.0</ele><time>2026-03-28T10:20:01Z</time></trkpt><trkpt lat="44.33783797752488" lon="11.584435351549141"><ele>141.0</ele><time>2026-03-28T10:20:02Z</time></trkpt><trkpt lat="44.337938123942735" lon="11.584527810011453"><ele>141.0</ele><time>2026-03-28T10:20:03Z</time></trkpt><trkpt lat="44.338036013379714" lon="11.584624587329099"><ele>141.0</ele><time>2026-03-28T10:20:04Z</time></trkpt><trkpt lat="44.33813153541007" lon="11.58472427660073"><ele>140.0</ele><time>2026-03-28T10:20:05Z</time></trkpt><trkpt lat="44.33822707522184" lon="11.58482540420039"><ele>139.0</ele><time>2026-03-28T10:20:06Z</time></trkpt><trkpt lat="44.338314949424365" lon="11.584932995559454"><ele>138.0</ele><time>2026-03-28T10:20:07Z</time></trkpt><trkpt lat="44.33840005133343" lon="11.585032874414336"><ele>137.0</ele><time>2026-03-28T10:20:08Z</time></trkpt><trkpt lat="44.3384865117039" lon="11.585122465960463"><ele>137.0</ele><time>2026-03-28T10:20:09Z</time></trkpt><trkpt lat="44.33857482243632" lon="11.585199303025817"><ele>137.0</ele><time>2026-03-28T10:20:10Z</time></trkpt><trkpt lat="44.33866568119671" lon="11.585271767344544"><ele>137.0</ele><time>2026-03-28T10:20:11Z</time></trkpt><trkpt lat="44.33876015679524" lon="11.585346822742062"><ele>137.0</ele><time>2026-03-28T10:20:12Z</time></trkpt><trkpt lat="44.33885655936355" lon="11.585441783809097"><ele>137.0</ele><time>2026-03-28T10:20:13Z</time></trkpt><trkpt lat="44.33895211748816" lon="11.58553547731843"><ele>137.0</ele><time>2026-03-28T10:20:14Z</time></trkpt><trkpt lat="44.33904693587657" lon="11.585627589378394"><ele>137.0</ele><time>2026-03-28T10:20:15Z</time></trkpt><trkpt lat="44.33914035500814" lon="11.585723388532578"><ele>137.0</ele><time>2026-03-28T10:20:16Z</time></trkpt><trkpt lat="44.339239216041136" lon="11.585820505145488"><ele>137.0</ele><time>2026-03-28T10:20:17Z</time></trkpt><trkpt lat="44.33933966826645" lon="11.585927075229236"><ele>137.0</ele><time>2026-03-28T10:20:18Z</time></trkpt><trkpt lat="44.33944417440305" lon="11.586032032216782"><ele>137.0</ele><time>2026-03-28T10:20:19Z</time></trkpt><trkpt lat="44.33954909809607" lon="11.586135528740385"><ele>137.0</ele><time>2026-03-28T10:20:20Z</time></trkpt><trkpt lat="44.339655508169315" lon="11.586238096556897"><ele>137.0</ele><time>2026-03-28T10:20:21Z</time></trkpt><trkpt lat="44.33976238139851" lon="11.586336768537048"><ele>137.0</ele><time>2026-03-28T10:20:22Z</time></trkpt><trkpt lat="44.3398669110922" lon="11.586440487439798"><ele>137.0</ele><time>2026-03-28T10:20:23Z</time></trkpt><trkpt lat="44.33997177185023" lon="11.586542861391147"><ele>137.0</ele><time>2026-03-28T10:20:24Z</time></trkpt><trkpt lat="44.3400772448732" lon="11.586643535554225"><ele>137.0</ele><time>2026-03-28T10:20:25Z</time></trkpt><trkpt lat="44.34018344328706" lon="11.586741921674218"><ele>137.0</ele><time>2026-03-28T10:20:26Z</time></trkpt><trkpt lat="44.340291594394074" lon="11.58683566998748"><ele>137.0</ele><time>2026-03-28T10:20:27Z</time></trkpt><trkpt lat="44.34040353592926" lon="11.586921811666445"><ele>137.0</ele><time>2026-03-28T10:20:28Z</time></trkpt><trkpt lat="44.34051847524207" lon="11.586999715400246"><ele>137.0</ele><time>2026-03-28T10:20:29Z</time></trkpt><trkpt lat="44.340639839641874" lon="11.587068070524126"><ele>135.75</ele><time>2026-03-28T10:20:30Z</time></trkpt><trkpt lat="44.34075577516488" lon="11.587137899612516"><ele>134.5</ele><time>2026-03-28T10:20:31Z</time></trkpt><trkpt lat="44.34087027618353" lon="11.587200981646431"><ele>133.25</ele><time>2026-03-28T10:20:32Z</time></trkpt><trkpt lat="44.34099193711244" lon="11.587259084405659"><ele>132.0</ele><time>2026-03-28T10:20:33Z</time></trkpt><trkpt lat="44.341113362922705" lon="11.587316657442754"><ele>132.0</ele><time>2026-03-28T10:20:34Z</time></trkpt><trkpt lat="44.34123596259796" lon="11.587376846708255"><ele>132.0</ele><time>2026-03-28T10:20:35Z</time></trkpt><trkpt lat="44.34135534618965" lon="11.5874377682253"><ele>132.0</ele><time>2026-03-28T10:20:36Z</time></trkpt><trkpt lat="44.34147333129442" lon="11.587498994862512"><ele>132.0</ele><time>2026-03-28T10:20:37Z</time></trkpt><trkpt lat="44.34158958231742" lon="11.587569822590133"><ele>131.5</ele><time>2026-03-28T10:20:38Z</time></trkpt><trkpt lat="44.34169795390886" lon="11.587655696406863"><ele>131.0</ele><time>2026-03-28T10:20:39Z</time></trkpt><trkpt lat="44.34180380726352" lon="11.58775312486223"><ele>130.5</ele><time>2026-03-28T10:20:40Z</time></trkpt><trkpt lat="44.341909990948054" lon="11.587859251225815"><ele>130.0</ele><time>2026-03-28T10:20:41Z</time></trkpt><trkpt lat="44.342015674400045" lon="11.587978476361673"><ele>130.0</ele><time>2026-03-28T10:20:42Z</time></trkpt><trkpt lat="44.34212187561846" lon="11.588099905472319"><ele>130.0</ele><time>2026-03-28T10:20:43Z</time></trkpt><trkpt lat="44.34222939730605" lon="11.588221926951148"><ele>130.0</ele><time>2026-03-28T10:20:44Z</time></trkpt><trkpt lat="44.34233354378973" lon="11.588343468919982"><ele>130.0</ele><time>2026-03-28T10:20:45Z</time></trkpt><trkpt lat="44.34242815752135" lon="11.588454475864628"><ele>129.66666666666669</ele><time>2026-03-28T10:20:46Z</time></trkpt><trkpt lat="44.342508115059644" lon="11.58854658257451"><ele>129.33333333333334</ele><time>2026-03-28T10:20:47Z</time></trkpt><trkpt lat="44.34256846878958" lon="11.588618599260002"><ele>129.0</ele><time>2026-03-28T10:20:48Z</time></trkpt><trkpt lat="44.34262876987342" lon="11.588700569265416"><ele>128.66666666666666</ele><time>2026-03-28T10:20:50Z</time></trkpt><trkpt lat="44.34268141342236" lon="11.588783716306168"><ele>128.33333333333331</ele><time>2026-03-28T10:20:59Z</time></trkpt><trkpt lat="44.34263983283855" lon="11.588878223734733"><ele>128.0</ele><time>2026-03-28T10:21:02Z</time></trkpt><trkpt lat="44.34256861561845" lon="11.588922626230236"><ele>127.99999999999999</ele><time>2026-03-28T10:21:06Z</time></trkpt><trkpt lat="44.34251192229609" lon="11.58897555999677"><ele>128.0</ele><time>2026-03-28T10:21:09Z</time></trkpt><trkpt lat="44.342441378928754" lon="11.589035561935372"><ele>128.0</ele><time>2026-03-28T10:21:12Z</time></trkpt><trkpt lat="44.34237165866047" lon="11.589073574097519"><ele>128.0</ele><time>2026-03-28T10:21:16Z</time></trkpt><trkpt lat="44.34231366899025" lon="11.589172747756201"><ele>127.99999999999999</ele><time>2026-03-28T10:21:30Z</time></trkpt><trkpt lat="44.3422573063609" lon="11.589252276272834"><ele>128.0</ele><time>2026-03-28T10:21:32Z</time></trkpt><trkpt lat="44.342203347539744" lon="11.589396545375944"><ele>128.33333333333331</ele><time>2026-03-28T10:21:34Z</time></trkpt><trkpt lat="44.342184994093444" lon="11.589502555649897"><ele>128.66666666666666</ele><time>2026-03-28T10:21:35Z</time></trkpt><trkpt lat="44.34217967058443" lon="11.589614518621877"><ele>129.0</ele><time>2026-03-28T10:21:36Z</time></trkpt><trkpt lat="44.34219050936276" lon="11.589713443778571"><ele>129.33333333333334</ele><time>2026-03-28T10:21:37Z</time></trkpt><trkpt lat="44.34221045938661" lon="11.589815115790397"><ele>129.66666666666669</ele><time>2026-03-28T10:21:38Z</time></trkpt><trkpt lat="44.342229532147506" lon="11.589927720874362"><ele>130.0</ele><time>2026-03-28T10:21:39Z</time></trkpt><trkpt lat="44.34224178841257" lon="11.590049149735668"><ele>130.0</ele><time>2026-03-28T10:21:40Z</time></trkpt><trkpt lat="44.34224324328284" lon="11.590168959363686"><ele>130.0</ele><time>2026-03-28T10:21:41Z</time></trkpt><trkpt lat="44.34222951660592" lon="11.590290569741681"><ele>130.0</ele><time>2026-03-28T10:21:42Z</time></trkpt><trkpt lat="44.34219852354685" lon="11.590407642065836"><ele>130.0</ele><time>2026-03-28T10:21:43Z</time></trkpt><trkpt lat="44.34214602989662" lon="11.590523006917364"><ele>130.0</ele><time>2026-03-28T10:21:44Z</time></trkpt><trkpt lat="44.342084758886806" lon="11.590633210523526"><ele>130.2</ele><time>2026-03-28T10:21:45Z</time></trkpt><trkpt lat="44.34202224348207" lon="11.590749065362509"><ele>130.4</ele><time>2026-03-28T10:21:46Z</time></trkpt><trkpt lat="44.341961484128035" lon="11.590868897430209"><ele>130.6</ele><time>2026-03-28T10:21:47Z</time></trkpt><trkpt lat="44.34190957066817" lon="11.590994153879423"><ele>130.8</ele><time>2026-03-28T10:21:48Z</time></trkpt><trkpt lat="44.34186876419489" lon="11.59112637931296"><ele>131.0</ele><time>2026-03-28T10:21:49Z</time></trkpt><trkpt lat="44.34183380500247" lon="11.591256446898571"><ele>131.0</ele><time>2026-03-28T10:21:50Z</time></trkpt><trkpt lat="44.34179422526513" lon="11.591385841449336"><ele>131.0</ele><time>2026-03-28T10:21:51Z</time></trkpt><trkpt lat="44.34174470874802" lon="11.591502725483176"><ele>131.0</ele><time>2026-03-28T10:21:52Z</time></trkpt><trkpt lat="44.34168147082183" lon="11.591591559924952"><ele>131.0</ele><time>2026-03-28T10:21:53Z</time></trkpt><trkpt lat="44.34160485026383" lon="11.591652698236162"><ele>131.0</ele><time>2026-03-28T10:21:54Z</time></trkpt><trkpt lat="44.34152483130749" lon="11.591667729320891"><ele>131.0</ele><time>2026-03-28T10:21:55Z</time></trkpt><trkpt lat="44.341437728895585" lon="11.59164358869271"><ele>131.0</ele><time>2026-03-28T10:21:56Z</time></trkpt><trkpt lat="44.341360496844445" lon="11.591588608166449"><ele>131.0</ele><time>2026-03-28T10:21:57Z</time></trkpt><trkpt lat="44.341296119253506" lon="11.591498489044678"><ele>131.0</ele><time>2026-03-28T10:21:58Z</time></trkpt><trkpt lat="44.341249186718315" lon="11.59138105382134"><ele>131.0</ele><time>2026-03-28T10:21:59Z</time></trkpt><trkpt lat="44.3412348420655" lon="11.59124288284712"><ele>132.0</ele><time>2026-03-28T10:22:00Z</time></trkpt><trkpt lat="44.34126461962582" lon="11.5910926584847"><ele>133.0</ele><time>2026-03-28T10:22:01Z</time></trkpt><trkpt lat="44.341313572187524" lon="11.590964474417316"><ele>134.0</ele><time>2026-03-28T10:22:02Z</time></trkpt><trkpt lat="44.3413773611417" lon="11.590846589578838"><ele>135.0</ele><time>2026-03-28T10:22:03Z</time></trkpt><trkpt lat="44.341446357271046" lon="11.590726432074224"><ele>136.0</ele><time>2026-03-28T10:22:04Z</time></trkpt><trkpt lat="44.34151393901573" lon="11.590603486635693"><ele>136.0</ele><time>2026-03-28T10:22:05Z</time></trkpt><trkpt lat="44.34157516725926" lon="11.590482840873984"><ele>136.0</ele><time>2026-03-28T10:22:06Z</time></trkpt><trkpt lat="44.34162681870171" lon="11.590355572186056"><ele>136.0</ele><time>2026-03-28T10:22:07Z</time></trkpt><trkpt lat="44.34166527457194" lon="11.590228442374126"><ele>136.0</ele><time>2026-03-28T10:22:08Z</time></trkpt><trkpt lat="44.341686107723085" lon="11.590092408526745"><ele>136.0</ele><time>2026-03-28T10:22:09Z</time></trkpt><trkpt lat="44.341706577245866" lon="11.589955501176858"><ele>135.8</ele><time>2026-03-28T10:22:10Z</time></trkpt><trkpt lat="44.34170588822195" lon="11.589815296625673"><ele>135.6</ele><time>2026-03-28T10:22:11Z</time></trkpt><trkpt lat="44.34168970035863" lon="11.589676597076874"><ele>135.4</ele><time>2026-03-28T10:22:12Z</time></trkpt><trkpt lat="44.341663601054634" lon="11.589540764808914"><ele>135.2</ele><time>2026-03-28T10:22:13Z</time></trkpt><trkpt lat="44.34163328268166" lon="11.589410771948415"><ele>135.0</ele><time>2026-03-28T10:22:14Z</time></trkpt><trkpt lat="44.34159380485448" lon="11.589292978287903"><ele>135.0</ele><time>2026-03-28T10:22:15Z</time></trkpt><trkpt lat="44.341554228530114" lon="11.589185631763005"><ele>135.0</ele><time>2026-03-28T10:22:16Z</time></trkpt><trkpt lat="44.3415076024105" lon="11.589080260446954"><ele>135.0</ele><time>2026-03-28T10:22:17Z</time></trkpt><trkpt lat="44.34145036054641" lon="11.588983217217102"><ele>135.0</ele><time>2026-03-28T10:22:18Z</time></trkpt><trkpt lat="44.341388028031396" lon="11.588891978534406"><ele>135.0</ele><time>2026-03-28T10:22:19Z</time></trkpt><trkpt lat="44.341317902535664" lon="11.588809935223555"><ele>135.0</ele><time>2026-03-28T10:22:20Z</time></trkpt><trkpt lat="44.3412483829364" lon="11.588745642789776"><ele>135.5</ele><time>2026-03-28T10:22:21Z</time></trkpt><trkpt lat="44.34118227291002" lon="11.588694155982557"><ele>136.0</ele><time>2026-03-28T10:22:22Z</time></trkpt><trkpt lat="44.34111277179872" lon="11.588650222799968"><ele>136.5</ele><time>2026-03-28T10:22:23Z</time></trkpt><trkpt lat="44.3410442720719" lon="11.588613038083393"><ele>137.0</ele><time>2026-03-28T10:22:24Z</time></trkpt><trkpt lat="44.34097126924997" lon="11.588578967996495"><ele>137.5</ele><time>2026-03-28T10:22:25Z</time></trkpt><trkpt lat="44.34089550002662" lon="11.588555647325416"><ele>138.0</ele><time>2026-03-28T10:22:26Z</time></trkpt><trkpt lat="44.3408233721589" lon="11.588541851558144"><ele>138.0</ele><time>2026-03-28T10:22:27Z</time></trkpt><trkpt lat="44.34075632610451" lon="11.588538261425454"><ele>138.0</ele><time>2026-03-28T10:22:28Z</time></trkpt><trkpt lat="44.34065532805287" lon="11.588621014773729"><ele>138.0</ele><time>2026-03-28T10:22:30Z</time></trkpt><trkpt lat="44.34060056012085" lon="11.588777752612753"><ele>138.0</ele><time>2026-03-28T10:22:32Z</time></trkpt><trkpt lat="44.34056915921414" lon="11.58885862177467"><ele>138.0</ele><time>2026-03-28T10:22:33Z</time></trkpt><trkpt lat="44.340524573487656" lon="11.588942815867277"><ele>140.0</ele><time>2026-03-28T10:22:34Z</time></trkpt><trkpt lat="44.34047217869485" lon="11.589029005407607"><ele>142.0</ele><time>2026-03-28T10:22:35Z</time></trkpt><trkpt lat="44.34041553644801" lon="11.589116625629538"><ele>144.0</ele><time>2026-03-28T10:22:36Z</time></trkpt><trkpt lat="44.34035473749294" lon="11.58920890127901"><ele>146.0</ele><time>2026-03-28T10:22:37Z</time></trkpt><trkpt lat="44.34029262089164" lon="11.589302290425664"><ele>148.0</ele><time>2026-03-28T10:22:38Z</time></trkpt><trkpt lat="44.340227590655374" lon="11.589401496580717"><ele>150.0</ele><time>2026-03-28T10:22:39Z</time></trkpt><trkpt lat="44.3401595350967" lon="11.589499093238558"><ele>151.0</ele><time>2026-03-28T10:22:40Z</time></trkpt><trkpt lat="44.34009197051037" lon="11.589594921971916"><ele>152.0</ele><time>2026-03-28T10:22:41Z</time></trkpt><trkpt lat="44.340023290012084" lon="11.589690021607225"><ele>153.0</ele><time>2026-03-28T10:22:42Z</time></trkpt><trkpt lat="44.33995618630267" lon="11.58978169424504"><ele>154.0</ele><time>2026-03-28T10:22:43Z</time></trkpt><trkpt lat="44.339883051667044" lon="11.58986238129195"><ele>155.0</ele><time>2026-03-28T10:22:44Z</time></trkpt><trkpt lat="44.33979813536077" lon="11.589916948048591"><ele>155.8</ele><time>2026-03-28T10:22:45Z</time></trkpt><trkpt lat="44.33970567539083" lon="11.589954938313012"><ele>156.6</ele><time>2026-03-28T10:22:46Z</time></trkpt><trkpt lat="44.33960587814972" lon="11.589981991117716"><ele>157.4</ele><time>2026-03-28T10:22:47Z</time></trkpt><trkpt lat="44.33950848989946" lon="11.590015498577934"><ele>158.2</ele><time>2026-03-28T10:22:48Z</time></trkpt><trkpt lat="44.339411918358984" lon="11.59006030085756"><ele>159.0</ele><time>2026-03-28T10:22:49Z</time></trkpt><trkpt lat="44.33931804930813" lon="11.59011590133338"><ele>159.0</ele><time>2026-03-28T10:22:50Z</time></trkpt><trkpt lat="44.33922471519408" lon="11.590168149883446"><ele>159.0</ele><time>2026-03-28T10:22:51Z</time></trkpt><trkpt lat="44.339128891117866" lon="11.590216102154544"><ele>159.0</ele><time>2026-03-28T10:22:52Z</time></trkpt><trkpt lat="44.33903215204931" lon="11.590260165399865"><ele>159.0</ele><time>2026-03-28T10:22:53Z</time></trkpt><trkpt lat="44.33893382167706" lon="11.590300594351406"><ele>159.0</ele><time>2026-03-28T10:22:54Z</time></trkpt><trkpt lat="44.33883332797734" lon="11.590341317353518"><ele>160.8</ele><time>2026-03-28T10:22:55Z</time></trkpt><trkpt lat="44.33873105624759" lon="11.590381526344368"><ele>162.60000000000002</ele><time>2026-03-28T10:22:56Z</time></trkpt><trkpt lat="44.3386280898812" lon="11.590419302231252"><ele>164.4</ele><time>2026-03-28T10:22:57Z</time></trkpt><trkpt lat="44.338525531525526" lon="11.59045813836233"><ele>166.20000000000002</ele><time>2026-03-28T10:22:58Z</time></trkpt><trkpt lat="44.33842421302518" lon="11.590499347996023"><ele>168.0</ele><time>2026-03-28T10:22:59Z</time></trkpt><trkpt lat="44.33832478221278" lon="11.59054179247148"><ele>168.0</ele><time>2026-03-28T10:23:00Z</time></trkpt><trkpt lat="44.33822907852613" lon="11.590580059014462"><ele>168.0</ele><time>2026-03-28T10:23:01Z</time></trkpt><trkpt lat="44.3381362472553" lon="11.590616355325963"><ele>168.0</ele><time>2026-03-28T10:23:02Z</time></trkpt><trkpt lat="44.33804477051021" lon="11.590646380369726"><ele>168.0</ele><time>2026-03-28T10:23:03Z</time></trkpt><trkpt lat="44.3379521819162" lon="11.590669801299631"><ele>168.0</ele><time>2026-03-28T10:23:04Z</time></trkpt><trkpt lat="44.337860556298615" lon="11.590684197333676"><ele>168.83333333333334</ele><time>2026-03-28T10:23:05Z</time></trkpt><trkpt lat="44.33777002555239" lon="11.590681621636323"><ele>169.66666666666666</ele><time>2026-03-28T10:23:06Z</time></trkpt><trkpt lat="44.33768356648443" lon="11.590683341190687"><ele>170.5</ele><time>2026-03-28T10:23:07Z</time></trkpt><trkpt lat="44.337598899492654" lon="11.590686899571752"><ele>171.33333333333331</ele><time>2026-03-28T10:23:08Z</time></trkpt><trkpt lat="44.337524068602576" lon="11.590699416943535"><ele>172.16666666666666</ele><time>2026-03-28T10:23:09Z</time></trkpt><trkpt lat="44.33745197150593" lon="11.590713131968661"><ele>173.0</ele><time>2026-03-28T10:23:10Z</time></trkpt><trkpt lat="44.3373538247654" lon="11.59072509783492"><ele>173.0</ele><time>2026-03-28T10:23:12Z</time></trkpt><trkpt lat="44.33727997089281" lon="11.590736535290173"><ele>173.0</ele><time>2026-03-28T10:23:15Z</time></trkpt><trkpt lat="44.33721956859711" lon="11.590768771321427"><ele>173.0</ele><time>2026-03-28T10:27:20Z</time></trkpt><trkpt lat="44.3371530060946" lon="11.590875999858412"><ele>173.0</ele><time>2026-03-28T10:27:23Z</time></trkpt><trkpt lat="44.33710475067569" lon="11.590963739788185"><ele>173.0</ele><time>2026-03-28T10:27:25Z</time></trkpt><trkpt lat="44.337033114090715" lon="11.591091228059812"><ele>173.0</ele><time>2026-03-28T10:27:27Z</time></trkpt><trkpt lat="44.336994104099126" lon="11.591162589629043"><ele>174.33333333333331</ele><time>2026-03-28T10:27:28Z</time></trkpt><trkpt lat="44.33695587245633" lon="11.591235717243194"><ele>175.66666666666666</ele><time>2026-03-28T10:27:29Z</time></trkpt><trkpt lat="44.33691892618236" lon="11.591310254653218"><ele>177.0</ele><time>2026-03-28T10:27:30Z</time></trkpt><trkpt lat="44.33688304045989" lon="11.591385471820109"><ele>178.33333333333334</ele><time>2026-03-28T10:27:31Z</time></trkpt><trkpt lat="44.33682379934445" lon="11.591545644463627"><ele>179.66666666666669</ele><time>2026-03-28T10:27:33Z</time></trkpt><trkpt lat="44.3367915631498" lon="11.591639241151977"><ele>181.0</ele><time>2026-03-28T10:27:34Z</time></trkpt><trkpt lat="44.33675659916944" lon="11.591740613170185"><ele>181.0</ele><time>2026-03-28T10:27:35Z</time></trkpt><trkpt lat="44.33671990700451" lon="11.591845532727342"><ele>181.0</ele><time>2026-03-28T10:27:36Z</time></trkpt><trkpt lat="44.33668279589636" lon="11.591944996614005"><ele>181.0</ele><time>2026-03-28T10:27:37Z</time></trkpt><trkpt lat="44.33664811580577" lon="11.592035813530691"><ele>181.0</ele><time>2026-03-28T10:27:38Z</time></trkpt><trkpt lat="44.3366166127841" lon="11.592124220918402"><ele>181.0</ele><time>2026-03-28T10:27:39Z</time></trkpt><trkpt lat="44.33658978061526" lon="11.592218782417195"><ele>181.0</ele><time>2026-03-28T10:27:40Z</time></trkpt><trkpt lat="44.33657366447108" lon="11.59232001815963"><ele>181.0</ele><time>2026-03-28T10:27:41Z</time></trkpt><trkpt lat="44.3365605977478" lon="11.592426266098247"><ele>181.0</ele><time>2026-03-28T10:27:42Z</time></trkpt><trkpt lat="44.33654610784053" lon="11.59253633638841"><ele>181.0</ele><time>2026-03-28T10:27:43Z</time></trkpt><trkpt lat="44.3365305217145" lon="11.592645821713745"><ele>181.0</ele><time>2026-03-28T10:27:44Z</time></trkpt><trkpt lat="44.336512373374255" lon="11.592760008523857"><ele>181.0</ele><time>2026-03-28T10:27:45Z</time></trkpt><trkpt lat="44.336493269007256" lon="11.592873623038283"><ele>181.0</ele><time>2026-03-28T10:27:46Z</time></trkpt><trkpt lat="44.336475381697085" lon="11.592987182291148"><ele>181.5</ele><time>2026-03-28T10:27:47Z</time></trkpt><trkpt lat="44.33645712648667" lon="11.593100464828407"><ele>182.0</ele><time>2026-03-28T10:27:48Z</time></trkpt><trkpt lat="44.33643841040865" lon="11.593212971343597"><ele>182.5</ele><time>2026-03-28T10:27:49Z</time></trkpt><trkpt lat="44.336417619353675" lon="11.593324835420717"><ele>183.0</ele><time>2026-03-28T10:27:50Z</time></trkpt><trkpt lat="44.33639795092595" lon="11.593431809169275"><ele>183.5</ele><time>2026-03-28T10:27:51Z</time></trkpt><trkpt lat="44.336377957107196" lon="11.593537807030602"><ele>184.0</ele><time>2026-03-28T10:27:52Z</time></trkpt><trkpt lat="44.336353679470456" lon="11.593631837502622"><ele>186.39999999999998</ele><time>2026-03-28T10:27:53Z</time></trkpt><trkpt lat="44.336322405740944" lon="11.593716652426359"><ele>188.8</ele><time>2026-03-28T10:27:54Z</time></trkpt><trkpt lat="44.33625461943184" lon="11.593852608425331"><ele>191.2</ele><time>2026-03-28T10:27:56Z</time></trkpt><trkpt lat="44.336159227119936" lon="11.593902495872715"><ele>193.60000000000002</ele><time>2026-03-28T10:27:58Z</time></trkpt><trkpt lat="44.33608682595105" lon="11.593940988360242"><ele>196.0</ele><time>2026-03-28T10:28:00Z</time></trkpt><trkpt lat="44.33599280616418" lon="11.59398263581719"><ele>195.99999999999997</ele><time>2026-03-28T10:28:16Z</time></trkpt><trkpt lat="44.335930626759236" lon="11.59401081546864"><ele>196.0</ele><time>2026-03-28T10:28:18Z</time></trkpt><trkpt lat="44.33584475369517" lon="11.594052241789312"><ele>196.0</ele><time>2026-03-28T10:28:20Z</time></trkpt><trkpt lat="44.3357553686346" lon="11.594097766270663"><ele>196.0</ele><time>2026-03-28T10:28:22Z</time></trkpt><trkpt lat="44.33566804292303" lon="11.594142241916943"><ele>195.99999999999997</ele><time>2026-03-28T10:28:24Z</time></trkpt><trkpt lat="44.33557639767987" lon="11.594189539441086"><ele>196.0</ele><time>2026-03-28T10:28:26Z</time></trkpt><trkpt lat="44.335483906920906" lon="11.59423794950193"><ele>196.8</ele><time>2026-03-28T10:28:28Z</time></trkpt><trkpt lat="44.3353820736256" lon="11.59429560725325"><ele>197.60000000000002</ele><time>2026-03-28T10:28:30Z</time></trkpt><trkpt lat="44.33527360353689" lon="11.594353548673473"><ele>198.4</ele><time>2026-03-28T10:28:32Z</time></trkpt><trkpt lat="44.335170999201445" lon="11.5943886652716"><ele>199.2</ele><time>2026-03-28T10:28:34Z</time></trkpt><trkpt lat="44.33507110133679" lon="11.594413910874376"><ele>200.0</ele><time>2026-03-28T10:28:36Z</time></trkpt><trkpt lat="44.33496138180782" lon="11.59442260657064"><ele>200.0</ele><time>2026-03-28T10:28:38Z</time></trkpt><trkpt lat="44.334851552982876" lon="11.594412292676816"><ele>200.0</ele><time>2026-03-28T10:28:40Z</time></trkpt><trkpt lat="44.33474668552078" lon="11.594387770336493"><ele>200.0</ele><time>2026-03-28T10:28:42Z</time></trkpt><trkpt lat="44.33464470295349" lon="11.594352593257492"><ele>200.0</ele><time>2026-03-28T10:28:44Z</time></trkpt><trkpt lat="44.33454383098081" lon="11.594301518887862"><ele>200.0</ele><time>2026-03-28T10:28:46Z</time></trkpt><trkpt lat="44.33445128880062" lon="11.594226250578165"><ele>202.16666666666669</ele><time>2026-03-28T10:28:48Z</time></trkpt><trkpt lat="44.33439796271295" lon="11.594177167567889"><ele>204.33333333333334</ele><time>2026-03-28T10:28:49Z</time></trkpt><trkpt lat="44.33429229377557" lon="11.59409154441001"><ele>206.5</ele><time>2026-03-28T10:28:51Z</time></trkpt><trkpt lat="44.33423215978089" lon="11.594056694096395"><ele>208.66666666666669</ele><time>2026-03-28T10:28:52Z</time></trkpt><trkpt lat="44.33417057610612" lon="11.594035726784874"><ele>210.83333333333334</ele><time>2026-03-28T10:28:53Z</time></trkpt><trkpt lat="44.33406317562081" lon="11.59399200053644"><ele>213.0</ele><time>2026-03-28T10:28:55Z</time></trkpt><trkpt lat="44.33395612725278" lon="11.593938251248424"><ele>217.0</ele><time>2026-03-28T10:28:57Z</time></trkpt><trkpt lat="44.33385305155767" lon="11.59387947189471"><ele>221.0</ele><time>2026-03-28T10:28:59Z</time></trkpt><trkpt lat="44.33374592576639" lon="11.593829554023825"><ele>225.0</ele><time>2026-03-28T10:29:01Z</time></trkpt><trkpt lat="44.33364612411434" lon="11.593887817802132"><ele>229.0</ele><time>2026-03-28T10:29:03Z</time></trkpt><trkpt lat="44.33357663414811" lon="11.593976863092132"><ele>233.0</ele><time>2026-03-28T10:29:05Z</time></trkpt><trkpt lat="44.33351363875304" lon="11.594080100276175"><ele>233.0</ele><time>2026-03-28T10:29:07Z</time></trkpt><trkpt lat="44.33351174634991" lon="11.594228048692482"><ele>233.0</ele><time>2026-03-28T10:29:09Z</time></trkpt><trkpt lat="44.33351547428462" lon="11.594371482757788"><ele>233.0</ele><time>2026-03-28T10:29:11Z</time></trkpt><trkpt lat="44.33352354699637" lon="11.594529124245073"><ele>233.0</ele><time>2026-03-28T10:29:13Z</time></trkpt><trkpt lat="44.33355064807655" lon="11.594669834076164"><ele>233.0</ele><time>2026-03-28T10:29:15Z</time></trkpt><trkpt lat="44.333586718279854" lon="11.594833455506736"><ele>232.33333333333334</ele><time>2026-03-28T10:29:17Z</time></trkpt><trkpt lat="44.3336122146518" lon="11.594915281566648"><ele>231.66666666666669</ele><time>2026-03-28T10:29:18Z</time></trkpt><trkpt lat="44.3336325515848" lon="11.595003041665173"><ele>231.0</ele><time>2026-03-28T10:29:19Z</time></trkpt><trkpt lat="44.33365685505169" lon="11.595084605294769"><ele>230.33333333333331</ele><time>2026-03-28T10:29:20Z</time></trkpt><trkpt lat="44.33372378406974" lon="11.595222880060458"><ele>229.66666666666666</ele><time>2026-03-28T10:29:22Z</time></trkpt><trkpt lat="44.33378051490332" lon="11.595350991300148"><ele>229.0</ele><time>2026-03-28T10:29:24Z</time></trkpt><trkpt lat="44.33385350923311" lon="11.595455812872991"><ele>231.39999999999998</ele><time>2026-03-28T10:29:26Z</time></trkpt><trkpt lat="44.3339407131154" lon="11.595552360906957"><ele>233.79999999999998</ele><time>2026-03-28T10:29:28Z</time></trkpt><trkpt lat="44.33399462688329" lon="11.595653202001955"><ele>236.20000000000002</ele><time>2026-03-28T10:29:30Z</time></trkpt><trkpt lat="44.3340300598786" lon="11.595760523217974"><ele>238.60000000000002</ele><time>2026-03-28T10:29:32Z</time></trkpt><trkpt lat="44.33409656532112" lon="11.595855997717281"><ele>241.0</ele><time>2026-03-28T10:29:34Z</time></trkpt><trkpt lat="44.334170239066715" lon="11.595942926871132"><ele>240.99999999999997</ele><time>2026-03-28T10:29:36Z</time></trkpt><trkpt lat="44.33424451727601" lon="11.596039010057664"><ele>241.0</ele><time>2026-03-28T10:29:38Z</time></trkpt><trkpt lat="44.3343239651953" lon="11.596160270379201"><ele>241.0</ele><time>2026-03-28T10:29:40Z</time></trkpt><trkpt lat="44.334368299701744" lon="11.596232145672637"><ele>241.0</ele><time>2026-03-28T10:29:41Z</time></trkpt><trkpt lat="44.33441832565084" lon="11.596309690883674"><ele>240.99999999999997</ele><time>2026-03-28T10:29:42Z</time></trkpt><trkpt lat="44.33447235274825" lon="11.596387130347251"><ele>241.0</ele><time>2026-03-28T10:29:43Z</time></trkpt><trkpt lat="44.334517085460654" lon="11.59645250206048"><ele>240.33333333333331</ele><time>2026-03-28T10:29:44Z</time></trkpt><trkpt lat="44.33460699498176" lon="11.596567021354454"><ele>239.66666666666666</ele><time>2026-03-28T10:29:46Z</time></trkpt><trkpt lat="44.334659484607755" lon="11.596629201965063"><ele>239.0</ele><time>2026-03-28T10:29:47Z</time></trkpt><trkpt lat="44.33471493238865" lon="11.596694251804426"><ele>238.33333333333331</ele><time>2026-03-28T10:29:48Z</time></trkpt><trkpt lat="44.33477047801895" lon="11.596765697275806"><ele>237.66666666666666</ele><time>2026-03-28T10:29:49Z</time></trkpt><trkpt lat="44.33482655201068" lon="11.59684635818608"><ele>237.0</ele><time>2026-03-28T10:29:50Z</time></trkpt><trkpt lat="44.334880202436295" lon="11.596934794693064"><ele>241.66666666666666</ele><time>2026-03-28T10:29:51Z</time></trkpt><trkpt lat="44.33491766256619" lon="11.59704441798671"><ele>246.33333333333331</ele><time>2026-03-28T10:29:52Z</time></trkpt><trkpt lat="44.33494781286025" lon="11.597156628534234"><ele>251.0</ele><time>2026-03-28T10:29:53Z</time></trkpt><trkpt lat="44.3349585519865" lon="11.597271617346761"><ele>255.66666666666666</ele><time>2026-03-28T10:29:54Z</time></trkpt><trkpt lat="44.3349583649551" lon="11.597390048886032"><ele>260.3333333333333</ele><time>2026-03-28T10:29:55Z</time></trkpt><trkpt lat="44.33492638168309" lon="11.597494565226311"><ele>265.0</ele><time>2026-03-28T10:29:56Z</time></trkpt><trkpt lat="44.33490823931112" lon="11.597584618971839"><ele>265.0</ele><time>2026-03-28T10:29:57Z</time></trkpt><trkpt lat="44.33488866444574" lon="11.597741731351112"><ele>265.0</ele><time>2026-03-28T10:29:59Z</time></trkpt><trkpt lat="44.33484933073949" lon="11.597823613451586"><ele>265.0</ele><time>2026-03-28T10:30:01Z</time></trkpt><trkpt lat="44.33486520805449" lon="11.597912689698942"><ele>265.0</ele><time>2026-03-28T10:31:04Z</time></trkpt><trkpt lat="44.33485464599086" lon="11.59780961352549"><ele>265.0</ele><time>2026-03-28T10:32:03Z</time></trkpt><trkpt lat="44.33486572485294" lon="11.597918732224677"><ele>265.0</ele><time>2026-03-28T10:33:20Z</time></trkpt><trkpt lat="44.33489118597665" lon="11.598038145232591"><ele>263.6</ele><time>2026-03-28T10:33:23Z</time></trkpt><trkpt lat="44.33492233959782" lon="11.598156297551101"><ele>262.2</ele><time>2026-03-28T10:33:25Z</time></trkpt><trkpt lat="44.334991597910985" lon="11.598328008078795"><ele>260.8</ele><time>2026-03-28T10:33:27Z</time></trkpt><trkpt lat="44.33503426753544" lon="11.598429238016376"><ele>259.4</ele><time>2026-03-28T10:33:28Z</time></trkpt><trkpt lat="44.33506877771396" lon="11.598517870935407"><ele>258.0</ele><time>2026-03-28T10:33:29Z</time></trkpt><trkpt lat="44.33510142097045" lon="11.598626362951459"><ele>257.4</ele><time>2026-03-28T10:33:30Z</time></trkpt><trkpt lat="44.33512769696226" lon="11.598742331035933"><ele>256.8</ele><time>2026-03-28T10:33:31Z</time></trkpt><trkpt lat="44.33514777934389" lon="11.59886764953435"><ele>256.2</ele><time>2026-03-28T10:33:32Z</time></trkpt><trkpt lat="44.33516515180025" lon="11.598997135539353"><ele>255.6</ele><time>2026-03-28T10:33:33Z</time></trkpt><trkpt lat="44.33517905707956" lon="11.599129210483813"><ele>255.0</ele><time>2026-03-28T10:33:34Z</time></trkpt><trkpt lat="44.33519144934418" lon="11.59925914075971"><ele>255.0</ele><time>2026-03-28T10:33:35Z</time></trkpt><trkpt lat="44.335205968438544" lon="11.599383183770822"><ele>255.0</ele><time>2026-03-28T10:33:36Z</time></trkpt><trkpt lat="44.33521308108543" lon="11.599497075209381"><ele>255.0</ele><time>2026-03-28T10:33:37Z</time></trkpt><trkpt lat="44.33519860358365" lon="11.599610289567844"><ele>255.0</ele><time>2026-03-28T10:33:38Z</time></trkpt><trkpt lat="44.33516596533643" lon="11.599727494823071"><ele>255.0</ele><time>2026-03-28T10:33:39Z</time></trkpt><trkpt lat="44.33512724380101" lon="11.599831742882461"><ele>255.0</ele><time>2026-03-28T10:33:40Z</time></trkpt><trkpt lat="44.33508606189553" lon="11.599931396268222"><ele>254.33333333333334</ele><time>2026-03-28T10:33:41Z</time></trkpt><trkpt lat="44.335050344876834" lon="11.600031920196507"><ele>253.66666666666669</ele><time>2026-03-28T10:33:42Z</time></trkpt><trkpt lat="44.33503356382028" lon="11.600134431178027"><ele>253.0</ele><time>2026-03-28T10:33:43Z</time></trkpt><trkpt lat="44.335038167795076" lon="11.600242873446378"><ele>252.33333333333334</ele><time>2026-03-28T10:33:44Z</time></trkpt><trkpt lat="44.335070042057794" lon="11.600346741960701"><ele>251.66666666666669</ele><time>2026-03-28T10:33:45Z</time></trkpt><trkpt lat="44.335115541488804" lon="11.60045963670671"><ele>251.0</ele><time>2026-03-28T10:33:46Z</time></trkpt><trkpt lat="44.335170349183166" lon="11.600569439256573"><ele>250.20000000000002</ele><time>2026-03-28T10:33:47Z</time></trkpt><trkpt lat="44.33523231826378" lon="11.600684842014376"><ele>249.40000000000003</ele><time>2026-03-28T10:33:48Z</time></trkpt><trkpt lat="44.335296723841395" lon="11.600801567136143"><ele>248.6</ele><time>2026-03-28T10:33:49Z</time></trkpt><trkpt lat="44.33536204628459" lon="11.600920856371856"><ele>247.8</ele><time>2026-03-28T10:33:50Z</time></trkpt><trkpt lat="44.335429957720045" lon="11.601040163406864"><ele>247.0</ele><time>2026-03-28T10:33:51Z</time></trkpt><trkpt lat="44.33550237275737" lon="11.601156667431317"><ele>246.5</ele><time>2026-03-28T10:33:52Z</time></trkpt><trkpt lat="44.335578350488746" lon="11.60126935396508"><ele>246.0</ele><time>2026-03-28T10:33:53Z</time></trkpt><trkpt lat="44.33565442679174" lon="11.6013867847104"><ele>245.5</ele><time>2026-03-28T10:33:54Z</time></trkpt><trkpt lat="44.33572607240697" lon="11.60151046437027"><ele>245.0</ele><time>2026-03-28T10:33:55Z</time></trkpt><trkpt lat="44.33579399888839" lon="11.601638211966014"><ele>245.0</ele><time>2026-03-28T10:33:56Z</time></trkpt><trkpt lat="44.33585250064957" lon="11.601778564300771"><ele>245.0</ele><time>2026-03-28T10:33:57Z</time></trkpt><trkpt lat="44.335903225775965" lon="11.601929020348102"><ele>245.0</ele><time>2026-03-28T10:33:58Z</time></trkpt><trkpt lat="44.33594930719185" lon="11.602078960812294"><ele>245.0</ele><time>2026-03-28T10:33:59Z</time></trkpt><trkpt lat="44.33600107668517" lon="11.602226430477577"><ele>243.0</ele><time>2026-03-28T10:34:00Z</time></trkpt><trkpt lat="44.33605262970893" lon="11.602365717410631"><ele>241.0</ele><time>2026-03-28T10:34:01Z</time></trkpt><trkpt lat="44.336101497855566" lon="11.602495664222221"><ele>239.0</ele><time>2026-03-28T10:34:02Z</time></trkpt><trkpt lat="44.33614746170645" lon="11.602619711448149"><ele>237.0</ele><time>2026-03-28T10:34:03Z</time></trkpt><trkpt lat="44.336180502792025" lon="11.60274814850479"><ele>235.0</ele><time>2026-03-28T10:34:04Z</time></trkpt><trkpt lat="44.33619853190954" lon="11.60288610930753"><ele>232.8</ele><time>2026-03-28T10:34:05Z</time></trkpt><trkpt lat="44.33619902403053" lon="11.603032151095974"><ele>230.6</ele><time>2026-03-28T10:34:06Z</time></trkpt><trkpt lat="44.336184854993476" lon="11.603182593208432"><ele>228.39999999999998</ele><time>2026-03-28T10:34:07Z</time></trkpt><trkpt lat="44.33616601068218" lon="11.603329476134853"><ele>226.2</ele><time>2026-03-28T10:34:08Z</time></trkpt><trkpt lat="44.336144013083604" lon="11.603481999936351"><ele>224.0</ele><time>2026-03-28T10:34:09Z</time></trkpt><trkpt lat="44.336129983270396" lon="11.603637365369327"><ele>222.75</ele><time>2026-03-28T10:34:10Z</time></trkpt><trkpt lat="44.33613061081749" lon="11.603792035404261"><ele>221.5</ele><time>2026-03-28T10:34:11Z</time></trkpt><trkpt lat="44.33615121633958" lon="11.60394474755054"><ele>220.25</ele><time>2026-03-28T10:34:12Z</time></trkpt><trkpt lat="44.336183844016155" lon="11.604095579420834"><ele>219.0</ele><time>2026-03-28T10:34:13Z</time></trkpt><trkpt lat="44.336222220025974" lon="11.60425043949644"><ele>219.0</ele><time>2026-03-28T10:34:14Z</time></trkpt><trkpt lat="44.33626530617432" lon="11.604404595662682"><ele>219.0</ele><time>2026-03-28T10:34:15Z</time></trkpt><trkpt lat="44.33630548778901" lon="11.604560064237525"><ele>219.0</ele><time>2026-03-28T10:34:16Z</time></trkpt><trkpt lat="44.336346313476334" lon="11.604711817551735"><ele>219.0</ele><time>2026-03-28T10:34:17Z</time></trkpt><trkpt lat="44.33638242249586" lon="11.604863344525556"><ele>219.2</ele><time>2026-03-28T10:34:18Z</time></trkpt><trkpt lat="44.336424029105025" lon="11.605008539111285"><ele>219.39999999999998</ele><time>2026-03-28T10:34:19Z</time></trkpt><trkpt lat="44.33647466450925" lon="11.605137119344302"><ele>219.6</ele><time>2026-03-28T10:34:20Z</time></trkpt><trkpt lat="44.336548721337806" lon="11.605240788413024"><ele>219.8</ele><time>2026-03-28T10:34:21Z</time></trkpt><trkpt lat="44.33662495832599" lon="11.605328028660338"><ele>220.0</ele><time>2026-03-28T10:34:22Z</time></trkpt><trkpt lat="44.33670502861995" lon="11.605400322617488"><ele>220.0</ele><time>2026-03-28T10:34:23Z</time></trkpt><trkpt lat="44.336788468283835" lon="11.605473190613951"><ele>220.0</ele><time>2026-03-28T10:34:24Z</time></trkpt><trkpt lat="44.336866944498084" lon="11.605546925571197"><ele>220.0</ele><time>2026-03-28T10:34:25Z</time></trkpt><trkpt lat="44.33693827959399" lon="11.605641679728905"><ele>220.0</ele><time>2026-03-28T10:34:26Z</time></trkpt><trkpt lat="44.33701101856537" lon="11.605734285928312"><ele>220.0</ele><time>2026-03-28T10:34:27Z</time></trkpt><trkpt lat="44.33708695219456" lon="11.605838112171455"><ele>220.0</ele><time>2026-03-28T10:34:28Z</time></trkpt><trkpt lat="44.33712196890796" lon="11.606011741685643"><ele>220.0</ele><time>2026-03-28T10:34:29Z</time></trkpt><trkpt lat="44.33718895692033" lon="11.606142934626908"><ele>220.0</ele><time>2026-03-28T10:34:30Z</time></trkpt><trkpt lat="44.33725193196032" lon="11.606275066794442"><ele>220.0</ele><time>2026-03-28T10:34:31Z</time></trkpt><trkpt lat="44.337309824790175" lon="11.606408145080643"><ele>220.2</ele><time>2026-03-28T10:34:32Z</time></trkpt><trkpt lat="44.337363911785516" lon="11.606545194325399"><ele>220.4</ele><time>2026-03-28T10:34:33Z</time></trkpt><trkpt lat="44.33740943081743" lon="11.606686278551814"><ele>220.60000000000002</ele><time>2026-03-28T10:34:34Z</time></trkpt><trkpt lat="44.33744519362348" lon="11.606825777709878"><ele>220.8</ele><time>2026-03-28T10:34:35Z</time></trkpt><trkpt lat="44.337471201123435" lon="11.606959886894668"><ele>221.0</ele><time>2026-03-28T10:34:36Z</time></trkpt><trkpt lat="44.337493048214235" lon="11.607083506252899"><ele>222.00000000000003</ele><time>2026-03-28T10:34:37Z</time></trkpt><trkpt lat="44.33750970442199" lon="11.607197232365609"><ele>223.0</ele><time>2026-03-28T10:34:38Z</time></trkpt><trkpt lat="44.33752319625277" lon="11.607308012797253"><ele>224.0</ele><time>2026-03-28T10:34:39Z</time></trkpt><trkpt lat="44.3375343725399" lon="11.607428337244261"><ele>225.0</ele><time>2026-03-28T10:34:40Z</time></trkpt><trkpt lat="44.33754435957226" lon="11.607546870041492"><ele>226.00000000000003</ele><time>2026-03-28T10:34:41Z</time></trkpt><trkpt lat="44.33755736968456" lon="11.607666153391053"><ele>227.0</ele><time>2026-03-28T10:34:42Z</time></trkpt><trkpt lat="44.33758412899719" lon="11.60777684325653"><ele>228.8</ele><time>2026-03-28T10:34:43Z</time></trkpt><trkpt lat="44.33763764756229" lon="11.60787064439713"><ele>230.6</ele><time>2026-03-28T10:34:44Z</time></trkpt><trkpt lat="44.33770137777892" lon="11.607942710540067"><ele>232.40000000000003</ele><time>2026-03-28T10:34:45Z</time></trkpt><trkpt lat="44.33779438027802" lon="11.60801339635405"><ele>234.20000000000002</ele><time>2026-03-28T10:34:47Z</time></trkpt><trkpt lat="44.33789522689108" lon="11.608058466276354"><ele>236.0</ele><time>2026-03-28T10:34:49Z</time></trkpt><trkpt lat="44.33796937744266" lon="11.60808868211805"><ele>236.00000000000003</ele><time>2026-03-28T10:34:50Z</time></trkpt><trkpt lat="44.33805021986934" lon="11.608131951203799"><ele>236.0</ele><time>2026-03-28T10:34:51Z</time></trkpt><trkpt lat="44.33812026391908" lon="11.608181184469707"><ele>236.0</ele><time>2026-03-28T10:34:52Z</time></trkpt><trkpt lat="44.338187855702195" lon="11.60823308357358"><ele>236.0</ele><time>2026-03-28T10:34:53Z</time></trkpt><trkpt lat="44.33825371017088" lon="11.60828825179606"><ele>236.00000000000003</ele><time>2026-03-28T10:34:54Z</time></trkpt><trkpt lat="44.338313908216264" lon="11.608349380799003"><ele>236.0</ele><time>2026-03-28T10:34:55Z</time></trkpt><trkpt lat="44.33836720597659" lon="11.60842695418073"><ele>235.50000000000003</ele><time>2026-03-28T10:34:56Z</time></trkpt><trkpt lat="44.33840844962323" lon="11.60851668791672"><ele>235.0</ele><time>2026-03-28T10:34:57Z</time></trkpt><trkpt lat="44.33843873660999" lon="11.60861407995512"><ele>234.5</ele><time>2026-03-28T10:34:58Z</time></trkpt><trkpt lat="44.33846390296753" lon="11.60873049824866"><ele>234.0</ele><time>2026-03-28T10:34:59Z</time></trkpt><trkpt lat="44.338484506200594" lon="11.608861141467257"><ele>233.50000000000003</ele><time>2026-03-28T10:35:00Z</time></trkpt><trkpt lat="44.338494360552474" lon="11.608988382392173"><ele>233.0</ele><time>2026-03-28T10:35:01Z</time></trkpt><trkpt lat="44.33849893142006" lon="11.60910628364869"><ele>233.00000000000003</ele><time>2026-03-28T10:35:02Z</time></trkpt><trkpt lat="44.338499597478354" lon="11.609220403497856"><ele>233.0</ele><time>2026-03-28T10:35:03Z</time></trkpt><trkpt lat="44.33849682132731" lon="11.60933754276291"><ele>233.0</ele><time>2026-03-28T10:35:04Z</time></trkpt><trkpt lat="44.338498494383934" lon="11.609453182401895"><ele>233.0</ele><time>2026-03-28T10:35:05Z</time></trkpt><trkpt lat="44.33848987892516" lon="11.609570972845896"><ele>233.00000000000003</ele><time>2026-03-28T10:35:06Z</time></trkpt><trkpt lat="44.338482830790426" lon="11.609687129641955"><ele>233.0</ele><time>2026-03-28T10:35:07Z</time></trkpt><trkpt lat="44.33848079291627" lon="11.60980174666219"><ele>231.00000000000003</ele><time>2026-03-28T10:35:08Z</time></trkpt><trkpt lat="44.3384887414229" lon="11.609917988314871"><ele>229.0</ele><time>2026-03-28T10:35:09Z</time></trkpt><trkpt lat="44.33850796578632" lon="11.610033045835783"><ele>227.0</ele><time>2026-03-28T10:35:10Z</time></trkpt><trkpt lat="44.33853481322329" lon="11.61015020692842"><ele>225.0</ele><time>2026-03-28T10:35:11Z</time></trkpt><trkpt lat="44.33856602588902" lon="11.610269025486705"><ele>223.00000000000003</ele><time>2026-03-28T10:35:12Z</time></trkpt><trkpt lat="44.338602813238325" lon="11.610385233708143"><ele>221.0</ele><time>2026-03-28T10:35:13Z</time></trkpt><trkpt lat="44.338641193956875" lon="11.610497620242354"><ele>219.50000000000003</ele><time>2026-03-28T10:35:14Z</time></trkpt><trkpt lat="44.338681669100474" lon="11.610605177129338"><ele>218.0</ele><time>2026-03-28T10:35:15Z</time></trkpt><trkpt lat="44.33872532971106" lon="11.610702536062536"><ele>216.5</ele><time>2026-03-28T10:35:16Z</time></trkpt><trkpt lat="44.33876570447776" lon="11.610777642662182"><ele>215.0</ele><time>2026-03-28T10:35:17Z</time></trkpt><trkpt lat="44.33881938483008" lon="11.610862607986913"><ele>213.50000000000003</ele><time>2026-03-28T10:35:19Z</time></trkpt><trkpt lat="44.33886687547674" lon="11.610953263141406"><ele>212.0</ele><time>2026-03-28T10:37:11Z</time></trkpt><trkpt lat="44.33888709842371" lon="11.611045681241183"><ele>212.6</ele><time>2026-03-28T10:37:13Z</time></trkpt><trkpt lat="44.338923459271825" lon="11.611181161651889"><ele>213.2</ele><time>2026-03-28T10:37:15Z</time></trkpt><trkpt lat="44.338953893579" lon="11.611266315917808"><ele>213.8</ele><time>2026-03-28T10:37:16Z</time></trkpt><trkpt lat="44.33900122381872" lon="11.611378276159261"><ele>214.4</ele><time>2026-03-28T10:37:17Z</time></trkpt><trkpt lat="44.339053036528526" lon="11.611494493837776"><ele>215.0</ele><time>2026-03-28T10:37:18Z</time></trkpt><trkpt lat="44.339103119778486" lon="11.611600566891529"><ele>215.0</ele><time>2026-03-28T10:37:19Z</time></trkpt><trkpt lat="44.33916622996632" lon="11.61170734240435"><ele>215.0</ele><time>2026-03-28T10:37:20Z</time></trkpt><trkpt lat="44.33924123623719" lon="11.611823989112484"><ele>215.0</ele><time>2026-03-28T10:37:21Z</time></trkpt><trkpt lat="44.339334670493194" lon="11.611930012281782"><ele>215.0</ele><time>2026-03-28T10:37:22Z</time></trkpt><trkpt lat="44.33943482834413" lon="11.612037192992632"><ele>217.0</ele><time>2026-03-28T10:37:23Z</time></trkpt><trkpt lat="44.33953715244622" lon="11.612133049315899"><ele>219.0</ele><time>2026-03-28T10:37:24Z</time></trkpt><trkpt lat="44.33963621746383" lon="11.612236131834267"><ele>221.0</ele><time>2026-03-28T10:37:25Z</time></trkpt><trkpt lat="44.339728906117614" lon="11.61234028749716"><ele>223.0</ele><time>2026-03-28T10:37:26Z</time></trkpt><trkpt lat="44.339811597452325" lon="11.612450610805775"><ele>223.0</ele><time>2026-03-28T10:37:27Z</time></trkpt><trkpt lat="44.339894034855" lon="11.612555238735526"><ele>223.0</ele><time>2026-03-28T10:37:28Z</time></trkpt><trkpt lat="44.339975135861074" lon="11.612660537586146"><ele>223.0</ele><time>2026-03-28T10:37:29Z</time></trkpt><trkpt lat="44.34004749958767" lon="11.612771514637883"><ele>223.0</ele><time>2026-03-28T10:37:30Z</time></trkpt><trkpt lat="44.340102605630676" lon="11.612889513415006"><ele>223.0</ele><time>2026-03-28T10:37:31Z</time></trkpt><trkpt lat="44.340140291417555" lon="11.613019218606382"><ele>223.2</ele><time>2026-03-28T10:37:32Z</time></trkpt><trkpt lat="44.34018219482379" lon="11.613156718642703"><ele>223.4</ele><time>2026-03-28T10:37:33Z</time></trkpt><trkpt lat="44.340210016423626" lon="11.613298001072534"><ele>223.59999999999997</ele><time>2026-03-28T10:37:34Z</time></trkpt><trkpt lat="44.3402326474907" lon="11.61344715574261"><ele>223.79999999999998</ele><time>2026-03-28T10:37:35Z</time></trkpt><trkpt lat="44.34024741805202" lon="11.613598641307005"><ele>224.0</ele><time>2026-03-28T10:37:36Z</time></trkpt><trkpt lat="44.340255961074774" lon="11.613757315191055"><ele>224.0</ele><time>2026-03-28T10:37:37Z</time></trkpt><trkpt lat="44.34027435704787" lon="11.613915214720553"><ele>224.0</ele><time>2026-03-28T10:37:38Z</time></trkpt><trkpt lat="44.34030776246712" lon="11.614072742691961"><ele>224.0</ele><time>2026-03-28T10:37:39Z</time></trkpt><trkpt lat="44.34034800385889" lon="11.61422823435674"><ele>224.0</ele><time>2026-03-28T10:37:40Z</time></trkpt><trkpt lat="44.3404025892536" lon="11.614375142787653"><ele>224.2</ele><time>2026-03-28T10:37:41Z</time></trkpt><trkpt lat="44.34046530600542" lon="11.614513388656352"><ele>224.39999999999998</ele><time>2026-03-28T10:37:42Z</time></trkpt><trkpt lat="44.34053543892446" lon="11.614641201150228"><ele>224.6</ele><time>2026-03-28T10:37:43Z</time></trkpt><trkpt lat="44.340601083723385" lon="11.614764847531813"><ele>224.8</ele><time>2026-03-28T10:37:44Z</time></trkpt><trkpt lat="44.340664410127" lon="11.614884724543312"><ele>225.0</ele><time>2026-03-28T10:37:45Z</time></trkpt><trkpt lat="44.340716125919585" lon="11.615008457045484"><ele>225.0</ele><time>2026-03-28T10:37:46Z</time></trkpt><trkpt lat="44.34075358610175" lon="11.61513601248877"><ele>225.0</ele><time>2026-03-28T10:37:47Z</time></trkpt><trkpt lat="44.34078656615739" lon="11.615268508541583"><ele>225.0</ele><time>2026-03-28T10:37:48Z</time></trkpt><trkpt lat="44.34081195794846" lon="11.615402249062535"><ele>225.0</ele><time>2026-03-28T10:37:49Z</time></trkpt><trkpt lat="44.3408330162849" lon="11.615534271354816"><ele>225.0</ele><time>2026-03-28T10:37:50Z</time></trkpt><trkpt lat="44.34085416762701" lon="11.615664810042007"><ele>224.4</ele><time>2026-03-28T10:37:51Z</time></trkpt><trkpt lat="44.34087056606721" lon="11.615802244798788"><ele>223.8</ele><time>2026-03-28T10:37:52Z</time></trkpt><trkpt lat="44.34090242500015" lon="11.61593734494764"><ele>223.2</ele><time>2026-03-28T10:37:53Z</time></trkpt><trkpt lat="44.34095286243491" lon="11.616065213492472"><ele>222.6</ele><time>2026-03-28T10:37:54Z</time></trkpt><trkpt lat="44.34101768859261" lon="11.616181491918756"><ele>222.0</ele><time>2026-03-28T10:37:55Z</time></trkpt><trkpt lat="44.341105569646025" lon="11.61627947792233"><ele>223.39999999999998</ele><time>2026-03-28T10:37:56Z</time></trkpt><trkpt lat="44.341197960242795" lon="11.616374135228854"><ele>224.79999999999998</ele><time>2026-03-28T10:37:57Z</time></trkpt><trkpt lat="44.34129328466857" lon="11.616467216027173"><ele>226.2</ele><time>2026-03-28T10:37:58Z</time></trkpt><trkpt lat="44.34137913889356" lon="11.6165595248764"><ele>227.6</ele><time>2026-03-28T10:37:59Z</time></trkpt><trkpt lat="44.341451430262985" lon="11.616655331562475"><ele>229.0</ele><time>2026-03-28T10:38:00Z</time></trkpt><trkpt lat="44.34151059377408" lon="11.616738360192743"><ele>229.83333333333331</ele><time>2026-03-28T10:38:01Z</time></trkpt><trkpt lat="44.34155650726157" lon="11.616810843075722"><ele>230.66666666666666</ele><time>2026-03-28T10:38:02Z</time></trkpt><trkpt lat="44.34162136564297" lon="11.616947619433327"><ele>231.5</ele><time>2026-03-28T10:38:04Z</time></trkpt><trkpt lat="44.341653767735416" lon="11.617031722074488"><ele>232.33333333333331</ele><time>2026-03-28T10:38:05Z</time></trkpt><trkpt lat="44.34167141933458" lon="11.617130481972056"><ele>233.16666666666666</ele><time>2026-03-28T10:38:06Z</time></trkpt><trkpt lat="44.34168159811369" lon="11.617228990488163"><ele>234.0</ele><time>2026-03-28T10:38:07Z</time></trkpt><trkpt lat="44.341685399150585" lon="11.61733420688277"><ele>235.5</ele><time>2026-03-28T10:38:08Z</time></trkpt><trkpt lat="44.34168394174478" lon="11.617447917811512"><ele>237.0</ele><time>2026-03-28T10:38:09Z</time></trkpt><trkpt lat="44.34168520403695" lon="11.617567728387975"><ele>238.5</ele><time>2026-03-28T10:38:10Z</time></trkpt><trkpt lat="44.34168569423496" lon="11.617673558345716"><ele>240.0</ele><time>2026-03-28T10:38:11Z</time></trkpt><trkpt lat="44.341691243148894" lon="11.617786950288725"><ele>241.5</ele><time>2026-03-28T10:38:12Z</time></trkpt><trkpt lat="44.341702793470475" lon="11.6179019091616"><ele>243.0</ele><time>2026-03-28T10:38:13Z</time></trkpt><trkpt lat="44.34171673915383" lon="11.61801661514338"><ele>244.2</ele><time>2026-03-28T10:38:14Z</time></trkpt><trkpt lat="44.3417365282314" lon="11.61813414883075"><ele>245.4</ele><time>2026-03-28T10:38:15Z</time></trkpt><trkpt lat="44.34176277774139" lon="11.618254181361495"><ele>246.59999999999997</ele><time>2026-03-28T10:38:16Z</time></trkpt><trkpt lat="44.3417928743685" lon="11.618378451624782"><ele>247.79999999999998</ele><time>2026-03-28T10:38:17Z</time></trkpt><trkpt lat="44.34181615261088" lon="11.61850667195554"><ele>249.0</ele><time>2026-03-28T10:38:18Z</time></trkpt><trkpt lat="44.34182843589582" lon="11.61863423042862"><ele>248.83333333333334</ele><time>2026-03-28T10:38:19Z</time></trkpt><trkpt lat="44.341840702713746" lon="11.618754780476571"><ele>248.66666666666669</ele><time>2026-03-28T10:38:20Z</time></trkpt><trkpt lat="44.34185629633744" lon="11.618874173738025"><ele>248.5</ele><time>2026-03-28T10:38:21Z</time></trkpt><trkpt lat="44.34188059200897" lon="11.618988006505669"><ele>248.33333333333334</ele><time>2026-03-28T10:38:22Z</time></trkpt><trkpt lat="44.34193301110917" lon="11.619081081123218"><ele>248.16666666666669</ele><time>2026-03-28T10:38:23Z</time></trkpt><trkpt lat="44.34200021027333" lon="11.619157547304228"><ele>248.0</ele><time>2026-03-28T10:38:24Z</time></trkpt><trkpt lat="44.34207489772238" lon="11.619242723732016"><ele>248.0</ele><time>2026-03-28T10:38:25Z</time></trkpt><trkpt lat="44.34214980580932" lon="11.619338129463333"><ele>248.0</ele><time>2026-03-28T10:38:26Z</time></trkpt><trkpt lat="44.34222571341135" lon="11.619430990872424"><ele>248.0</ele><time>2026-03-28T10:38:27Z</time></trkpt><trkpt lat="44.34230650868677" lon="11.619514209282393"><ele>248.0</ele><time>2026-03-28T10:38:28Z</time></trkpt><trkpt lat="44.342390545122356" lon="11.619589392399458"><ele>248.0</ele><time>2026-03-28T10:38:29Z</time></trkpt><trkpt lat="44.342474617887284" lon="11.619665516734386"><ele>248.0</ele><time>2026-03-28T10:38:30Z</time></trkpt><trkpt lat="44.342557394125976" lon="11.619742648492092"><ele>248.0</ele><time>2026-03-28T10:38:31Z</time></trkpt><trkpt lat="44.342632875837396" lon="11.619835975588483"><ele>248.0</ele><time>2026-03-28T10:38:32Z</time></trkpt><trkpt lat="44.34269327935935" lon="11.619940546497602"><ele>248.0</ele><time>2026-03-28T10:38:33Z</time></trkpt><trkpt lat="44.34274264895633" lon="11.620052780726603"><ele>248.0</ele><time>2026-03-28T10:38:34Z</time></trkpt><trkpt lat="44.34277655765157" lon="11.620182432812056"><ele>249.4</ele><time>2026-03-28T10:38:35Z</time></trkpt><trkpt lat="44.3427997798855" lon="11.62032802534643"><ele>250.8</ele><time>2026-03-28T10:38:36Z</time></trkpt><trkpt lat="44.342821144990346" lon="11.620480689534336"><ele>252.2</ele><time>2026-03-28T10:38:37Z</time></trkpt><trkpt lat="44.34283700429368" lon="11.620634803024208"><ele>253.6</ele><time>2026-03-28T10:38:38Z</time></trkpt><trkpt lat="44.34285776562925" lon="11.620789385081894"><ele>255.0</ele><time>2026-03-28T10:38:39Z</time></trkpt><trkpt lat="44.34288423295481" lon="11.620951736816657"><ele>255.0</ele><time>2026-03-28T10:38:40Z</time></trkpt><trkpt lat="44.342913145691405" lon="11.621113118478728"><ele>255.0</ele><time>2026-03-28T10:38:41Z</time></trkpt><trkpt lat="44.3429437694923" lon="11.621279721949547"><ele>255.0</ele><time>2026-03-28T10:38:42Z</time></trkpt><trkpt lat="44.3429848415143" lon="11.621436126591888"><ele>255.0</ele><time>2026-03-28T10:38:43Z</time></trkpt><trkpt lat="44.34303768426946" lon="11.621584293515445"><ele>255.4</ele><time>2026-03-28T10:38:44Z</time></trkpt><trkpt lat="44.343097840712765" lon="11.621720945428127"><ele>255.8</ele><time>2026-03-28T10:38:45Z</time></trkpt><trkpt lat="44.34316256206554" lon="11.621848346637588"><ele>256.2</ele><time>2026-03-28T10:38:46Z</time></trkpt><trkpt lat="44.34322691133526" lon="11.621969829178077"><ele>256.6</ele><time>2026-03-28T10:38:47Z</time></trkpt><trkpt lat="44.343288337873254" lon="11.622091640361116"><ele>257.0</ele><time>2026-03-28T10:38:48Z</time></trkpt><trkpt lat="44.343353820736205" lon="11.622203372924329"><ele>258.6</ele><time>2026-03-28T10:38:49Z</time></trkpt><trkpt lat="44.34341682467565" lon="11.622312641177457"><ele>260.2</ele><time>2026-03-28T10:38:50Z</time></trkpt><trkpt lat="44.34348258039637" lon="11.62241618173861"><ele>261.8</ele><time>2026-03-28T10:38:51Z</time></trkpt><trkpt lat="44.34354914502698" lon="11.622513849253611"><ele>263.4</ele><time>2026-03-28T10:38:52Z</time></trkpt><trkpt lat="44.34362018429691" lon="11.622603038650912"><ele>265.0</ele><time>2026-03-28T10:38:53Z</time></trkpt><trkpt lat="44.34370463483567" lon="11.622675719369436"><ele>265.0</ele><time>2026-03-28T10:38:54Z</time></trkpt><trkpt lat="44.34379944019653" lon="11.622735024942797"><ele>265.0</ele><time>2026-03-28T10:38:55Z</time></trkpt><trkpt lat="44.34390320431766" lon="11.62279008779748"><ele>265.0</ele><time>2026-03-28T10:38:56Z</time></trkpt><trkpt lat="44.34400700889568" lon="11.622844459410935"><ele>265.0</ele><time>2026-03-28T10:38:57Z</time></trkpt><trkpt lat="44.34411020963751" lon="11.622899507560097"><ele>265.0</ele><time>2026-03-28T10:38:58Z</time></trkpt><trkpt lat="44.344213351741004" lon="11.622952707149956"><ele>264.2</ele><time>2026-03-28T10:38:59Z</time></trkpt><trkpt lat="44.34431476467595" lon="11.623007707542646"><ele>263.4</ele><time>2026-03-28T10:39:00Z</time></trkpt><trkpt lat="44.344416068380404" lon="11.623062568684583"><ele>262.6</ele><time>2026-03-28T10:39:01Z</time></trkpt><trkpt lat="44.344514016511994" lon="11.623114695951559"><ele>261.8</ele><time>2026-03-28T10:39:02Z</time></trkpt><trkpt lat="44.34460793249348" lon="11.623166116639544"><ele>261.0</ele><time>2026-03-28T10:39:03Z</time></trkpt><trkpt lat="44.34469377768434" lon="11.623220459654892"><ele>258.40000000000003</ele><time>2026-03-28T10:39:04Z</time></trkpt><trkpt lat="44.34477963791218" lon="11.623273127237221"><ele>255.8</ele><time>2026-03-28T10:39:05Z</time></trkpt><trkpt lat="44.344863740561195" lon="11.623326580658851"><ele>253.20000000000002</ele><time>2026-03-28T10:39:06Z</time></trkpt><trkpt lat="44.344947589771515" lon="11.623383875266027"><ele>250.60000000000002</ele><time>2026-03-28T10:39:07Z</time></trkpt><trkpt lat="44.34503313839276" lon="11.623449994369388"><ele>248.0</ele><time>2026-03-28T10:39:08Z</time></trkpt><trkpt lat="44.34510850579691" lon="11.623542726254612"><ele>249.8</ele><time>2026-03-28T10:39:09Z</time></trkpt><trkpt lat="44.3451756830879" lon="11.623656345995013"><ele>251.60000000000002</ele><time>2026-03-28T10:39:10Z</time></trkpt><trkpt lat="44.34523559245206" lon="11.623779124832888"><ele>253.39999999999998</ele><time>2026-03-28T10:39:11Z</time></trkpt><trkpt lat="44.345292682389385" lon="11.62390021625499"><ele>255.2</ele><time>2026-03-28T10:39:12Z</time></trkpt><trkpt lat="44.34535300359246" lon="11.62402752207162"><ele>257.0</ele><time>2026-03-28T10:39:13Z</time></trkpt><trkpt lat="44.345407403035836" lon="11.624160300610269"><ele>257.0</ele><time>2026-03-28T10:39:14Z</time></trkpt><trkpt lat="44.34546457395691" lon="11.624294539084401"><ele>257.0</ele><time>2026-03-28T10:39:15Z</time></trkpt><trkpt lat="44.34552015739308" lon="11.624427341819425"><ele>257.0</ele><time>2026-03-28T10:39:16Z</time></trkpt><trkpt lat="44.34557261792005" lon="11.62455782389795"><ele>257.0</ele><time>2026-03-28T10:39:17Z</time></trkpt><trkpt lat="44.345623245770035" lon="11.624681022928824"><ele>257.0</ele><time>2026-03-28T10:39:18Z</time></trkpt><trkpt lat="44.34567070197015" lon="11.624802769194977"><ele>255.83333333333334</ele><time>2026-03-28T10:39:19Z</time></trkpt><trkpt lat="44.345717714097944" lon="11.624919248724956"><ele>254.66666666666669</ele><time>2026-03-28T10:39:20Z</time></trkpt><trkpt lat="44.3457629014741" lon="11.625031126211143"><ele>253.5</ele><time>2026-03-28T10:39:21Z</time></trkpt><trkpt lat="44.34580727573821" lon="11.625135312563344"><ele>252.33333333333331</ele><time>2026-03-28T10:39:22Z</time></trkpt><trkpt lat="44.34584614213743" lon="11.625236216178951"><ele>251.16666666666666</ele><time>2026-03-28T10:39:23Z</time></trkpt><trkpt lat="44.34587966600778" lon="11.62533486123988"><ele>250.0</ele><time>2026-03-28T10:39:24Z</time></trkpt><trkpt lat="44.345915471487" lon="11.6254218171125"><ele>249.99999999999997</ele><time>2026-03-28T10:39:25Z</time></trkpt><trkpt lat="44.34595187332416" lon="11.625503726786157"><ele>250.0</ele><time>2026-03-28T10:39:26Z</time></trkpt><trkpt lat="44.34598434595695" lon="11.625580294113863"><ele>250.0</ele><time>2026-03-28T10:39:27Z</time></trkpt><trkpt lat="44.34604567934686" lon="11.625726214167814"><ele>250.0</ele><time>2026-03-28T10:39:29Z</time></trkpt><trkpt lat="44.34607728093823" lon="11.62580556159179"><ele>249.99999999999997</ele><time>2026-03-28T10:39:30Z</time></trkpt><trkpt lat="44.346109288112274" lon="11.625892719089716"><ele>250.0</ele><time>2026-03-28T10:39:31Z</time></trkpt><trkpt lat="44.34614547700988" lon="11.62598789277679"><ele>249.99999999999997</ele><time>2026-03-28T10:39:32Z</time></trkpt><trkpt lat="44.34618482948508" lon="11.626089017845498"><ele>250.0</ele><time>2026-03-28T10:39:33Z</time></trkpt><trkpt lat="44.346225945957386" lon="11.626179900497878"><ele>250.0</ele><time>2026-03-28T10:39:34Z</time></trkpt><trkpt lat="44.346266259702205" lon="11.62626020572013"><ele>250.0</ele><time>2026-03-28T10:39:35Z</time></trkpt><trkpt lat="44.34633680118067" lon="11.626349421217734"><ele>249.99999999999997</ele><time>2026-03-28T10:39:37Z</time></trkpt><trkpt lat="44.34635834369142" lon="11.626485912704302"><ele>250.0</ele><time>2026-03-28T10:41:03Z</time></trkpt><trkpt lat="44.34639256340511" lon="11.626598539089606"><ele>248.99999999999997</ele><time>2026-03-28T10:41:05Z</time></trkpt><trkpt lat="44.34644361694764" lon="11.62670224228557"><ele>248.0</ele><time>2026-03-28T10:41:07Z</time></trkpt><trkpt lat="44.346485625454186" lon="11.626772286325174"><ele>247.0</ele><time>2026-03-28T10:41:08Z</time></trkpt><trkpt lat="44.34653403794566" lon="11.626873285997938"><ele>246.0</ele><time>2026-03-28T10:41:09Z</time></trkpt><trkpt lat="44.3465910431692" lon="11.62697536009965"><ele>244.99999999999997</ele><time>2026-03-28T10:41:10Z</time></trkpt><trkpt lat="44.34663720170539" lon="11.627056410778293"><ele>244.0</ele><time>2026-03-28T10:41:11Z</time></trkpt><trkpt lat="44.346676775900185" lon="11.627146052937265"><ele>246.79999999999998</ele><time>2026-03-28T10:41:12Z</time></trkpt><trkpt lat="44.34673609758097" lon="11.6272252676158"><ele>249.59999999999997</ele><time>2026-03-28T10:41:13Z</time></trkpt><trkpt lat="44.34681919053549" lon="11.627298873659882"><ele>252.4</ele><time>2026-03-28T10:41:14Z</time></trkpt><trkpt lat="44.34689078660757" lon="11.62736766821927"><ele>255.2</ele><time>2026-03-28T10:41:15Z</time></trkpt><trkpt lat="44.34696755896316" lon="11.627441053389562"><ele>258.0</ele><time>2026-03-28T10:41:16Z</time></trkpt><trkpt lat="44.34704225339071" lon="11.627541742829234"><ele>258.0</ele><time>2026-03-28T10:41:17Z</time></trkpt><trkpt lat="44.347117743805754" lon="11.62765639760295"><ele>258.0</ele><time>2026-03-28T10:41:18Z</time></trkpt><trkpt lat="44.34718895346196" lon="11.62777879565639"><ele>258.0</ele><time>2026-03-28T10:41:19Z</time></trkpt><trkpt lat="44.347257318740546" lon="11.62790145674772"><ele>258.0</ele><time>2026-03-28T10:41:20Z</time></trkpt><trkpt lat="44.3473327302242" lon="11.628010369958744"><ele>258.0</ele><time>2026-03-28T10:41:21Z</time></trkpt><trkpt lat="44.347395272600004" lon="11.628136360178885"><ele>256.8</ele><time>2026-03-28T10:41:22Z</time></trkpt><trkpt lat="44.34746340007903" lon="11.628253845308706"><ele>255.60000000000002</ele><time>2026-03-28T10:41:23Z</time></trkpt><trkpt lat="44.34753260801489" lon="11.62836937076213"><ele>254.39999999999998</ele><time>2026-03-28T10:41:24Z</time></trkpt><trkpt lat="44.34759578967086" lon="11.628479030075953"><ele>253.2</ele><time>2026-03-28T10:41:25Z</time></trkpt><trkpt lat="44.34765722200586" lon="11.628586090628378"><ele>252.0</ele><time>2026-03-28T10:41:26Z</time></trkpt><trkpt lat="44.34772190409616" lon="11.628686088266166"><ele>252.0</ele><time>2026-03-28T10:41:27Z</time></trkpt><trkpt lat="44.3477985278985" lon="11.628780856475768"><ele>252.0</ele><time>2026-03-28T10:41:28Z</time></trkpt><trkpt lat="44.34787517492134" lon="11.628858514713588"><ele>252.0</ele><time>2026-03-28T10:41:29Z</time></trkpt><trkpt lat="44.347949198783986" lon="11.628938373627271"><ele>252.0</ele><time>2026-03-28T10:41:30Z</time></trkpt><trkpt lat="44.34801971471908" lon="11.629012384910617"><ele>252.0</ele><time>2026-03-28T10:41:31Z</time></trkpt><trkpt lat="44.34808806007193" lon="11.629093158179163"><ele>249.66666666666666</ele><time>2026-03-28T10:41:32Z</time></trkpt><trkpt lat="44.348155613839495" lon="11.629168293231233"><ele>247.33333333333331</ele><time>2026-03-28T10:41:33Z</time></trkpt><trkpt lat="44.34821683065406" lon="11.629251577967693"><ele>245.0</ele><time>2026-03-28T10:41:34Z</time></trkpt><trkpt lat="44.34827339810823" lon="11.629338506865768"><ele>242.66666666666666</ele><time>2026-03-28T10:41:35Z</time></trkpt><trkpt lat="44.3483154660484" lon="11.629437650849484"><ele>240.33333333333331</ele><time>2026-03-28T10:41:36Z</time></trkpt><trkpt lat="44.34834992807776" lon="11.62954209690093"><ele>238.0</ele><time>2026-03-28T10:41:37Z</time></trkpt><trkpt lat="44.34837158032861" lon="11.629663358586667"><ele>238.0</ele><time>2026-03-28T10:41:38Z</time></trkpt><trkpt lat="44.34839265407104" lon="11.629786321657603"><ele>238.0</ele><time>2026-03-28T10:41:39Z</time></trkpt><trkpt lat="44.34841609553903" lon="11.629911375059317"><ele>238.0</ele><time>2026-03-28T10:41:40Z</time></trkpt><trkpt lat="44.348439874855394" lon="11.63004056736745"><ele>238.0</ele><time>2026-03-28T10:41:41Z</time></trkpt><trkpt lat="44.34846591637488" lon="11.63017216379424"><ele>238.0</ele><time>2026-03-28T10:41:42Z</time></trkpt><trkpt lat="44.34849115224333" lon="11.630307295184442"><ele>237.60000000000002</ele><time>2026-03-28T10:41:43Z</time></trkpt><trkpt lat="44.34851965232745" lon="11.630438453973568"><ele>237.20000000000002</ele><time>2026-03-28T10:41:44Z</time></trkpt><trkpt lat="44.34854291239172" lon="11.630573055315674"><ele>236.8</ele><time>2026-03-28T10:41:45Z</time></trkpt><trkpt lat="44.348562247599844" lon="11.630708044696576"><ele>236.4</ele><time>2026-03-28T10:41:46Z</time></trkpt><trkpt lat="44.348576054414714" lon="11.630846221919503"><ele>236.0</ele><time>2026-03-28T10:41:47Z</time></trkpt><trkpt lat="44.34858368660511" lon="11.630984194851475"><ele>236.0</ele><time>2026-03-28T10:41:48Z</time></trkpt><trkpt lat="44.34859003986503" lon="11.631128001193375"><ele>236.00000000000003</ele><time>2026-03-28T10:41:49Z</time></trkpt><trkpt lat="44.348597689817005" lon="11.631269991469136"><ele>236.00000000000003</ele><time>2026-03-28T10:41:50Z</time></trkpt><trkpt lat="44.34860846497425" lon="11.631413145615232"><ele>236.0</ele><time>2026-03-28T10:41:51Z</time></trkpt><trkpt lat="44.34862191180058" lon="11.631554540228125"><ele>236.0</ele><time>2026-03-28T10:41:52Z</time></trkpt><trkpt lat="44.348646777923086" lon="11.631689350593744"><ele>234.0</ele><time>2026-03-28T10:41:53Z</time></trkpt><trkpt lat="44.34866538400692" lon="11.631826004224054"><ele>232.00000000000003</ele><time>2026-03-28T10:41:54Z</time></trkpt><trkpt lat="44.34867972171326" lon="11.631960741799162"><ele>230.00000000000003</ele><time>2026-03-28T10:41:55Z</time></trkpt><trkpt lat="44.34868525632641" lon="11.632096895972486"><ele>228.0</ele><time>2026-03-28T10:41:56Z</time></trkpt><trkpt lat="44.348690128297896" lon="11.63223825712123"><ele>226.0</ele><time>2026-03-28T10:41:57Z</time></trkpt><trkpt lat="44.34869218743244" lon="11.632382432797588"><ele>224.20000000000002</ele><time>2026-03-28T10:41:58Z</time></trkpt><trkpt lat="44.34869620200193" lon="11.63253112330265"><ele>222.40000000000003</ele><time>2026-03-28T10:41:59Z</time></trkpt><trkpt lat="44.34869734660079" lon="11.632683143159289"><ele>220.6</ele><time>2026-03-28T10:42:00Z</time></trkpt><trkpt lat="44.348698491455494" lon="11.632830595635514"><ele>218.8</ele><time>2026-03-28T10:42:01Z</time></trkpt><trkpt lat="44.34870356446978" lon="11.632970544190282"><ele>217.0</ele><time>2026-03-28T10:42:02Z</time></trkpt><trkpt lat="44.348705182239826" lon="11.633102481292633"><ele>216.0</ele><time>2026-03-28T10:42:03Z</time></trkpt><trkpt lat="44.348708452817455" lon="11.63323068272288"><ele>215.0</ele><time>2026-03-28T10:42:04Z</time></trkpt><trkpt lat="44.3487164423128" lon="11.633360350123498"><ele>214.0</ele><time>2026-03-28T10:42:05Z</time></trkpt><trkpt lat="44.34873589432131" lon="11.63348607999645"><ele>213.0</ele><time>2026-03-28T10:42:06Z</time></trkpt><trkpt lat="44.34876041773521" lon="11.633610855446722"><ele>212.0</ele><time>2026-03-28T10:42:07Z</time></trkpt><trkpt lat="44.348778032146214" lon="11.633740706758124"><ele>210.8</ele><time>2026-03-28T10:42:08Z</time></trkpt><trkpt lat="44.348808895524414" lon="11.63387385329744"><ele>209.6</ele><time>2026-03-28T10:42:09Z</time></trkpt><trkpt lat="44.348831197391206" lon="11.634011491679521"><ele>208.4</ele><time>2026-03-28T10:42:10Z</time></trkpt><trkpt lat="44.34885092858869" lon="11.634156647118242"><ele>207.20000000000002</ele><time>2026-03-28T10:42:11Z</time></trkpt><trkpt lat="44.348868617798935" lon="11.63430176254576"><ele>206.0</ele><time>2026-03-28T10:42:12Z</time></trkpt><trkpt lat="44.348904405273224" lon="11.634443225783102"><ele>204.4</ele><time>2026-03-28T10:42:13Z</time></trkpt><trkpt lat="44.348935326811414" lon="11.634584558576279"><ele>202.8</ele><time>2026-03-28T10:42:14Z</time></trkpt><trkpt lat="44.34896460609036" lon="11.634723060102685"><ele>201.20000000000002</ele><time>2026-03-28T10:42:15Z</time></trkpt><trkpt lat="44.348989595227" lon="11.634861009536948"><ele>199.60000000000002</ele><time>2026-03-28T10:42:16Z</time></trkpt><trkpt lat="44.34901704788251" lon="11.63500076604781"><ele>198.0</ele><time>2026-03-28T10:42:17Z</time></trkpt><trkpt lat="44.349046007545155" lon="11.635138605851505"><ele>198.0</ele><time>2026-03-28T10:42:18Z</time></trkpt><trkpt lat="44.34907487099862" lon="11.635275280037028"><ele>198.0</ele><time>2026-03-28T10:42:19Z</time></trkpt><trkpt lat="44.34910156370605" lon="11.635412767606212"><ele>198.0</ele><time>2026-03-28T10:42:20Z</time></trkpt><trkpt lat="44.34912845032876" lon="11.635553605821693"><ele>198.0</ele><time>2026-03-28T10:42:21Z</time></trkpt><trkpt lat="44.34915789840104" lon="11.635694570917344"><ele>198.0</ele><time>2026-03-28T10:42:22Z</time></trkpt><trkpt lat="44.3491894950167" lon="11.635838333900109"><ele>198.0</ele><time>2026-03-28T10:42:23Z</time></trkpt><trkpt lat="44.349217972781396" lon="11.63598540429244"><ele>198.0</ele><time>2026-03-28T10:42:24Z</time></trkpt><trkpt lat="44.34924731951621" lon="11.636131162786185"><ele>198.0</ele><time>2026-03-28T10:42:25Z</time></trkpt><trkpt lat="44.34927644687499" lon="11.636276849808995"><ele>198.0</ele><time>2026-03-28T10:42:26Z</time></trkpt><trkpt lat="44.34930578049403" lon="11.636421330758562"><ele>198.0</ele><time>2026-03-28T10:42:27Z</time></trkpt><trkpt lat="44.34934355715082" lon="11.636562946689079"><ele>196.25</ele><time>2026-03-28T10:42:28Z</time></trkpt><trkpt lat="44.3493987659222" lon="11.636690448685151"><ele>194.5</ele><time>2026-03-28T10:42:29Z</time></trkpt><trkpt lat="44.34947005046628" lon="11.636811914316446"><ele>192.75</ele><time>2026-03-28T10:42:30Z</time></trkpt><trkpt lat="44.34954949026587" lon="11.636923215938577"><ele>191.0</ele><time>2026-03-28T10:42:31Z</time></trkpt><trkpt lat="44.349638518369375" lon="11.63703396172689"><ele>189.25</ele><time>2026-03-28T10:42:32Z</time></trkpt><trkpt lat="44.349726981869686" lon="11.637149833599906"><ele>187.5</ele><time>2026-03-28T10:42:33Z</time></trkpt><trkpt lat="44.349819200126966" lon="11.63726653241543"><ele>185.75</ele><time>2026-03-28T10:42:34Z</time></trkpt><trkpt lat="44.349911193951236" lon="11.637391957203103"><ele>184.0</ele><time>2026-03-28T10:42:35Z</time></trkpt><trkpt lat="44.3500067531407" lon="11.637515276591973"><ele>184.0</ele><time>2026-03-28T10:42:36Z</time></trkpt><trkpt lat="44.35009901873223" lon="11.637643079197337"><ele>184.0</ele><time>2026-03-28T10:42:37Z</time></trkpt><trkpt lat="44.35019557466937" lon="11.637773473236093"><ele>184.0</ele><time>2026-03-28T10:42:38Z</time></trkpt><trkpt lat="44.35029610964936" lon="11.637905522158475"><ele>184.0</ele><time>2026-03-28T10:42:39Z</time></trkpt><trkpt lat="44.350398847030434" lon="11.638039090586625"><ele>182.25</ele><time>2026-03-28T10:42:40Z</time></trkpt><trkpt lat="44.35050122927662" lon="11.638175168151912"><ele>180.5</ele><time>2026-03-28T10:42:41Z</time></trkpt><trkpt lat="44.350597679326754" lon="11.638323367460409"><ele>178.75</ele><time>2026-03-28T10:42:42Z</time></trkpt><trkpt lat="44.350688598406805" lon="11.638481774438624"><ele>177.0</ele><time>2026-03-28T10:42:43Z</time></trkpt><trkpt lat="44.35077853200147" lon="11.638658722251575"><ele>177.0</ele><time>2026-03-28T10:42:44Z</time></trkpt><trkpt lat="44.35086020400182" lon="11.638836422885715"><ele>177.0</ele><time>2026-03-28T10:42:45Z</time></trkpt><trkpt lat="44.350938297963935" lon="11.639007770498168"><ele>177.0</ele><time>2026-03-28T10:42:46Z</time></trkpt><trkpt lat="44.35100736963297" lon="11.63917636043818"><ele>177.0</ele><time>2026-03-28T10:42:47Z</time></trkpt><trkpt lat="44.35108249702308" lon="11.639337737572152"><ele>176.25</ele><time>2026-03-28T10:42:48Z</time></trkpt><trkpt lat="44.35115723475997" lon="11.639498698200805"><ele>175.5</ele><time>2026-03-28T10:42:49Z</time></trkpt><trkpt lat="44.35122818591119" lon="11.639662725051563"><ele>174.75</ele><time>2026-03-28T10:42:50Z</time></trkpt><trkpt lat="44.35129522922237" lon="11.63983367874414"><ele>174.0</ele><time>2026-03-28T10:42:51Z</time></trkpt><trkpt lat="44.351357095745925" lon="11.64001362521139"><ele>178.0</ele><time>2026-03-28T10:42:52Z</time></trkpt><trkpt lat="44.351413711717534" lon="11.640205483744529"><ele>182.0</ele><time>2026-03-28T10:42:53Z</time></trkpt><trkpt lat="44.351477799220454" lon="11.640400803992746"><ele>186.0</ele><time>2026-03-28T10:42:54Z</time></trkpt><trkpt lat="44.35154022049192" lon="11.640596868530043"><ele>186.0</ele><time>2026-03-28T10:42:55Z</time></trkpt><trkpt lat="44.35160502043037" lon="11.640792005056214"><ele>186.0</ele><time>2026-03-28T10:42:56Z</time></trkpt><trkpt lat="44.351675551628944" lon="11.640982264422389"><ele>186.0</ele><time>2026-03-28T10:42:57Z</time></trkpt><trkpt lat="44.3517484192472" lon="11.641172588828345"><ele>185.33333333333334</ele><time>2026-03-28T10:42:58Z</time></trkpt><trkpt lat="44.35182403328994" lon="11.641364558905009"><ele>184.66666666666669</ele><time>2026-03-28T10:42:59Z</time></trkpt><trkpt lat="44.35190070049923" lon="11.641553139104051"><ele>184.0</ele><time>2026-03-28T10:43:00Z</time></trkpt><trkpt lat="44.35198568079866" lon="11.641729844661299"><ele>184.0</ele><time>2026-03-28T10:43:01Z</time></trkpt><trkpt lat="44.352069923756936" lon="11.641891293439597"><ele>184.0</ele><time>2026-03-28T10:43:02Z</time></trkpt><trkpt lat="44.35215525331431" lon="11.642036791489183"><ele>184.0</ele><time>2026-03-28T10:43:03Z</time></trkpt><trkpt lat="44.35223912976348" lon="11.642162633686029"><ele>184.0</ele><time>2026-03-28T10:43:04Z</time></trkpt><trkpt lat="44.35232470284445" lon="11.642269640246955"><ele>186.25</ele><time>2026-03-28T10:43:05Z</time></trkpt><trkpt lat="44.35241569812048" lon="11.64236906570756"><ele>188.5</ele><time>2026-03-28T10:43:06Z</time></trkpt><trkpt lat="44.3525181451014" lon="11.642456243324348"><ele>190.75</ele><time>2026-03-28T10:43:07Z</time></trkpt><trkpt lat="44.352631804611036" lon="11.642544744911376"><ele>193.0</ele><time>2026-03-28T10:43:08Z</time></trkpt><trkpt lat="44.352753433255785" lon="11.642636030649285"><ele>193.0</ele><time>2026-03-28T10:43:09Z</time></trkpt><trkpt lat="44.3528772072836" lon="11.642732593979677"><ele>193.0</ele><time>2026-03-28T10:43:10Z</time></trkpt><trkpt lat="44.35300444784362" lon="11.642828743166914"><ele>193.0</ele><time>2026-03-28T10:43:11Z</time></trkpt><trkpt lat="44.35313550000381" lon="11.64292411849364"><ele>193.0</ele><time>2026-03-28T10:43:12Z</time></trkpt><trkpt lat="44.35326701769844" lon="11.643025038613219"><ele>191.5</ele><time>2026-03-28T10:43:13Z</time></trkpt><trkpt lat="44.35339880010291" lon="11.643120774523181"><ele>190.0</ele><time>2026-03-28T10:43:14Z</time></trkpt><trkpt lat="44.35353103516695" lon="11.643220923807217"><ele>188.5</ele><time>2026-03-28T10:43:15Z</time></trkpt><trkpt lat="44.35366188549383" lon="11.643319784039964"><ele>187.0</ele><time>2026-03-28T10:43:16Z</time></trkpt><trkpt lat="44.353793299891784" lon="11.643415261775802"><ele>185.25</ele><time>2026-03-28T10:43:17Z</time></trkpt><trkpt lat="44.35392358177277" lon="11.643512496125576"><ele>183.5</ele><time>2026-03-28T10:43:18Z</time></trkpt><trkpt lat="44.35405011101512" lon="11.64361505038405"><ele>181.75</ele><time>2026-03-28T10:43:19Z</time></trkpt><trkpt lat="44.354173827937075" lon="11.64372637491026"><ele>180.0</ele><time>2026-03-28T10:43:20Z</time></trkpt><trkpt lat="44.35429200951153" lon="11.643844019079042"><ele>180.0</ele><time>2026-03-28T10:43:21Z</time></trkpt><trkpt lat="44.35440701278972" lon="11.64396643992296"><ele>180.0</ele><time>2026-03-28T10:43:22Z</time></trkpt><trkpt lat="44.354516865185595" lon="11.644098431932829"><ele>180.0</ele><time>2026-03-28T10:43:23Z</time></trkpt><trkpt lat="44.354620943402864" lon="11.644237365828502"><ele>180.0</ele><time>2026-03-28T10:43:24Z</time></trkpt><trkpt lat="44.35471731780865" lon="11.644389325471476"><ele>178.33333333333334</ele><time>2026-03-28T10:43:25Z</time></trkpt><trkpt lat="44.354808290518434" lon="11.644554604320945"><ele>176.66666666666669</ele><time>2026-03-28T10:43:26Z</time></trkpt><trkpt lat="44.354894194095614" lon="11.644728147945509"><ele>175.0</ele><time>2026-03-28T10:43:27Z</time></trkpt><trkpt lat="44.35497676565762" lon="11.644908651671086"><ele>175.0</ele><time>2026-03-28T10:43:28Z</time></trkpt><trkpt lat="44.35505418695307" lon="11.64509949959794"><ele>175.0</ele><time>2026-03-28T10:43:29Z</time></trkpt><trkpt lat="44.355128402755575" lon="11.645290257025273"><ele>175.0</ele><time>2026-03-28T10:43:30Z</time></trkpt><trkpt lat="44.355191918357754" lon="11.645488666391648"><ele>174.33333333333334</ele><time>2026-03-28T10:43:31Z</time></trkpt><trkpt lat="44.35525315103261" lon="11.645690465435447"><ele>173.66666666666666</ele><time>2026-03-28T10:43:32Z</time></trkpt><trkpt lat="44.35531147624235" lon="11.645894624786633"><ele>173.0</ele><time>2026-03-28T10:43:33Z</time></trkpt><trkpt lat="44.35536642053626" lon="11.646100733915336"><ele>171.66666666666666</ele><time>2026-03-28T10:43:34Z</time></trkpt><trkpt lat="44.35541958033698" lon="11.646305715530254"><ele>170.33333333333334</ele><time>2026-03-28T10:43:35Z</time></trkpt><trkpt lat="44.35546933378194" lon="11.646511255150862"><ele>169.0</ele><time>2026-03-28T10:43:36Z</time></trkpt><trkpt lat="44.35551694534686" lon="11.646715115492023"><ele>169.0</ele><time>2026-03-28T10:43:37Z</time></trkpt><trkpt lat="44.3555611979763" lon="11.646917867361314"><ele>169.0</ele><time>2026-03-28T10:43:38Z</time></trkpt><trkpt lat="44.35561350578109" lon="11.647116503135708"><ele>169.0</ele><time>2026-03-28T10:43:39Z</time></trkpt><trkpt lat="44.35564814310013" lon="11.647324327895856"><ele>168.5</ele><time>2026-03-28T10:43:40Z</time></trkpt><trkpt lat="44.35568084459768" lon="11.647528437702345"><ele>168.0</ele><time>2026-03-28T10:43:41Z</time></trkpt><trkpt lat="44.35570821879078" lon="11.647732012755412"><ele>167.5</ele><time>2026-03-28T10:43:42Z</time></trkpt><trkpt lat="44.355731973790014" lon="11.647936279854834"><ele>167.0</ele><time>2026-03-28T10:43:43Z</time></trkpt><trkpt lat="44.355753894220236" lon="11.648140485409485"><ele>166.75</ele><time>2026-03-28T10:43:44Z</time></trkpt><trkpt lat="44.355762670113954" lon="11.648345935459037"><ele>166.5</ele><time>2026-03-28T10:43:45Z</time></trkpt><trkpt lat="44.35575974033532" lon="11.648551313379146"><ele>166.25</ele><time>2026-03-28T10:43:46Z</time></trkpt><trkpt lat="44.35573754531536" lon="11.648752819752056"><ele>166.0</ele><time>2026-03-28T10:43:47Z</time></trkpt><trkpt lat="44.355698530574095" lon="11.648947830349583"><ele>165.5</ele><time>2026-03-28T10:43:48Z</time></trkpt><trkpt lat="44.35565229078563" lon="11.649131983094298"><ele>165.0</ele><time>2026-03-28T10:43:49Z</time></trkpt><trkpt lat="44.355609837008174" lon="11.649317360392184"><ele>164.5</ele><time>2026-03-28T10:43:50Z</time></trkpt><trkpt lat="44.35556775032177" lon="11.64950426125005"><ele>164.0</ele><time>2026-03-28T10:43:51Z</time></trkpt><trkpt lat="44.355534285824106" lon="11.649692790836102"><ele>163.25</ele><time>2026-03-28T10:43:52Z</time></trkpt><trkpt lat="44.35551470943778" lon="11.649886152143022"><ele>162.5</ele><time>2026-03-28T10:43:53Z</time></trkpt><trkpt lat="44.355511303702" lon="11.6500814630139"><ele>161.75</ele><time>2026-03-28T10:43:54Z</time></trkpt><trkpt lat="44.35551604643462" lon="11.650277217502824"><ele>161.0</ele><time>2026-03-28T10:43:55Z</time></trkpt><trkpt lat="44.355542422220566" lon="11.650472491093431"><ele>161.0</ele><time>2026-03-28T10:43:56Z</time></trkpt><trkpt lat="44.355547410961854" lon="11.65067311799474"><ele>161.0</ele><time>2026-03-28T10:43:57Z</time></trkpt><trkpt lat="44.35559011751392" lon="11.650861362140322"><ele>161.0</ele><time>2026-03-28T10:43:58Z</time></trkpt><trkpt lat="44.355624785235435" lon="11.651048612092227"><ele>161.0</ele><time>2026-03-28T10:43:59Z</time></trkpt><trkpt lat="44.35567595725378" lon="11.651224517325767"><ele>160.5</ele><time>2026-03-28T10:44:00Z</time></trkpt><trkpt lat="44.355746609490296" lon="11.651387736777563"><ele>160.0</ele><time>2026-03-28T10:44:01Z</time></trkpt><trkpt lat="44.355833638892484" lon="11.651537050196357"><ele>159.5</ele><time>2026-03-28T10:44:02Z</time></trkpt><trkpt lat="44.35593419144913" lon="11.65167252549779"><ele>159.0</ele><time>2026-03-28T10:44:03Z</time></trkpt><trkpt lat="44.35604000239597" lon="11.65180259487931"><ele>159.0</ele><time>2026-03-28T10:44:04Z</time></trkpt><trkpt lat="44.35614752967788" lon="11.651933481843454"><ele>159.0</ele><time>2026-03-28T10:44:05Z</time></trkpt><trkpt lat="44.35625520144012" lon="11.65207016695142"><ele>159.0</ele><time>2026-03-28T10:44:06Z</time></trkpt><trkpt lat="44.35635784101584" lon="11.652214972231855"><ele>159.0</ele><time>2026-03-28T10:44:07Z</time></trkpt><trkpt lat="44.35645075480177" lon="11.652370746719184"><ele>156.5</ele><time>2026-03-28T10:44:08Z</time></trkpt><trkpt lat="44.35653444843517" lon="11.652528812468283"><ele>154.0</ele><time>2026-03-28T10:44:09Z</time></trkpt><trkpt lat="44.35661650823575" lon="11.652684042826047"><ele>151.5</ele><time>2026-03-28T10:44:10Z</time></trkpt><trkpt lat="44.35670332713493" lon="11.652832723686371"><ele>149.0</ele><time>2026-03-28T10:44:11Z</time></trkpt><trkpt lat="44.35679916439015" lon="11.65296410378464"><ele>148.0</ele><time>2026-03-28T10:44:12Z</time></trkpt><trkpt lat="44.35690043471123" lon="11.653096861116843"><ele>147.0</ele><time>2026-03-28T10:44:13Z</time></trkpt><trkpt lat="44.35702585049733" lon="11.653193322204308"><ele>146.0</ele><time>2026-03-28T10:44:14Z</time></trkpt><trkpt lat="44.35713826254803" lon="11.653323094649835"><ele>145.0</ele><time>2026-03-28T10:44:15Z</time></trkpt><trkpt lat="44.35723930341968" lon="11.653473032280244"><ele>143.25</ele><time>2026-03-28T10:44:16Z</time></trkpt><trkpt lat="44.35732728737614" lon="11.653636781692011"><ele>141.5</ele><time>2026-03-28T10:44:17Z</time></trkpt><trkpt lat="44.35740735470222" lon="11.653806538089245"><ele>139.75</ele><time>2026-03-28T10:44:18Z</time></trkpt><trkpt lat="44.357482041565845" lon="11.653980447401008"><ele>138.0</ele><time>2026-03-28T10:44:19Z</time></trkpt><trkpt lat="44.35755891822986" lon="11.654152324976147"><ele>138.0</ele><time>2026-03-28T10:44:20Z</time></trkpt><trkpt lat="44.35763842914431" lon="11.654325615011544"><ele>138.0</ele><time>2026-03-28T10:44:21Z</time></trkpt><trkpt lat="44.357721855258895" lon="11.654499462158658"><ele>138.0</ele><time>2026-03-28T10:44:22Z</time></trkpt><trkpt lat="44.35780884249123" lon="11.654673637761306"><ele>138.0</ele><time>2026-03-28T10:44:23Z</time></trkpt><trkpt lat="44.35789760013699" lon="11.65484707030252"><ele>135.66666666666666</ele><time>2026-03-28T10:44:24Z</time></trkpt><trkpt lat="44.35798658687246" lon="11.655020064918363"><ele>133.33333333333331</ele><time>2026-03-28T10:44:25Z</time></trkpt><trkpt lat="44.35807483824863" lon="11.655193002990623"><ele>131.0</ele><time>2026-03-28T10:44:26Z</time></trkpt><trkpt lat="44.35816331824849" lon="11.655367429549996"><ele>130.0</ele><time>2026-03-28T10:44:27Z</time></trkpt><trkpt lat="44.35825062616873" lon="11.65553878297609"><ele>129.0</ele><time>2026-03-28T10:44:28Z</time></trkpt><trkpt lat="44.358340872292956" lon="11.655703670844325"><ele>128.0</ele><time>2026-03-28T10:44:29Z</time></trkpt><trkpt lat="44.35844402855231" lon="11.655855416452779"><ele>127.0</ele><time>2026-03-28T10:44:30Z</time></trkpt><trkpt lat="44.358546431401976" lon="11.656013650127028"><ele>126.66666666666667</ele><time>2026-03-28T10:44:31Z</time></trkpt><trkpt lat="44.35867489176487" lon="11.656144630211248"><ele>126.33333333333334</ele><time>2026-03-28T10:44:32Z</time></trkpt><trkpt lat="44.35880220730558" lon="11.656275092440866"><ele>126.0</ele><time>2026-03-28T10:44:33Z</time></trkpt><trkpt lat="44.35892748717591" lon="11.656410246029829"><ele>122.33333333333334</ele><time>2026-03-28T10:44:34Z</time></trkpt><trkpt lat="44.359050203978555" lon="11.656553700553092"><ele>118.66666666666667</ele><time>2026-03-28T10:44:35Z</time></trkpt><trkpt lat="44.359174116161455" lon="11.656700557146296"><ele>115.0</ele><time>2026-03-28T10:44:36Z</time></trkpt><trkpt lat="44.35929761418824" lon="11.656848100199289"><ele>115.66666666666667</ele><time>2026-03-28T10:44:37Z</time></trkpt><trkpt lat="44.359419142950564" lon="11.657001595656212"><ele>116.33333333333334</ele><time>2026-03-28T10:44:38Z</time></trkpt><trkpt lat="44.35953983877264" lon="11.65715738773175"><ele>117.0</ele><time>2026-03-28T10:44:39Z</time></trkpt><trkpt lat="44.359661943042525" lon="11.657310138025215"><ele>114.66666666666666</ele><time>2026-03-28T10:44:40Z</time></trkpt><trkpt lat="44.359784452308475" lon="11.657463923308807"><ele>112.33333333333333</ele><time>2026-03-28T10:44:41Z</time></trkpt><trkpt lat="44.35990679651933" lon="11.657613573542768"><ele>110.0</ele><time>2026-03-28T10:44:42Z</time></trkpt><trkpt lat="44.360026525788356" lon="11.657760224087937"><ele>109.33333333333333</ele><time>2026-03-28T10:44:43Z</time></trkpt><trkpt lat="44.36014595343453" lon="11.657907481790122"><ele>108.66666666666666</ele><time>2026-03-28T10:44:44Z</time></trkpt><trkpt lat="44.36026407080364" lon="11.65805345063461"><ele>108.0</ele><time>2026-03-28T10:44:45Z</time></trkpt><trkpt lat="44.36037636299595" lon="11.658207245816131"><ele>108.0</ele><time>2026-03-28T10:44:46Z</time></trkpt><trkpt lat="44.36048481447817" lon="11.658369322504901"><ele>108.0</ele><time>2026-03-28T10:44:47Z</time></trkpt><trkpt lat="44.36058805082142" lon="11.65853719215319"><ele>108.0</ele><time>2026-03-28T10:44:48Z</time></trkpt><trkpt lat="44.360692497625145" lon="11.658706826027112"><ele>107.0</ele><time>2026-03-28T10:44:49Z</time></trkpt><trkpt lat="44.36079226458296" lon="11.65887971663773"><ele>106.0</ele><time>2026-03-28T10:44:50Z</time></trkpt><trkpt lat="44.36089227273234" lon="11.65905480087346"><ele>105.0</ele><time>2026-03-28T10:44:51Z</time></trkpt><trkpt lat="44.360987251195105" lon="11.659235221854063"><ele>105.0</ele><time>2026-03-28T10:44:52Z</time></trkpt><trkpt lat="44.361077217228654" lon="11.659416224372652"><ele>105.0</ele><time>2026-03-28T10:44:53Z</time></trkpt><trkpt lat="44.361165724202216" lon="11.659600614915798"><ele>105.0</ele><time>2026-03-28T10:44:54Z</time></trkpt><trkpt lat="44.361243904591475" lon="11.659789309656503"><ele>104.0</ele><time>2026-03-28T10:44:55Z</time></trkpt><trkpt lat="44.361316428769946" lon="11.659982254680198"><ele>103.0</ele><time>2026-03-28T10:44:56Z</time></trkpt><trkpt lat="44.361375476233285" lon="11.66018588045663"><ele>102.0</ele><time>2026-03-28T10:44:57Z</time></trkpt><trkpt lat="44.36141999043129" lon="11.660398121060613"><ele>102.0</ele><time>2026-03-28T10:44:58Z</time></trkpt><trkpt lat="44.361456159236525" lon="11.660608571436983"><ele>102.0</ele><time>2026-03-28T10:44:59Z</time></trkpt><trkpt lat="44.36149369304196" lon="11.660827846723514"><ele>102.0</ele><time>2026-03-28T10:45:00Z</time></trkpt><trkpt lat="44.36153082138594" lon="11.661039958941075"><ele>101.33333333333334</ele><time>2026-03-28T10:45:01Z</time></trkpt><trkpt lat="44.36156918110971" lon="11.661256322655422"><ele>100.66666666666667</ele><time>2026-03-28T10:45:02Z</time></trkpt><trkpt lat="44.36160639649344" lon="11.661470745740779"><ele>100.0</ele><time>2026-03-28T10:45:03Z</time></trkpt><trkpt lat="44.36164316481763" lon="11.66168640816574"><ele>100.0</ele><time>2026-03-28T10:45:04Z</time></trkpt><trkpt lat="44.3616783340038" lon="11.661900047814306"><ele>100.0</ele><time>2026-03-28T10:45:05Z</time></trkpt><trkpt lat="44.361712806924636" lon="11.66211045521057"><ele>100.0</ele><time>2026-03-28T10:45:06Z</time></trkpt><trkpt lat="44.36174624279754" lon="11.662314901575527"><ele>99.25</ele><time>2026-03-28T10:45:07Z</time></trkpt><trkpt lat="44.361781386298155" lon="11.662516839562224"><ele>98.5</ele><time>2026-03-28T10:45:08Z</time></trkpt><trkpt lat="44.36181055762215" lon="11.662717898006905"><ele>97.75</ele><time>2026-03-28T10:45:09Z</time></trkpt><trkpt lat="44.361839414229394" lon="11.662916231445605"><ele>97.0</ele><time>2026-03-28T10:45:10Z</time></trkpt><trkpt lat="44.36186883362156" lon="11.663107855308303"><ele>96.75</ele><time>2026-03-28T10:45:11Z</time></trkpt><trkpt lat="44.36189817992863" lon="11.663298780245082"><ele>96.5</ele><time>2026-03-28T10:45:12Z</time></trkpt><trkpt lat="44.36194046529659" lon="11.663476569529214"><ele>96.25</ele><time>2026-03-28T10:45:13Z</time></trkpt><trkpt lat="44.361998593818015" lon="11.663643395795873"><ele>96.0</ele><time>2026-03-28T10:45:14Z</time></trkpt><trkpt lat="44.3620706702428" lon="11.663783188692921"><ele>95.8</ele><time>2026-03-28T10:45:15Z</time></trkpt><trkpt lat="44.36214664348204" lon="11.663896575239045"><ele>95.6</ele><time>2026-03-28T10:45:16Z</time></trkpt><trkpt lat="44.36221865195844" lon="11.663978036755806"><ele>95.4</ele><time>2026-03-28T10:45:17Z</time></trkpt><trkpt lat="44.3622903813894" lon="11.664042417055123"><ele>95.2</ele><time>2026-03-28T10:45:18Z</time></trkpt><trkpt lat="44.36236480548468" lon="11.664098507423146"><ele>95.0</ele><time>2026-03-28T10:45:19Z</time></trkpt><trkpt lat="44.36245687670282" lon="11.664137468250946"><ele>94.83333333333334</ele><time>2026-03-28T10:45:20Z</time></trkpt><trkpt lat="44.362546575549885" lon="11.664174038221564"><ele>94.66666666666667</ele><time>2026-03-28T10:45:21Z</time></trkpt><trkpt lat="44.36263206582003" lon="11.664208988799869"><ele>94.5</ele><time>2026-03-28T10:45:23Z</time></trkpt><trkpt lat="44.36256159659565" lon="11.66418569835224"><ele>94.33333333333333</ele><time>2026-03-28T10:45:38Z</time></trkpt><trkpt lat="44.362500048262746" lon="11.664141146825234"><ele>94.16666666666666</ele><time>2026-03-28T10:45:45Z</time></trkpt><trkpt lat="44.3624316780553" lon="11.664116396209188"><ele>94.0</ele><time>2026-03-28T10:45:50Z</time></trkpt><trkpt lat="44.36240454627493" lon="11.66420753046588"><ele>94.0</ele><time>2026-03-28T10:45:56Z</time></trkpt><trkpt lat="44.36242655561477" lon="11.664293793484115"><ele>94.0</ele><time>2026-03-28T10:45:58Z</time></trkpt><trkpt lat="44.36247358759306" lon="11.664460649451721"><ele>94.0</ele><time>2026-03-28T10:46:00Z</time></trkpt><trkpt lat="44.36250561968182" lon="11.66457605366325"><ele>94.0</ele><time>2026-03-28T10:46:01Z</time></trkpt><trkpt lat="44.36253886909733" lon="11.664687401626331"><ele>94.0</ele><time>2026-03-28T10:46:02Z</time></trkpt><trkpt lat="44.36257554338246" lon="11.66480975373451"><ele>94.0</ele><time>2026-03-28T10:46:03Z</time></trkpt><trkpt lat="44.362614542648416" lon="11.664946031280063"><ele>94.0</ele><time>2026-03-28T10:46:04Z</time></trkpt><trkpt lat="44.36265954578148" lon="11.665098510471939"><ele>94.0</ele><time>2026-03-28T10:46:05Z</time></trkpt><trkpt lat="44.36270836439568" lon="11.665264458281264"><ele>94.0</ele><time>2026-03-28T10:46:06Z</time></trkpt><trkpt lat="44.36276021251043" lon="11.665433484567396"><ele>94.0</ele><time>2026-03-28T10:46:07Z</time></trkpt><trkpt lat="44.36281721480487" lon="11.665586892711575"><ele>94.0</ele><time>2026-03-28T10:46:08Z</time></trkpt><trkpt lat="44.36288513804255" lon="11.66573160291383"><ele>94.0</ele><time>2026-03-28T10:46:09Z</time></trkpt><trkpt lat="44.362971079101996" lon="11.665851191794616"><ele>94.0</ele><time>2026-03-28T10:46:10Z</time></trkpt><trkpt lat="44.36304589780112" lon="11.665991057500158"><ele>93.25</ele><time>2026-03-28T10:46:11Z</time></trkpt><trkpt lat="44.36312654063258" lon="11.666130461703004"><ele>92.5</ele><time>2026-03-28T10:46:12Z</time></trkpt><trkpt lat="44.36320678129585" lon="11.666274248595636"><ele>91.75</ele><time>2026-03-28T10:46:13Z</time></trkpt><trkpt lat="44.36328928647723" lon="11.666416925282586"><ele>91.0</ele><time>2026-03-28T10:46:14Z</time></trkpt><trkpt lat="44.36336915625558" lon="11.66656101417814"><ele>91.0</ele><time>2026-03-28T10:46:15Z</time></trkpt><trkpt lat="44.36345094781552" lon="11.66671050268694"><ele>91.0</ele><time>2026-03-28T10:46:16Z</time></trkpt><trkpt lat="44.36352752063422" lon="11.666862392546403"><ele>91.0</ele><time>2026-03-28T10:46:17Z</time></trkpt><trkpt lat="44.36359594234525" lon="11.667024902093244"><ele>91.0</ele><time>2026-03-28T10:46:18Z</time></trkpt><trkpt lat="44.3636575964656" lon="11.667190002374852"><ele>90.75</ele><time>2026-03-28T10:46:19Z</time></trkpt><trkpt lat="44.36370330561655" lon="11.667359603794822"><ele>90.5</ele><time>2026-03-28T10:46:20Z</time></trkpt><trkpt lat="44.36372731071842" lon="11.667539516932129"><ele>90.25</ele><time>2026-03-28T10:46:21Z</time></trkpt><trkpt lat="44.36373827051845" lon="11.66771893677978"><ele>90.0</ele><time>2026-03-28T10:46:22Z</time></trkpt><trkpt lat="44.3637459092824" lon="11.667906865149847"><ele>89.5</ele><time>2026-03-28T10:46:23Z</time></trkpt><trkpt lat="44.363743493510746" lon="11.668103405193012"><ele>89.0</ele><time>2026-03-28T10:46:24Z</time></trkpt><trkpt lat="44.36373466082876" lon="11.668300080522753"><ele>88.5</ele><time>2026-03-28T10:46:25Z</time></trkpt><trkpt lat="44.36371892628904" lon="11.668501950626538"><ele>88.0</ele><time>2026-03-28T10:46:26Z</time></trkpt><trkpt lat="44.36370930701865" lon="11.668699259724844"><ele>88.0</ele><time>2026-03-28T10:46:27Z</time></trkpt><trkpt lat="44.363698711676484" lon="11.668899122653315"><ele>88.0</ele><time>2026-03-28T10:46:28Z</time></trkpt><trkpt lat="44.36368564636828" lon="11.66909879792313"><ele>88.0</ele><time>2026-03-28T10:46:29Z</time></trkpt><trkpt lat="44.363668623866474" lon="11.669299173271238"><ele>88.0</ele><time>2026-03-28T10:46:30Z</time></trkpt><trkpt lat="44.363649487356724" lon="11.669491796609954"><ele>88.0</ele><time>2026-03-28T10:46:31Z</time></trkpt><trkpt lat="44.363625508249804" lon="11.66967706162007"><ele>88.0</ele><time>2026-03-28T10:46:32Z</time></trkpt><trkpt lat="44.363599653208745" lon="11.669858416592339"><ele>88.0</ele><time>2026-03-28T10:46:33Z</time></trkpt><trkpt lat="44.36357264079674" lon="11.670040751653826"><ele>88.0</ele><time>2026-03-28T10:46:34Z</time></trkpt><trkpt lat="44.36354713477543" lon="11.670228345784603"><ele>87.25</ele><time>2026-03-28T10:46:35Z</time></trkpt><trkpt lat="44.363529559188066" lon="11.670421997687093"><ele>86.5</ele><time>2026-03-28T10:46:36Z</time></trkpt><trkpt lat="44.36352358464952" lon="11.670620492267213"><ele>85.75</ele><time>2026-03-28T10:46:37Z</time></trkpt><trkpt lat="44.363525715594264" lon="11.67082058477078"><ele>85.0</ele><time>2026-03-28T10:46:38Z</time></trkpt><trkpt lat="44.36352847536512" lon="11.671026059709138"><ele>85.0</ele><time>2026-03-28T10:46:39Z</time></trkpt><trkpt lat="44.363532250292636" lon="11.67123457973713"><ele>85.0</ele><time>2026-03-28T10:46:40Z</time></trkpt><trkpt lat="44.363536676275544" lon="11.67145629048694"><ele>85.0</ele><time>2026-03-28T10:46:41Z</time></trkpt><trkpt lat="44.363537044877994" lon="11.671676094848925"><ele>85.0</ele><time>2026-03-28T10:46:42Z</time></trkpt><trkpt lat="44.36353707199493" lon="11.671892726832446"><ele>85.0</ele><time>2026-03-28T10:46:43Z</time></trkpt><trkpt lat="44.36353661333711" lon="11.67210855558394"><ele>85.0</ele><time>2026-03-28T10:46:44Z</time></trkpt><trkpt lat="44.36353698736408" lon="11.672338360728128"><ele>84.66666666666666</ele><time>2026-03-28T10:46:45Z</time></trkpt><trkpt lat="44.363532424815475" lon="11.67256043376932"><ele>84.33333333333333</ele><time>2026-03-28T10:46:46Z</time></trkpt><trkpt lat="44.36352735719408" lon="11.67279744398047"><ele>84.0</ele><time>2026-03-28T10:46:47Z</time></trkpt><trkpt lat="44.36352199082227" lon="11.673026657374773"><ele>83.33333333333333</ele><time>2026-03-28T10:46:48Z</time></trkpt><trkpt lat="44.3635133119554" lon="11.673247627817268"><ele>82.66666666666666</ele><time>2026-03-28T10:46:49Z</time></trkpt><trkpt lat="44.36350145502032" lon="11.673465283057054"><ele>82.0</ele><time>2026-03-28T10:46:50Z</time></trkpt><trkpt lat="44.36348189326323" lon="11.673675446275826"><ele>81.5</ele><time>2026-03-28T10:46:51Z</time></trkpt><trkpt lat="44.3634566304089" lon="11.673877248133346"><ele>81.0</ele><time>2026-03-28T10:46:52Z</time></trkpt><trkpt lat="44.36343174008057" lon="11.674077715276436"><ele>80.5</ele><time>2026-03-28T10:46:53Z</time></trkpt><trkpt lat="44.36340824911478" lon="11.674268724871112"><ele>80.0</ele><time>2026-03-28T10:46:54Z</time></trkpt><trkpt lat="44.36339079963688" lon="11.674468623454159"><ele>79.66666666666667</ele><time>2026-03-28T10:46:55Z</time></trkpt><trkpt lat="44.36338959755688" lon="11.674672987592619"><ele>79.33333333333333</ele><time>2026-03-28T10:46:56Z</time></trkpt><trkpt lat="44.36340411372405" lon="11.67488289479601"><ele>79.0</ele><time>2026-03-28T10:46:57Z</time></trkpt><trkpt lat="44.36342982330887" lon="11.675096025194767"><ele>78.66666666666666</ele><time>2026-03-28T10:46:58Z</time></trkpt><trkpt lat="44.363463352125414" lon="11.675320043617587"><ele>78.33333333333333</ele><time>2026-03-28T10:46:59Z</time></trkpt><trkpt lat="44.36349683975256" lon="11.675532972260799"><ele>78.0</ele><time>2026-03-28T10:47:00Z</time></trkpt><trkpt lat="44.3635240234982" lon="11.675750848112466"><ele>78.0</ele><time>2026-03-28T10:47:01Z</time></trkpt><trkpt lat="44.363548123798616" lon="11.675970592763186"><ele>78.0</ele><time>2026-03-28T10:47:02Z</time></trkpt><trkpt lat="44.363567037925044" lon="11.676183683352823"><ele>78.0</ele><time>2026-03-28T10:47:03Z</time></trkpt><trkpt lat="44.36358664015781" lon="11.67640212283753"><ele>77.66666666666667</ele><time>2026-03-28T10:47:04Z</time></trkpt><trkpt lat="44.36360469719945" lon="11.676620400569396"><ele>77.33333333333334</ele><time>2026-03-28T10:47:05Z</time></trkpt><trkpt lat="44.36362197437152" lon="11.676833105967905"><ele>77.0</ele><time>2026-03-28T10:47:06Z</time></trkpt><trkpt lat="44.36363780795406" lon="11.677042618651372"><ele>76.33333333333334</ele><time>2026-03-28T10:47:07Z</time></trkpt><trkpt lat="44.36365472627538" lon="11.677251320514687"><ele>75.66666666666667</ele><time>2026-03-28T10:47:08Z</time></trkpt><trkpt lat="44.36368595889527" lon="11.677459661430401"><ele>75.0</ele><time>2026-03-28T10:47:09Z</time></trkpt><trkpt lat="44.36372856714056" lon="11.677658402867598"><ele>75.0</ele><time>2026-03-28T10:47:10Z</time></trkpt><trkpt lat="44.36378116620246" lon="11.677849181974896"><ele>75.0</ele><time>2026-03-28T10:47:11Z</time></trkpt><trkpt lat="44.36384500176247" lon="11.678032923732408"><ele>75.0</ele><time>2026-03-28T10:47:12Z</time></trkpt><trkpt lat="44.363909245843615" lon="11.67820598963558"><ele>75.0</ele><time>2026-03-28T10:47:13Z</time></trkpt><trkpt lat="44.36397189719986" lon="11.67837528498507"><ele>74.5</ele><time>2026-03-28T10:47:14Z</time></trkpt><trkpt lat="44.36401979373355" lon="11.678545274235638"><ele>74.0</ele><time>2026-03-28T10:47:15Z</time></trkpt><trkpt lat="44.36404173654812" lon="11.67872377207552"><ele>73.5</ele><time>2026-03-28T10:47:16Z</time></trkpt><trkpt lat="44.36404449753923" lon="11.678910492405112"><ele>73.0</ele><time>2026-03-28T10:47:17Z</time></trkpt><trkpt lat="44.3640101023924" lon="11.679067786240214"><ele>72.33333333333333</ele><time>2026-03-28T10:47:18Z</time></trkpt><trkpt lat="44.363872616671564" lon="11.679372242237244"><ele>71.66666666666667</ele><time>2026-03-28T10:47:20Z</time></trkpt><trkpt lat="44.36379922091066" lon="11.679523046828447"><ele>71.0</ele><time>2026-03-28T10:47:21Z</time></trkpt><trkpt lat="44.36373509905907" lon="11.679679659539799"><ele>71.75</ele><time>2026-03-28T10:47:22Z</time></trkpt><trkpt lat="44.36367873118718" lon="11.679841680480974"><ele>72.5</ele><time>2026-03-28T10:47:23Z</time></trkpt><trkpt lat="44.36363592715723" lon="11.680008314379506"><ele>73.25</ele><time>2026-03-28T10:47:24Z</time></trkpt><trkpt lat="44.36360756413318" lon="11.68017893733982"><ele>74.0</ele><time>2026-03-28T10:47:25Z</time></trkpt><trkpt lat="44.36358727120575" lon="11.680360290911535"><ele>74.0</ele><time>2026-03-28T10:47:26Z</time></trkpt><trkpt lat="44.363574462024474" lon="11.68054529191905"><ele>74.0</ele><time>2026-03-28T10:47:27Z</time></trkpt><trkpt lat="44.36355716374293" lon="11.680737220449464"><ele>74.0</ele><time>2026-03-28T10:47:28Z</time></trkpt><trkpt lat="44.363539044203456" lon="11.680934488806509"><ele>74.0</ele><time>2026-03-28T10:47:29Z</time></trkpt><trkpt lat="44.36351721951879" lon="11.681136793914833"><ele>73.25</ele><time>2026-03-28T10:47:30Z</time></trkpt><trkpt lat="44.36349369210135" lon="11.681341544863404"><ele>72.5</ele><time>2026-03-28T10:47:31Z</time></trkpt><trkpt lat="44.36346650914187" lon="11.68154707746243"><ele>71.75</ele><time>2026-03-28T10:47:32Z</time></trkpt><trkpt lat="44.363434835763364" lon="11.681747626004288"><ele>71.0</ele><time>2026-03-28T10:47:33Z</time></trkpt><trkpt lat="44.363402627907554" lon="11.681939380319251"><ele>70.75</ele><time>2026-03-28T10:47:34Z</time></trkpt><trkpt lat="44.36337182779802" lon="11.682126104073019"><ele>70.5</ele><time>2026-03-28T10:47:35Z</time></trkpt><trkpt lat="44.36334625219368" lon="11.682302961131654"><ele>70.25</ele><time>2026-03-28T10:47:36Z</time></trkpt><trkpt lat="44.36333781914651" lon="11.682456781580907"><ele>70.0</ele><time>2026-03-28T10:47:37Z</time></trkpt><trkpt lat="44.36335654959073" lon="11.682598592875289"><ele>70.0</ele><time>2026-03-28T10:47:38Z</time></trkpt><trkpt lat="44.363405824538695" lon="11.6827246190656"><ele>70.0</ele><time>2026-03-28T10:47:39Z</time></trkpt><trkpt lat="44.363485158649006" lon="11.68283250737495"><ele>70.0</ele><time>2026-03-28T10:47:40Z</time></trkpt><trkpt lat="44.363581576858756" lon="11.682925970366414"><ele>70.0</ele><time>2026-03-28T10:47:41Z</time></trkpt><trkpt lat="44.36368964706172" lon="11.683010004911145"><ele>70.25</ele><time>2026-03-28T10:47:42Z</time></trkpt><trkpt lat="44.36380340510099" lon="11.683101490072277"><ele>70.5</ele><time>2026-03-28T10:47:43Z</time></trkpt><trkpt lat="44.36391839280466" lon="11.683197120723086"><ele>70.75</ele><time>2026-03-28T10:47:44Z</time></trkpt><trkpt lat="44.36403077483335" lon="11.683295519753093"><ele>71.0</ele><time>2026-03-28T10:47:45Z</time></trkpt><trkpt lat="44.36414243212197" lon="11.683387152558941"><ele>71.0</ele><time>2026-03-28T10:47:46Z</time></trkpt><trkpt lat="44.364251793521575" lon="11.68347759388243"><ele>71.0</ele><time>2026-03-28T10:47:47Z</time></trkpt><trkpt lat="44.364355575216564" lon="11.683564366486431"><ele>71.0</ele><time>2026-03-28T10:47:48Z</time></trkpt><trkpt lat="44.36446060368595" lon="11.68364499390481"><ele>71.0</ele><time>2026-03-28T10:47:49Z</time></trkpt><trkpt lat="44.364560648542664" lon="11.683730428958489"><ele>70.6</ele><time>2026-03-28T10:47:50Z</time></trkpt><trkpt lat="44.36465525887942" lon="11.683809940701723"><ele>70.19999999999999</ele><time>2026-03-28T10:47:51Z</time></trkpt><trkpt lat="44.36474062571407" lon="11.683878658930311"><ele>69.80000000000001</ele><time>2026-03-28T10:47:52Z</time></trkpt><trkpt lat="44.364815239741255" lon="11.683942393842946"><ele>69.4</ele><time>2026-03-28T10:47:53Z</time></trkpt><trkpt lat="44.364885563885565" lon="11.683998621224083"><ele>69.0</ele><time>2026-03-28T10:47:54Z</time></trkpt><trkpt lat="44.36495355454176" lon="11.684049880752921"><ele>69.0</ele><time>2026-03-28T10:47:55Z</time></trkpt><trkpt lat="44.36504128007641" lon="11.684128314825063"><ele>69.0</ele><time>2026-03-28T10:47:57Z</time></trkpt><trkpt lat="44.36509654418527" lon="11.684182506408598"><ele>69.0</ele><time>2026-03-28T10:48:00Z</time></trkpt></trkseg></trk></gpx>